GFSSE_sfc_wetblb_000.txt.gz
Wetbulb
66.67 71.12 75.50 74.82 74.39 73.44 72.64 71.17 70.29 69.16 68.28 68.83 68.51 68.89 69.01 68.00 67.15 67.39 68.00 67.03 67.85 66.95 65.95 67.27 67.84 68.86 69.72 69.52 68.93 67.95 67.47 66.04 65.40 65.32 65.13 65.79 65.74 66.37 66.60 68.35 67.38 65.09 67.22
68.90 71.96 75.06 74.75 74.05 73.38 72.63 71.06 70.06 68.83 68.00 68.01 67.51 67.43 67.24 66.85 66.62 66.93 67.38 67.14 66.52 66.11 65.25 65.63 66.73 66.72 66.81 67.52 67.26 66.99 67.17 65.79 64.89 64.74 65.08 65.21 65.85 66.18 66.84 67.15 65.88 64.79 67.75
70.63 72.46 73.19 74.48 73.78 73.55 72.68 70.81 69.94 69.18 67.85 67.38 67.26 67.00 67.42 67.01 67.67 67.89 67.69 67.17 66.52 65.92 64.86 64.64 64.39 64.20 65.02 65.44 66.08 66.41 66.34 65.55 65.03 65.07 65.35 62.48 61.96 65.63 67.04 66.93 66.39 66.23 66.76
71.42 72.34 72.48 74.58 74.12 73.59 72.19 70.85 69.99 69.17 68.33 67.25 66.96 66.95 66.98 67.68 67.77 67.34 67.63 66.30 66.13 65.77 64.76 64.27 64.08 63.24 63.74 64.89 65.58 65.94 65.92 65.84 65.71 65.93 62.74 62.32 62.28 65.54 67.22 67.34 67.21 66.53 66.57
70.81 71.68 72.68 74.67 74.68 73.86 72.28 70.95 70.10 69.28 68.30 67.12 66.98 66.51 67.39 68.05 69.03 68.36 68.22 67.13 66.90 66.35 65.11 64.50 64.47 64.74 64.92 64.49 64.51 64.74 65.70 65.98 66.58 65.67 61.69 61.16 60.52 63.65 67.37 67.60 66.78 66.96 66.82
69.21 70.31 73.44 74.57 74.59 74.05 72.81 71.02 70.43 69.68 68.46 67.57 66.88 67.20 67.29 68.82 69.40 69.56 68.54 68.96 68.08 66.81 65.74 64.77 64.78 65.34 66.00 66.48 66.65 66.49 65.93 65.39 67.11 62.45 61.10 60.16 61.48 63.94 65.65 67.00 66.82 66.55 66.27
68.20 70.57 73.36 74.48 74.68 73.62 72.56 71.69 70.75 69.77 69.29 67.86 67.77 67.63 68.28 68.80 69.26 70.10 69.38 68.85 67.65 66.74 65.80 65.44 65.73 65.71 65.81 66.47 67.15 67.96 67.29 67.38 63.24 60.50 59.56 58.41 58.23 65.02 66.45 66.68 66.56 66.93 67.02
69.56 71.69 72.70 73.99 73.82 73.15 72.74 72.37 71.72 70.56 69.59 68.56 68.26 67.99 68.11 67.52 68.36 69.37 68.88 68.26 67.29 66.73 66.02 66.56 66.58 66.80 66.46 66.12 66.48 67.10 67.97 67.47 64.28 61.14 59.90 58.88 61.62 65.64 66.32 66.53 67.41 66.71 66.47
71.08 71.72 71.66 72.49 72.45 72.78 72.75 72.39 71.99 71.68 70.87 69.68 68.75 67.99 68.33 67.76 66.95 67.69 69.51 68.35 67.54 66.78 66.76 66.93 66.96 66.38 66.51 66.83 66.82 66.89 67.60 67.20 64.12 62.09 61.95 60.52 63.37 66.40 66.87 66.96 67.25 67.54 67.47
70.56 71.05 70.62 70.59 71.50 70.41 70.80 71.61 71.33 71.36 70.94 70.59 69.54 68.81 68.21 67.49 67.48 67.83 69.12 68.30 67.59 67.59 67.51 66.92 66.47 66.84 67.01 67.09 67.01 67.59 67.07 66.38 63.47 62.68 62.57 62.05 65.68 67.65 68.07 67.89 67.61 67.59 67.59
68.18 68.82 69.94 69.53 69.43 69.83 69.18 69.77 70.37 70.31 70.06 69.58 68.22 67.28 65.99 62.72 62.29 64.04 65.92 66.82 68.20 67.50 67.18 67.47 67.53 67.83 68.27 67.49 67.41 67.24 66.26 62.92 61.37 61.73 61.91 64.06 66.36 68.02 68.07 68.11 68.31 68.03 67.64
63.43 65.69 67.90 68.63 68.23 68.75 69.48 67.54 67.21 67.53 67.02 66.09 65.49 63.92 63.62 62.34 61.59 62.78 63.93 66.16 67.36 67.83 68.10 68.07 68.19 68.77 67.66 64.26 63.17 64.30 62.39 61.39 60.76 61.54 61.20 64.72 66.86 68.38 68.63 69.05 69.64 69.49 69.16
63.78 64.57 66.36 67.41 67.61 67.72 66.79 66.45 65.59 65.34 65.10 64.79 64.09 63.62 63.21 61.62 60.37 60.85 60.84 61.63 61.53 62.72 62.78 63.67 62.71 62.04 62.08 62.51 61.86 61.13 60.93 59.97 60.13 61.17 62.09 65.01 66.86 68.15 68.84 68.99 69.36 69.31 69.06
62.10 64.13 64.95 66.65 66.70 65.75 66.00 65.76 64.51 64.13 63.82 63.14 63.82 63.52 61.47 60.39 60.80 60.65 60.78 61.24 61.48 62.10 62.32 63.60 62.66 61.34 58.92 57.73 57.88 57.49 56.70 57.82 59.37 60.00 60.60 63.98 65.62 65.76 67.29 66.98 68.54 69.08 69.43
60.81 63.49 64.10 65.12 65.75 64.72 64.76 64.06 63.09 62.47 62.89 61.85 61.77 61.54 61.64 61.57 61.47 61.67 61.58 61.70 61.59 62.40 60.32 55.81 52.80 52.58 51.87 52.47 52.20 52.17 52.79 54.30 54.56 56.76 57.52 60.70 62.91 63.99 65.38 65.63 66.57 67.29 68.23
60.25 63.14 63.83 65.05 65.16 64.90 64.10 63.80 63.19 62.15 63.03 61.57 61.66 62.12 62.54 62.10 61.72 60.49 54.78 54.54 55.24 52.20 51.18 49.90 49.07 48.62 47.84 48.48 48.81 49.47 49.49 50.06 50.21 50.85 52.32 54.18 60.89 62.10 61.54 61.89 62.61 64.61 66.51
58.22 61.68 63.25 64.79 65.34 64.85 64.36 63.91 62.42 63.74 63.31 62.21 61.45 59.78 59.97 59.25 55.68 53.33 51.84 49.53 49.82 49.63 48.43 47.34 46.43 45.82 45.82 46.84 45.10 46.72 46.45 45.99 47.43 47.69 50.15 50.51 51.83 56.86 59.00 59.40 61.68 59.26 60.21
56.31 58.31 60.81 65.57 64.92 64.59 63.71 63.14 61.43 61.24 58.65 54.20 53.20 53.31 53.01 52.64 51.54 49.63 47.69 46.69 47.56 46.69 45.51 44.84 44.07 43.04 43.29 42.58 42.03 43.04 43.87 44.20 45.30 47.19 47.71 46.45 48.00 49.80 52.53 56.90 55.37 55.65 56.12
56.18 56.45 57.58 63.59 63.89 62.99 60.17 58.13 54.69 52.89 52.05 51.14 49.24 49.19 48.98 48.94 48.16 46.65 45.44 45.08 45.52 44.12 42.87 43.03 41.43 40.89 40.91 40.73 42.38 43.06 41.74 42.02 44.37 44.85 42.36 44.31 46.89 46.50 46.76 52.50 53.39 53.24 53.86
55.77 56.06 57.11 62.78 58.99 53.90 53.83 53.32 51.83 50.09 47.17 46.84 46.16 46.74 46.01 45.21 45.29 44.47 43.20 43.31 43.75 42.08 40.99 40.53 39.38 40.14 40.26 39.66 43.32 42.25 39.94 42.30 41.39 40.17 41.09 44.13 43.00 42.35 43.95 43.21 42.49 44.60 51.67
56.61 56.56 58.98 57.43 52.51 52.86 52.50 51.23 49.73 45.81 44.80 44.01 43.93 43.84 43.61 43.37 43.28 42.43 41.80 41.50 41.87 40.16 38.79 39.61 39.08 38.87 38.99 39.51 37.96 38.00 39.71 40.37 38.82 40.42 40.65 39.87 41.18 40.94 41.94 42.11 43.40 42.97 42.95
56.38 57.13 57.14 54.64 52.62 52.80 52.13 49.08 47.97 46.28 44.52 43.33 42.13 41.23 41.63 41.85 42.28 42.17 40.42 39.93 39.62 39.12 37.83 37.76 37.54 37.19 38.14 38.34 35.83 35.38 34.02 36.31 38.45 39.87 39.22 40.04 38.72 40.22 41.01 41.87 41.39 41.63 41.12
54.37 54.34 54.96 53.57 52.60 52.58 51.04 49.48 47.16 46.48 44.78 42.55 41.07 40.08 40.01 40.72 40.99 40.56 39.57 38.80 38.29 37.61 36.41 36.17 35.81 35.44 34.51 36.40 36.55 35.72 32.12 30.53 34.88 36.45 37.53 37.10 38.76 37.27 39.18 39.34 41.00 40.47 39.25
51.13 51.89 52.59 52.90 52.03 51.39 50.64 48.27 46.72 44.59 42.81 42.89 41.54 39.41 38.79 39.46 39.41 39.49 38.89 37.82 36.92 36.64 35.04 35.32 36.82 34.99 34.40 32.94 35.19 38.58 35.56 34.72 30.32 29.67 34.23 36.76 35.31 37.30 36.77 37.36 38.74 38.37 38.44
50.01 50.28 50.83 51.07 50.68 49.14 48.34 46.70 45.01 43.83 43.17 42.16 39.79 37.63 37.10 37.19 38.03 38.08 37.47 36.33 35.66 35.48 34.41 34.00 33.66 32.95 33.83 33.05 33.21 33.53 32.77 33.07 32.74 30.41 28.37 30.88 35.00 36.35 37.76 37.10 35.87 37.24 37.34
46.81 47.05 47.52 48.37 46.93 47.20 46.45 45.36 44.67 42.89 40.81 39.32 37.65 36.70 36.36 36.15 36.32 36.19 36.49 35.02 34.41 34.10 33.77 33.66 33.16 32.54 32.10 32.31 32.34 31.99 32.24 30.96 30.64 29.90 29.34 30.03 30.08 33.18 34.32 35.66 34.89 35.92 35.80

GFSSE_sfc_wetblb_003.txt.gz
Wetbulb
65.46 68.75 75.08 74.55 73.73 73.00 71.90 70.50 69.84 69.08 68.69 68.21 67.99 69.30 69.20 68.93 68.70 68.11 68.09 67.59 67.55 66.88 65.65 66.50 67.95 68.29 69.36 69.42 68.93 67.84 67.24 65.97 64.89 65.31 65.27 64.98 65.74 66.83 66.88 66.69 68.07 65.02 66.80
67.29 70.81 75.30 74.63 73.69 72.86 71.87 70.55 69.70 68.54 68.63 67.69 67.39 68.39 67.36 66.51 66.38 66.91 67.90 67.58 66.23 66.38 65.11 65.40 66.10 65.66 66.28 67.11 67.08 66.91 66.98 66.78 65.54 65.32 65.39 64.89 65.37 65.91 66.47 67.98 65.86 64.23 67.51
69.20 72.22 73.58 75.08 74.00 72.74 71.98 70.65 69.54 68.49 67.87 67.57 66.61 66.61 66.99 66.72 67.60 67.41 67.77 67.43 66.73 65.96 64.62 64.23 64.62 64.47 65.07 65.35 65.76 66.24 66.52 66.17 65.57 65.42 65.53 62.02 61.29 65.26 66.40 67.49 66.01 65.99 66.82
70.93 72.27 72.19 74.81 73.64 73.10 72.20 70.64 69.88 68.87 67.55 67.25 67.30 67.26 67.49 67.67 68.04 66.92 67.16 65.75 65.50 65.81 64.82 64.01 64.07 63.81 63.42 64.34 65.17 65.79 66.11 65.98 65.96 66.54 62.30 61.76 61.93 65.36 67.00 66.91 66.75 66.70 66.64
70.61 71.76 72.05 74.40 73.91 73.52 72.11 70.82 70.05 69.16 68.05 67.01 66.84 66.64 67.24 67.63 68.40 68.56 66.71 67.04 66.85 66.26 65.04 64.39 64.43 64.87 65.33 65.31 65.03 64.67 64.51 64.95 66.91 65.58 61.25 60.36 60.30 63.32 66.62 66.73 67.01 66.67 67.02
69.57 70.41 72.96 74.34 74.38 73.70 72.55 71.00 70.09 69.23 68.23 66.82 66.80 66.70 66.82 68.35 69.40 68.90 69.12 69.37 68.40 66.95 65.57 64.75 64.71 65.27 65.69 66.39 66.97 67.38 66.89 66.40 66.72 62.21 61.06 60.81 61.23 64.05 66.28 66.23 66.61 66.75 66.38
68.24 69.93 72.89 74.80 74.62 73.86 72.62 71.45 70.29 69.48 68.42 67.25 66.58 67.25 67.39 68.19 68.31 69.83 69.75 68.58 67.67 66.65 65.42 65.25 65.68 66.07 66.19 65.95 66.48 67.13 67.74 67.93 63.85 60.83 59.94 59.39 58.47 64.67 65.66 66.42 66.91 66.72 66.45
68.34 70.65 72.99 73.86 74.18 73.64 72.69 71.92 71.23 69.62 68.91 67.35 67.65 67.62 68.05 67.15 68.17 68.98 68.96 68.43 67.60 66.60 66.42 66.35 66.78 67.01 66.94 66.58 66.48 66.43 67.54 67.36 64.74 61.63 60.76 59.88 61.97 65.94 66.53 66.51 66.60 67.01 67.27
69.35 71.07 71.59 72.32 72.76 72.29 72.04 71.77 71.38 70.74 70.18 68.90 68.72 68.14 68.19 68.09 66.69 67.58 69.03 68.42 67.76 67.21 66.95 67.24 67.63 66.85 66.55 66.95 67.16 67.24 67.64 67.13 64.05 62.31 62.32 61.31 63.99 66.89 67.78 67.71 67.43 67.37 67.70
69.86 70.80 70.94 71.17 71.07 70.55 70.58 71.49 71.23 70.92 70.41 70.17 69.15 68.39 68.14 67.60 67.69 67.00 68.93 68.06 67.75 67.70 67.82 67.65 67.03 67.38 67.71 67.67 67.48 67.95 67.42 66.69 62.98 61.73 61.87 61.96 65.86 67.69 68.53 68.48 68.43 68.28 68.21
69.79 70.12 70.70 70.38 70.11 69.51 69.76 69.89 70.55 70.56 69.92 69.59 68.25 67.32 65.81 61.88 61.66 63.38 65.88 66.74 67.58 67.99 67.54 67.73 68.05 68.25 68.46 67.66 67.34 67.09 66.14 62.33 60.77 60.84 61.10 63.92 66.48 67.98 68.57 68.86 68.84 68.82 68.81
67.34 68.12 69.70 68.85 68.55 67.97 69.43 67.76 67.22 67.82 67.28 66.49 65.34 63.59 62.56 61.25 60.59 61.87 63.35 65.97 67.41 67.76 67.80 67.62 68.04 67.33 64.62 62.82 62.15 62.87 60.40 59.68 59.16 59.80 60.88 64.65 66.85 67.83 67.49 68.12 68.87 68.67 68.66
66.13 66.68 67.77 67.75 67.53 67.60 67.21 65.75 65.51 65.13 65.07 64.37 63.59 62.56 62.21 61.16 59.54 60.57 60.22 60.77 60.66 62.36 62.58 63.03 62.04 60.53 57.57 57.14 56.50 55.50 55.09 55.96 56.67 58.29 60.69 64.27 64.56 64.77 65.10 66.40 67.60 68.48 68.93
61.38 64.67 66.46 66.65 66.35 66.38 65.67 65.08 64.62 63.82 63.51 62.82 63.04 62.70 61.35 59.43 59.53 59.77 60.52 61.75 62.21 61.77 61.76 58.35 53.31 51.44 50.36 50.41 49.59 49.52 50.02 51.35 51.86 54.61 56.75 60.40 62.13 63.51 64.45 64.88 65.21 66.16 68.27
60.07 63.02 64.37 65.65 65.84 66.03 64.71 64.16 63.54 63.03 63.13 62.64 62.49 62.39 60.52 60.30 60.28 60.69 60.82 58.13 54.86 54.11 51.69 48.92 48.15 46.91 46.34 46.84 46.36 46.74 46.94 47.69 47.71 50.15 51.71 57.47 60.74 60.41 60.90 62.24 63.92 64.30 63.57
55.69 62.23 63.41 64.76 65.45 64.73 63.84 63.13 62.31 61.67 62.30 60.90 60.60 60.72 61.97 61.47 58.46 51.15 51.71 53.39 52.02 48.77 47.66 45.77 44.53 43.86 43.68 43.72 43.79 44.01 43.82 43.27 44.69 46.50 49.21 48.59 56.59 56.56 58.74 61.22 59.56 59.51 59.59
56.91 61.38 63.41 64.48 64.88 64.01 63.39 63.13 61.94 61.78 62.43 61.65 60.51 60.16 58.85 55.00 52.89 52.09 51.08 49.39 47.09 45.48 44.63 42.92 42.38 42.60 41.93 42.33 40.22 41.94 42.93 41.11 43.79 44.26 44.91 45.21 48.07 52.67 55.63 55.75 56.13 56.59 57.57
57.01 61.33 63.31 65.96 64.61 63.96 63.55 62.90 60.75 59.80 55.11 53.14 53.49 53.47 53.13 52.32 51.15 48.25 46.34 45.44 43.89 42.76 42.43 41.32 40.61 40.58 40.14 39.10 38.84 40.65 40.77 40.50 42.84 40.40 41.81 42.88 45.26 44.95 48.60 51.77 53.04 53.27 55.69
55.87 59.26 61.99 64.42 64.27 63.12 59.60 55.79 53.71 52.69 51.85 51.26 51.21 50.63 48.79 49.52 47.50 44.63 44.03 43.30 42.15 41.36 40.64 40.24 39.11 38.49 38.43 38.86 40.36 41.35 39.05 39.31 40.81 39.96 39.09 40.80 42.55 40.86 43.03 46.82 49.33 49.65 51.82
55.20 55.89 61.11 63.53 60.82 54.68 52.89 52.29 50.88 49.80 48.70 48.96 48.07 47.22 45.09 44.40 43.48 42.38 41.97 41.71 41.01 40.07 39.17 38.25 37.26 37.62 38.21 37.26 40.62 40.80 37.80 40.34 38.43 37.25 38.07 39.67 39.17 38.55 41.20 39.53 40.36 41.73 48.73
54.35 54.48 60.16 57.76 52.99 53.33 52.13 50.44 49.48 47.09 46.45 45.02 45.04 42.89 42.40 42.28 42.04 41.03 40.63 40.27 39.67 38.08 36.82 37.14 36.98 36.36 36.54 37.29 35.91 36.47 37.70 38.20 37.28 37.56 37.78 36.99 37.49 38.61 38.96 39.40 40.75 40.42 40.30
54.88 55.19 55.09 52.42 52.13 52.91 52.43 48.53 48.48 47.21 44.72 41.17 40.53 40.22 40.94 41.09 41.18 40.86 39.51 38.52 37.64 36.83 35.69 35.15 35.27 34.79 34.94 36.34 34.09 33.83 32.17 34.53 36.58 38.50 36.35 37.72 35.94 37.56 38.08 39.28 39.32 39.13 38.67
54.13 54.47 51.27 51.13 51.19 51.00 49.02 48.32 47.08 45.55 42.43 39.90 38.75 38.50 38.97 39.95 39.95 39.23 38.22 37.34 36.31 35.60 34.45 33.89 33.56 32.97 32.15 33.48 34.72 32.82 28.61 28.30 32.18 34.28 35.68 34.77 36.19 34.66 36.36 37.01 38.31 38.44 38.03
53.36 53.59 51.39 51.58 51.09 49.73 50.26 48.77 46.47 42.71 40.24 39.78 38.56 37.41 37.61 38.54 38.29 38.31 37.39 36.22 35.25 34.81 33.34 33.29 34.71 32.49 32.30 30.72 32.94 35.87 33.37 32.46 28.83 27.75 32.19 34.37 33.31 35.41 33.39 34.25 37.06 36.74 36.47
51.45 52.12 51.67 51.18 50.32 48.45 47.15 46.65 44.48 42.57 41.58 39.69 37.20 36.02 35.91 36.13 36.81 36.80 36.06 34.88 34.20 33.85 32.67 32.15 31.61 30.90 31.73 30.84 30.92 30.95 30.38 30.81 30.67 28.33 26.05 28.72 32.93 33.87 34.12 34.72 34.19 36.10 35.24
49.64 50.52 50.62 50.19 47.67 46.98 46.02 44.52 44.48 42.41 40.46 38.04 35.62 35.04 34.92 35.02 35.11 34.91 35.09 33.79 33.09 32.62 32.04 31.71 31.14 30.72 30.28 30.20 29.97 29.67 29.78 28.68 27.92 26.76 26.24 27.39 27.44 30.09 31.34 33.86 34.34 33.70 34.16

GFSSE_sfc_wetblb_006.txt.gz
Wetbulb
64.47 67.79 75.26 74.03 73.77 72.73 72.05 70.62 69.93 69.12 68.67 68.09 68.03 69.13 69.44 70.07 69.58 68.87 67.79 67.19 67.36 66.56 66.09 66.82 67.96 68.32 69.62 69.89 69.45 68.39 67.64 66.33 66.09 66.04 65.53 65.13 65.15 66.16 67.25 67.09 66.60 65.85 65.96
65.60 68.50 74.93 74.68 73.86 72.84 71.63 70.63 69.82 69.14 68.79 67.66 67.62 68.39 68.13 67.37 67.43 67.39 67.74 67.31 66.46 66.29 65.31 65.08 65.76 66.08 66.52 67.28 67.68 67.32 67.20 67.20 66.42 65.88 65.64 64.91 64.34 65.17 66.26 66.91 67.58 64.07 66.08
66.43 69.53 73.31 74.79 74.04 72.83 71.57 70.60 69.55 68.53 68.82 67.23 67.31 67.68 66.96 66.83 67.20 66.91 67.34 67.12 66.43 65.75 65.24 64.42 64.56 64.27 64.87 65.62 65.74 66.03 66.42 66.44 66.32 66.15 65.91 61.28 60.72 64.96 66.04 66.82 66.07 65.57 66.18
69.00 71.54 72.34 74.79 73.73 72.71 71.79 70.81 69.61 68.65 67.78 67.37 66.89 66.83 67.39 66.75 67.66 66.79 68.01 65.86 65.46 65.52 64.84 64.24 64.30 64.34 63.78 63.64 64.08 65.01 65.29 65.49 66.14 66.35 61.89 61.29 61.50 65.14 66.03 66.63 66.80 66.40 66.36
70.26 71.57 72.22 74.76 73.83 73.14 71.87 70.79 70.14 68.99 67.68 67.29 67.45 66.62 67.20 67.66 68.51 68.06 66.80 66.72 66.35 66.04 64.98 64.36 64.33 64.82 65.52 65.77 65.91 65.85 65.58 65.07 66.45 64.66 60.77 60.04 59.89 63.62 66.19 66.33 66.85 67.09 66.34
69.75 70.10 72.75 74.07 73.86 73.79 72.36 70.98 70.30 69.33 68.31 67.09 67.10 66.80 66.87 68.11 68.80 68.87 69.45 69.37 68.80 66.81 65.30 64.67 64.76 64.99 65.20 65.81 66.59 67.02 67.75 67.05 67.43 60.68 60.75 60.64 61.04 63.49 65.21 66.18 66.54 66.07 66.78
68.21 69.72 72.10 74.25 73.98 73.58 72.40 71.25 70.26 69.36 68.41 67.12 66.92 66.83 67.08 68.00 68.35 69.88 69.38 68.47 67.45 66.57 65.41 65.26 65.65 66.20 66.36 66.51 66.36 66.52 67.26 68.06 63.53 60.86 60.29 59.95 59.63 65.27 66.07 65.86 66.30 66.65 66.71
68.22 69.92 71.88 73.47 74.02 73.52 72.66 71.73 70.86 69.53 68.49 67.30 66.73 67.37 67.45 67.29 68.27 69.61 69.50 68.54 67.64 66.43 66.60 66.35 67.02 67.27 66.95 66.72 66.92 67.09 67.40 67.35 64.45 61.67 61.11 60.48 62.78 66.72 67.60 67.49 66.99 67.03 67.06
68.48 70.03 71.12 71.96 72.69 72.69 72.20 71.57 71.17 70.34 69.37 68.11 68.55 68.23 68.48 67.86 66.73 68.02 69.02 68.48 67.51 67.26 66.94 67.41 67.54 67.12 67.21 67.53 67.55 67.71 68.13 67.45 64.11 62.10 62.04 61.48 64.15 67.17 68.11 68.08 68.32 68.08 67.93
68.02 69.81 70.25 70.64 71.01 70.18 69.85 71.06 70.68 70.38 70.12 69.58 69.24 68.36 67.90 67.68 67.51 67.00 68.60 68.07 67.40 67.17 67.53 67.51 67.66 67.96 68.07 68.04 67.93 67.67 67.25 66.18 61.40 60.84 60.87 61.06 65.74 68.08 68.89 68.89 69.10 69.11 69.01
68.63 69.38 70.80 70.95 70.36 68.99 69.05 69.52 70.38 70.12 69.43 69.05 67.71 67.01 65.48 61.39 60.96 62.22 65.37 66.65 66.84 67.38 67.42 67.69 68.30 68.14 66.17 64.93 65.23 64.70 62.94 59.78 58.24 59.01 59.72 63.19 66.31 67.77 67.85 67.81 68.27 68.70 68.83
66.80 68.14 69.90 69.32 69.15 68.09 70.02 68.14 67.37 68.08 67.10 66.39 65.10 63.36 61.69 60.02 59.48 61.33 62.60 65.12 66.43 66.15 65.68 66.60 66.10 63.31 59.21 57.64 56.30 56.77 54.31 54.45 54.74 55.89 58.77 63.59 64.74 65.16 65.29 65.39 66.67 67.50 67.27
66.06 67.98 68.78 68.74 68.65 67.17 67.32 66.12 65.57 65.60 65.23 64.59 63.40 61.99 61.41 60.18 58.89 59.83 59.75 60.15 60.08 62.20 63.19 60.21 53.16 51.48 49.45 49.52 49.25 48.46 49.02 49.90 50.24 51.85 55.14 60.66 62.37 63.52 63.90 64.41 65.15 65.73 67.10
62.46 65.74 67.66 68.10 67.45 66.38 65.74 65.13 64.85 64.06 63.80 62.93 62.61 61.86 60.95 58.98 58.96 59.15 60.39 60.94 60.18 60.85 51.12 49.51 47.91 46.76 46.03 45.36 44.61 44.63 45.07 45.16 45.03 47.93 51.35 58.27 60.47 61.14 62.73 63.40 64.39 64.31 63.50
59.57 62.11 65.25 66.57 66.40 66.29 64.87 64.33 63.71 63.02 63.00 62.54 62.13 62.06 60.91 59.42 59.64 59.47 57.22 54.34 52.60 49.32 47.22 45.25 43.91 43.71 42.11 42.56 42.13 42.67 42.99 41.14 42.68 45.76 46.89 55.33 56.71 59.01 61.78 60.26 60.70 60.45 60.96
54.69 59.33 63.48 65.61 65.96 65.55 64.76 63.42 63.40 62.61 62.56 61.38 61.07 60.85 61.47 62.46 56.31 53.26 52.50 50.50 48.74 46.40 43.96 42.21 41.37 41.39 39.99 39.92 39.91 40.34 41.07 39.86 42.53 41.54 43.82 44.95 52.77 55.48 56.42 57.16 57.39 57.59 59.61
51.63 53.99 62.17 64.50 65.50 65.03 64.59 63.71 63.24 63.00 62.01 61.82 61.99 62.91 61.41 54.45 52.88 51.90 49.75 46.74 43.64 42.59 41.45 40.39 39.97 40.34 39.03 39.41 37.28 39.43 40.37 38.71 39.45 39.68 40.60 42.90 44.27 49.33 52.05 53.80 54.36 55.40 56.22
53.43 57.91 61.54 64.90 64.64 63.91 63.15 62.67 62.74 62.23 59.07 56.43 55.91 55.12 53.26 51.94 50.46 48.57 45.19 42.58 41.03 40.65 40.07 39.16 38.44 38.51 37.86 36.69 36.06 37.87 38.43 39.02 38.12 37.25 39.12 40.71 40.48 41.09 45.28 50.12 50.79 51.73 52.99
54.20 58.95 61.67 63.39 63.42 63.27 60.57 57.71 56.74 53.99 54.33 52.55 52.16 51.36 49.82 47.05 47.11 45.29 42.09 40.49 40.25 39.63 38.54 38.27 37.48 36.58 36.65 36.34 37.95 38.24 37.24 37.28 37.13 38.59 37.35 38.72 37.89 38.69 39.70 44.68 46.79 47.60 49.14
54.76 59.10 62.07 63.34 62.32 55.78 53.98 52.98 51.73 50.16 49.35 49.26 48.40 47.47 46.37 44.10 42.63 41.59 40.28 39.37 39.23 38.39 36.98 36.27 35.46 35.47 36.68 35.48 38.18 38.74 36.53 38.74 36.90 35.50 36.83 38.47 36.68 37.80 38.04 37.48 37.79 39.60 46.60
53.79 58.31 61.65 60.13 55.04 53.81 53.33 51.37 50.28 48.23 46.50 45.32 45.16 44.62 43.78 41.47 41.12 40.34 39.50 38.47 37.58 36.41 34.61 35.10 34.77 34.21 34.30 35.90 34.00 35.00 36.04 36.77 36.86 36.49 35.40 35.77 35.51 36.44 36.58 36.43 37.82 37.81 38.31
53.01 56.58 58.66 56.22 53.24 54.14 54.72 51.48 48.92 46.98 43.85 43.08 43.00 42.37 40.78 40.21 40.32 39.89 38.15 36.88 36.03 35.09 33.93 33.28 33.12 32.77 32.76 33.75 31.42 31.81 29.85 32.41 34.42 36.22 34.31 35.56 33.30 35.46 36.19 37.17 36.79 37.40 36.66
52.40 54.43 54.22 52.65 53.41 53.17 49.16 46.50 44.91 43.89 42.84 41.66 40.37 38.19 38.38 39.08 38.81 37.98 36.89 35.89 34.84 34.32 32.95 32.29 31.99 31.52 30.92 31.64 33.05 30.69 26.72 25.71 29.68 32.78 33.50 33.13 33.41 32.57 33.98 34.32 35.43 36.02 36.43
52.40 52.13 50.35 50.91 51.96 50.42 49.80 47.58 44.82 42.76 42.09 40.46 37.18 36.46 36.75 37.58 37.29 37.01 36.12 35.05 34.14 33.55 32.07 32.43 32.85 30.88 30.96 29.27 31.11 34.04 31.10 30.50 26.49 25.99 30.34 32.63 31.06 33.15 31.40 31.24 32.89 34.26 35.35
52.27 49.37 49.86 50.91 51.17 50.10 50.66 48.85 46.66 43.50 40.91 37.20 35.78 35.06 34.82 35.03 35.76 35.69 34.91 33.89 33.16 32.86 31.46 30.93 30.24 29.56 30.25 29.45 29.20 29.07 28.68 28.88 28.53 26.05 24.10 26.43 30.55 31.47 31.93 30.39 31.34 32.93 33.74
50.90 49.25 50.09 51.00 49.58 49.37 48.73 47.42 45.99 43.02 38.42 36.28 34.13 33.99 33.98 33.99 34.13 34.00 34.08 32.72 32.04 31.65 30.91 30.49 29.97 29.53 29.07 28.76 28.48 28.23 28.26 27.09 26.57 25.15 23.76 25.64 25.89 27.87 30.44 31.51 30.66 31.21 32.60

GFSSE_sfc_wetblb_009.txt.gz
Wetbulb
67.36 70.56 75.20 74.08 73.48 72.70 71.82 70.98 70.07 69.51 68.93 68.35 68.75 69.41 70.29 70.83 70.34 69.13 68.11 67.14 67.11 66.70 66.01 67.15 67.94 68.28 69.85 70.21 69.93 69.37 68.24 66.98 67.09 66.55 65.96 65.58 64.72 65.46 66.70 67.20 67.23 66.72 67.06
68.77 71.03 75.30 74.52 73.59 72.80 71.65 70.91 69.97 69.48 68.72 67.94 68.32 69.40 69.27 69.51 68.58 68.40 68.18 67.34 66.59 66.18 65.56 65.09 66.50 66.39 66.99 67.45 68.08 68.19 67.65 67.29 66.27 66.35 66.19 65.15 63.93 64.83 65.77 66.66 67.63 65.67 65.90
68.92 71.76 73.86 74.74 74.14 72.93 71.62 70.87 69.85 69.45 68.27 67.51 68.61 67.87 66.98 66.99 66.96 67.06 67.36 66.73 66.52 65.81 65.73 64.96 65.07 64.68 65.00 65.87 66.01 66.05 66.10 66.07 65.96 65.92 65.66 64.92 64.36 65.14 66.22 66.28 66.92 65.64 65.42
69.85 71.67 73.65 74.83 73.98 72.81 71.60 70.83 69.66 68.98 68.77 67.22 67.45 67.34 67.02 67.05 67.94 67.09 67.78 66.97 65.57 65.84 65.50 64.73 64.98 65.34 64.47 64.03 64.11 64.18 64.48 64.65 65.00 66.03 65.40 64.97 64.39 64.56 65.94 67.17 66.57 67.10 66.58
69.79 71.90 73.38 74.56 74.16 73.17 71.84 70.91 69.77 68.92 67.91 67.54 67.64 67.20 67.56 67.61 68.09 67.62 67.54 66.54 65.85 66.25 65.44 64.97 64.96 65.40 65.83 66.04 66.29 66.58 66.64 66.19 65.58 65.12 65.00 64.97 64.91 64.20 65.69 66.54 66.91 67.90 66.65
70.64 72.59 73.56 74.15 74.01 73.44 72.55 71.06 70.37 69.06 67.95 67.46 67.43 66.75 66.68 67.86 68.49 68.70 69.22 69.31 68.51 66.67 65.31 65.13 65.19 65.67 65.93 66.17 66.22 66.75 67.34 67.50 67.36 66.39 66.08 65.64 65.56 64.62 65.73 65.12 66.43 66.85 66.44
70.21 72.52 73.18 74.14 74.01 73.65 72.62 71.34 70.54 69.51 68.50 67.25 67.37 67.00 66.76 68.26 69.06 69.63 69.03 68.48 67.65 66.57 65.62 65.83 66.67 67.03 67.11 67.05 66.89 66.82 66.70 67.74 66.65 66.41 66.16 65.98 65.82 66.26 67.41 67.32 66.55 66.84 67.30
70.35 72.10 72.83 73.22 73.77 73.44 72.69 71.98 70.93 69.53 68.64 67.45 67.01 66.87 66.84 67.78 68.38 69.86 69.44 68.48 67.86 66.54 67.02 66.65 67.35 67.48 67.06 67.02 67.32 67.53 67.51 67.78 66.24 66.27 66.14 65.95 65.36 66.76 68.07 68.08 67.97 67.73 67.74
70.90 71.51 72.32 72.68 72.80 72.59 72.22 71.64 71.22 70.13 69.11 68.20 68.27 68.13 68.41 67.77 67.39 69.32 69.35 68.41 67.72 67.40 67.18 67.49 67.78 67.73 67.93 68.22 68.16 68.04 67.62 67.13 66.81 66.32 65.44 65.86 64.65 67.15 68.34 68.64 68.75 69.13 69.00
69.91 71.15 71.87 72.85 72.79 72.43 71.64 71.07 70.67 70.23 69.92 69.14 69.11 68.41 67.70 67.32 67.10 67.40 68.37 68.33 67.52 67.26 67.46 67.64 68.38 68.55 67.78 67.13 66.63 65.45 64.05 63.01 62.62 62.73 63.66 64.46 65.61 67.72 68.37 68.49 68.53 68.97 69.31
68.52 70.34 70.47 71.60 72.23 71.97 71.31 70.15 70.19 69.78 69.33 68.74 67.95 66.80 66.23 65.54 64.79 65.14 65.55 66.44 66.87 67.27 67.40 67.74 67.16 64.53 62.49 60.66 59.89 59.35 59.54 59.38 58.62 59.51 61.37 63.26 65.65 67.05 66.99 66.64 66.34 67.44 68.19
67.26 68.89 70.48 70.68 71.10 71.25 70.37 70.42 70.01 69.43 69.38 68.67 67.39 67.03 65.79 64.12 63.52 63.94 63.86 65.01 65.55 65.16 65.81 64.12 60.01 57.53 56.79 56.01 55.59 55.57 55.27 55.71 55.76 55.70 57.79 61.27 62.92 64.02 64.80 64.87 65.39 66.03 66.71
67.56 68.55 69.06 69.64 69.64 69.94 70.29 69.92 69.38 69.44 69.00 68.34 67.17 66.24 65.40 64.18 64.51 64.89 65.08 65.22 65.44 63.92 58.75 56.69 54.91 53.62 52.71 52.08 51.90 52.04 52.25 51.23 52.17 55.00 56.42 60.50 61.89 62.57 63.14 63.55 64.93 65.40 64.48
65.90 68.17 68.88 69.37 68.94 69.10 70.23 69.42 68.82 68.33 68.39 67.56 66.90 65.63 65.19 63.50 64.07 64.61 65.40 63.47 61.12 54.64 54.55 53.07 51.99 50.37 49.31 48.74 48.89 49.69 49.32 50.04 52.50 54.19 54.81 58.09 59.38 61.87 63.48 62.45 62.04 61.72 62.46
63.05 66.88 68.66 69.38 68.41 68.56 69.20 68.89 68.27 67.49 67.45 67.24 66.31 65.40 64.97 63.85 64.54 63.02 55.41 53.63 52.99 52.83 51.05 50.08 49.63 48.11 47.20 47.12 46.98 48.28 47.82 49.88 49.35 51.44 52.64 55.56 57.76 58.51 59.14 59.40 59.06 60.01 61.09
61.78 63.24 66.90 68.75 68.05 68.44 68.48 67.63 67.67 66.70 66.56 66.31 65.86 65.45 64.51 63.47 59.33 55.13 52.33 51.21 51.43 49.60 48.44 48.08 47.64 46.98 45.60 45.57 45.16 46.83 46.89 47.71 47.80 47.83 50.00 49.94 53.28 54.35 55.67 56.09 56.46 57.64 57.44
56.39 57.58 62.64 66.81 68.78 68.53 68.30 67.49 67.02 66.09 65.81 65.06 64.40 64.11 63.47 57.30 54.89 52.36 50.63 48.95 48.16 47.78 46.82 46.50 46.06 46.61 44.79 44.31 44.22 45.53 46.25 46.89 45.96 46.68 47.61 47.46 48.26 49.42 51.85 52.65 52.78 53.49 54.34
55.54 56.04 58.70 64.50 67.18 67.80 67.48 67.11 66.21 65.17 63.71 62.34 62.28 60.20 55.09 53.55 52.57 49.53 47.07 46.78 46.61 46.26 45.92 45.21 44.20 44.97 44.14 43.41 43.64 44.57 45.38 47.40 44.86 45.39 46.38 45.72 46.49 46.24 46.49 48.78 48.93 49.71 51.04
55.62 57.05 60.47 64.71 66.10 66.46 65.76 64.65 62.34 60.21 58.76 57.20 55.77 53.49 51.99 50.72 50.18 47.53 46.48 45.69 45.47 44.72 44.10 43.93 43.10 43.39 42.61 42.65 43.06 44.23 44.46 46.23 44.15 44.62 44.69 44.84 44.60 44.75 44.56 44.81 45.23 45.44 46.82
56.22 57.99 62.40 64.81 65.41 63.53 60.85 55.78 53.83 52.91 51.47 52.15 50.94 49.20 48.06 47.66 47.07 45.97 44.93 44.35 44.39 43.46 42.73 42.68 42.00 41.88 41.65 41.15 41.38 42.11 45.03 46.90 45.18 44.80 43.00 44.34 43.18 43.25 43.40 42.89 42.85 42.58 44.13
57.09 59.31 63.23 63.14 60.97 59.03 57.07 53.82 52.19 49.56 48.23 47.28 47.12 46.38 45.78 45.17 45.76 45.15 43.78 43.15 42.92 41.60 40.80 40.81 41.58 40.33 39.80 40.97 40.40 41.58 43.03 43.75 45.13 45.44 42.83 43.82 41.52 41.77 42.05 41.85 41.49 41.27 41.81
56.68 59.99 62.05 61.85 58.46 58.80 58.00 57.10 53.84 49.33 46.10 45.17 44.97 44.30 44.12 44.52 44.68 43.92 43.21 41.90 41.57 40.76 40.06 39.71 39.79 39.85 39.03 39.63 37.40 38.41 36.81 40.30 42.08 41.27 41.98 41.59 40.34 41.01 40.54 40.07 40.14 40.01 40.71
55.84 59.02 60.37 58.12 57.64 57.95 54.57 51.29 46.00 44.52 43.77 43.00 42.48 42.17 42.52 43.87 43.11 42.59 41.98 41.29 40.49 40.62 39.05 38.65 38.84 38.42 37.23 38.15 38.35 37.37 35.19 34.14 35.08 39.72 40.49 41.04 39.16 38.80 38.92 39.01 38.81 39.15 39.13
55.65 58.24 57.63 56.23 56.95 53.39 53.02 50.78 48.50 48.58 45.41 44.28 42.20 41.44 42.00 42.38 41.70 41.28 40.81 40.35 39.74 39.25 38.61 38.20 37.91 37.81 38.14 35.62 38.04 37.09 37.36 36.61 32.86 32.17 37.77 37.97 38.06 36.63 37.17 37.61 37.61 37.95 38.57
54.95 55.59 55.09 55.07 54.40 52.02 52.10 51.86 48.36 45.95 44.93 41.77 40.45 40.46 40.31 40.40 40.60 39.98 39.75 39.27 38.69 38.27 37.54 37.52 36.98 36.83 36.85 36.29 35.64 35.60 35.65 35.52 35.83 32.95 29.99 33.43 35.47 36.75 36.81 36.57 36.56 37.26 37.81
54.40 53.02 53.57 53.35 53.25 51.64 50.85 50.21 47.70 43.37 41.55 39.51 39.44 38.97 38.96 39.10 38.89 38.63 38.10 38.00 37.67 37.42 37.18 36.89 36.63 36.33 35.85 35.44 35.58 35.04 34.45 33.15 32.69 31.56 30.19 31.39 31.38 33.90 35.07 35.69 36.25 36.77 37.53

GFSSE_sfc_wetblb_012.txt.gz
Wetbulb
69.43 73.96 75.33 73.81 73.37 72.49 71.88 70.99 70.37 69.81 69.06 68.74 69.40 70.18 71.03 71.03 70.12 69.27 68.32 68.08 67.50 66.71 66.02 66.55 67.84 68.74 70.11 70.09 70.03 69.01 67.94 67.63 67.15 66.72 66.45 65.72 64.63 65.47 66.45 67.00 67.92 68.14 66.67
71.02 73.81 75.24 74.06 73.31 72.50 71.65 70.84 70.11 69.45 68.70 68.20 68.96 69.92 70.46 70.59 69.62 69.07 68.73 67.73 66.99 66.37 65.86 65.37 66.50 66.90 67.58 67.91 68.19 68.07 67.84 67.04 66.55 66.40 66.28 64.45 63.56 65.15 65.86 66.51 67.24 67.22 64.85
71.09 73.66 74.41 74.54 73.91 72.81 71.65 70.80 70.17 69.27 68.16 68.34 68.88 67.85 67.15 67.77 67.39 68.16 67.70 66.88 66.30 66.26 65.74 65.34 65.29 65.30 65.40 66.03 66.42 66.33 65.94 65.85 65.84 65.80 65.42 65.67 64.83 64.80 66.16 66.33 66.57 66.11 65.10
71.55 74.04 73.52 74.63 74.08 72.68 71.65 70.80 69.97 69.62 67.85 68.54 68.55 67.63 66.88 67.52 67.78 67.19 67.64 67.37 66.23 66.11 65.59 65.14 65.57 66.07 65.52 65.19 65.38 64.82 64.87 64.80 64.83 65.33 65.03 63.69 64.42 64.07 65.98 66.40 66.72 67.41 66.54
71.84 73.74 73.76 74.63 73.96 72.86 71.67 70.80 69.64 69.26 68.20 67.66 67.61 67.44 67.36 67.74 67.20 68.43 67.48 66.65 66.59 66.35 65.37 65.46 65.53 65.83 65.85 66.10 66.55 67.14 67.29 66.79 65.77 66.11 66.17 66.04 65.80 64.01 64.91 66.00 67.17 67.27 67.91
71.57 73.58 74.01 74.16 73.98 73.25 72.26 70.86 69.97 68.84 68.08 67.93 68.01 67.07 67.07 67.71 68.12 67.45 67.00 68.28 67.59 66.41 65.63 65.63 65.73 66.44 66.56 66.76 66.63 66.56 67.19 67.64 67.11 67.16 67.02 66.75 66.78 65.82 66.74 66.81 65.81 66.43 67.26
71.08 72.86 74.09 74.44 74.09 73.38 72.18 71.13 70.47 69.05 68.14 67.73 67.52 66.98 67.29 68.67 69.40 69.25 68.56 68.18 67.58 66.43 65.95 66.26 67.15 67.30 67.17 66.89 67.04 67.29 67.26 67.21 66.82 67.42 67.61 67.60 67.49 66.28 67.38 67.85 67.87 67.35 67.29
71.05 72.53 73.06 73.53 73.79 73.31 72.51 71.66 70.76 69.61 68.65 67.51 67.61 66.79 66.95 68.08 68.76 69.74 69.05 68.22 67.60 66.81 67.25 67.10 67.72 67.71 67.52 67.83 68.11 68.15 67.85 67.55 67.27 67.86 68.00 67.98 66.78 66.82 68.03 68.67 69.04 69.16 68.65
71.42 72.26 72.50 73.29 72.82 72.40 72.14 71.78 71.21 69.84 69.23 67.90 67.39 67.12 67.98 67.83 68.09 69.83 69.47 68.48 67.55 67.62 67.36 67.74 68.01 68.36 68.58 68.46 68.17 67.26 66.12 65.34 66.95 67.10 66.40 66.85 65.67 67.43 68.47 68.54 69.27 69.36 69.72
71.09 71.71 71.93 72.28 71.75 72.29 72.03 71.09 70.76 70.30 69.57 69.16 69.10 68.47 67.80 67.37 67.01 68.69 68.86 68.35 67.49 67.32 67.65 68.13 68.53 66.96 66.29 65.04 63.47 61.22 61.00 62.59 63.28 63.10 64.02 65.10 65.60 67.80 68.17 68.13 67.78 67.54 68.43
69.92 71.04 71.84 71.71 72.26 72.80 71.91 70.57 70.14 69.60 68.95 68.40 68.08 66.85 65.92 67.62 66.32 65.85 65.76 66.43 66.91 67.46 67.22 67.02 63.50 61.32 60.02 59.55 58.50 57.53 59.55 61.46 60.80 60.75 60.96 61.55 63.31 65.04 65.76 65.65 65.50 65.82 66.73
68.69 69.94 71.28 71.79 72.22 72.17 71.00 70.93 69.81 68.84 69.26 68.70 68.15 67.99 67.58 66.07 64.82 66.01 64.98 65.49 65.55 65.71 63.95 61.15 58.69 56.99 61.13 60.15 59.71 57.75 58.40 57.04 56.86 57.07 58.61 60.89 62.53 63.46 64.01 64.17 64.56 65.89 65.37
68.98 70.22 71.00 71.01 72.02 71.67 71.26 70.50 69.74 69.21 69.45 69.31 68.57 68.32 66.22 65.47 65.85 66.27 66.76 66.79 68.16 64.56 63.77 61.93 60.78 58.36 56.70 55.59 55.07 54.91 54.40 53.79 54.47 56.27 58.51 59.54 61.40 62.07 63.15 64.45 63.18 62.97 63.79
68.06 69.59 70.80 71.09 70.92 71.18 71.56 70.32 70.06 69.19 69.21 69.01 68.65 68.09 66.30 65.33 66.05 66.24 67.43 67.37 65.28 61.47 60.46 59.38 58.28 55.34 53.34 52.11 51.77 52.19 52.30 52.82 54.30 55.91 57.07 58.80 61.53 62.14 62.25 61.38 60.89 62.16 61.63
66.47 68.75 70.26 70.56 70.37 70.67 70.76 70.28 69.53 69.22 69.06 69.18 68.36 68.04 67.08 66.44 66.59 66.43 62.22 60.01 59.15 59.04 57.69 56.53 54.65 52.36 51.15 50.46 50.10 50.62 50.61 51.76 52.39 55.12 55.74 56.58 57.28 58.35 58.58 58.72 60.05 59.05 59.06
65.52 67.02 69.78 70.48 70.67 70.55 70.34 70.47 70.05 69.66 69.11 69.14 68.75 67.32 67.40 67.13 66.78 61.02 55.72 54.69 56.75 55.21 53.37 52.30 51.31 50.97 50.10 49.29 48.80 49.23 49.45 50.97 51.89 53.17 53.70 53.24 53.22 54.29 54.70 54.95 55.33 55.64 56.12
62.42 64.55 66.55 69.52 70.85 69.00 70.05 70.81 70.27 69.58 69.00 68.61 68.20 67.85 67.47 65.80 60.89 56.52 52.30 52.53 53.36 52.13 51.05 50.93 50.46 50.41 49.46 48.58 48.42 48.66 49.30 50.40 51.05 51.40 51.13 51.39 50.91 49.98 50.90 51.57 51.73 52.12 52.52
61.46 61.09 61.54 64.60 69.00 70.04 70.87 70.51 70.06 69.47 68.92 68.07 68.18 67.42 63.54 59.00 55.52 52.47 52.49 52.44 51.36 51.00 50.86 49.57 48.21 48.73 48.15 47.94 48.08 48.55 48.83 49.70 49.22 49.27 49.27 49.34 49.26 48.66 47.96 48.04 48.49 48.92 49.82
61.06 61.14 61.02 62.44 65.09 68.37 69.75 69.60 69.61 69.05 67.48 65.01 64.35 61.01 57.40 55.21 51.71 50.13 51.42 50.63 50.25 49.32 48.65 47.76 47.02 46.81 46.36 46.65 46.10 46.84 48.46 49.54 48.53 47.95 48.18 48.22 47.59 47.75 47.34 46.10 45.80 45.45 46.02
60.92 61.00 61.41 63.51 65.30 67.51 68.14 68.19 67.93 65.49 62.29 60.60 58.97 56.62 53.39 52.08 52.43 52.42 50.76 49.49 49.18 48.10 47.02 46.80 45.79 45.88 45.11 45.04 44.69 46.06 50.14 50.60 48.84 49.50 48.66 47.45 46.84 45.94 46.02 45.54 45.25 45.50 44.84
60.51 60.91 61.91 63.98 66.15 67.06 65.87 63.84 59.83 57.93 55.62 54.13 51.92 51.20 49.83 49.06 49.96 51.10 49.85 48.65 48.17 46.87 45.72 45.28 45.45 44.28 44.02 44.46 44.73 46.82 47.40 47.93 48.90 49.43 45.95 46.72 45.56 44.92 44.71 44.32 44.25 44.04 44.01
59.92 61.27 62.65 64.74 65.93 66.39 65.15 64.77 62.74 58.77 55.91 53.52 47.62 46.87 46.83 47.37 48.79 50.19 49.21 47.71 46.87 45.85 45.03 44.51 44.52 44.28 43.63 43.39 41.57 43.13 42.27 44.24 46.00 45.97 46.08 44.66 43.67 43.96 43.63 43.18 43.19 42.87 43.10
59.34 60.98 62.87 64.55 65.15 65.20 64.70 63.60 59.13 53.67 50.15 45.45 44.00 43.80 44.81 46.46 47.63 48.54 47.71 46.69 46.04 45.73 44.15 43.97 43.66 42.69 42.00 42.76 41.97 40.97 39.85 39.72 39.50 44.54 44.10 43.67 43.27 42.51 42.45 42.53 42.13 42.11 41.98
58.87 61.29 63.48 64.25 63.90 64.32 63.42 58.20 54.99 55.39 52.47 47.53 45.05 43.10 44.45 46.04 47.36 46.80 46.19 45.84 44.99 44.59 43.66 42.61 42.53 42.40 42.48 40.51 42.88 40.85 40.83 39.76 37.00 36.73 42.36 42.08 41.76 40.90 41.51 41.50 41.25 41.24 41.44
58.81 60.67 63.12 63.48 63.11 62.35 59.25 58.44 59.40 56.92 53.47 46.23 42.96 42.73 43.76 46.04 46.21 45.40 45.19 44.69 43.84 43.39 42.82 42.32 41.81 41.62 41.84 41.26 40.18 39.75 39.86 39.64 39.27 36.69 34.94 38.47 40.50 41.41 41.25 40.42 40.21 40.53 40.78
58.75 60.36 62.16 61.91 61.85 59.33 57.96 60.00 58.54 54.46 46.29 41.81 42.52 41.87 43.56 45.12 44.49 44.10 43.81 43.72 43.21 42.56 42.06 41.80 41.49 40.68 41.31 40.74 40.41 39.55 38.22 37.19 36.91 36.32 35.21 36.16 36.20 38.69 39.98 39.96 39.36 39.54 40.05

GFSSE_sfc_wetblb_015.txt.gz
Wetbulb
70.31 73.73 75.02 73.59 73.01 72.30 71.89 70.99 70.64 69.89 69.27 69.47 70.43 71.24 71.50 71.09 70.15 69.11 68.66 68.31 67.58 66.97 66.36 66.67 68.37 69.18 70.23 70.72 70.19 69.40 68.68 68.44 67.50 67.32 66.54 64.79 64.45 66.15 66.90 67.73 67.98 68.42 68.02
72.24 74.47 74.63 73.89 72.91 72.36 71.58 70.76 70.09 69.32 68.54 68.74 69.11 70.01 71.12 70.59 69.85 69.44 68.80 67.67 67.50 66.98 66.27 66.33 67.09 67.35 68.04 68.29 68.14 68.05 67.89 67.50 66.96 66.61 66.42 65.58 64.39 66.06 66.84 66.42 67.51 67.25 65.80
72.76 74.01 73.57 74.24 73.55 72.47 71.47 70.54 69.88 68.97 68.13 69.60 69.01 68.47 69.39 68.83 68.83 68.60 67.69 67.21 66.96 66.56 66.07 66.14 66.37 66.03 66.02 66.07 66.06 66.06 66.13 65.97 65.80 66.21 66.10 65.45 64.55 64.89 66.28 66.50 67.08 67.15 66.23
72.67 73.66 73.31 74.36 73.81 72.59 71.55 70.59 70.00 68.40 68.69 69.05 68.54 67.46 67.67 67.76 67.62 67.74 67.73 67.12 67.19 66.29 65.90 65.94 66.41 66.56 66.62 66.79 67.01 67.04 66.81 66.24 65.24 65.78 65.49 63.36 63.74 65.20 65.00 66.60 67.51 66.65 67.42
72.39 73.61 73.79 74.32 73.93 72.77 71.62 70.51 70.07 68.70 67.90 68.75 67.70 67.48 67.24 67.79 67.19 67.95 67.40 67.01 67.37 66.09 65.92 66.25 66.53 66.62 66.69 66.75 66.84 67.33 67.94 68.06 67.02 67.15 66.57 66.74 66.02 66.52 65.98 65.33 65.91 67.03 67.84
72.27 73.59 73.18 74.06 73.76 73.08 71.72 70.43 69.72 69.02 67.87 67.84 67.65 67.85 67.84 67.50 67.63 68.02 67.49 67.70 67.43 66.38 66.43 66.49 66.92 67.13 67.11 67.06 66.98 66.98 67.27 67.45 66.61 66.97 66.87 67.05 66.87 67.33 67.40 67.45 67.18 66.75 66.55
71.49 74.19 73.50 74.07 73.71 73.15 71.94 70.72 69.92 68.82 68.29 68.31 67.76 67.20 68.54 68.91 69.06 69.27 68.36 68.23 67.45 66.79 66.63 66.90 67.44 67.69 67.35 67.06 67.53 67.87 67.61 67.34 67.11 67.54 67.34 67.66 67.71 67.41 67.99 67.92 68.52 68.76 68.09
70.95 72.78 73.10 73.19 73.39 73.07 72.21 71.37 70.31 69.06 68.39 67.99 67.66 67.16 68.08 68.01 69.82 69.90 69.01 68.33 67.70 67.68 67.29 67.66 68.03 67.89 68.08 68.70 68.83 68.34 67.66 67.30 66.64 66.88 67.29 67.18 66.86 67.22 68.17 68.48 69.07 69.52 69.52
71.13 71.77 73.45 73.02 72.72 72.25 72.03 71.74 71.05 69.90 69.11 68.44 68.18 67.30 68.67 67.83 69.56 69.99 69.23 68.63 68.10 67.63 67.63 68.07 68.89 68.99 68.36 67.74 66.41 64.88 64.28 64.82 64.28 64.76 64.49 65.14 66.10 67.60 68.13 67.86 68.72 68.43 68.37
70.55 71.32 71.79 72.80 72.88 71.78 71.53 71.15 70.64 70.28 69.81 69.03 68.92 68.86 68.22 67.67 68.72 69.54 69.72 68.65 67.86 67.68 67.96 68.33 66.92 66.46 64.84 62.71 61.13 60.31 61.43 63.13 62.88 62.49 62.31 61.88 63.74 65.92 67.24 66.88 66.41 66.25 66.67
69.55 70.70 71.29 71.35 71.19 71.64 71.52 70.40 70.14 69.64 68.74 68.60 68.14 67.15 66.08 66.60 66.24 65.96 66.01 67.21 67.56 67.33 67.57 64.53 62.17 60.11 60.14 60.48 58.43 58.16 59.48 60.46 59.42 59.15 59.50 61.73 62.57 64.05 64.90 65.01 65.03 65.62 66.73
68.27 69.62 70.91 71.11 70.96 71.53 71.09 70.48 69.61 68.42 67.50 66.29 66.77 66.48 66.68 65.81 65.14 65.98 65.31 66.58 66.30 66.35 63.54 61.25 58.61 58.39 61.10 60.57 59.37 59.57 56.71 55.70 55.81 56.85 59.06 60.94 62.41 63.06 63.32 65.41 64.84 64.43 65.59
68.48 69.58 70.56 71.30 71.68 71.05 69.75 70.21 69.38 68.78 68.77 68.29 67.89 67.60 65.65 64.16 63.83 65.35 65.81 65.16 65.96 64.61 64.06 61.30 60.82 59.26 57.42 55.68 55.28 54.27 54.65 54.02 54.56 56.09 57.85 60.73 62.31 63.24 64.28 63.00 63.01 63.50 63.10
67.57 69.04 70.44 71.41 71.61 71.87 71.31 70.04 69.47 68.67 68.81 68.39 68.01 67.78 65.37 64.51 65.57 65.07 65.31 66.64 65.54 63.76 62.10 60.73 59.50 57.06 54.63 53.12 52.33 51.89 52.47 52.29 53.42 54.64 56.36 58.70 61.01 61.84 61.66 61.89 61.19 60.76 60.95
65.96 68.21 69.89 71.24 70.60 71.41 70.96 70.56 69.62 68.70 68.45 68.69 68.32 68.02 66.31 64.98 65.27 65.70 65.25 63.48 62.22 60.75 59.13 57.86 55.82 53.41 52.32 51.57 51.18 50.47 50.89 50.99 51.85 53.54 54.98 56.80 57.49 57.76 58.06 58.26 58.10 58.05 57.96
65.21 67.05 69.13 70.23 71.20 70.46 70.42 70.36 69.83 69.33 68.96 68.68 68.13 68.03 66.52 66.39 66.02 63.90 61.59 60.18 59.37 57.61 55.27 53.36 52.05 51.90 51.32 50.62 49.81 49.65 49.91 50.66 50.93 52.22 53.73 52.10 53.73 53.84 54.28 54.37 54.14 54.30 54.55
62.95 65.69 67.29 69.28 70.56 70.47 69.63 70.25 69.92 69.59 68.93 68.17 67.61 67.75 66.73 66.86 65.21 61.60 57.86 56.77 56.38 54.10 52.60 52.30 51.35 51.15 50.39 49.67 49.37 49.41 49.34 49.69 50.22 51.16 51.71 52.51 50.77 50.71 50.66 51.22 51.40 51.69 52.22
62.37 62.50 64.96 67.37 69.40 70.04 68.89 70.39 69.78 69.67 68.92 67.67 67.60 66.68 66.74 65.80 63.04 59.20 56.65 55.61 53.95 52.80 52.21 50.59 49.10 49.43 49.11 48.58 48.21 48.56 49.19 49.40 49.01 49.55 50.06 49.64 50.08 49.14 49.40 47.95 48.10 48.53 49.27
62.35 62.35 62.32 63.37 66.28 69.09 69.55 70.59 69.88 69.08 67.56 67.60 67.79 67.66 65.72 61.09 57.24 53.72 53.94 53.55 52.52 51.43 50.24 48.92 48.19 47.64 47.02 47.29 47.01 47.79 49.42 49.32 49.11 48.16 48.38 48.54 48.39 48.55 48.12 48.84 47.74 47.39 46.84
62.02 62.25 62.50 62.54 62.95 66.34 69.53 69.70 68.62 67.54 67.32 67.07 66.73 63.24 60.11 56.00 52.81 54.18 53.77 52.16 51.48 50.01 48.95 48.46 47.56 47.50 46.10 45.65 45.26 46.89 49.47 50.08 49.68 48.84 48.53 48.07 47.28 46.81 47.09 46.87 45.96 46.22 47.23
60.96 61.18 61.74 61.87 63.55 64.82 67.14 67.92 66.46 65.02 65.02 64.22 60.98 58.02 55.89 53.49 53.68 53.83 52.59 51.08 50.73 49.12 47.76 47.51 47.14 46.05 45.22 45.28 46.61 46.98 48.36 47.41 48.98 49.37 49.13 46.61 46.67 45.81 45.58 45.43 44.69 44.52 44.23
60.13 61.25 61.31 62.12 63.73 65.57 68.11 67.73 65.76 64.39 61.98 59.59 55.61 51.92 50.57 50.16 51.18 51.73 51.89 50.42 49.29 48.16 47.19 46.81 46.74 45.83 44.99 44.35 41.79 44.73 43.45 45.06 46.24 46.46 47.02 45.92 44.83 45.54 44.66 44.06 43.65 43.31 43.44
59.76 60.72 61.31 62.58 64.67 66.46 67.40 65.97 62.82 59.41 53.59 52.56 50.89 48.82 47.55 48.36 49.46 50.27 50.79 49.26 48.78 48.58 46.60 46.07 45.64 44.43 43.56 43.99 42.91 41.33 40.17 40.34 40.05 45.65 45.41 44.78 44.52 43.96 43.51 43.77 43.14 42.82 42.48
59.78 61.68 62.19 63.48 64.97 66.28 66.82 64.46 61.08 56.00 53.01 53.17 49.37 46.67 46.07 47.45 47.60 48.88 49.07 48.42 47.66 46.81 45.81 44.61 44.30 43.91 44.37 41.69 43.39 41.57 41.31 40.24 36.78 36.54 43.78 43.77 43.93 41.55 42.82 42.78 42.10 41.70 41.66
58.80 61.12 62.51 63.50 64.64 65.56 65.24 65.27 61.36 57.83 58.43 53.01 46.90 44.62 44.63 45.29 46.78 47.29 47.73 47.32 46.36 46.01 45.01 44.20 43.72 42.86 42.56 41.72 40.86 40.28 40.30 40.63 40.19 37.06 35.06 38.87 41.25 42.36 42.41 41.97 41.47 41.05 41.28
57.89 61.08 62.25 62.98 63.75 64.97 64.93 63.15 59.39 60.28 53.37 47.75 44.72 42.77 43.37 44.17 45.40 46.82 46.48 46.28 45.60 44.56 43.84 43.38 43.17 42.46 41.77 41.12 40.71 40.11 38.79 37.52 37.26 36.90 35.52 36.07 36.12 38.97 40.88 40.91 40.64 40.18 40.50

GFSSE_sfc_wetblb_018.txt.gz
Wetbulb
70.26 72.72 74.80 73.50 72.98 72.41 71.91 71.40 70.93 70.18 70.12 70.78 71.86 72.12 71.77 70.97 70.19 69.77 69.38 68.59 67.94 67.23 66.72 68.35 69.01 69.60 70.96 71.06 70.39 69.85 69.02 68.31 67.83 67.25 65.91 64.50 65.47 66.82 67.06 67.93 67.97 67.37 67.64
71.53 72.65 74.38 73.71 72.79 72.38 71.43 71.02 70.07 69.45 69.42 69.49 70.35 71.15 71.60 70.86 70.19 69.81 68.43 68.01 67.34 66.72 66.72 67.38 67.68 67.91 68.24 68.31 68.08 67.77 67.42 66.99 66.63 66.30 66.59 66.49 66.57 66.63 67.28 67.07 67.03 66.63 66.49
71.34 72.69 72.70 73.82 73.43 72.34 71.24 70.51 69.78 68.77 69.66 70.42 70.71 71.01 70.71 70.25 69.93 68.46 67.93 67.48 66.84 66.38 66.73 67.02 67.16 67.14 67.19 67.41 67.11 66.43 66.11 65.57 64.95 65.38 67.00 63.71 62.92 65.84 66.35 66.87 67.83 66.60 66.89
72.41 71.78 71.66 73.89 73.51 72.16 71.16 70.45 69.33 68.67 69.78 68.96 68.12 68.56 68.40 68.15 68.37 68.41 68.08 67.87 66.59 66.32 66.24 66.64 66.87 66.74 66.86 67.05 67.24 67.73 67.85 67.12 66.58 67.53 64.60 63.58 63.96 65.84 64.88 65.31 66.50 66.90 67.11
71.22 71.39 72.25 73.90 73.49 72.49 71.19 70.66 69.19 69.00 69.44 69.76 68.46 68.56 68.58 68.20 68.26 68.35 68.07 68.06 66.78 66.44 66.55 66.94 67.24 67.33 67.33 67.20 67.15 66.96 67.89 67.87 68.34 67.34 64.63 62.99 62.65 67.11 67.52 67.19 66.22 66.25 66.95
70.94 71.56 73.02 73.73 73.46 72.87 71.67 70.66 70.13 68.25 68.91 68.49 68.79 68.80 68.35 68.09 68.47 68.31 68.06 68.19 67.14 66.86 67.06 67.72 67.79 67.70 67.45 67.33 67.33 67.50 67.52 67.32 67.72 62.96 63.52 65.51 64.84 68.21 68.05 67.38 67.22 67.69 66.87
70.44 71.31 72.46 73.94 73.44 72.94 71.54 70.67 69.99 68.75 68.39 68.58 68.37 69.25 69.59 69.30 68.93 68.25 68.81 68.25 67.53 67.38 67.55 67.80 68.37 68.25 67.85 67.94 68.43 68.18 67.72 67.67 65.46 65.24 64.80 65.30 66.69 68.26 68.14 67.77 68.93 69.38 69.46
70.79 71.30 71.89 72.90 73.16 72.79 71.95 71.40 70.54 69.28 68.75 68.72 68.29 68.22 68.82 68.42 69.49 69.89 68.95 68.35 68.03 67.87 67.71 68.32 68.33 68.44 69.08 68.93 68.35 67.56 66.94 66.82 64.33 63.17 62.81 63.37 66.87 67.77 67.97 67.46 68.89 68.91 68.90
70.92 71.24 70.89 71.12 71.79 71.89 71.60 71.43 70.63 70.00 69.60 69.30 69.30 68.96 68.61 69.38 71.23 70.02 69.14 68.70 68.60 67.78 68.22 69.22 68.81 68.24 67.73 66.60 64.59 62.78 63.29 63.87 60.29 59.43 61.30 60.15 65.55 66.25 67.48 67.31 67.14 66.88 66.86
68.10 70.87 70.68 70.96 70.73 70.11 70.19 70.97 70.47 70.19 69.46 69.29 69.04 69.40 67.94 68.26 69.92 70.09 69.55 69.24 67.99 68.04 68.51 67.40 66.90 65.85 64.27 62.33 60.42 60.20 61.41 61.89 57.40 56.32 57.85 59.20 62.97 64.17 64.98 65.73 65.77 65.82 67.25
67.41 68.08 70.25 70.50 70.26 70.23 69.37 69.49 69.80 69.58 68.81 68.23 68.26 67.35 66.37 64.16 66.35 67.56 67.09 67.53 68.23 67.93 66.80 64.57 62.44 61.08 61.80 62.30 61.60 60.37 60.44 52.48 50.86 52.82 56.61 62.04 62.38 63.42 63.90 65.18 66.07 66.07 66.51
64.90 66.55 67.74 70.14 69.93 69.60 70.25 68.32 67.11 67.25 65.46 64.84 64.90 64.44 63.70 62.51 62.80 64.96 64.81 66.96 67.45 66.79 64.94 62.59 60.35 61.85 61.03 54.72 54.15 56.62 50.51 49.31 49.50 52.05 56.78 62.04 61.60 61.56 65.59 64.43 65.32 64.63 64.32
65.25 66.13 67.29 67.42 68.71 69.56 69.48 67.78 67.05 65.93 64.24 63.50 63.60 63.47 62.60 61.53 61.38 62.85 62.57 63.60 63.54 63.02 59.88 59.39 57.08 54.24 51.65 50.19 49.28 48.03 48.62 47.93 47.54 53.57 58.75 62.87 64.44 64.75 63.04 63.87 62.80 62.41 62.86
64.60 65.99 67.23 68.06 68.76 69.17 69.42 68.15 66.67 66.13 66.06 64.82 64.59 64.27 60.12 59.88 59.43 60.57 62.40 63.23 63.57 61.75 57.46 55.32 53.86 51.14 48.85 47.55 46.45 45.85 46.29 45.99 46.64 52.11 56.22 60.63 61.08 61.54 62.34 61.32 60.23 59.98 59.81
63.28 65.33 67.02 67.68 68.18 69.12 68.40 68.45 66.40 66.50 65.65 65.14 64.48 64.92 61.94 61.20 61.17 60.96 61.24 59.53 57.55 55.11 53.50 51.56 48.69 47.70 46.70 46.50 45.58 44.89 44.95 44.84 45.08 50.54 50.96 57.83 57.68 57.75 58.09 57.75 57.20 56.79 56.59
60.56 64.17 66.69 67.95 68.67 68.54 68.65 68.37 67.31 66.13 65.36 65.27 65.41 65.69 63.05 61.98 61.75 59.62 57.32 56.50 53.65 51.51 49.07 47.41 45.96 45.76 45.05 44.45 44.59 44.01 43.76 44.61 45.14 47.14 48.63 51.17 54.61 53.91 54.06 54.21 54.13 54.24 54.53
58.41 63.13 64.73 67.38 69.04 68.53 68.72 68.60 68.36 66.44 67.11 65.41 66.29 65.96 63.25 63.96 61.68 57.41 54.49 53.36 50.44 48.49 47.93 46.57 45.30 45.25 44.28 44.91 43.12 44.03 43.83 43.61 43.99 46.00 46.93 46.83 48.66 52.29 51.41 51.06 51.36 51.62 52.08
57.76 59.75 63.96 67.67 68.05 68.54 68.39 68.75 68.49 67.17 66.23 65.68 65.74 65.07 64.36 62.62 58.53 54.00 52.31 50.68 48.74 48.01 46.54 44.45 43.22 43.36 42.58 42.05 41.19 41.33 42.29 43.64 43.73 44.09 44.48 44.06 43.93 45.79 48.38 48.91 49.07 49.67 49.56
57.78 57.90 60.06 65.45 66.76 67.68 67.69 68.30 68.60 67.50 66.44 65.67 65.76 64.80 64.01 60.48 56.51 53.36 51.29 48.65 47.81 46.18 44.42 43.93 42.41 41.69 40.17 40.61 41.44 40.62 43.43 42.76 42.99 45.01 42.87 43.69 43.25 42.87 42.39 47.53 48.41 48.55 48.40
56.20 57.47 58.15 59.26 63.90 66.65 67.31 67.36 67.56 66.88 66.03 66.32 65.63 64.01 58.43 54.83 51.37 49.98 51.13 47.57 46.84 44.68 43.15 42.76 41.67 41.56 40.13 39.88 42.95 43.11 42.82 43.47 42.75 42.22 42.50 44.46 41.60 41.67 40.89 40.74 39.69 41.06 47.18
54.69 55.57 57.41 57.62 58.05 62.35 66.50 65.91 66.33 64.54 64.52 63.95 60.66 58.59 54.45 52.12 50.41 49.98 49.56 46.72 45.73 43.44 41.96 42.31 41.44 40.61 39.27 39.13 39.32 40.00 40.87 41.99 43.07 42.84 42.92 40.62 40.90 40.38 39.81 39.19 39.05 38.72 39.16
54.36 54.29 56.06 57.03 58.37 59.35 64.30 66.92 66.18 64.39 63.37 59.39 56.70 53.48 51.06 50.25 50.30 50.57 48.82 45.29 43.73 42.58 41.99 41.30 40.81 40.29 39.21 38.50 36.03 37.14 35.61 38.49 40.15 40.81 40.00 40.59 38.45 39.21 39.59 39.63 38.55 38.23 37.22
54.93 54.51 56.13 56.79 57.75 60.30 61.72 65.32 61.35 56.77 54.83 52.31 49.91 46.28 47.00 47.29 48.13 49.66 48.12 45.14 43.46 42.86 41.04 40.25 39.59 39.05 37.98 37.81 37.46 35.66 33.04 32.46 33.31 37.57 38.50 38.13 38.33 36.85 37.08 38.36 38.77 38.32 37.37
54.56 56.16 55.70 56.87 58.13 60.85 65.28 62.64 58.82 57.41 52.58 51.34 49.13 48.53 44.67 45.79 46.65 48.27 47.41 45.63 42.72 42.06 40.14 39.30 40.39 38.30 38.29 36.06 37.40 39.01 35.55 34.40 30.88 30.15 35.57 36.45 37.00 37.58 36.30 36.45 36.87 37.02 37.01
50.12 54.56 56.36 56.78 58.63 62.41 64.75 62.25 58.53 54.00 54.52 49.30 46.27 45.80 43.98 46.24 46.64 46.98 46.52 44.72 41.64 40.97 38.93 38.92 38.32 37.40 37.18 36.32 35.53 34.93 34.47 34.32 33.67 31.06 28.83 31.73 34.79 36.14 36.35 36.36 35.53 35.79 36.66
49.40 51.02 55.44 56.82 58.51 61.65 64.16 61.91 58.89 54.93 52.77 45.17 44.51 43.71 44.89 45.17 45.17 43.64 45.49 43.91 40.45 39.63 39.01 38.40 37.93 37.33 36.54 36.09 35.78 35.24 34.31 32.68 31.68 30.69 28.95 29.16 29.92 33.00 34.25 35.35 35.53 34.73 35.20

GFSSE_sfc_wetblb_021.txt.gz
Wetbulb
69.76 72.24 74.63 73.37 72.88 72.38 72.02 71.62 71.16 71.22 72.18 72.66 72.83 72.67 71.63 71.04 70.57 69.87 69.10 68.45 67.60 67.24 68.17 69.09 69.82 71.25 71.36 71.04 70.46 69.51 68.96 68.13 67.37 66.34 65.70 65.11 66.36 67.31 67.30 67.82 67.88 67.37 67.28
71.31 72.43 74.28 73.63 72.82 72.31 71.82 70.80 70.08 70.04 71.26 71.46 72.19 72.19 71.43 70.76 70.47 69.31 68.36 67.71 67.06 67.09 67.47 68.26 68.56 68.66 69.00 68.71 68.16 67.64 67.12 66.08 65.49 65.35 66.01 65.35 67.47 66.75 67.48 67.53 67.12 65.97 66.18
71.40 72.25 72.32 73.71 73.46 72.08 71.17 70.37 69.62 69.57 69.77 70.23 71.05 72.02 71.36 70.82 69.28 68.57 67.82 66.95 66.62 67.00 67.34 67.83 67.88 67.96 68.03 67.82 67.25 66.82 66.56 65.40 64.96 65.33 66.66 62.54 62.47 65.85 66.34 67.03 66.98 66.19 66.54
71.66 71.80 71.44 73.70 73.21 71.72 70.92 70.22 69.32 70.75 69.59 70.06 70.73 70.43 70.00 69.84 68.92 68.24 67.93 66.86 66.72 66.66 66.93 66.98 66.78 66.92 66.95 67.06 67.62 68.07 68.20 66.96 67.10 68.07 64.49 62.75 63.27 66.27 65.09 64.61 65.78 67.05 67.40
70.88 71.29 71.72 73.60 73.04 71.82 70.93 69.80 69.73 70.23 69.18 69.68 70.02 69.70 68.97 68.75 69.00 68.71 68.57 67.06 66.88 67.01 67.31 67.59 67.45 67.33 67.15 67.12 67.23 67.05 67.34 67.24 67.74 65.88 63.09 61.71 63.57 67.27 67.69 67.21 66.15 65.81 65.98
70.02 70.48 72.58 73.20 73.03 72.38 71.67 70.30 69.85 69.91 69.06 69.00 69.34 69.84 69.54 69.05 68.92 68.70 68.54 67.52 67.27 67.51 67.86 68.01 67.98 67.65 67.41 67.64 67.86 67.76 67.35 67.28 67.92 63.98 63.12 66.71 64.66 68.47 68.07 67.19 67.66 68.01 67.97
69.57 71.07 72.05 73.49 73.24 72.52 72.04 71.28 69.96 70.03 69.14 69.38 69.75 69.42 69.19 69.02 69.28 68.80 68.67 67.92 67.63 67.74 67.85 68.50 68.54 68.31 68.32 68.65 68.50 68.13 67.75 67.68 64.36 62.14 65.37 65.14 65.72 68.50 67.84 66.71 68.38 69.48 69.24
69.82 70.93 71.69 72.73 72.97 72.35 71.84 71.48 70.47 70.15 70.13 69.14 69.52 69.74 69.27 69.59 69.58 69.48 68.80 68.33 68.39 67.71 68.57 68.69 68.72 69.17 69.21 68.58 67.63 66.41 65.86 65.62 62.04 59.57 61.77 62.05 67.10 67.12 67.14 65.84 68.02 67.74 67.42
70.32 70.36 71.19 71.23 71.55 71.54 71.17 70.78 70.30 70.21 70.14 69.98 69.82 69.70 68.86 70.48 71.06 69.91 69.05 68.87 68.28 68.05 69.00 69.38 69.01 68.40 67.64 66.06 63.44 61.67 63.07 63.05 57.91 58.12 59.55 59.03 65.50 64.62 65.64 66.07 66.01 65.93 67.82
69.72 70.07 69.69 70.11 70.61 69.98 69.63 70.37 69.80 69.62 69.76 69.80 69.57 69.31 67.97 69.39 69.96 70.24 69.49 69.45 68.12 68.51 68.54 67.92 67.55 66.53 64.80 62.41 60.62 61.28 61.58 58.98 52.36 56.40 57.38 59.51 63.76 63.28 63.80 64.28 65.18 67.07 67.01
69.27 69.18 69.40 69.40 69.26 69.07 68.90 69.09 69.54 69.33 68.63 68.66 68.52 67.40 66.01 66.13 67.50 67.68 67.29 67.96 68.57 68.46 67.24 65.89 64.58 63.17 62.63 62.54 61.62 61.47 57.22 48.22 49.70 54.86 56.43 63.00 61.36 62.57 66.44 66.13 66.54 66.04 65.53
67.11 68.59 69.23 69.23 68.90 68.76 69.69 67.74 66.59 67.23 65.64 65.15 65.38 64.85 63.68 62.41 64.69 66.13 65.27 67.04 68.17 67.91 66.22 64.41 62.34 61.83 58.90 53.18 50.75 52.91 47.90 46.94 50.02 54.92 58.62 64.53 62.79 65.84 65.41 64.85 64.39 64.12 64.17
64.16 68.31 69.20 69.19 69.19 68.58 68.49 67.33 65.76 64.80 63.35 63.18 63.40 63.26 61.90 61.31 62.53 62.56 63.27 64.03 63.71 63.59 61.01 59.53 56.26 52.24 49.23 47.29 46.21 45.18 46.09 45.65 51.69 54.95 60.87 64.61 64.16 63.40 63.94 62.59 62.32 61.98 61.70
63.49 65.44 67.28 69.37 68.74 68.26 67.93 67.11 65.85 64.82 62.98 61.55 62.29 62.70 59.39 58.55 60.47 60.58 60.94 61.63 61.61 61.09 57.34 54.13 50.58 46.81 45.83 45.09 44.09 43.77 44.16 44.18 49.68 52.47 58.04 61.76 61.60 62.17 61.34 60.60 59.61 58.95 58.61
63.41 64.85 65.77 67.79 68.17 68.39 67.87 67.09 66.16 64.80 64.43 63.00 63.05 62.92 59.36 58.75 57.84 59.20 60.40 61.07 58.03 53.68 51.01 46.92 45.82 45.28 44.18 43.94 43.20 43.03 42.98 42.69 48.70 50.62 52.51 58.92 58.70 58.08 57.73 57.06 56.74 56.40 56.30
63.15 64.66 66.14 66.81 68.37 67.98 68.07 66.73 66.48 65.32 65.25 64.47 63.83 62.49 60.52 60.77 59.68 58.15 56.51 54.23 51.16 48.46 46.33 45.39 44.34 43.74 42.63 42.29 42.63 41.87 41.60 43.18 45.55 47.76 49.23 52.19 55.54 54.24 54.12 54.00 53.96 53.82 54.32
56.81 64.04 65.95 66.84 67.99 67.55 66.93 67.25 67.12 65.23 66.30 65.33 64.65 64.30 61.33 61.23 59.14 55.64 53.43 50.23 47.64 46.16 45.81 44.05 43.34 42.68 42.15 42.69 40.72 41.18 41.68 41.66 42.60 46.45 46.00 46.40 48.23 53.85 52.03 51.67 51.83 51.95 52.29
55.12 59.98 66.11 68.18 68.06 67.70 67.21 67.27 67.65 67.05 65.03 65.61 65.99 65.52 63.07 60.36 57.30 53.96 51.71 47.99 46.89 45.96 44.15 42.42 41.77 41.18 40.08 39.56 38.69 39.24 40.84 41.80 41.63 41.90 43.93 44.23 43.81 45.56 48.06 49.10 49.49 50.02 50.63
54.27 55.43 62.62 67.28 67.55 67.40 67.40 67.04 67.91 66.58 65.28 65.71 65.37 64.07 61.84 59.17 56.06 53.20 49.94 46.88 45.88 44.15 42.80 42.86 40.63 39.99 38.39 38.51 39.97 39.35 41.79 41.38 41.22 43.28 40.78 41.32 41.89 41.21 40.56 47.94 48.36 47.89 48.41
54.83 54.71 58.04 65.22 67.53 67.55 67.32 67.35 66.32 66.38 64.58 64.71 64.86 63.45 59.43 57.67 54.24 51.27 47.38 46.00 44.98 42.94 41.72 41.38 40.08 39.36 38.08 37.42 41.43 41.99 41.16 42.15 41.10 40.25 40.54 42.56 40.46 40.19 39.25 38.98 38.53 39.80 46.37
51.57 51.80 54.23 60.65 65.95 66.87 65.99 65.16 65.28 64.91 64.07 63.86 63.61 59.41 54.47 52.40 51.31 49.24 46.59 44.69 43.84 42.35 40.83 40.77 40.01 38.57 37.68 36.97 37.19 38.27 39.78 40.38 41.05 41.43 40.91 38.88 39.50 39.27 38.31 37.62 37.45 37.06 37.89
52.07 51.86 51.88 56.01 63.51 66.25 66.16 65.95 66.04 64.86 61.96 61.89 58.15 55.38 53.40 51.91 50.09 48.11 46.68 44.69 42.77 41.23 40.43 39.99 40.19 38.68 37.53 36.49 35.29 35.90 34.41 37.19 37.82 38.69 38.33 39.13 36.77 37.54 38.14 38.42 37.30 36.81 35.81
49.87 51.54 52.84 53.67 56.73 65.28 65.91 65.10 59.55 56.46 53.73 51.93 53.49 51.84 50.76 50.77 49.35 46.91 45.57 44.22 43.96 41.33 39.72 38.70 38.45 38.74 36.67 36.45 35.24 35.48 32.68 32.38 31.82 35.83 36.51 36.23 35.96 35.20 35.19 36.49 37.34 37.16 36.22
47.59 50.97 52.38 54.38 55.01 57.49 64.89 64.00 61.65 60.73 57.61 52.50 50.18 47.74 49.12 49.05 47.65 46.21 44.97 44.14 44.33 41.25 38.93 38.28 39.13 37.19 37.46 35.20 36.25 37.48 34.21 33.45 30.48 29.93 33.87 34.44 34.89 35.59 34.22 34.56 35.10 35.45 35.76
46.79 48.89 51.79 52.85 54.65 56.86 64.23 63.02 62.37 60.36 52.76 49.36 47.35 46.20 47.54 47.39 47.01 45.42 44.67 43.34 43.40 41.97 37.86 37.87 36.80 36.29 36.20 35.31 34.79 34.13 33.51 33.15 31.89 30.16 28.23 30.84 32.89 34.16 34.49 33.86 33.97 33.96 34.85
46.42 45.75 49.65 51.86 53.52 60.41 62.95 61.71 61.69 56.48 48.06 46.47 46.63 45.00 46.61 46.21 46.07 46.30 44.91 43.13 42.30 40.22 38.81 37.15 36.42 35.96 35.49 35.18 34.88 34.38 33.63 32.13 31.00 29.78 28.00 27.69 28.36 31.08 32.62 33.68 33.19 32.73 32.99

GFSSE_sfc_wetblb_024.txt.gz
Wetbulb
69.34 71.78 74.35 73.15 72.76 72.58 72.35 72.32 72.91 73.38 73.35 73.33 73.03 72.25 71.52 70.93 70.26 69.35 68.69 67.78 67.43 68.24 68.90 70.31 71.78 71.64 71.11 71.00 70.39 69.34 68.43 67.76 66.19 65.75 65.77 66.43 66.77 67.16 67.64 67.53 67.58 67.15 66.78
70.63 72.12 74.00 73.33 72.71 72.43 71.91 71.50 71.53 72.49 72.86 72.83 72.69 72.00 71.46 70.67 69.80 68.61 67.89 67.17 67.06 67.48 68.28 69.22 69.71 70.50 69.93 69.23 68.19 67.37 65.92 65.28 65.21 65.52 65.59 65.62 66.97 66.90 67.54 67.09 67.01 65.24 65.80
71.05 71.97 72.04 73.58 73.10 72.16 71.07 70.32 70.39 70.85 71.74 72.28 72.33 71.68 71.11 70.40 69.38 68.04 66.89 66.67 66.95 67.36 68.05 68.71 68.84 68.79 68.35 67.66 67.14 67.03 66.56 65.79 65.89 65.55 65.80 61.38 61.72 65.84 66.10 66.78 66.19 66.34 66.13
71.17 71.49 71.07 73.45 72.48 71.39 70.58 70.00 70.01 70.40 70.45 70.87 72.09 71.63 70.95 69.51 68.45 67.30 66.78 66.56 66.72 66.90 67.01 67.10 67.29 67.30 67.26 67.36 67.67 68.17 67.79 67.15 67.33 67.73 63.23 62.42 62.84 65.84 64.83 64.51 65.89 66.87 67.08
70.65 70.83 71.18 73.22 72.63 71.11 70.47 69.74 70.94 70.27 70.81 71.19 70.83 70.67 70.11 69.25 68.51 68.12 66.91 66.92 66.88 67.04 67.07 67.03 66.96 66.85 66.83 67.15 67.16 66.88 66.96 66.96 67.67 64.70 62.06 60.82 61.97 67.04 67.42 66.81 66.03 65.77 65.81
69.81 70.02 72.14 72.91 72.68 71.95 70.90 70.83 70.49 69.08 69.26 69.52 69.99 69.87 69.51 69.22 68.91 68.66 67.33 66.95 67.15 67.55 67.76 67.70 67.53 67.44 67.44 67.73 67.79 67.47 67.39 67.72 66.14 62.36 62.34 63.11 64.15 68.33 67.21 66.63 67.76 68.25 68.32
69.12 70.12 71.46 73.06 72.26 71.49 70.94 71.24 71.01 69.76 69.27 69.25 69.27 68.98 69.04 69.22 69.00 68.81 67.83 67.36 67.53 67.72 68.02 68.60 68.20 68.22 68.41 68.51 68.20 67.71 67.38 66.27 60.77 63.06 63.66 64.89 65.19 67.84 67.21 66.39 68.89 68.67 68.55
69.22 70.61 71.09 72.34 72.41 72.08 71.17 70.67 71.13 70.61 69.57 69.51 69.72 69.45 69.35 69.53 69.33 69.22 68.22 67.88 67.87 67.75 68.70 68.65 68.83 69.15 68.97 68.11 66.83 65.44 63.99 64.05 59.23 60.51 60.13 60.80 66.57 66.45 66.95 66.64 66.99 66.70 68.18
69.95 70.04 70.47 70.99 71.14 71.41 71.32 70.25 70.19 70.64 70.37 70.75 70.71 70.52 70.37 70.48 70.19 69.53 68.56 68.64 67.75 68.36 68.85 69.17 69.18 68.52 67.46 65.55 62.95 61.71 62.62 62.30 56.26 58.00 58.65 58.11 65.18 63.75 64.98 65.56 65.46 67.42 67.54
69.16 69.76 70.02 70.34 70.20 69.34 69.18 70.21 69.60 69.73 69.94 69.82 70.15 69.31 68.22 69.47 69.87 70.00 69.26 69.31 68.01 68.77 68.54 68.19 67.92 66.71 64.51 62.12 61.07 62.19 58.99 57.89 54.53 55.78 56.89 58.30 63.49 62.95 63.78 64.40 66.91 67.33 66.95
68.30 69.04 69.39 69.42 69.26 68.45 68.13 68.31 69.23 69.27 69.21 68.94 68.74 67.15 66.94 66.83 67.61 67.73 67.30 68.22 68.59 68.68 67.73 67.03 65.55 63.28 62.79 61.93 61.01 59.67 53.62 48.19 52.91 54.38 55.74 63.30 61.00 66.45 66.75 66.72 65.97 65.99 65.27
66.76 67.74 68.74 68.88 68.65 68.29 69.00 67.32 66.26 66.58 65.54 65.52 65.81 64.61 63.07 65.03 65.75 66.48 65.76 66.98 68.39 68.35 67.03 64.94 62.70 61.97 56.37 50.82 47.47 51.10 45.28 48.89 53.12 56.48 59.00 65.13 65.76 66.14 65.38 64.65 64.51 63.93 63.40
67.35 67.85 68.39 68.48 68.50 68.09 68.14 67.18 65.89 65.06 63.77 63.95 64.01 63.63 62.35 62.07 63.48 63.63 63.28 64.34 64.07 64.30 61.31 58.38 54.24 50.20 46.53 45.05 44.02 43.74 44.00 50.31 53.09 56.21 62.30 65.01 64.57 64.90 63.58 62.37 61.79 61.69 60.91
66.81 67.60 68.29 68.52 68.07 67.70 67.95 66.86 65.85 64.92 63.21 62.40 63.12 62.83 60.88 59.47 61.12 60.94 61.60 61.43 61.48 60.12 56.76 54.56 48.70 44.85 44.30 43.27 42.35 42.36 42.45 48.66 51.51 53.96 59.14 62.80 62.88 62.10 61.10 59.72 58.69 58.09 57.47
63.45 67.43 68.13 68.49 68.06 67.86 66.77 66.35 65.47 64.55 63.17 62.20 61.60 61.96 60.09 59.27 60.87 59.96 60.02 60.38 60.30 59.00 51.30 45.91 44.53 44.11 42.63 42.10 41.85 41.96 41.57 47.36 49.73 51.76 53.81 59.73 59.56 58.59 57.90 57.19 56.38 56.02 55.89
62.00 64.29 67.85 68.35 68.36 67.81 66.93 65.92 65.08 64.45 63.55 61.57 61.70 61.82 59.55 59.83 59.62 59.33 59.16 59.53 53.26 49.85 45.59 44.29 43.67 42.63 41.28 41.26 41.15 40.61 40.80 44.85 47.91 49.14 50.23 52.74 56.76 55.27 54.52 54.14 53.84 53.82 54.25
55.92 64.11 64.85 68.28 68.41 67.36 66.99 65.82 65.20 64.75 64.50 63.10 62.48 62.12 59.97 59.57 58.69 57.65 55.99 52.17 47.86 45.15 44.23 43.31 42.48 41.45 40.96 41.22 39.31 39.67 40.38 40.46 46.12 46.47 46.56 45.69 49.02 54.66 52.43 52.15 52.00 52.05 52.77
53.56 59.24 64.58 67.24 67.62 67.21 67.12 66.20 65.61 65.15 64.69 64.24 63.53 63.20 60.71 60.26 57.74 54.39 51.67 47.78 45.63 44.54 43.16 42.25 41.38 39.80 39.04 38.35 37.62 38.20 39.79 40.38 43.25 43.62 44.21 43.09 43.81 44.61 48.55 49.82 49.90 49.88 50.52
52.44 54.47 62.27 64.83 66.49 66.83 66.62 66.50 65.77 65.24 64.30 64.40 64.58 64.05 61.54 59.59 56.76 53.73 50.07 46.41 45.20 43.46 42.37 42.25 39.60 39.06 37.56 37.41 38.97 38.77 40.47 39.60 39.99 42.87 41.71 40.73 41.62 40.44 39.43 48.41 48.02 47.70 48.16
52.79 52.25 59.10 64.71 66.41 66.73 66.47 66.08 64.14 64.79 64.10 64.69 65.07 64.67 61.93 58.72 55.24 52.89 47.48 45.57 44.09 42.53 41.27 40.57 39.02 37.85 37.01 36.47 40.97 40.65 39.12 40.15 39.03 38.71 38.92 41.24 39.13 39.01 37.88 37.74 37.19 39.89 46.23
49.81 50.10 52.16 62.02 65.76 66.12 65.36 64.67 64.10 63.91 63.82 62.85 64.77 62.84 59.47 57.51 55.61 51.18 46.88 44.77 42.92 42.17 40.83 40.06 39.03 37.69 36.53 35.74 36.91 37.75 38.65 38.72 39.19 39.27 38.75 38.04 38.33 37.60 36.91 36.98 36.41 36.04 37.22
50.10 49.50 49.09 55.87 64.56 66.03 66.04 65.90 64.68 64.48 62.65 63.35 60.04 59.29 58.12 56.07 53.11 50.01 47.71 44.24 42.67 41.06 39.96 39.49 39.35 37.67 36.40 35.02 35.19 35.39 34.17 36.57 37.10 36.88 36.77 37.50 35.24 36.31 36.46 37.05 36.12 35.79 34.92
47.13 48.50 50.31 50.67 60.69 65.97 66.11 64.69 59.57 56.99 55.90 54.52 55.47 55.87 54.44 54.17 51.60 49.90 47.44 44.40 41.71 41.11 40.08 38.95 38.90 38.55 36.01 35.13 34.43 35.54 32.10 32.72 31.56 34.42 35.04 34.73 34.42 34.05 34.33 35.01 35.52 35.43 35.06
46.08 47.15 49.05 50.91 53.45 64.08 65.11 64.27 61.55 61.29 59.73 55.85 56.96 52.95 52.71 52.13 49.99 48.29 46.45 44.45 42.31 41.50 41.35 38.32 39.07 37.72 37.13 34.83 35.09 36.27 33.44 33.09 30.49 30.54 33.09 33.42 33.69 34.29 32.61 33.12 33.60 34.05 33.87
45.25 44.68 46.81 49.62 51.90 58.15 64.37 64.37 62.14 61.45 61.45 53.16 50.42 50.91 50.28 49.16 48.31 46.98 45.96 44.49 42.87 41.08 41.05 40.46 36.68 36.88 36.12 35.27 34.65 33.59 32.75 32.27 31.07 29.90 28.78 30.48 32.55 32.77 33.18 32.91 32.68 32.11 32.65
45.00 45.09 44.55 46.70 49.44 52.68 63.25 63.70 62.37 61.32 51.88 49.77 48.55 48.01 47.84 47.26 46.38 46.26 45.48 44.86 44.07 41.61 40.68 39.42 37.34 36.23 35.25 34.80 34.35 33.91 33.33 32.01 30.76 29.60 27.95 27.39 28.10 30.86 31.87 32.38 31.88 30.86 31.04

GFSSE_sfc_wetblb_027.txt.gz
Wetbulb
68.12 70.87 74.43 73.30 73.30 73.09 73.24 73.71 73.56 74.02 74.06 73.25 72.65 72.12 71.65 70.73 69.99 69.27 68.42 67.78 68.43 68.67 69.84 70.95 70.82 71.08 70.52 70.39 69.98 68.95 67.97 66.49 66.02 66.51 66.64 67.03 67.25 67.46 68.28 67.46 67.53 66.54 66.20
70.03 71.54 73.89 73.01 72.86 72.75 72.93 73.33 73.73 74.01 73.94 73.16 72.49 71.74 71.20 70.36 69.38 68.70 67.64 67.36 67.72 68.05 69.36 70.83 71.48 71.71 70.69 69.28 68.07 66.40 65.20 65.60 65.95 65.84 65.31 66.36 67.04 67.16 67.38 66.85 66.99 64.73 65.94
70.47 71.40 71.28 72.71 72.39 72.32 72.08 72.27 72.64 72.96 73.09 72.84 72.29 71.83 70.93 69.97 68.72 67.58 66.90 66.90 67.25 67.72 68.64 69.11 69.36 68.98 68.42 67.65 66.90 66.22 65.95 66.29 66.36 66.07 65.62 60.77 61.19 66.06 66.07 66.44 65.87 65.93 65.55
70.76 71.03 70.70 72.80 72.21 71.93 71.10 70.76 71.27 72.04 72.56 72.57 71.92 71.42 70.70 69.61 67.89 66.94 66.64 66.94 67.13 67.58 68.01 68.00 67.96 67.76 67.64 67.53 67.69 67.84 67.86 67.61 67.16 66.51 62.11 61.55 62.17 65.77 64.92 64.66 65.88 66.70 66.79
70.29 70.46 70.89 73.10 72.52 71.02 70.39 70.01 69.91 70.27 70.63 72.16 71.73 71.35 69.92 68.88 67.60 67.05 66.72 66.66 66.75 66.69 66.53 66.60 66.58 66.64 66.79 67.22 67.12 67.33 67.47 67.59 66.95 64.14 61.19 60.51 60.77 66.65 67.47 66.79 66.13 66.13 65.96
69.29 69.41 71.93 72.66 71.91 71.56 70.24 70.54 70.89 71.05 71.25 71.75 71.62 70.60 69.64 68.86 68.27 67.11 66.93 66.81 66.97 67.09 67.17 67.00 66.86 66.93 67.16 67.48 67.62 67.73 67.89 66.77 63.73 61.01 60.72 61.79 63.16 67.87 67.16 66.39 68.06 68.67 68.61
68.31 69.38 71.07 72.72 71.72 70.73 70.46 71.54 70.28 69.77 70.34 70.02 69.68 69.80 69.65 68.95 68.82 67.66 66.96 67.13 67.43 67.66 67.79 67.81 67.62 67.92 68.23 68.28 67.98 67.36 65.81 63.69 61.82 62.43 63.29 63.51 64.42 67.40 66.96 67.11 68.29 67.92 68.59
68.66 69.98 70.60 71.61 71.93 71.26 70.86 71.37 70.80 70.35 69.51 69.61 70.18 69.52 69.50 69.11 69.00 68.26 67.57 67.30 67.45 67.69 68.40 68.36 68.49 68.66 68.50 67.46 65.65 63.69 63.10 62.28 60.74 59.21 59.44 59.49 65.35 66.05 66.94 66.78 66.63 67.92 68.78
69.34 69.57 69.62 70.05 70.62 70.87 70.53 70.89 70.48 70.38 70.14 70.24 70.26 70.35 70.23 69.96 69.73 68.96 68.23 67.93 67.55 68.23 68.50 68.54 69.06 68.26 66.97 63.81 61.68 61.71 61.57 61.57 57.00 56.48 57.84 57.27 64.75 63.70 64.80 65.33 65.55 67.64 67.46
68.70 69.24 68.90 69.29 69.61 69.01 68.51 69.71 70.07 69.97 70.11 70.39 70.33 69.82 69.02 69.05 69.45 69.66 69.01 69.04 67.67 68.41 69.05 68.73 67.97 66.73 63.96 61.25 61.20 59.34 60.47 59.13 54.06 55.22 55.67 56.64 63.17 62.78 63.99 65.17 67.69 66.96 65.97
68.00 68.44 69.38 69.31 68.65 67.93 67.72 67.97 68.98 69.41 69.17 69.21 68.99 67.60 66.47 66.39 67.30 67.36 67.13 68.15 68.45 68.87 68.01 67.72 66.26 63.81 61.95 60.97 59.37 56.34 53.36 51.86 52.34 53.67 54.59 60.80 63.73 66.94 67.25 66.63 66.34 65.29 64.74
66.50 67.88 68.98 69.19 68.25 67.52 68.46 66.54 65.63 66.41 66.32 65.73 65.96 64.18 64.71 65.08 65.79 66.53 65.70 67.14 68.47 68.62 67.66 65.89 63.43 60.93 53.57 47.10 45.65 49.39 46.23 51.00 53.96 56.05 58.62 64.10 65.91 66.10 65.46 64.93 64.11 63.47 63.09
66.73 67.50 68.10 68.71 68.43 67.49 67.36 66.23 64.82 64.45 63.80 63.97 64.08 63.15 62.17 64.19 64.37 64.16 63.75 64.41 63.83 64.79 61.70 57.20 51.89 48.21 44.64 43.82 43.00 42.55 47.74 51.30 53.42 56.44 61.59 65.42 65.03 64.38 63.09 62.35 61.48 61.02 60.20
66.20 66.97 68.05 68.50 68.17 67.44 67.47 66.46 65.38 64.55 62.81 62.10 63.06 62.85 60.84 60.53 61.97 61.78 61.94 61.95 61.63 60.31 56.21 52.90 47.04 43.56 43.02 41.95 41.47 41.41 46.12 50.41 52.56 54.43 58.88 63.32 62.81 62.06 60.92 59.52 58.49 57.96 57.79
65.88 66.79 67.52 68.07 67.80 67.50 66.78 66.59 65.50 64.74 63.71 62.60 62.03 62.34 61.16 59.18 60.44 60.64 60.51 60.33 59.93 58.50 53.54 47.96 43.54 42.93 41.48 41.17 40.67 40.86 44.61 48.88 50.52 52.54 53.92 60.00 60.40 59.19 58.52 57.19 56.48 56.35 56.37
63.76 66.82 67.38 67.66 67.71 67.41 66.71 66.12 65.34 64.91 63.98 62.13 61.33 61.83 60.83 59.46 59.54 60.35 59.11 59.16 58.96 56.57 47.04 43.95 42.87 41.85 40.65 40.39 39.92 39.72 42.14 47.70 49.07 49.92 50.27 52.44 57.95 56.21 55.14 54.67 54.50 54.53 54.84
58.63 63.27 67.04 67.06 67.66 67.14 66.74 66.02 65.24 64.65 64.08 62.24 61.32 61.00 61.10 59.07 58.95 59.84 58.51 57.67 54.03 47.88 43.94 42.39 41.42 40.82 40.26 40.27 38.17 38.88 39.74 44.71 47.01 47.74 46.21 46.03 49.25 55.01 53.66 52.62 53.12 52.77 52.99
52.52 57.20 64.08 68.37 67.76 67.22 66.89 65.88 65.44 64.52 63.62 62.44 61.34 61.37 60.97 58.95 58.51 57.52 56.60 54.61 46.50 43.77 42.88 42.09 40.98 39.48 38.33 37.72 37.14 37.44 38.63 41.07 44.27 44.08 43.89 42.79 43.60 43.72 48.91 50.71 50.15 49.91 50.85
51.73 52.80 60.67 65.15 67.44 67.03 66.63 66.05 65.26 64.33 63.66 63.23 62.27 61.69 60.56 59.27 57.73 55.45 53.63 48.51 44.63 42.97 42.12 42.09 39.52 38.76 36.99 36.81 38.16 38.37 39.09 38.11 42.34 44.01 41.53 40.99 41.79 39.57 40.53 48.47 48.30 47.81 48.12
50.42 51.17 57.13 63.48 65.92 66.93 66.60 65.95 64.73 64.26 63.87 63.40 63.31 62.67 60.12 59.59 56.36 54.01 48.75 45.91 44.28 42.42 41.04 40.35 38.76 36.85 36.42 36.46 40.72 39.90 37.84 38.52 38.01 39.14 39.25 40.15 39.48 38.18 37.24 37.01 36.35 38.19 46.82
48.59 48.51 50.70 60.52 64.26 65.60 65.08 64.46 63.87 62.81 63.06 62.61 63.31 63.25 60.50 60.04 57.28 53.74 50.09 47.00 45.81 44.67 41.09 40.02 38.29 36.84 35.63 35.51 37.07 37.52 37.56 37.87 37.48 37.67 37.41 37.28 37.21 36.42 35.84 35.83 35.50 35.20 35.86
48.84 48.43 47.69 53.25 62.66 65.12 65.53 65.23 64.36 64.31 63.81 63.03 62.66 61.81 60.77 58.48 56.89 52.99 49.99 47.43 45.53 43.23 40.05 39.44 39.12 36.94 35.51 34.31 35.15 35.21 34.33 36.22 36.06 35.88 35.71 36.65 34.64 35.46 35.83 35.97 34.94 34.68 34.00
46.19 47.51 48.85 48.57 55.49 64.20 65.75 63.86 58.93 58.47 56.79 56.57 57.48 57.47 58.04 57.78 56.30 53.98 50.36 48.16 45.56 43.79 41.09 39.69 39.01 38.58 35.60 33.93 34.01 35.82 31.93 32.41 32.04 33.58 33.76 33.87 33.63 33.62 33.67 34.48 34.63 34.28 33.51
45.16 45.96 47.18 48.65 49.90 58.77 65.16 63.59 61.30 61.32 60.11 61.10 57.70 58.41 55.27 55.66 54.87 53.24 50.16 47.24 45.20 44.13 41.26 40.33 39.95 38.21 37.12 34.67 34.14 35.26 32.74 33.25 31.18 30.15 32.33 32.76 32.94 33.46 31.89 32.73 32.70 33.16 32.72
44.52 44.18 44.60 46.17 48.67 51.73 62.70 64.49 62.70 61.27 61.95 60.76 53.96 54.54 53.77 52.85 52.68 50.84 49.78 46.91 44.63 44.06 42.76 40.36 38.08 37.19 36.76 35.57 34.80 33.15 32.13 31.64 30.64 30.06 29.02 30.07 31.95 32.20 32.27 32.00 31.46 30.93 31.67
42.43 43.59 43.34 43.94 45.79 49.26 58.47 63.40 62.56 61.46 55.90 53.46 51.72 53.85 51.31 49.94 47.89 47.31 47.63 46.71 44.94 43.62 43.11 41.81 39.31 38.60 37.25 35.22 34.34 33.70 33.26 32.29 30.87 29.80 28.19 27.52 27.74 30.13 31.03 31.16 30.61 29.96 30.26

GFSSE_sfc_wetblb_030.txt.gz
Wetbulb
65.80 69.92 74.70 73.87 73.87 73.45 73.95 74.24 74.55 74.75 74.39 73.82 73.31 72.39 71.67 70.87 70.19 69.40 68.58 68.84 68.92 69.71 70.71 70.32 71.02 70.93 70.50 70.06 69.54 68.26 67.05 66.55 67.10 67.12 67.49 67.80 67.68 68.38 68.20 67.82 68.16 65.68 66.48
68.58 71.07 74.24 74.28 73.73 73.21 73.44 73.98 74.34 74.40 74.14 73.17 72.69 71.89 71.00 70.32 69.59 68.50 67.90 67.96 68.26 69.00 71.18 71.35 71.69 71.17 70.56 69.03 67.27 65.72 65.91 66.72 66.57 66.05 66.08 66.07 67.94 67.56 67.81 67.32 66.91 64.66 67.05
69.82 71.08 71.36 73.96 73.53 73.20 73.87 73.74 73.72 73.73 73.84 73.36 72.26 71.54 70.58 69.68 68.78 67.53 67.07 67.32 67.57 68.36 70.32 70.37 70.12 69.30 68.52 67.59 66.60 66.11 66.81 67.17 67.02 66.25 65.09 60.80 61.89 66.24 66.04 66.28 66.21 66.16 66.10
70.37 70.40 69.55 72.81 73.03 72.40 72.73 72.80 72.99 73.18 73.28 72.68 72.15 71.43 70.42 69.24 67.50 66.94 67.24 67.38 67.68 68.42 69.32 68.92 68.49 68.32 68.02 67.44 67.57 67.81 68.15 67.71 66.98 65.84 61.53 61.06 62.18 67.00 65.91 65.58 66.30 66.54 66.99
69.55 69.86 69.48 72.61 72.43 71.84 71.71 71.65 71.99 72.52 72.89 72.68 71.97 71.28 70.24 68.63 67.31 67.18 67.28 67.23 67.33 67.36 67.38 67.40 67.16 67.11 67.25 67.54 67.59 67.86 68.16 67.72 66.25 63.80 60.25 60.20 61.54 66.74 67.80 67.50 66.82 66.94 66.27
68.44 68.82 71.13 72.72 72.31 71.68 70.98 70.43 70.61 70.73 71.49 72.50 71.71 70.64 69.67 68.42 67.53 67.38 67.19 67.09 67.11 67.05 66.99 66.90 66.97 67.16 67.56 67.88 67.93 68.21 67.15 65.55 63.99 61.28 59.76 61.37 63.09 67.78 67.52 67.58 69.21 69.00 69.20
67.51 68.97 70.76 72.66 71.62 70.72 70.55 71.39 71.55 70.91 71.12 72.08 71.70 70.39 69.57 68.78 67.61 67.22 67.16 67.25 67.64 67.71 67.72 67.66 68.02 68.46 68.62 68.36 67.72 66.50 65.00 65.54 61.84 61.63 62.04 63.04 63.71 67.61 67.12 68.25 67.60 68.83 69.32
68.21 69.67 70.05 71.29 71.73 71.12 71.24 71.31 71.01 71.04 70.99 70.70 70.86 70.54 69.72 69.05 68.48 67.58 67.30 67.52 67.74 68.07 68.59 68.51 68.71 68.93 68.25 66.28 64.34 63.62 63.69 63.45 59.82 58.91 58.79 58.28 64.76 66.29 66.76 66.76 67.18 68.37 68.25
68.93 69.09 68.76 69.25 70.12 70.60 70.85 70.79 70.30 70.61 70.52 70.54 70.61 70.50 70.21 69.91 69.29 68.13 67.59 67.50 67.75 68.35 68.58 68.71 69.13 68.09 65.19 62.41 62.43 62.36 63.05 61.81 55.24 55.87 57.27 56.86 64.91 64.35 65.05 64.88 67.95 67.70 66.96
68.30 68.70 67.87 67.98 68.66 67.84 68.22 70.36 69.98 69.90 69.80 70.10 70.10 69.65 68.84 68.83 69.37 68.96 68.73 68.62 67.59 68.31 68.45 69.01 68.14 65.93 62.36 61.54 60.54 61.33 60.85 58.67 53.36 53.73 53.81 55.39 63.51 63.64 64.88 67.85 67.11 66.23 65.54
67.79 68.18 67.88 67.49 67.53 67.25 66.60 67.78 69.38 69.42 69.06 69.09 68.88 67.96 66.93 65.63 66.76 66.96 66.80 67.87 68.32 68.72 68.29 67.96 66.52 63.41 61.27 59.71 58.28 56.94 55.96 51.31 51.75 52.96 54.03 61.46 66.60 67.52 67.36 66.39 65.53 64.90 64.08
66.15 67.31 68.58 68.73 67.63 67.10 68.23 66.81 66.20 66.61 66.24 65.99 66.16 64.69 63.81 64.35 65.28 66.22 65.40 67.12 68.25 68.52 67.89 66.60 63.50 59.03 52.52 45.03 45.77 50.53 49.30 51.66 54.08 56.70 58.71 64.83 66.59 66.61 65.40 64.46 63.61 63.29 62.60
65.99 66.60 67.45 67.80 68.49 67.07 67.15 65.50 64.96 64.44 64.58 64.36 64.47 63.28 62.63 64.17 64.35 64.24 63.92 64.35 63.84 64.21 60.87 55.47 49.70 46.08 43.63 43.04 42.54 44.39 49.90 52.09 54.20 56.06 61.46 66.00 64.95 64.20 63.05 62.19 61.05 60.25 59.77
66.18 66.47 67.39 67.62 67.71 67.34 66.73 65.96 64.72 64.19 63.72 63.64 63.69 62.92 60.93 62.11 62.65 62.46 62.46 62.14 61.76 60.27 56.25 51.20 45.16 42.62 41.97 41.19 40.98 43.25 49.01 51.63 52.92 54.25 59.41 63.46 63.00 62.02 61.02 59.72 58.96 58.39 58.24
65.49 66.38 67.15 67.64 67.43 67.12 65.93 66.34 64.57 64.11 63.70 64.13 63.31 62.70 60.99 60.73 61.55 61.38 61.07 60.76 60.09 58.11 54.28 48.22 42.92 41.96 40.73 40.54 40.28 42.25 48.12 50.02 50.80 52.47 54.00 60.52 61.57 59.99 59.08 57.86 57.35 56.80 56.86
65.54 66.35 67.26 67.38 67.43 67.46 66.74 66.55 64.84 64.39 63.64 62.13 61.86 62.54 61.41 59.92 60.56 60.93 59.84 59.60 59.00 57.40 49.72 45.00 42.30 41.09 40.29 39.85 39.14 40.42 46.83 49.02 49.49 49.70 49.69 53.26 58.84 57.36 56.19 55.87 55.47 55.50 55.64
62.21 66.55 66.42 67.20 67.84 67.18 66.54 66.66 65.29 64.76 64.28 62.86 61.85 61.35 61.82 60.03 59.10 60.12 59.54 58.57 58.04 54.03 44.71 42.25 40.96 40.24 39.93 39.58 37.73 38.60 43.42 46.17 47.85 47.50 45.69 46.34 48.96 55.75 54.67 54.69 53.68 53.37 54.18
53.43 60.67 65.98 67.88 67.69 67.20 66.91 66.75 65.91 64.90 64.17 63.13 61.80 61.19 61.54 60.23 59.34 58.66 58.91 58.40 53.47 46.74 43.24 41.83 40.67 39.30 38.19 37.91 36.59 37.53 38.39 44.36 45.43 44.48 43.38 42.77 42.88 43.26 49.49 51.67 50.93 51.23 51.07
50.52 51.54 58.96 66.39 67.01 67.00 67.20 66.46 65.70 64.67 63.70 63.07 61.49 60.79 60.72 59.71 59.17 58.66 58.41 56.26 47.16 43.60 42.39 41.97 39.33 39.03 37.17 36.49 37.28 38.15 37.80 38.82 42.72 43.92 40.75 40.79 41.51 39.14 40.78 49.12 49.04 48.61 48.54
49.14 50.01 51.64 60.77 66.45 66.83 66.94 66.38 65.70 64.13 63.63 62.78 61.99 60.64 60.39 59.80 58.26 57.80 55.83 51.50 45.49 42.59 41.21 40.41 38.79 36.83 36.59 36.62 40.35 38.74 37.50 37.12 39.17 39.99 39.63 39.89 39.11 37.17 36.50 36.06 35.88 37.71 47.20
48.12 47.90 49.34 54.62 61.93 66.13 66.34 65.15 64.59 63.30 63.32 62.13 62.92 61.89 60.39 59.55 57.70 56.06 53.36 50.10 45.50 43.85 43.35 42.37 38.56 36.81 35.50 36.08 37.50 36.91 36.45 36.70 36.39 36.59 36.63 36.69 36.56 35.63 35.17 35.12 34.90 34.69 35.71
47.68 47.43 47.50 50.04 57.91 63.74 65.52 65.44 64.64 64.64 64.14 63.73 63.20 62.61 61.43 59.63 58.30 56.20 53.63 50.71 47.90 45.27 42.97 41.82 38.86 36.67 35.13 34.93 35.33 35.21 34.04 35.65 35.30 35.14 35.09 36.33 34.28 34.76 35.17 35.01 34.10 33.84 33.33
44.86 46.50 47.41 47.58 52.77 61.52 64.77 64.85 59.91 59.11 58.24 59.32 59.58 61.13 60.40 59.67 58.09 55.99 52.93 50.83 48.30 47.44 44.50 42.60 39.85 38.71 35.30 33.49 34.06 36.26 31.85 32.98 32.72 32.81 32.97 33.23 32.98 32.90 32.66 33.79 33.56 33.46 32.51
43.65 44.72 46.25 47.25 48.02 54.12 62.95 63.51 62.60 62.10 61.12 60.97 61.77 61.88 58.56 58.70 57.78 55.48 53.31 52.28 49.35 47.13 45.18 43.02 41.97 39.45 37.12 34.30 33.42 34.77 32.39 33.71 32.23 30.19 31.77 31.99 32.03 32.69 31.45 32.22 31.89 31.89 32.01
42.49 42.11 43.28 45.17 46.54 48.92 57.39 63.70 62.14 61.78 62.13 60.10 60.86 60.40 58.68 57.13 56.91 55.82 53.38 52.06 48.68 48.05 46.30 44.47 41.49 40.73 38.37 35.66 34.71 32.60 31.91 31.08 30.29 30.52 29.05 30.06 31.42 31.94 31.69 31.55 31.08 30.50 30.95
42.29 43.85 42.69 42.04 44.00 46.12 50.09 61.20 62.49 61.73 61.07 56.01 54.96 57.65 56.53 55.06 54.57 53.92 52.36 49.57 48.74 47.05 45.33 44.01 42.65 41.58 40.16 38.75 35.24 34.29 34.53 32.97 30.95 29.87 28.60 27.77 28.60 29.99 30.47 30.79 30.18 29.58 29.69

GFSSE_sfc_wetblb_033.txt.gz
Wetbulb
68.63 73.19 74.84 74.71 75.04 74.71 74.68 74.79 75.29 75.14 75.03 74.43 73.88 73.04 71.98 71.21 70.48 69.70 69.53 69.56 69.71 70.23 70.16 70.54 71.28 70.90 70.37 69.39 68.75 67.66 67.39 67.77 67.80 68.17 68.28 68.79 68.64 68.62 68.57 68.63 66.99 66.46 67.33
69.89 72.94 74.26 74.49 74.14 74.06 74.55 75.30 75.15 74.99 74.84 74.02 73.22 72.13 71.22 70.57 69.61 68.88 68.57 68.71 68.81 70.63 71.49 71.33 71.29 70.93 70.15 67.97 66.59 66.67 67.39 67.24 66.74 66.64 66.53 67.40 68.60 68.02 67.96 67.29 66.63 67.02 67.48
70.37 72.84 72.20 74.22 74.26 74.04 74.46 74.42 74.63 74.46 74.20 73.41 72.75 71.89 70.71 69.88 68.72 67.81 67.67 68.02 68.64 71.17 71.56 71.58 70.54 69.57 68.60 67.20 66.54 67.23 67.65 67.66 66.89 66.11 65.40 66.60 66.69 66.22 66.54 66.44 66.91 66.32 67.12
71.52 72.25 71.68 73.74 74.11 74.22 74.40 74.59 74.33 74.06 73.49 73.42 72.40 71.33 70.51 69.17 67.62 67.40 67.57 67.70 68.15 70.54 70.30 69.74 69.10 68.82 67.98 67.50 67.89 68.36 68.21 67.76 66.84 65.17 65.60 66.54 67.57 67.94 66.44 66.16 66.17 66.23 67.07
71.34 71.30 71.04 73.16 73.26 73.00 73.10 73.22 73.58 73.64 73.35 72.82 72.11 71.19 70.14 68.26 67.33 67.68 67.71 67.94 68.18 68.97 68.73 68.06 67.96 67.87 68.06 67.88 68.14 68.58 68.14 67.43 66.25 65.33 65.63 66.96 68.51 68.25 67.83 68.35 67.95 67.45 67.03
70.81 70.77 71.45 72.82 72.67 72.58 72.59 72.24 72.63 72.92 73.32 72.80 72.15 70.99 69.48 68.02 67.63 67.65 67.55 67.39 67.30 67.33 67.32 67.15 67.22 67.57 67.87 68.04 68.54 67.92 66.65 66.69 64.98 65.80 65.52 66.86 68.46 67.91 67.95 68.93 68.78 69.20 69.83
70.24 70.66 70.82 72.90 72.43 71.85 71.69 71.66 71.95 71.67 72.22 72.71 71.75 70.69 69.44 68.07 67.85 67.66 67.54 67.62 67.65 67.51 67.46 67.61 68.30 68.86 68.77 68.07 67.35 66.21 66.77 65.46 66.10 66.21 66.68 67.52 67.35 67.64 68.22 67.58 69.20 69.35 69.39
70.02 70.76 70.82 71.80 71.78 71.59 71.37 71.61 71.57 71.38 71.08 72.41 71.95 70.58 69.78 68.50 67.81 67.58 67.65 68.04 68.11 68.33 68.40 68.77 68.94 68.74 67.07 65.19 64.53 64.65 65.33 64.13 65.35 65.98 64.96 64.42 65.78 66.16 66.27 66.37 68.31 68.22 67.53
70.62 70.70 70.84 70.78 70.63 70.73 71.29 71.22 71.22 71.69 71.96 71.80 71.63 71.27 70.25 69.85 68.71 67.63 67.71 67.89 68.22 68.99 68.92 68.96 68.87 66.61 63.49 63.49 63.17 63.88 63.57 61.20 62.67 62.27 61.53 63.42 65.66 64.59 64.83 67.20 67.71 67.02 66.13
70.36 70.35 70.26 70.48 70.31 69.54 70.30 70.10 69.90 70.43 70.37 70.58 70.30 69.67 68.86 68.71 69.04 68.74 68.46 68.48 68.09 68.65 68.43 69.04 67.57 63.80 62.43 61.93 62.96 63.02 61.20 59.12 60.13 59.57 60.40 62.27 63.69 64.66 67.65 67.55 66.97 66.10 65.33
68.90 69.84 70.12 69.89 69.93 69.27 69.88 69.25 69.28 69.38 69.06 69.05 68.79 67.92 67.62 68.52 68.71 68.20 67.19 67.73 68.41 68.83 68.77 67.97 65.73 62.79 60.74 59.94 58.87 59.07 57.34 58.52 58.90 59.97 61.07 63.44 67.84 68.05 67.04 65.96 65.20 64.56 63.94
66.82 67.56 69.12 69.66 69.56 68.95 68.49 69.44 69.09 68.53 68.50 68.71 68.75 68.91 68.54 68.70 68.98 68.19 66.40 67.05 68.14 68.52 68.12 66.40 63.18 59.07 53.62 52.73 53.62 55.68 57.55 58.97 61.69 63.54 64.46 66.00 66.96 66.48 65.35 64.33 63.47 62.97 62.12
66.48 66.66 68.06 68.16 69.37 69.24 68.31 68.39 68.53 68.14 67.89 68.44 68.68 68.30 67.75 67.58 68.21 68.50 68.01 68.08 68.00 65.61 64.12 60.03 55.88 52.97 51.68 51.43 51.86 55.69 57.37 60.15 62.11 63.95 65.55 66.42 65.29 64.30 63.34 61.95 61.11 60.65 60.31
66.23 66.64 67.42 67.68 67.72 68.42 69.26 67.98 67.24 67.02 67.50 67.17 67.52 67.73 66.10 66.80 67.33 67.80 67.38 67.62 67.14 66.21 62.33 58.07 53.66 50.71 49.66 49.29 50.35 54.05 56.74 59.77 61.02 62.57 63.37 63.57 63.44 62.15 61.32 60.20 59.57 59.32 59.14
65.81 66.78 67.24 67.68 67.60 68.00 67.78 68.34 67.48 66.46 66.96 67.22 66.91 66.86 65.58 66.42 66.98 67.23 66.97 66.70 66.17 64.70 61.95 56.06 51.71 49.92 48.93 48.46 48.94 52.83 56.13 58.42 59.28 60.37 61.86 61.40 62.20 60.65 59.61 58.68 58.02 57.86 57.60
67.24 67.39 67.70 67.45 68.05 68.07 67.37 67.56 67.54 67.14 66.45 66.66 66.62 66.38 65.53 65.81 66.87 66.53 66.03 65.63 64.97 64.06 60.55 55.11 51.23 49.60 49.02 48.32 47.74 51.72 55.26 56.97 57.45 57.53 58.41 59.16 59.88 58.87 57.37 56.82 56.56 56.47 56.78
65.18 67.84 67.93 68.07 68.18 67.85 67.48 67.08 67.21 67.38 66.54 65.85 65.67 66.09 65.68 64.65 65.81 66.20 65.65 64.75 64.40 62.89 57.09 51.85 48.86 48.39 47.84 46.75 46.95 49.51 53.71 55.41 55.66 54.70 54.69 55.49 55.76 56.79 56.50 55.33 54.31 55.06 54.02
55.70 63.20 67.75 68.47 68.23 67.88 67.62 67.27 66.82 67.18 67.11 66.18 65.39 65.18 65.38 64.98 64.07 64.86 64.88 64.33 63.67 60.23 53.83 50.48 48.55 47.63 47.43 46.99 46.10 46.73 50.70 53.32 53.87 52.55 52.01 51.83 51.64 51.91 53.90 52.55 52.09 51.75 52.15
54.19 54.70 60.49 67.46 68.31 68.13 67.72 67.51 66.71 66.44 66.96 66.85 65.68 64.80 64.59 64.52 63.99 63.33 63.31 63.97 62.02 57.74 52.10 49.27 47.24 47.86 46.30 45.51 44.97 46.18 46.52 50.78 52.00 49.98 49.47 49.22 49.21 49.23 50.33 50.51 49.95 49.38 49.25
52.89 53.36 54.24 60.52 66.94 68.62 68.36 66.80 66.69 66.03 65.88 66.73 65.57 64.81 64.01 63.83 63.32 62.95 62.46 62.35 59.34 55.22 51.23 48.34 47.24 45.27 45.97 45.41 44.20 45.02 46.36 46.25 49.82 49.52 48.14 47.37 46.79 46.94 46.78 44.92 45.42 45.87 47.66
51.49 51.61 52.19 53.44 60.00 67.06 66.99 65.75 65.15 64.78 64.66 64.64 65.41 64.84 63.48 63.53 62.48 62.18 62.16 60.70 56.93 54.48 51.63 48.83 46.23 43.78 43.47 45.14 45.09 44.64 45.07 44.66 45.98 47.07 47.28 46.16 45.30 44.17 43.88 44.02 44.41 44.54 44.20
49.36 50.62 51.25 51.74 54.39 61.58 66.37 66.40 65.89 65.41 65.34 65.23 65.01 64.74 63.57 63.05 61.87 61.38 60.74 58.56 55.36 53.42 49.82 47.13 44.42 41.37 43.71 44.66 45.05 44.59 42.74 43.54 43.41 43.38 44.48 44.35 44.06 43.12 42.52 42.24 42.34 42.43 42.91
46.80 48.22 49.71 51.01 52.20 57.01 64.23 66.54 64.66 63.81 62.63 63.86 63.32 63.73 63.67 63.11 61.61 61.32 60.15 59.15 56.73 54.15 49.51 46.30 44.61 43.25 42.92 42.36 43.51 46.16 40.67 42.72 42.23 41.63 41.80 42.32 42.19 41.90 42.02 41.61 40.93 40.66 40.85
46.43 46.56 47.57 49.46 50.98 53.14 62.48 64.83 64.10 62.25 61.50 62.94 63.63 64.22 64.40 63.08 61.60 61.15 60.04 58.50 56.58 54.62 52.55 49.29 47.21 45.94 45.40 41.83 39.85 39.96 40.98 43.44 42.53 39.37 40.13 40.42 40.42 40.45 40.97 40.93 40.57 39.53 39.96
47.00 47.49 46.95 46.75 48.26 50.66 54.79 64.16 64.39 63.28 63.79 64.39 63.86 63.60 63.39 61.96 61.99 60.81 59.24 57.66 55.78 54.62 53.42 50.74 46.73 45.95 45.01 43.02 43.00 38.41 38.47 39.18 39.70 41.34 38.99 38.54 38.33 39.73 40.27 40.19 40.02 39.15 38.39
48.28 48.26 48.45 48.65 47.63 47.95 49.34 53.63 63.26 63.48 63.19 62.99 62.05 62.22 62.22 60.67 60.71 60.05 58.23 57.20 56.36 54.09 51.41 50.01 48.39 47.50 45.39 44.29 41.01 40.72 39.06 40.65 39.22 39.12 38.12 36.98 39.29 38.30 39.02 39.24 38.74 38.28 37.89

GFSSE_sfc_wetblb_036.txt.gz
Wetbulb
71.57 74.39 75.32 75.70 75.06 74.95 75.03 75.17 75.24 75.41 75.29 74.60 74.30 73.47 72.64 71.70 70.56 70.27 70.19 69.72 70.09 70.34 69.88 71.20 70.88 70.63 70.07 69.20 68.04 67.88 68.17 68.21 68.39 68.74 68.73 69.06 68.93 68.81 68.86 67.22 66.27 67.53 67.63
72.66 74.01 74.60 75.27 75.51 75.56 75.44 75.72 75.38 75.37 75.10 74.38 73.55 72.47 71.69 70.75 69.73 69.26 69.17 68.41 69.61 70.68 70.91 71.35 71.31 70.66 68.82 67.33 67.26 67.53 67.52 67.04 67.04 67.12 67.83 68.36 68.79 67.85 67.64 66.93 67.33 67.73 67.47
72.72 73.18 72.52 74.75 74.94 75.33 75.62 75.47 75.31 75.15 74.75 73.65 72.86 71.97 71.07 69.82 68.90 68.26 68.35 68.64 71.34 72.24 71.74 71.49 70.37 69.20 67.74 67.11 67.42 67.72 67.57 66.98 66.36 66.24 65.67 67.33 66.75 66.30 66.81 67.18 66.98 66.60 68.14
72.75 72.94 72.54 73.83 73.78 74.35 75.08 74.98 74.93 74.57 74.37 73.33 72.47 71.53 70.40 68.87 67.87 67.74 67.99 68.61 71.09 71.21 70.61 70.03 69.45 68.44 67.70 67.97 68.29 68.28 68.09 67.37 66.03 64.95 67.39 68.15 67.96 68.00 67.41 66.92 65.92 66.11 66.86
72.69 73.11 72.83 73.42 73.57 74.33 74.57 74.72 74.59 74.35 73.89 73.18 72.54 71.15 69.72 67.90 67.88 67.96 68.05 68.50 69.83 69.59 69.18 68.83 68.43 68.34 68.05 68.24 68.47 68.39 67.97 67.18 65.57 66.39 68.06 69.11 68.97 68.21 68.23 69.69 68.63 67.78 67.52
72.44 72.75 72.08 73.11 73.31 73.83 73.35 74.04 74.25 73.87 73.35 72.68 72.06 70.80 69.05 67.80 67.86 67.88 67.96 67.88 68.12 68.34 68.05 67.55 67.50 67.76 67.87 68.39 68.51 67.29 67.19 66.18 66.28 67.45 68.00 68.41 69.17 67.77 68.89 68.36 69.43 69.76 69.54
71.68 72.05 71.92 73.03 73.04 72.71 72.30 72.38 73.02 73.39 73.42 72.60 71.60 70.43 68.98 68.01 67.95 67.72 67.45 67.44 67.46 67.42 67.41 67.67 68.30 68.74 68.42 67.94 66.91 66.29 66.91 65.32 67.62 67.48 68.13 67.75 68.30 68.04 67.61 69.21 69.26 69.28 69.06
71.45 71.59 71.51 71.80 72.42 71.98 71.87 71.98 72.13 72.05 72.95 72.89 72.04 70.37 69.13 68.29 68.06 67.79 67.83 67.88 67.94 67.90 68.14 68.76 69.20 68.24 66.56 65.22 65.19 65.67 65.56 66.24 67.23 67.70 67.02 66.54 65.91 66.04 65.75 68.36 67.99 67.40 67.53
71.97 71.33 71.08 71.14 71.01 70.98 71.38 71.46 71.59 71.47 71.75 72.69 71.76 71.28 70.27 69.27 68.23 67.87 68.22 68.28 68.63 68.96 69.01 69.23 68.21 64.87 64.15 63.60 63.98 64.75 63.00 61.77 66.32 65.60 64.05 64.95 65.29 64.53 64.73 68.16 67.35 66.98 66.21
71.77 71.37 71.12 71.20 70.79 70.29 70.47 70.81 70.65 71.35 71.93 71.84 71.01 70.29 69.13 68.67 68.64 68.42 68.70 68.63 68.73 69.17 69.15 68.68 65.57 63.27 63.04 63.42 64.20 63.32 61.19 61.28 62.87 62.50 62.37 62.65 65.28 64.91 68.05 67.27 66.54 65.74 64.93
70.35 71.11 71.12 70.47 70.05 69.81 70.24 69.67 69.53 69.72 69.64 69.62 69.47 68.37 67.84 68.80 68.49 67.77 67.26 67.98 68.75 68.62 69.23 67.55 64.39 62.48 60.97 60.37 60.73 59.13 58.22 61.42 61.12 60.87 61.90 66.81 67.99 67.80 66.89 65.89 65.06 64.17 63.59
67.95 69.51 70.65 70.36 69.63 69.68 69.29 70.05 68.81 68.61 69.45 69.61 69.40 69.14 68.83 68.66 68.57 67.66 66.45 67.10 68.57 68.99 68.57 66.40 63.94 59.17 57.84 58.85 57.90 57.09 59.76 60.20 61.35 61.92 63.85 67.13 66.75 66.21 65.26 64.03 63.24 62.49 62.04
67.30 68.18 69.00 69.76 70.08 69.75 69.06 69.59 69.33 68.59 68.73 69.06 68.96 68.47 68.67 68.52 69.05 68.83 68.12 67.96 67.89 66.40 67.60 65.05 60.87 60.53 58.55 58.12 57.31 58.10 59.17 60.56 61.93 62.83 65.86 66.90 65.68 64.71 63.31 62.43 61.63 60.99 60.69
67.02 67.86 68.23 68.93 69.49 69.58 69.93 69.34 69.50 68.56 68.38 68.28 68.50 68.54 68.76 68.65 68.59 68.46 68.30 67.51 67.39 67.42 66.53 64.86 61.77 58.59 56.43 55.24 55.54 56.63 57.74 59.53 61.29 63.52 64.01 64.26 63.73 62.56 61.35 60.66 60.21 59.99 59.59
66.84 67.40 68.24 68.94 69.18 68.59 68.78 70.22 69.56 69.14 68.31 67.88 68.58 68.46 68.46 68.29 68.26 68.60 68.03 67.81 67.41 67.22 65.89 64.05 60.95 57.60 55.66 54.35 54.58 55.77 56.94 58.33 59.50 62.07 63.11 62.03 62.75 61.18 60.10 59.35 58.97 58.61 58.18
68.87 68.86 68.96 68.84 69.03 68.83 67.92 68.53 70.26 69.94 69.25 68.56 68.11 68.28 68.45 68.13 68.05 68.04 67.40 67.03 67.18 67.42 65.83 64.00 60.57 57.61 55.90 54.63 53.59 55.02 56.55 58.12 58.83 60.07 61.44 61.02 60.90 60.15 58.57 57.70 57.55 57.40 57.27
66.62 69.27 70.06 70.11 70.14 69.09 68.98 68.78 68.61 70.56 69.91 68.81 68.40 68.19 67.99 67.71 67.64 67.95 67.60 66.89 67.35 67.45 65.60 63.13 59.42 56.90 55.06 53.68 53.17 54.14 56.07 57.43 57.71 57.84 58.70 58.97 57.53 57.58 57.94 56.55 55.85 56.23 54.95
59.44 61.68 66.38 69.13 70.26 69.57 68.92 69.03 69.00 68.62 70.07 69.82 69.15 68.56 67.86 67.32 67.12 67.40 67.37 67.00 67.87 66.95 64.83 61.48 58.40 55.93 54.92 53.53 52.53 52.49 54.71 56.30 56.69 56.51 56.61 56.66 56.22 55.03 55.73 53.84 54.10 53.14 53.31
58.92 59.29 60.05 65.23 68.32 69.57 69.53 68.91 68.88 68.85 68.13 70.35 70.02 68.89 68.16 67.50 66.91 66.24 66.61 66.93 67.29 66.12 63.18 60.50 57.75 56.52 54.11 52.85 51.68 51.22 52.48 54.29 55.34 54.56 54.34 53.96 53.99 53.68 53.68 51.46 51.23 50.46 50.39
58.36 58.78 59.25 60.06 63.92 67.77 69.65 68.42 68.19 67.99 67.62 68.14 69.75 69.39 68.84 68.00 67.17 66.19 65.55 65.94 66.37 65.17 62.38 59.58 57.12 54.92 54.57 53.09 48.49 49.08 50.44 51.93 54.11 53.92 52.79 52.00 51.80 51.82 52.25 50.95 49.58 49.34 48.71
55.57 56.87 57.77 57.95 59.08 62.17 66.29 66.81 66.05 65.28 66.34 66.34 67.28 69.40 69.04 68.25 67.46 66.54 65.49 65.10 65.40 64.01 62.58 59.61 57.21 52.69 50.81 51.62 49.71 49.15 49.14 49.49 50.82 52.63 52.51 51.21 50.50 50.12 50.18 48.63 48.43 48.07 47.14
53.13 54.57 55.65 56.43 57.27 58.50 62.00 66.25 67.64 67.26 66.72 66.82 66.55 66.32 68.59 68.04 67.57 66.43 65.64 65.05 64.55 63.11 62.36 59.68 55.66 51.73 50.65 49.79 50.36 50.34 46.61 46.75 48.01 50.19 51.31 50.26 49.84 49.13 48.06 47.50 47.24 46.99 47.02
52.72 52.50 52.96 54.30 55.64 57.05 58.75 63.44 66.59 67.61 67.35 66.40 65.68 65.35 65.62 68.01 67.25 66.82 65.92 65.38 64.46 62.91 61.84 59.78 55.59 53.11 48.96 48.11 51.20 51.28 46.80 46.62 46.63 47.25 47.96 48.83 48.53 47.70 47.55 47.02 46.25 45.69 45.57
53.72 53.79 53.46 52.98 53.37 54.92 56.80 58.85 62.40 63.90 63.11 64.38 64.98 66.02 65.46 65.87 66.84 66.81 65.75 65.05 63.88 61.96 60.72 59.11 56.54 54.29 53.67 48.05 47.59 47.99 47.54 49.80 46.07 42.86 45.03 46.29 47.17 46.20 46.65 45.89 45.28 44.83 44.58
54.22 54.30 54.33 54.32 53.15 53.36 54.97 57.64 61.43 62.99 63.42 64.06 64.68 65.38 65.27 64.99 65.03 65.69 65.07 64.58 63.26 61.25 61.11 59.26 56.45 54.69 54.28 52.25 48.73 44.73 44.53 43.32 44.42 46.34 44.32 42.42 44.32 45.07 45.90 45.61 44.91 44.53 43.81
55.03 55.13 55.16 54.09 54.17 54.55 53.56 54.80 57.66 61.50 63.01 62.81 63.96 64.53 64.98 64.81 63.54 63.85 63.83 64.05 63.32 61.65 60.75 60.09 57.89 55.14 53.30 53.16 49.50 44.77 43.78 43.93 42.43 43.00 44.44 44.59 43.12 43.51 43.94 44.07 43.81 43.65 43.07

GFSSE_sfc_wetblb_039.txt.gz
Wetbulb
72.55 73.78 76.14 75.66 74.81 75.49 75.16 75.53 75.25 75.29 75.10 74.60 74.32 73.66 72.90 71.96 71.04 70.67 70.13 70.09 70.46 69.84 70.89 71.21 71.21 70.64 69.71 68.79 68.61 68.71 68.61 68.56 68.98 69.25 69.36 69.64 69.00 68.87 67.65 67.41 69.55 67.61 68.36
73.87 73.65 75.65 75.58 75.28 75.24 75.51 75.79 75.61 75.23 75.16 74.65 73.79 73.07 72.03 70.79 69.93 69.55 69.00 68.77 70.57 70.58 71.33 71.43 71.06 69.39 68.32 68.19 68.00 67.90 67.55 67.53 67.47 67.58 69.17 68.69 68.69 67.51 67.34 67.41 68.16 67.17 68.19
73.26 73.02 72.95 75.51 75.56 75.82 75.86 75.43 75.52 75.30 74.91 73.85 73.06 72.24 71.26 69.98 68.93 68.48 68.30 71.15 71.88 71.82 71.82 71.16 69.85 68.32 67.82 67.67 67.86 67.76 67.25 66.75 66.44 66.19 67.88 66.58 65.73 67.39 67.64 67.76 67.32 67.93 68.51
73.05 72.54 72.72 74.56 74.91 75.64 75.55 75.71 75.30 74.84 74.26 73.32 72.38 71.49 70.51 68.98 68.23 68.07 68.57 71.22 71.70 71.58 71.07 70.04 68.99 68.02 68.07 68.35 68.40 68.25 67.82 66.59 65.23 65.94 67.09 67.38 67.43 68.73 69.35 68.88 66.29 66.40 67.14
72.52 72.35 73.01 73.89 74.29 75.21 75.36 75.07 74.82 74.88 74.07 73.01 72.09 70.83 69.46 68.22 68.03 68.08 69.04 70.64 70.38 70.01 69.60 69.15 68.68 68.26 68.43 68.58 68.68 68.43 67.77 66.30 65.56 66.82 67.87 68.67 67.88 68.34 69.59 70.05 68.81 68.82 68.37
72.33 72.75 71.98 72.89 73.43 73.76 74.24 74.71 74.49 73.94 73.35 72.29 71.58 70.27 68.55 68.23 68.35 68.50 68.91 68.89 69.02 68.73 68.38 68.06 67.85 68.08 68.40 68.73 68.00 67.53 67.35 66.17 66.82 67.32 68.00 68.30 67.57 69.03 68.53 69.89 70.11 70.11 69.77
71.79 72.65 71.98 73.16 73.48 73.19 73.35 73.99 74.40 74.10 73.29 72.28 71.46 69.77 68.45 68.29 68.30 68.03 67.88 68.11 68.16 68.03 67.77 68.04 68.55 68.59 68.45 67.76 66.85 67.52 66.57 65.95 67.06 67.08 67.10 67.31 67.31 67.86 68.39 69.79 69.10 69.05 68.85
71.29 71.97 71.58 71.70 72.20 72.55 72.15 72.02 73.22 73.44 73.41 72.39 71.56 69.81 68.66 68.41 68.06 67.76 67.74 67.68 67.67 67.67 68.20 69.04 68.95 67.87 66.34 65.75 65.82 66.55 65.74 66.05 66.67 66.72 66.17 65.75 66.86 66.40 66.68 68.25 67.66 67.46 67.34
71.70 71.18 71.12 70.90 70.92 71.28 71.60 71.64 72.01 71.90 72.92 72.69 71.61 70.83 69.78 69.16 68.27 67.92 68.04 68.12 68.25 68.33 68.87 69.40 67.32 65.16 64.76 64.32 65.04 64.64 63.44 63.99 65.12 64.46 63.03 63.98 66.01 64.85 67.38 67.89 67.42 66.79 66.18
71.65 70.99 70.77 70.97 70.72 70.29 70.19 70.92 71.04 70.93 71.20 72.12 70.94 70.18 68.81 68.39 68.61 68.58 68.95 68.78 69.11 69.20 69.23 68.03 64.84 64.10 63.64 64.53 64.47 63.00 61.68 62.82 62.38 61.80 60.93 62.77 65.60 65.45 68.01 67.23 66.53 65.70 64.84
70.87 70.97 70.97 70.57 70.27 69.78 69.56 69.65 69.80 70.41 70.94 70.43 69.69 68.46 67.46 67.46 67.09 67.21 67.44 68.29 68.80 69.04 69.43 66.54 64.00 63.15 62.12 62.64 61.78 59.97 60.64 60.62 59.95 59.78 62.69 68.33 68.10 68.29 67.10 65.80 65.16 64.28 63.77
69.11 70.30 70.62 70.23 69.65 69.39 69.48 69.96 69.10 69.49 69.96 70.08 69.83 69.31 68.44 67.84 67.28 66.49 66.39 67.39 68.61 69.55 68.69 66.16 63.33 61.66 60.79 59.34 58.05 57.65 58.70 59.12 59.96 60.52 65.18 67.87 67.16 66.74 65.47 64.44 63.47 62.80 62.10
68.08 69.33 70.50 70.45 69.86 69.24 68.98 69.72 68.35 68.29 68.45 69.02 69.18 69.24 68.29 67.66 67.94 67.38 67.34 66.09 67.59 66.76 67.43 65.55 63.17 61.01 61.12 59.85 59.27 58.13 58.33 59.23 60.25 61.38 65.64 66.97 66.05 65.17 63.98 62.91 62.11 61.49 60.93
67.61 67.88 68.82 70.35 70.12 69.63 69.52 69.01 69.31 68.32 68.07 68.18 68.42 68.27 67.36 67.78 68.21 67.23 66.85 66.58 65.83 67.63 67.11 65.96 63.70 61.46 59.69 58.60 57.69 57.49 57.65 59.01 60.32 63.46 63.99 64.88 64.82 63.72 62.19 61.56 61.09 60.46 59.95
68.30 68.22 68.28 69.04 69.99 69.90 69.58 69.50 69.51 69.22 68.21 68.10 68.05 68.39 67.97 68.18 68.25 67.87 67.12 66.83 66.70 66.62 66.24 65.20 63.36 60.27 58.56 57.08 56.64 57.06 57.13 58.01 59.07 61.76 63.06 62.46 63.35 62.11 61.05 60.46 60.11 59.47 58.92
68.48 69.00 69.27 68.67 69.57 70.38 68.79 69.72 70.43 70.13 69.83 68.69 68.01 68.02 67.73 67.99 68.12 68.44 67.72 66.50 66.19 67.14 66.36 65.04 63.04 60.43 58.47 56.81 55.97 56.42 56.71 57.92 58.65 60.10 62.06 60.63 61.79 61.56 59.86 59.18 59.08 58.78 58.32
68.33 69.67 69.98 70.04 70.42 69.97 69.81 68.71 69.42 70.96 70.35 69.51 68.72 68.27 67.87 67.73 67.50 67.28 67.43 66.94 66.64 66.53 66.63 65.06 63.12 60.55 58.38 56.72 55.79 55.92 56.50 57.31 57.71 58.39 60.13 60.06 57.82 58.84 59.56 58.08 57.87 57.75 56.89
61.98 63.44 68.26 70.11 70.32 70.31 70.18 70.15 68.53 69.90 70.91 70.36 69.78 69.18 68.18 67.71 67.46 67.04 67.11 67.09 66.64 66.45 66.87 64.97 62.30 58.80 57.62 56.23 55.48 54.82 55.50 56.60 56.78 56.80 57.68 58.19 57.50 56.14 57.25 56.98 56.94 55.30 55.14
60.10 60.79 61.37 63.72 67.69 69.72 70.46 70.01 68.98 68.61 68.77 70.82 70.68 69.92 69.16 68.20 67.41 66.73 66.90 67.48 66.67 66.22 65.70 64.88 61.84 58.97 57.54 56.42 55.59 54.55 54.39 55.26 55.71 55.70 55.49 56.04 56.22 55.41 55.09 54.34 54.97 54.30 53.42
58.95 59.62 60.05 60.89 61.51 65.20 68.54 69.57 68.99 68.23 68.20 68.20 70.30 70.65 69.84 69.17 68.41 67.46 66.67 66.58 67.10 66.36 64.72 64.07 61.45 59.57 58.51 56.60 53.71 52.19 52.76 53.77 55.10 54.99 53.90 53.79 53.74 53.47 53.92 51.87 50.70 49.70 51.09
56.98 57.61 58.34 59.04 59.92 60.79 63.73 65.89 67.81 66.96 66.93 67.11 67.63 69.76 70.17 69.59 68.83 67.94 66.88 66.19 66.26 65.60 64.97 63.84 61.28 58.19 56.77 56.70 51.89 50.99 51.69 51.41 51.67 53.68 53.47 52.44 51.94 51.47 52.01 51.67 49.49 49.49 48.12
53.98 55.52 56.87 57.76 58.84 59.57 60.44 62.70 67.19 67.96 66.63 66.77 67.37 67.37 68.63 69.64 69.31 68.45 67.28 66.20 65.66 64.97 64.80 63.40 60.68 57.30 55.28 54.47 51.40 51.73 47.86 48.13 48.71 50.33 52.18 51.24 50.63 50.11 49.84 49.30 48.15 48.10 48.30
54.42 54.29 54.25 54.99 56.30 57.82 59.11 60.21 61.86 66.80 68.13 67.06 66.15 66.23 67.12 67.95 69.28 68.01 67.70 66.91 66.06 65.20 63.95 63.37 61.04 57.69 53.77 52.85 54.38 53.22 50.13 48.23 46.56 48.12 49.56 50.43 49.62 49.08 48.26 47.97 47.27 47.11 47.21
55.32 56.44 55.97 55.56 55.04 55.14 56.65 57.05 58.27 61.10 63.03 65.76 66.03 67.32 67.34 67.34 67.39 67.85 66.55 66.22 65.90 65.13 63.96 63.17 61.71 57.80 55.64 50.66 50.75 51.94 52.73 51.64 46.90 42.50 46.24 47.40 48.67 47.85 47.47 47.05 46.16 45.91 45.60
56.23 56.41 56.93 56.50 55.67 55.99 54.82 55.35 56.19 57.71 61.31 64.60 64.99 64.77 65.23 66.84 65.96 66.15 66.28 65.94 64.48 64.71 64.11 62.62 61.14 56.87 56.73 54.53 51.28 49.41 49.03 47.32 47.71 46.62 41.75 42.15 45.83 46.53 47.06 46.80 45.65 45.09 44.60
56.08 56.14 56.28 55.73 55.66 56.02 56.01 55.04 55.06 56.45 59.52 61.94 63.16 63.11 63.79 65.10 66.20 64.64 64.14 64.55 64.53 63.60 62.97 61.90 61.10 58.25 56.63 56.43 52.49 49.43 47.82 45.46 43.15 43.22 44.16 42.53 41.41 43.38 44.75 45.58 44.50 43.92 43.96

GFSSE_sfc_wetblb_042.txt.gz
Wetbulb
69.66 72.52 75.83 75.86 76.75 76.56 76.27 75.78 75.97 75.82 75.54 74.82 74.29 73.77 72.88 72.35 71.37 70.83 70.41 70.42 70.62 70.96 72.07 71.73 71.15 70.15 69.57 69.62 69.46 69.07 68.84 69.04 69.35 70.02 70.09 69.82 68.85 67.75 68.31 69.57 69.76 67.59 68.49
70.72 73.03 75.76 75.73 76.06 76.19 76.33 76.05 75.67 75.08 75.04 74.63 74.07 73.02 72.06 71.19 70.38 69.89 69.13 70.50 70.53 71.43 71.92 71.36 69.89 69.27 69.10 68.66 68.44 68.10 67.94 67.68 68.15 69.15 69.07 68.45 68.76 68.15 68.07 68.15 69.32 67.73 68.02
71.08 72.33 73.55 75.58 75.78 75.91 76.22 75.81 75.54 75.02 75.23 74.51 73.35 72.31 71.43 70.20 69.40 68.78 70.67 71.74 71.97 72.11 71.74 70.38 69.14 68.57 68.19 68.29 68.12 67.56 67.07 66.77 66.77 67.87 68.82 63.67 64.99 68.52 68.00 67.51 68.08 68.50 67.36
71.21 71.51 72.49 75.43 75.85 76.05 76.01 75.62 75.37 75.21 74.65 73.57 72.41 71.51 70.31 69.16 68.48 68.46 71.86 72.24 72.34 71.88 70.76 69.60 68.52 68.42 68.61 68.77 68.68 68.19 67.06 65.61 66.10 67.33 66.15 66.82 66.54 70.36 70.77 68.95 68.01 67.79 67.96
70.12 70.92 72.41 74.52 75.57 75.70 75.81 75.55 75.33 74.86 73.92 73.08 71.68 70.58 69.28 68.45 68.33 69.48 71.54 71.26 70.97 70.42 69.90 69.21 68.63 68.69 68.96 69.04 68.75 68.30 67.18 66.45 67.31 67.01 65.98 65.56 66.33 68.72 70.62 70.73 70.25 70.35 70.28
69.46 70.81 72.36 73.57 74.73 75.09 74.89 74.92 75.04 74.26 73.19 72.45 71.16 69.63 68.79 68.51 68.60 70.12 70.04 69.84 69.46 69.19 68.92 68.32 68.41 68.65 69.09 68.48 68.01 68.20 67.32 67.18 67.87 64.55 66.55 67.82 65.84 68.56 70.21 70.38 70.12 70.09 70.10
69.56 70.02 70.44 73.52 73.99 73.74 73.90 74.35 74.12 73.44 73.32 72.23 70.77 69.22 68.74 68.75 68.63 68.90 68.73 68.82 68.76 68.53 68.30 68.62 68.80 68.89 68.43 67.57 67.58 67.46 66.57 67.16 64.79 64.73 63.61 64.55 64.33 67.80 69.77 69.49 69.40 69.33 68.69
69.59 69.96 69.92 72.22 72.83 72.91 72.96 73.36 73.93 73.66 73.21 72.38 70.93 69.32 68.78 68.65 68.21 68.11 68.28 68.36 68.22 68.11 68.80 69.37 68.73 67.54 66.59 66.55 66.71 66.50 66.13 65.92 63.69 62.66 61.96 61.88 67.29 66.20 68.58 68.15 67.67 67.00 66.71
69.59 69.33 68.82 69.43 70.58 71.49 71.68 71.88 72.48 73.49 73.21 72.41 71.46 70.38 69.84 69.09 68.27 68.15 68.19 68.09 68.15 68.81 69.44 68.78 66.84 65.82 65.08 65.48 65.47 64.37 64.55 64.14 59.50 59.46 61.51 60.65 66.54 65.78 68.49 67.91 67.14 66.56 65.89
67.90 68.87 67.84 68.10 68.51 67.82 68.71 70.47 70.57 70.65 72.35 71.63 70.82 69.52 68.56 68.24 68.41 68.78 68.96 69.28 69.49 69.36 69.63 67.12 65.47 64.81 65.17 65.11 64.40 62.84 63.16 62.80 56.72 57.27 59.36 62.33 66.41 68.27 68.32 67.16 66.35 65.60 64.86
68.00 67.63 67.76 68.01 67.80 67.36 67.40 68.61 69.74 69.74 69.99 70.16 69.42 67.66 66.56 64.76 65.66 66.45 66.78 68.05 69.40 70.08 69.14 65.87 64.67 63.52 64.14 63.88 62.69 62.72 61.56 55.97 54.23 55.68 64.86 68.27 68.55 68.59 67.21 65.98 65.31 64.50 63.82
66.22 66.80 67.72 67.38 66.73 66.16 67.88 67.47 66.39 68.43 68.13 68.55 68.12 66.29 64.92 64.19 63.85 65.42 65.76 67.41 68.74 69.51 68.50 65.95 64.07 63.02 61.72 54.89 54.60 58.22 52.46 53.74 54.62 57.23 64.92 68.22 67.86 67.24 66.00 64.74 63.82 62.91 62.51
65.76 66.83 67.14 66.71 66.08 65.64 66.02 66.73 65.20 66.77 66.30 67.47 67.66 66.60 65.84 64.72 63.47 64.48 64.16 64.50 65.55 66.02 64.92 63.69 60.74 56.70 54.54 54.71 52.90 52.48 53.14 53.92 54.38 59.72 65.58 67.44 66.57 65.76 64.58 63.35 62.51 61.96 61.67
66.18 66.38 67.45 67.62 66.26 65.45 65.71 65.94 64.86 64.52 65.15 65.03 65.87 67.20 65.85 62.96 63.85 63.25 64.12 62.28 63.40 65.31 64.51 62.37 60.13 58.11 56.04 54.27 52.93 51.96 52.87 53.35 53.95 62.48 63.26 65.40 65.77 64.50 63.41 62.52 61.83 61.12 61.03
65.30 66.94 67.54 67.27 66.84 66.22 65.50 65.15 65.07 64.63 64.59 64.80 64.89 65.03 64.26 63.32 63.88 63.68 63.02 63.44 62.20 64.42 63.39 62.44 59.98 56.26 53.98 52.98 51.61 52.05 51.98 52.86 52.92 60.57 59.72 62.94 64.16 63.34 62.27 61.82 61.37 60.58 60.26
65.71 66.54 67.55 67.80 67.23 67.21 65.92 66.00 65.88 66.33 65.57 64.70 64.33 64.64 64.53 64.15 64.88 63.99 63.38 64.16 62.73 62.99 61.99 61.27 59.62 55.56 53.48 51.59 50.73 51.33 51.34 52.46 52.77 58.39 58.22 59.02 62.43 62.72 61.61 61.07 60.83 60.26 60.04
65.25 67.35 67.17 67.30 67.81 67.08 66.37 66.19 66.44 67.28 67.92 65.47 64.85 64.89 64.64 64.08 64.04 64.63 64.10 63.41 63.65 64.35 63.26 61.07 59.23 56.27 53.34 51.84 50.38 50.59 51.30 51.79 52.67 54.66 57.51 55.80 57.37 60.06 61.06 60.01 59.89 59.65 59.25
58.02 62.20 67.86 69.09 68.33 67.57 67.23 66.66 66.60 66.63 67.28 67.16 66.05 64.97 64.88 64.63 64.16 63.30 63.01 63.72 64.16 63.91 64.42 61.34 58.60 54.62 52.30 50.46 49.42 49.38 50.42 51.28 52.03 52.33 54.32 55.33 53.50 53.86 58.28 60.10 59.40 58.63 57.91
56.02 56.40 57.46 60.98 67.47 67.76 67.74 67.33 67.47 67.49 67.38 67.46 68.62 67.29 65.31 65.20 64.62 63.72 62.72 63.54 64.40 63.63 63.87 63.96 59.02 53.84 51.53 50.49 50.27 48.74 48.88 49.76 50.76 52.56 51.50 52.25 52.58 51.94 50.86 56.34 58.35 57.53 56.97
53.70 54.27 55.22 57.36 58.18 60.09 66.43 67.51 66.92 66.84 67.48 67.69 67.40 67.53 66.78 65.56 65.07 63.61 62.59 62.54 64.79 63.70 63.25 63.47 59.14 54.88 52.91 51.37 51.80 49.23 47.29 48.23 49.65 49.81 49.64 51.32 49.82 50.29 48.94 47.77 47.79 48.69 55.45
51.23 52.13 52.83 53.80 55.20 55.57 56.69 60.98 65.61 65.23 65.20 66.07 67.06 66.74 66.79 67.60 65.51 64.23 63.69 62.65 62.91 63.52 63.54 62.52 58.53 54.92 52.71 51.17 46.79 44.81 45.52 46.04 46.07 48.61 48.66 47.83 48.04 48.07 47.33 47.02 46.24 45.09 47.46
49.60 49.93 50.75 52.05 53.46 54.72 54.75 55.65 59.70 65.58 65.69 65.88 65.39 66.50 66.77 66.43 66.14 64.95 64.31 63.23 62.42 61.81 61.60 61.35 59.02 53.99 51.84 50.28 44.99 44.37 41.70 43.42 44.23 45.37 47.56 47.60 46.00 46.75 46.56 47.32 45.60 44.33 44.75
49.92 50.30 50.89 50.97 51.46 51.73 52.71 54.24 54.73 55.73 63.97 63.05 63.01 64.50 65.90 66.61 65.75 65.69 65.72 63.55 62.68 61.36 61.17 61.13 59.56 56.33 52.33 49.04 49.10 46.96 43.95 42.44 40.89 43.16 44.81 46.54 45.49 44.44 44.96 45.42 44.78 44.38 43.91
51.25 52.51 53.13 53.05 52.25 52.31 51.39 50.82 50.88 51.51 53.04 60.85 64.20 64.76 64.87 65.23 65.46 66.17 65.71 65.09 64.78 62.05 60.77 60.71 60.51 57.70 52.94 49.72 47.43 50.82 48.12 46.16 41.69 38.59 43.57 45.33 45.97 45.16 45.04 44.25 44.00 43.58 43.15
52.58 52.27 52.83 53.20 52.66 51.89 51.46 50.12 49.37 49.99 51.88 53.81 59.25 61.48 63.00 64.41 65.25 64.84 65.08 64.89 64.44 63.94 62.76 59.94 59.47 57.89 54.79 51.66 49.82 47.41 47.08 43.79 43.14 41.60 36.90 40.35 43.57 44.44 43.84 44.26 43.74 43.12 42.52
51.39 51.37 51.35 51.24 51.37 51.93 51.46 51.36 49.61 48.70 49.62 50.91 54.66 58.16 59.55 59.78 62.10 63.17 63.52 64.03 63.64 63.44 63.22 62.70 60.48 59.08 55.67 53.56 50.44 49.75 47.53 45.67 42.61 41.45 41.14 37.96 39.62 40.81 42.43 42.63 43.17 42.79 41.50

GFSSE_sfc_wetblb_045.txt.gz
Wetbulb
69.42 73.22 75.97 76.31 76.18 76.21 76.21 76.16 76.20 75.72 75.23 74.51 74.14 73.60 72.95 72.09 71.24 70.66 70.55 70.58 71.48 72.41 71.65 70.86 70.40 70.19 70.22 69.95 69.52 69.15 69.14 69.47 69.72 69.69 69.37 68.96 67.89 69.18 69.79 68.79 68.95 66.98 68.89
71.14 73.32 75.74 76.66 76.60 76.53 76.46 76.09 75.75 75.37 74.99 74.96 73.88 73.01 72.18 71.37 70.46 69.33 70.35 70.70 71.63 72.25 70.90 70.18 69.86 69.39 68.97 68.68 68.36 68.13 68.13 68.81 68.74 68.64 68.73 68.70 69.16 68.36 68.29 68.45 68.58 66.50 67.30
71.72 73.84 74.32 76.04 76.38 76.46 76.18 75.83 75.39 75.37 75.23 74.70 73.21 72.00 71.18 70.31 69.24 69.89 71.85 71.71 72.29 71.75 70.43 69.64 68.82 68.37 68.34 67.89 67.49 67.23 67.64 67.84 67.70 68.20 68.00 64.33 66.67 69.79 67.44 67.77 68.27 67.99 68.03
71.74 72.37 73.36 75.55 76.08 76.27 75.93 75.47 75.10 75.21 74.62 73.88 72.27 71.22 70.06 69.28 68.64 72.12 72.47 72.49 72.20 71.18 69.84 68.81 68.31 68.51 68.74 68.54 68.04 67.21 66.85 66.49 66.39 67.45 65.31 65.52 67.54 70.56 69.85 69.34 69.19 68.34 68.40
70.38 71.57 73.18 75.57 75.95 76.00 75.64 75.26 75.28 74.67 73.91 72.86 71.24 70.12 69.22 68.52 69.89 72.45 72.25 71.98 71.03 70.19 69.31 68.50 68.63 68.95 69.00 68.73 68.17 67.62 67.34 67.34 68.23 66.62 65.04 65.00 64.71 69.74 71.01 70.74 70.52 70.74 69.50
68.98 70.39 73.51 74.91 75.49 75.41 75.24 75.09 74.91 74.03 73.10 71.88 70.38 69.43 68.78 68.69 70.44 71.30 70.80 70.30 69.93 69.54 68.76 68.62 68.63 69.18 68.57 68.22 68.23 67.67 67.38 67.64 66.85 64.73 65.30 65.97 64.01 70.17 70.54 70.20 70.01 70.25 70.03
69.02 70.00 71.02 74.44 74.94 74.90 74.83 74.74 73.94 73.98 72.93 71.40 69.96 69.31 68.84 69.07 69.81 69.78 69.60 69.35 69.12 68.73 68.50 68.63 68.96 68.89 67.93 67.52 67.66 67.34 67.39 67.13 63.00 62.89 62.71 62.72 63.83 69.56 69.86 69.48 69.01 68.76 68.39
68.43 69.09 70.79 72.83 73.26 73.49 73.72 73.78 73.36 73.81 73.18 71.69 70.32 69.27 69.01 68.75 68.79 68.93 68.89 68.81 68.62 68.56 68.87 68.90 68.41 67.57 67.11 66.92 66.70 66.38 66.15 65.15 62.33 61.04 61.05 62.05 66.67 68.34 68.27 67.69 67.08 66.75 66.60
68.43 68.23 68.68 69.72 71.17 71.79 71.85 72.64 72.84 72.96 72.95 71.82 70.72 70.23 69.60 68.74 68.26 68.60 68.61 68.50 68.38 69.01 69.45 68.49 67.06 66.28 65.88 66.07 65.16 64.19 64.44 63.97 56.95 59.09 60.96 60.45 67.04 68.30 68.28 67.10 66.50 66.26 65.57
67.68 67.92 66.47 66.87 68.46 68.52 69.36 70.71 71.07 71.91 71.87 71.43 70.12 69.53 68.43 68.05 68.45 68.53 68.83 68.94 69.28 69.50 69.18 66.85 66.12 65.46 65.46 65.38 64.07 64.28 63.31 61.66 54.79 56.96 58.54 61.38 67.42 68.85 68.07 66.91 66.01 65.38 64.55
66.91 67.12 66.92 66.47 66.47 66.62 67.63 68.65 69.44 69.89 70.50 69.96 68.71 67.45 66.63 64.86 65.86 66.70 66.59 68.15 69.38 70.00 68.37 66.18 65.40 65.01 65.37 64.65 63.86 63.36 61.74 54.04 52.63 62.81 63.41 67.73 68.91 68.60 67.26 65.76 65.09 64.43 63.59
64.19 65.51 66.87 66.86 66.48 66.09 68.57 66.96 66.26 67.22 67.96 67.72 66.39 65.14 64.08 63.56 63.89 65.45 64.96 67.06 69.37 69.54 68.12 66.25 65.01 64.12 61.80 55.61 54.26 59.02 51.47 51.72 53.80 63.40 65.15 68.93 68.57 67.60 66.42 65.00 63.99 63.10 62.53
64.16 64.71 65.23 66.56 65.95 65.39 66.26 65.47 64.36 66.12 65.88 67.19 66.09 64.30 63.52 63.51 62.31 63.02 63.93 65.18 65.12 66.12 64.67 63.81 61.51 57.59 54.21 52.72 51.74 49.73 51.38 51.63 53.79 62.74 65.71 67.85 67.24 66.43 65.30 63.71 62.70 62.52 61.91
64.28 65.64 66.38 65.50 64.06 63.76 66.02 64.79 64.43 65.71 64.94 65.86 66.48 65.32 64.17 62.03 61.46 62.85 63.06 62.89 63.88 64.42 62.75 61.05 59.00 55.84 53.74 53.50 51.91 50.98 50.90 51.75 56.82 61.82 64.07 66.09 66.52 65.42 64.18 63.23 62.35 62.00 61.46
64.30 65.31 65.68 66.40 65.71 63.52 64.73 63.80 62.90 63.93 65.02 65.12 65.73 66.39 65.29 62.33 62.04 62.86 62.37 61.44 62.60 63.88 63.51 61.38 59.96 57.88 55.16 52.19 51.23 50.21 50.27 51.07 59.39 60.73 61.05 63.76 65.36 64.92 63.55 62.93 62.22 61.85 61.13
64.68 65.01 65.89 66.34 66.30 66.01 63.56 63.22 63.17 63.22 64.75 63.52 63.49 64.19 64.58 63.14 63.05 62.75 61.90 61.41 60.28 62.68 63.14 62.97 60.80 56.50 52.68 51.44 49.83 49.57 49.80 50.90 54.82 58.35 59.02 60.95 63.69 64.03 63.10 62.60 61.96 61.45 61.21
65.07 65.75 65.89 66.30 66.66 65.84 65.42 64.65 65.17 65.89 65.28 63.18 63.20 63.59 63.50 62.89 63.38 63.64 62.38 61.67 61.81 61.87 62.21 59.94 59.02 55.44 52.00 50.60 48.64 48.85 49.45 49.76 53.21 56.97 56.93 57.54 59.87 61.64 62.85 62.24 61.68 61.16 61.10
62.51 65.65 66.21 67.70 66.88 66.34 65.90 65.54 65.35 65.72 65.90 66.32 65.14 63.54 63.66 63.63 62.90 63.11 62.87 62.28 62.62 61.92 61.56 60.99 58.09 54.93 51.89 49.25 48.11 47.99 48.54 49.64 50.16 55.61 55.57 54.97 54.85 55.85 60.26 62.06 61.31 60.81 60.54
54.17 60.95 65.89 66.81 66.73 66.71 66.19 66.04 65.91 65.85 65.57 66.17 66.81 65.20 63.93 64.10 63.50 62.59 62.38 62.49 63.24 62.99 62.30 61.85 59.36 55.80 51.00 48.93 48.35 47.88 47.65 48.59 49.95 51.72 54.28 53.64 52.55 52.52 52.46 59.35 60.36 60.32 59.83
50.68 51.54 52.48 56.04 63.76 66.92 67.11 66.24 65.82 65.51 65.70 65.93 65.69 65.93 66.40 64.39 63.84 63.05 62.00 61.62 63.70 63.04 62.63 61.20 59.50 54.53 53.39 50.38 50.83 49.22 46.74 47.38 48.58 48.80 49.24 54.05 52.04 51.06 50.16 50.39 52.61 53.05 58.25
49.31 49.59 49.51 50.90 51.77 53.48 55.97 62.66 64.05 64.55 63.92 63.25 65.27 65.94 65.03 65.45 64.55 62.87 62.95 61.53 63.52 63.01 62.86 62.44 60.44 55.57 51.65 50.11 47.00 44.37 44.38 44.44 45.45 47.46 47.83 47.91 49.58 50.52 48.29 47.95 47.08 46.28 51.43
48.91 49.21 49.34 49.61 49.90 50.23 51.91 52.87 59.43 64.06 64.23 65.60 65.53 65.42 65.90 65.11 64.99 64.61 64.01 61.84 61.25 62.84 62.01 61.66 59.69 54.13 53.06 49.94 46.86 42.43 40.82 42.75 43.99 44.72 46.47 47.57 47.15 47.95 48.63 47.60 46.08 44.80 45.51
49.36 49.88 50.97 50.40 50.33 50.49 49.81 50.33 50.78 52.76 60.87 61.95 62.03 62.46 63.89 64.70 64.91 64.76 63.71 62.31 61.22 60.24 61.31 61.98 60.56 57.66 54.47 51.23 48.70 46.47 41.61 41.28 40.68 42.32 44.05 46.00 46.11 45.52 46.47 47.62 46.50 45.32 44.58
49.78 51.06 51.79 52.17 51.53 51.17 49.86 48.46 47.20 47.75 48.75 56.38 61.57 63.10 63.48 64.18 64.70 64.82 64.40 63.58 62.63 62.29 60.92 59.67 60.68 59.14 55.36 51.82 49.64 49.30 48.45 45.27 41.44 40.32 42.31 43.45 45.48 45.45 45.84 45.00 46.32 44.91 44.78
51.09 50.97 50.90 51.13 50.75 50.66 50.34 49.72 47.24 46.45 47.84 49.63 51.34 55.98 61.76 63.47 64.12 64.17 64.19 63.66 61.74 62.30 62.20 61.11 59.69 57.38 55.66 54.90 51.80 48.41 46.53 45.41 42.56 40.50 39.55 41.93 45.26 45.59 46.07 45.81 44.20 43.33 42.98
49.91 49.98 49.85 49.75 50.15 50.28 49.73 49.02 48.38 47.65 46.82 47.00 47.83 48.74 51.89 57.42 60.53 63.19 64.08 63.95 62.61 61.61 61.99 61.61 60.67 59.17 57.97 55.10 51.55 50.01 48.35 47.39 46.79 42.74 42.97 43.01 44.33 45.06 44.28 42.73 42.05 42.64 41.21

GFSSE_sfc_wetblb_048.txt.gz
Wetbulb
70.53 73.62 76.36 76.12 75.70 75.65 75.85 75.60 75.69 75.60 75.01 74.25 73.79 73.21 72.42 71.67 71.04 70.71 70.41 71.83 72.40 71.29 70.67 70.52 70.52 70.62 70.47 70.06 69.67 69.57 69.71 69.32 68.84 68.77 68.29 68.98 69.28 69.78 68.83 68.71 68.08 66.66 68.85
71.55 73.71 75.98 76.45 75.93 75.99 76.28 75.99 75.59 75.20 74.88 74.43 73.63 72.90 72.00 71.14 69.87 69.65 70.53 71.90 71.83 70.69 70.33 69.93 69.58 69.33 68.95 68.71 68.52 68.95 69.23 68.45 67.65 67.86 68.60 68.73 68.94 68.18 68.22 68.22 67.58 65.59 68.36
71.83 73.49 74.94 76.16 76.26 76.29 75.93 75.36 75.30 75.21 74.89 74.15 72.52 71.84 71.10 69.96 69.06 71.72 71.18 72.00 71.37 70.56 69.90 68.91 68.47 68.10 67.77 67.54 67.79 68.61 68.52 68.09 67.97 67.68 67.46 65.54 67.24 67.56 68.00 67.97 68.38 67.77 67.67
72.01 73.24 74.42 76.07 76.24 75.96 75.76 75.34 75.31 75.23 74.29 72.98 71.88 70.83 69.97 68.78 71.39 72.66 72.13 72.35 71.26 70.03 68.94 68.22 68.22 68.25 67.93 67.63 67.71 67.88 67.44 66.80 66.12 67.49 64.52 65.55 67.84 69.64 69.27 69.01 68.45 68.58 69.37
71.26 72.43 74.19 75.70 76.04 75.91 75.34 75.19 75.33 74.74 73.10 72.00 70.93 69.96 68.93 69.51 72.73 72.88 72.57 71.68 70.29 69.33 68.54 68.29 68.70 68.62 68.44 68.10 67.90 67.89 67.93 67.87 67.68 66.27 64.28 63.75 65.68 69.98 70.79 71.03 70.50 69.70 70.33
69.16 70.68 74.17 75.28 75.62 75.34 74.94 75.07 74.60 73.89 72.38 71.36 70.15 69.18 68.62 70.92 72.29 71.73 71.39 70.61 69.72 69.28 68.65 68.56 68.96 68.56 68.19 68.20 68.05 67.94 67.96 67.53 66.75 64.47 63.90 65.69 66.00 70.32 70.28 70.20 70.13 69.93 69.71
69.16 71.32 73.61 75.35 75.42 75.01 74.80 74.70 74.12 73.94 72.17 70.85 69.76 68.92 68.87 70.53 71.12 70.56 70.19 69.78 69.19 68.74 68.45 68.60 68.91 68.19 67.70 67.77 67.69 67.72 66.93 66.17 63.10 61.98 61.78 62.29 65.85 69.78 69.54 68.76 68.72 68.74 67.98
68.98 69.72 71.34 73.64 74.48 74.51 74.38 73.89 73.74 73.55 72.40 70.84 69.96 69.06 69.02 69.59 69.71 69.90 69.61 69.32 68.98 68.63 68.68 68.75 68.57 67.73 67.20 67.10 66.95 66.58 65.53 65.25 62.28 60.81 61.14 60.98 68.11 68.30 67.17 67.16 66.76 66.72 66.62
68.57 68.80 69.53 70.07 71.86 72.27 72.74 72.72 72.96 73.04 72.20 71.26 70.68 70.00 69.17 68.97 68.79 69.09 69.06 68.90 68.77 68.79 68.95 68.33 67.44 66.87 66.63 66.31 65.78 65.10 64.42 62.73 58.08 59.49 61.21 60.66 67.33 68.15 68.00 66.79 65.99 65.77 65.18
67.03 67.95 67.52 68.02 68.65 69.46 70.39 71.31 71.28 71.93 71.28 70.75 70.02 69.45 68.33 67.88 68.44 68.83 68.96 69.06 69.05 69.52 68.81 67.51 66.61 65.81 65.87 65.56 64.61 64.15 62.80 60.82 55.97 57.07 58.79 59.86 67.51 68.74 67.81 66.78 65.26 64.93 64.31
66.14 66.34 65.91 65.81 66.12 66.92 68.01 69.12 70.45 70.65 70.34 69.65 68.75 67.50 66.59 64.76 65.81 66.51 66.47 67.85 69.19 69.91 68.16 66.56 65.90 65.84 66.26 65.37 64.69 63.35 60.19 52.75 53.92 58.77 58.77 65.48 69.29 68.89 67.35 66.01 64.83 64.19 63.33
64.08 65.02 65.73 65.27 65.38 66.07 68.43 67.12 66.62 68.51 68.42 67.26 65.83 65.08 64.28 63.51 64.09 65.82 64.97 67.07 68.82 69.43 68.13 66.56 65.66 65.38 63.71 56.26 54.64 58.72 51.03 50.69 58.18 61.89 63.33 68.42 69.24 68.36 66.59 65.48 64.19 63.24 62.37
64.47 65.19 65.78 65.72 65.44 65.14 66.18 65.59 64.77 65.18 66.47 66.17 64.60 63.81 62.90 63.11 62.42 62.83 62.69 64.72 65.62 66.16 64.73 64.23 61.88 58.22 54.38 51.59 50.78 49.04 49.70 50.08 54.43 62.27 65.76 68.72 68.38 67.18 65.99 64.79 63.19 62.60 61.81
63.26 63.86 64.37 65.31 64.84 64.21 64.80 64.62 63.71 64.51 64.29 65.59 65.10 63.67 62.22 61.29 60.83 61.53 62.11 62.90 63.20 64.42 62.63 61.17 58.94 56.30 52.79 52.05 51.46 50.22 49.94 49.97 55.08 61.39 63.58 66.59 67.60 66.42 65.48 63.45 62.80 62.60 61.49
63.89 64.74 64.77 64.30 62.59 63.56 63.93 63.23 63.10 64.33 64.23 66.03 65.69 64.88 63.63 61.80 60.81 61.63 61.89 61.79 62.48 63.31 62.37 60.73 59.60 58.42 54.96 53.68 51.20 49.94 49.22 49.21 56.22 60.81 61.22 63.96 66.05 66.14 64.55 63.68 62.79 62.57 61.38
63.83 64.41 65.19 65.59 64.95 62.88 63.37 62.75 63.04 63.59 64.49 63.86 65.74 66.02 65.16 63.42 61.66 61.98 61.93 61.38 61.59 63.27 63.60 62.14 60.79 59.24 56.78 53.32 50.42 48.83 48.96 49.07 57.10 59.23 59.91 61.53 64.72 65.38 64.80 63.76 63.01 62.52 61.91
64.14 64.52 64.55 65.63 66.07 65.03 63.00 62.64 62.00 62.37 63.46 62.78 63.83 64.37 65.74 64.42 62.18 62.04 61.95 61.56 61.04 61.33 62.77 61.81 61.11 59.17 55.72 53.21 50.68 49.96 49.23 48.21 51.19 58.00 58.52 58.81 61.25 62.72 64.16 63.85 63.20 62.44 62.05
64.33 64.36 65.15 66.79 66.05 65.39 65.11 64.27 64.16 64.91 65.14 63.50 62.31 62.79 63.64 64.34 62.95 62.12 62.18 61.71 62.02 60.69 61.28 60.66 59.67 57.09 53.36 50.25 49.49 48.53 47.86 48.12 48.91 56.26 56.76 56.84 57.09 57.97 61.69 63.71 63.23 62.41 62.08
60.64 62.13 64.39 65.43 65.67 65.60 65.28 65.41 64.74 64.77 64.73 65.75 65.74 63.70 62.54 63.08 62.76 63.08 62.92 62.75 61.79 61.15 60.46 60.77 59.16 56.11 53.07 50.32 48.82 47.82 46.89 47.21 48.22 53.09 55.14 54.95 54.60 54.85 54.96 59.99 61.93 61.83 62.00
49.43 51.37 55.42 62.56 64.95 65.34 65.45 65.30 64.82 64.53 64.81 64.66 65.44 66.11 66.18 63.32 62.46 61.77 62.19 62.61 62.26 61.78 61.58 60.19 59.65 56.03 53.44 52.24 50.64 48.76 46.61 46.64 47.18 47.73 52.93 55.25 53.17 52.76 52.50 52.56 55.68 56.83 60.57
48.35 48.38 48.97 50.24 49.97 56.63 62.12 63.12 63.02 64.06 63.98 63.62 64.22 65.22 65.12 65.88 64.54 61.81 61.38 60.64 61.34 62.06 62.29 61.68 60.40 57.98 53.76 50.33 49.62 48.06 46.13 45.65 45.09 46.67 47.29 51.86 52.78 52.18 50.72 50.55 51.54 51.52 54.84
48.81 49.65 49.16 49.11 49.61 49.81 50.76 51.95 59.87 63.23 63.65 64.57 64.45 64.05 64.60 64.48 64.33 64.36 62.07 61.18 60.48 62.14 61.07 60.57 60.01 57.05 56.22 51.50 49.55 44.78 45.92 45.27 44.23 45.44 45.35 47.49 48.99 51.58 50.40 49.58 48.55 47.67 48.50
48.99 49.71 50.89 50.95 50.21 49.72 49.50 49.82 50.05 50.81 58.13 61.13 61.41 61.99 63.75 64.17 64.27 63.26 63.50 62.22 60.43 61.20 61.61 61.25 60.57 58.18 58.15 51.96 50.64 49.40 41.00 42.91 41.52 42.35 43.09 45.17 46.34 45.94 49.39 50.59 48.33 47.69 46.83
49.01 49.75 50.62 50.82 50.01 50.46 49.28 48.12 46.65 46.70 47.04 51.52 58.37 60.88 62.29 62.52 63.20 63.73 63.58 62.93 62.65 60.91 60.21 60.62 61.35 60.51 56.80 53.81 50.52 50.82 49.31 45.33 42.53 43.27 41.90 41.67 43.99 44.55 44.25 46.50 48.17 48.27 48.00
49.57 48.64 48.55 48.95 49.25 49.06 48.70 48.24 47.01 46.25 46.25 47.31 48.48 49.38 52.13 56.91 61.14 62.86 63.52 63.28 61.71 61.53 61.19 60.17 58.27 58.63 58.51 58.97 50.66 49.68 48.33 46.30 43.79 42.95 42.05 42.41 46.41 45.46 46.38 45.83 47.28 47.73 46.16
48.61 48.14 47.89 48.18 47.82 48.28 48.37 48.10 47.35 46.52 46.40 46.88 46.79 46.99 47.94 50.34 54.15 57.58 60.87 62.10 62.00 60.70 59.91 59.80 59.01 57.73 58.49 57.34 56.17 53.40 50.82 48.49 48.81 44.19 40.95 42.28 42.85 46.71 46.90 46.83 46.95 45.83 44.64

GFSSE_sfc_wetblb_051.txt.gz
Wetbulb
69.52 73.42 76.21 75.72 75.41 75.20 75.17 75.18 75.22 75.14 74.66 73.95 73.32 72.68 72.13 71.61 71.04 70.30 72.27 72.42 71.34 70.61 70.30 70.70 70.69 70.86 70.59 70.35 70.41 70.11 69.21 68.52 68.21 68.53 68.99 69.76 69.35 68.48 68.43 67.91 67.62 66.14 69.62
71.95 74.02 75.72 75.82 75.48 75.50 75.85 75.58 75.45 75.04 74.68 74.02 73.26 72.47 71.72 70.59 69.89 70.45 72.02 71.43 70.67 70.20 69.66 69.60 69.60 69.49 69.37 69.20 69.77 69.38 68.51 68.05 67.95 68.01 68.29 68.44 69.02 67.94 68.14 67.19 66.63 66.52 70.20
72.14 73.92 74.50 75.66 75.84 76.19 76.03 75.14 75.19 74.98 74.34 73.59 72.45 71.82 70.96 69.68 70.16 70.70 72.16 71.44 70.66 69.93 68.90 68.47 68.29 68.15 68.05 68.44 69.23 68.94 68.65 68.46 68.27 68.42 67.91 65.85 64.88 67.77 67.94 67.55 67.78 67.63 67.97
72.39 73.69 74.26 75.79 76.07 75.73 75.43 74.79 75.01 74.37 73.32 72.37 71.68 70.94 69.70 69.24 72.01 71.44 72.33 71.43 70.35 69.19 68.02 67.79 67.64 67.35 67.40 68.19 68.44 68.09 67.56 66.55 65.87 67.19 63.54 65.41 67.49 68.76 68.60 68.02 68.55 69.77 69.83
71.84 73.55 74.41 75.83 75.81 75.63 75.06 74.98 74.87 73.81 72.64 71.79 70.84 69.89 68.78 72.00 72.92 72.39 72.41 71.07 69.76 68.61 68.00 68.19 68.23 67.99 67.91 67.95 67.94 68.17 67.94 67.33 67.94 65.97 63.55 64.21 66.61 69.72 71.09 70.45 69.32 70.28 70.90
70.49 72.10 74.67 75.42 75.54 75.28 75.14 75.15 74.87 73.18 72.14 71.07 69.95 68.84 69.78 72.62 72.93 72.71 71.62 70.38 69.21 68.62 68.19 68.63 68.51 68.29 68.10 68.19 68.14 68.25 67.60 68.23 66.42 63.47 63.34 66.84 66.59 70.22 70.66 70.06 69.95 69.75 69.34
69.58 72.22 73.74 75.40 75.43 75.03 74.83 74.63 74.07 73.12 71.68 70.66 69.39 68.42 70.50 71.91 71.46 71.51 70.80 69.59 69.10 68.64 68.18 68.69 68.41 67.89 67.80 67.86 67.96 67.60 66.28 67.87 62.82 61.25 61.67 64.08 65.86 69.46 69.31 68.99 68.63 68.46 68.20
69.66 71.55 72.93 74.22 74.68 74.50 74.51 74.27 73.83 73.11 71.65 70.46 69.40 68.74 69.17 70.79 70.72 70.18 70.05 69.55 68.93 68.33 68.13 68.57 68.11 67.25 66.82 67.04 67.08 66.03 66.90 65.80 62.14 60.53 60.67 61.74 68.64 68.18 67.08 66.80 66.79 66.72 66.34
69.37 69.57 70.41 72.10 72.87 73.02 73.13 73.40 73.16 72.81 71.76 71.18 70.49 70.00 70.08 69.61 69.67 69.71 69.40 69.08 68.76 68.32 68.30 68.17 67.45 66.71 66.36 66.22 65.80 64.94 65.39 64.21 59.12 59.81 60.91 60.05 68.13 66.89 66.90 65.50 65.31 65.28 65.15
67.32 68.20 67.82 68.83 70.74 71.12 70.70 71.60 71.63 71.61 71.05 70.79 70.09 69.38 68.39 68.05 68.60 69.05 69.05 69.16 68.83 68.75 68.48 67.53 66.33 65.73 65.51 65.32 64.63 64.00 62.63 61.38 57.46 57.69 58.54 59.12 66.17 68.55 67.33 65.85 64.26 64.38 63.90
66.30 66.52 66.76 66.99 67.00 67.43 68.36 69.63 70.52 70.44 69.92 69.54 68.81 67.61 66.41 64.07 65.39 66.32 66.43 67.54 68.93 69.63 68.30 66.62 65.75 65.29 66.27 64.86 64.62 63.61 57.66 52.33 53.20 55.50 56.76 62.60 66.94 68.78 67.20 65.37 63.91 63.55 62.72
63.71 64.91 65.47 65.13 65.37 66.19 68.58 67.51 67.98 68.99 67.90 66.84 65.86 64.89 63.84 63.08 63.55 65.28 64.64 66.76 68.70 69.30 68.32 66.83 66.03 65.52 62.95 55.22 53.31 55.14 50.27 49.81 55.97 59.73 59.79 64.60 68.84 68.79 66.75 64.97 64.21 62.84 61.86
63.64 64.31 65.05 64.57 64.88 65.44 66.11 65.73 65.21 66.37 66.54 65.55 64.40 63.73 62.81 62.86 62.43 63.13 62.39 64.12 64.31 65.68 64.64 64.54 62.32 58.56 54.94 51.29 50.34 49.25 48.60 49.27 50.96 60.57 63.90 67.50 69.39 67.61 66.24 65.40 63.58 62.55 61.52
62.55 63.72 64.64 64.78 64.46 64.24 64.84 64.80 64.35 64.12 65.31 64.74 64.00 63.43 61.76 60.97 60.50 60.94 60.96 61.99 62.88 64.15 63.07 61.17 59.32 57.22 53.64 51.75 50.75 50.88 49.06 49.03 51.34 60.19 62.39 67.12 68.66 67.56 66.22 65.06 63.29 62.50 61.66
62.53 63.49 63.88 64.47 64.10 63.86 63.60 63.59 63.04 63.12 63.97 65.45 64.25 63.47 62.19 60.72 60.09 60.58 60.64 61.27 61.77 62.52 62.25 60.63 59.39 58.26 55.78 52.60 51.99 51.78 50.83 48.13 50.55 59.18 60.96 63.56 66.54 67.36 66.24 64.67 63.48 63.20 61.90
63.43 64.01 64.42 64.07 63.61 63.24 63.26 62.43 62.34 62.78 63.54 64.06 65.15 64.80 63.11 62.15 60.83 60.57 60.73 60.90 60.99 61.79 62.41 61.46 60.11 59.25 58.43 55.87 53.49 51.43 49.90 49.28 50.18 57.15 60.25 60.86 64.82 66.27 66.29 64.76 64.06 63.64 62.66
63.14 64.63 64.52 64.83 64.36 62.65 63.74 62.97 61.63 62.41 64.01 63.24 64.64 65.21 65.09 63.56 61.87 61.25 61.10 60.55 61.16 61.09 61.88 61.57 60.69 59.84 58.48 56.41 52.41 50.75 49.07 48.19 48.88 57.05 59.06 59.21 60.95 63.50 65.26 65.00 64.49 63.70 63.15
63.30 63.53 64.49 66.50 65.26 63.10 63.04 63.26 62.54 62.26 62.26 62.88 62.98 63.33 64.47 64.87 62.88 61.54 61.32 61.11 61.22 59.87 60.68 60.68 60.79 59.53 57.94 56.20 53.15 50.57 48.33 47.58 47.61 51.49 56.96 57.79 58.20 59.53 62.15 64.90 65.15 64.12 63.31
62.36 63.40 63.60 64.48 64.79 65.07 64.47 63.87 63.00 63.22 63.53 63.48 62.92 62.49 62.78 63.75 63.78 62.73 61.90 61.65 60.93 60.48 59.71 60.14 59.24 58.32 56.56 55.11 52.20 50.01 47.81 46.82 47.33 49.60 54.30 56.14 56.32 57.19 56.46 60.33 63.02 63.33 63.53
53.11 57.89 62.14 63.72 64.43 64.70 64.75 64.43 63.89 63.55 63.52 64.06 64.69 64.66 62.82 62.58 62.19 61.74 62.19 61.74 61.11 60.77 60.10 58.86 59.16 56.72 55.56 54.83 54.43 51.22 48.96 47.02 46.54 46.78 49.76 55.54 55.22 55.45 54.69 54.84 56.11 58.49 61.70
47.25 47.42 48.32 51.80 50.02 60.84 62.73 62.50 62.21 62.97 63.16 63.18 64.11 64.94 65.37 65.30 62.87 61.22 61.38 60.82 61.13 61.20 61.26 60.62 59.27 58.55 56.97 51.04 49.32 48.00 47.00 47.75 45.71 46.35 46.91 50.59 53.83 54.15 53.22 53.45 53.21 53.86 55.71
47.50 47.84 48.16 48.27 48.53 48.58 51.10 53.56 61.01 62.12 62.99 63.51 63.75 63.96 64.45 64.55 64.51 63.53 61.45 60.80 60.25 60.76 60.24 60.00 59.58 57.47 56.10 52.35 51.46 46.86 48.27 48.66 45.03 45.91 45.08 47.36 49.10 53.27 52.74 52.55 51.16 51.42 52.38
47.83 48.83 49.73 49.60 49.09 48.78 48.31 48.52 48.81 49.40 54.62 60.32 61.10 61.90 62.95 63.93 63.86 63.34 63.66 62.40 60.80 59.88 60.13 60.08 59.42 58.54 58.81 51.79 51.47 54.51 46.15 45.22 43.40 44.37 42.61 43.93 46.11 47.07 50.61 50.78 50.48 51.12 50.96
48.07 49.06 49.33 48.91 48.82 48.94 48.39 47.55 46.41 46.22 46.28 48.06 51.40 54.70 53.96 59.62 61.63 62.39 62.46 62.10 61.92 60.36 59.49 60.07 60.54 60.09 57.07 56.42 49.52 51.57 51.11 48.12 47.18 46.26 44.66 42.56 42.23 44.70 45.07 48.68 50.08 49.54 50.00
48.34 47.46 47.39 47.94 48.39 48.34 48.07 47.53 46.66 46.24 46.48 47.36 47.58 47.82 48.68 50.45 52.76 57.84 60.23 61.10 60.94 60.50 60.34 59.29 57.95 57.97 58.14 59.03 54.58 48.81 50.82 48.62 46.63 46.26 50.01 48.41 44.91 46.32 46.51 45.30 48.84 49.57 49.62
46.76 46.39 46.51 46.82 46.59 47.26 47.55 47.27 46.73 46.29 46.49 47.01 47.11 47.36 48.58 49.56 52.61 53.94 55.19 57.72 60.43 60.10 59.33 59.25 58.08 57.30 58.05 57.87 58.00 54.87 52.18 49.94 49.22 46.81 45.73 49.01 46.52 47.34 46.52 45.71 45.81 47.09 48.58

GFSSE_sfc_wetblb_054.txt.gz
Wetbulb
67.13 72.26 75.94 75.45 75.35 75.32 75.25 75.09 74.92 74.82 74.48 73.61 73.07 72.60 72.11 71.34 70.90 72.70 72.54 71.77 70.70 70.39 70.87 70.86 70.57 70.55 71.08 71.25 70.59 69.49 68.67 68.41 68.66 69.22 69.40 69.55 68.45 68.36 67.93 67.70 67.54 66.80 70.23
70.24 73.55 75.63 75.63 75.13 75.28 75.48 75.47 75.37 74.82 74.23 72.81 72.85 72.30 71.39 70.44 70.91 72.47 71.45 70.76 70.19 69.68 69.83 70.13 70.21 70.18 70.12 70.45 69.77 69.00 68.49 68.60 68.96 68.70 68.02 67.99 68.96 68.20 67.66 67.18 67.88 68.26 70.65
72.13 73.63 74.31 75.55 75.64 75.79 75.72 75.01 74.95 74.64 74.08 73.36 72.43 71.70 70.62 69.92 71.10 72.57 71.42 70.86 70.20 69.00 68.68 68.79 68.84 68.91 69.30 69.89 69.37 69.15 68.93 68.86 68.90 68.01 67.88 65.77 63.88 68.17 68.17 68.11 68.17 68.18 69.05
72.42 73.20 73.41 75.45 75.80 75.99 75.59 74.87 74.70 74.06 73.19 72.27 71.64 70.91 69.66 70.42 71.22 72.55 71.76 70.85 69.62 68.13 67.91 67.68 67.52 67.72 68.65 68.93 68.61 68.16 67.53 66.73 66.60 66.83 64.09 65.90 66.48 69.23 68.58 68.75 70.26 71.08 69.02
71.72 73.09 73.65 75.18 75.83 75.56 75.10 74.96 74.43 73.33 72.43 71.53 70.68 69.55 69.65 72.21 71.74 72.71 71.77 70.38 69.03 67.95 68.10 68.13 67.82 67.89 68.31 68.19 68.41 68.47 67.97 67.79 67.64 64.75 63.57 65.41 66.79 70.37 70.97 70.15 70.20 70.65 71.14
71.93 72.25 74.39 75.32 75.48 75.17 75.07 74.94 74.14 72.87 72.05 70.89 69.69 68.75 72.04 72.76 72.38 72.52 71.39 69.71 68.84 68.02 68.37 68.36 68.29 68.19 68.21 68.40 68.40 68.12 68.18 68.00 65.66 62.54 63.40 66.90 66.71 70.79 70.72 70.31 69.95 69.89 69.72
71.50 72.47 73.93 75.33 75.36 75.06 74.99 74.72 73.88 72.60 71.50 70.30 69.09 68.88 71.99 72.64 72.64 71.79 70.85 69.49 68.84 68.14 68.53 68.58 68.28 68.07 68.15 68.10 68.20 66.70 68.48 66.87 61.83 60.65 62.25 64.11 65.88 69.75 69.50 68.98 68.50 68.28 68.04
71.06 72.11 73.35 74.21 74.72 74.52 74.60 74.15 73.52 72.78 71.22 70.10 69.32 69.32 71.46 71.70 71.54 71.15 70.24 69.31 68.79 68.15 68.08 68.27 67.83 67.39 67.42 67.53 67.21 65.83 68.10 65.51 61.56 60.04 60.76 62.52 68.08 67.63 67.27 66.72 66.90 66.81 66.51
70.16 70.33 71.46 72.18 72.93 73.15 73.49 73.31 72.99 72.57 71.73 70.79 70.25 70.12 70.77 70.68 70.70 70.19 69.70 69.14 68.60 68.01 67.96 67.98 67.30 66.89 66.70 66.72 66.11 65.18 66.52 63.96 58.99 59.33 60.24 59.95 65.92 66.43 66.68 65.34 65.29 65.31 65.21
67.94 68.64 69.14 70.08 71.05 70.93 71.37 72.17 71.89 71.53 71.14 70.79 69.99 69.49 68.74 68.25 68.99 69.86 69.17 69.12 68.62 68.33 68.15 67.38 66.34 65.88 66.03 65.81 65.05 63.15 62.14 60.93 57.19 57.53 58.04 58.38 65.58 67.84 66.80 65.18 64.39 64.36 63.60
66.55 66.60 67.01 67.78 68.39 68.73 69.31 70.36 70.67 70.31 69.86 69.48 68.59 67.46 66.28 63.99 64.67 64.87 66.48 67.55 68.92 69.25 68.35 66.97 65.97 65.33 65.28 63.46 63.43 62.01 57.18 51.86 53.64 54.80 55.64 61.10 65.80 68.82 67.44 64.86 63.89 63.28 62.38
64.13 65.16 65.98 66.05 66.25 66.47 68.65 68.05 69.38 68.64 67.23 66.44 65.70 64.57 63.21 62.32 63.10 65.00 64.37 66.34 68.34 69.21 68.46 66.54 65.66 65.46 61.17 54.74 53.20 55.12 50.54 49.35 51.49 56.70 58.48 62.84 66.03 69.56 67.03 64.82 64.18 62.70 61.54
63.05 64.48 65.06 64.87 65.20 65.69 66.26 65.94 66.18 66.71 65.93 65.18 64.24 63.34 62.42 62.32 61.83 62.54 61.85 63.47 63.53 64.82 64.32 64.27 61.57 58.50 54.83 51.23 50.01 48.86 48.22 48.35 48.67 57.29 61.53 65.58 66.97 69.16 66.56 65.38 63.84 62.56 61.34
62.90 63.67 64.42 64.42 64.20 64.31 65.06 64.99 64.67 65.45 65.26 64.22 63.72 63.12 61.64 60.73 60.32 60.53 60.44 61.16 61.94 62.82 62.67 60.93 59.36 58.02 54.70 51.69 50.21 50.02 49.48 50.19 50.10 54.87 60.34 65.09 68.19 68.32 66.80 65.46 63.96 62.66 61.79
62.25 62.99 63.74 64.00 63.59 63.82 63.60 63.84 63.46 63.26 64.64 64.60 63.48 62.94 61.80 60.44 59.74 59.71 59.47 59.93 60.83 61.82 62.15 61.08 59.40 58.31 56.60 54.00 51.25 50.71 51.03 49.12 48.26 51.70 58.95 62.75 66.57 68.11 67.12 66.32 64.42 63.67 62.66
62.71 63.01 63.80 64.03 63.98 63.60 63.03 62.85 63.01 62.71 63.31 64.16 63.88 63.11 62.21 61.12 60.19 59.69 59.78 59.81 60.11 61.15 61.70 61.38 60.12 59.01 58.25 57.28 56.41 53.69 50.94 48.59 47.78 50.53 57.59 60.20 64.35 66.30 67.35 66.31 65.09 64.41 63.80
62.33 63.73 63.83 63.87 64.12 62.81 62.86 62.86 62.14 62.48 63.41 62.57 64.26 64.12 63.17 62.20 60.91 60.55 60.05 59.68 60.17 60.48 60.95 60.86 60.32 59.36 58.41 58.13 56.25 54.64 51.47 48.83 47.73 49.09 55.86 58.63 60.33 63.30 65.69 66.27 65.59 64.97 64.18
62.63 63.17 64.21 65.73 64.26 62.61 62.82 62.95 62.36 61.59 62.17 62.58 62.57 63.51 64.42 63.97 62.57 60.92 60.37 60.12 60.59 60.04 60.09 59.83 59.68 58.95 58.20 57.68 56.87 56.08 52.93 49.43 47.92 47.47 53.13 56.96 58.12 59.75 62.49 65.66 66.17 65.53 64.80
62.06 62.47 63.03 64.15 64.18 63.26 62.58 62.49 62.18 61.89 61.36 61.89 62.16 62.33 63.03 64.30 63.91 62.66 61.68 61.61 60.47 59.79 59.03 59.48 58.93 58.71 57.45 57.38 57.10 56.36 53.19 50.36 48.18 48.25 48.87 54.10 56.46 58.14 58.26 61.08 63.51 64.17 64.85
57.78 60.63 62.05 63.09 63.65 63.93 63.67 63.09 62.26 61.83 62.00 62.60 62.76 62.12 61.93 62.42 62.89 62.83 62.67 61.75 60.50 59.84 59.40 58.33 58.76 57.19 58.55 57.61 56.86 55.61 51.70 50.82 50.53 47.06 47.14 51.21 54.76 56.46 56.69 56.44 57.06 59.77 62.43
47.83 51.44 55.87 60.35 59.38 62.70 62.19 61.71 61.37 61.74 61.97 62.03 63.16 63.98 64.29 62.80 61.52 60.84 61.22 60.59 60.66 60.40 60.62 59.76 58.63 58.32 56.52 53.09 52.41 51.79 49.06 48.76 48.12 48.31 46.48 48.60 51.18 54.08 54.46 55.30 56.00 55.28 57.05
46.40 46.98 47.49 48.45 48.34 52.14 57.48 59.06 61.50 61.30 61.66 62.20 62.63 62.98 63.73 63.85 63.97 62.85 60.75 60.36 59.99 60.39 59.75 59.45 58.47 56.14 56.21 52.63 54.39 48.53 51.93 51.78 46.50 46.99 45.54 46.18 46.36 51.49 53.03 53.48 53.18 52.79 53.51
46.64 47.30 48.40 48.49 48.28 48.20 48.01 48.14 48.36 48.97 51.65 57.97 59.80 60.77 61.81 62.91 63.48 63.28 63.27 62.50 60.69 59.58 59.49 59.18 58.61 58.21 58.09 52.36 51.59 56.34 49.13 48.77 47.03 47.48 44.12 43.40 44.23 45.75 49.71 51.18 51.31 51.29 51.39
47.12 48.24 48.35 48.31 48.20 48.28 48.03 47.15 46.12 45.94 45.94 46.96 48.54 50.31 50.04 52.45 56.14 60.13 61.51 61.88 61.63 60.50 59.26 59.54 59.38 59.13 56.99 58.55 51.51 52.66 52.80 50.05 50.16 49.33 48.52 45.56 42.93 43.04 44.56 47.81 50.20 50.56 51.60
47.43 46.68 46.64 47.60 47.90 47.84 47.82 47.26 46.55 45.87 46.15 46.77 47.16 47.62 48.07 49.21 51.29 54.45 55.39 56.83 59.33 60.58 61.15 59.24 58.03 57.01 57.43 58.60 55.99 51.90 51.78 49.63 47.64 48.12 50.53 51.25 48.09 47.08 46.07 45.37 47.99 50.16 50.59
45.46 45.51 45.95 46.32 46.25 46.81 46.84 46.60 46.37 46.22 46.39 46.87 47.09 47.31 48.40 49.46 52.14 52.03 53.03 53.62 57.30 59.03 59.71 60.39 59.53 57.79 57.14 58.17 58.36 54.76 52.44 51.13 49.27 47.66 46.86 47.78 49.13 48.44 47.72 46.81 45.47 46.95 48.28

GFSSE_sfc_wetblb_057.txt.gz
Wetbulb
69.69 74.26 76.24 76.22 75.63 75.62 75.47 75.25 74.63 74.48 73.55 73.59 73.06 72.64 71.55 72.00 72.78 72.85 72.52 71.01 70.63 70.98 71.11 70.70 70.85 71.50 72.01 70.93 70.08 69.23 68.87 68.88 69.27 69.62 68.97 69.38 68.51 68.05 68.19 68.43 69.06 70.30 69.63
71.05 74.33 75.78 75.96 75.62 75.62 75.79 75.66 75.24 74.69 74.19 73.31 72.78 72.13 71.02 72.10 73.04 71.73 70.94 70.48 69.89 70.17 70.22 70.52 70.27 71.21 71.09 70.39 69.84 69.22 69.95 70.22 69.84 68.91 67.74 68.32 69.50 68.11 68.07 68.26 69.22 70.55 69.87
72.15 74.14 74.33 75.39 75.58 75.74 75.73 75.34 75.11 74.57 74.14 73.22 72.32 71.48 70.40 71.78 72.78 71.49 71.30 70.48 69.16 69.32 69.64 69.74 70.03 70.59 70.51 70.11 69.82 69.44 69.36 69.09 68.51 68.54 68.43 68.33 68.97 68.84 69.07 69.23 70.37 68.60 70.50
72.84 73.79 73.89 75.34 75.57 75.86 75.69 75.12 74.88 74.01 73.15 72.21 71.63 70.73 70.17 71.58 72.88 72.00 71.40 70.05 68.53 68.49 68.19 68.25 68.62 69.51 69.63 69.25 68.88 68.49 68.02 67.50 67.50 67.50 69.51 69.37 69.35 69.66 69.39 70.70 71.36 70.57 68.76
72.88 73.75 74.17 75.18 75.81 75.74 75.30 74.98 74.30 73.23 72.37 71.54 70.62 69.56 70.75 71.50 72.79 72.14 71.09 69.58 68.37 68.51 68.29 68.14 68.26 68.93 68.78 69.05 69.01 68.73 68.69 68.01 66.88 68.32 70.10 70.61 70.76 70.76 70.87 70.75 70.29 71.03 70.36
72.76 73.62 74.11 75.25 75.47 75.27 75.13 74.93 73.90 72.70 71.86 70.87 69.45 70.06 72.40 71.87 72.88 72.29 70.55 69.16 68.42 68.80 68.61 68.59 68.62 68.66 68.84 68.87 68.60 68.68 68.83 67.63 66.48 68.18 69.59 69.92 70.46 70.75 70.47 69.80 69.77 69.63 69.80
72.16 73.46 73.99 75.39 75.37 75.11 74.94 74.47 73.70 72.36 71.45 70.16 69.32 70.62 73.14 72.41 73.00 71.87 70.17 69.23 68.57 68.83 68.85 68.49 68.43 68.59 68.47 68.61 67.72 67.86 68.18 65.84 65.83 67.25 68.53 69.66 69.69 69.46 68.36 68.16 68.08 67.88 67.70
71.58 73.50 73.92 74.13 74.64 74.61 74.59 73.87 73.28 72.59 71.02 69.80 70.28 72.16 72.88 73.05 72.32 71.11 70.03 69.35 68.76 68.34 68.71 68.46 68.05 67.92 67.94 67.89 66.33 67.75 67.32 64.99 64.51 64.96 67.08 68.41 68.30 67.20 66.85 66.68 66.71 66.77 66.64
72.26 73.25 73.65 73.81 73.52 73.39 73.45 73.17 72.84 72.43 71.55 70.68 70.45 71.57 71.98 71.75 71.32 70.92 70.05 69.19 68.70 68.20 68.44 68.33 67.66 67.32 67.28 66.87 65.22 67.36 65.73 63.54 64.81 64.38 63.69 66.46 66.37 66.93 66.33 65.48 65.73 65.48 64.82
72.14 72.53 73.01 73.39 73.01 73.24 73.38 72.01 71.69 71.53 71.07 70.65 69.95 69.61 68.56 68.71 70.14 70.43 69.26 69.45 68.71 68.28 68.22 67.60 66.91 66.41 66.57 66.00 64.47 63.35 62.55 61.51 64.05 63.76 64.20 63.97 65.29 67.65 66.91 65.55 64.81 64.44 63.61
70.00 71.17 71.89 72.15 72.45 72.54 72.89 71.64 70.74 70.37 69.92 69.23 68.75 67.49 67.31 68.25 68.50 68.62 67.25 67.97 69.06 68.92 68.20 66.87 65.93 65.69 65.02 64.10 63.95 61.05 58.94 60.46 62.06 62.47 62.27 60.87 64.44 68.56 67.18 65.20 64.52 63.47 62.58
68.20 68.89 70.07 70.68 71.05 71.26 71.35 72.09 70.44 69.60 69.94 69.11 68.40 68.01 67.38 67.13 67.67 67.48 66.07 66.48 68.36 69.15 68.56 66.55 65.69 65.10 61.62 61.82 61.49 58.45 60.16 58.27 58.87 61.47 62.60 63.18 64.79 67.70 67.18 65.53 64.56 62.97 61.75
67.57 68.04 68.36 69.05 69.58 69.94 70.22 70.60 70.05 68.96 69.14 68.60 67.87 67.12 66.24 65.74 66.77 67.39 67.24 67.40 68.34 66.33 68.81 67.51 66.19 64.55 61.11 59.56 58.35 58.00 57.30 56.98 57.87 58.99 63.01 64.35 66.56 68.59 67.06 65.73 64.21 62.83 61.52
66.20 67.59 67.74 68.18 68.31 68.59 69.05 69.14 69.41 69.03 68.67 68.07 67.51 66.77 65.81 65.06 65.21 65.65 65.55 66.05 66.84 67.60 67.61 67.40 66.28 64.87 62.68 59.19 57.95 57.63 57.57 57.19 57.40 58.35 61.47 63.25 66.56 68.58 67.60 65.84 65.07 63.34 62.12
65.69 66.49 66.93 67.31 67.41 67.50 67.94 68.17 68.36 68.99 68.89 68.60 67.51 66.72 66.07 65.16 64.56 64.59 64.73 64.80 65.66 66.65 66.71 66.72 66.07 64.93 64.01 62.58 60.50 58.09 57.58 58.07 57.54 57.07 58.90 61.47 64.76 68.30 68.46 66.93 66.29 64.44 63.26
65.46 65.84 66.67 66.71 66.88 66.87 67.06 67.24 67.48 67.53 68.36 68.63 68.22 67.25 66.08 65.65 64.99 64.12 63.76 63.56 63.96 65.21 66.07 66.48 66.11 65.32 64.55 63.86 63.49 63.24 61.73 59.13 57.38 56.35 57.33 60.55 63.20 66.24 67.54 67.47 66.69 65.41 64.79
65.02 65.94 65.92 66.61 66.79 66.48 66.59 66.83 66.85 66.95 66.65 66.94 67.87 67.86 66.75 65.95 65.33 64.78 64.09 63.60 63.99 64.46 64.65 65.19 65.22 64.97 64.32 63.99 63.38 63.55 62.52 60.98 58.06 56.45 56.49 58.83 61.61 62.78 65.44 67.19 66.96 66.16 65.38
64.58 65.03 66.06 66.54 66.44 66.38 66.26 66.51 66.45 66.22 66.42 66.72 66.62 67.07 67.36 66.90 66.13 65.32 64.62 64.29 64.89 64.49 64.34 64.22 64.26 63.89 63.69 63.60 63.38 63.50 63.13 62.39 61.44 59.07 56.35 57.24 59.89 61.97 63.52 65.46 66.64 66.66 66.11
64.75 64.90 65.37 66.35 66.46 66.25 66.18 66.19 66.18 65.86 65.29 65.67 65.77 65.60 65.90 66.52 66.73 66.12 65.64 65.64 65.30 64.68 64.24 63.97 63.57 63.36 63.17 63.04 62.59 62.96 62.71 62.42 62.42 60.24 58.89 56.52 57.55 60.07 62.02 62.94 63.95 64.80 65.77
63.17 64.45 65.36 65.75 66.49 66.40 65.69 65.19 65.29 65.18 65.34 65.40 65.32 65.52 65.80 65.96 66.26 66.33 66.12 65.80 65.46 64.70 64.34 63.67 63.21 62.91 62.45 62.55 61.02 60.71 62.08 61.99 61.20 60.51 60.02 57.65 56.36 57.29 59.55 61.56 62.99 63.65 62.74
53.29 58.32 63.65 64.29 64.99 65.62 65.15 64.65 64.34 64.10 64.77 64.97 65.41 65.77 65.59 65.32 65.06 65.06 65.30 65.27 64.91 64.18 64.40 64.05 63.15 61.75 61.57 60.62 59.54 60.94 60.23 59.59 59.68 59.96 59.37 56.83 56.66 56.53 57.31 58.57 60.34 61.90 62.59
50.55 52.33 54.54 60.79 61.13 63.53 64.49 64.60 65.16 65.21 65.62 66.01 66.19 66.07 66.22 66.40 66.49 65.75 64.66 64.12 63.82 63.43 63.30 63.24 62.48 61.53 61.27 59.48 60.69 57.05 56.78 58.52 56.47 55.89 55.61 54.43 54.31 54.16 55.03 56.21 57.50 58.88 60.27
49.56 50.12 50.80 51.29 51.71 52.62 54.84 54.04 54.04 54.63 56.20 61.25 63.48 64.36 63.22 61.83 65.01 65.50 65.93 65.54 64.68 63.15 62.88 63.18 62.67 61.56 60.98 59.30 59.18 60.07 53.58 53.56 53.52 55.24 53.29 51.81 52.15 52.18 53.76 54.71 55.44 56.26 57.46
49.87 51.22 51.12 50.92 50.80 50.93 51.36 51.15 51.18 51.58 51.50 51.25 52.06 52.82 52.96 53.48 54.81 58.01 62.35 63.60 64.02 63.60 62.32 62.45 62.52 61.94 61.14 59.82 56.07 55.95 57.08 53.78 53.05 51.49 53.79 53.29 48.70 50.07 49.07 51.37 52.63 54.03 54.15
50.16 49.95 50.11 50.21 50.29 50.50 50.79 50.79 50.62 50.01 50.44 50.92 51.29 51.54 52.63 53.43 56.00 56.48 56.98 57.90 59.15 59.42 60.22 60.65 60.67 60.69 60.63 60.69 58.42 56.69 56.40 53.66 51.44 51.43 51.29 55.38 53.29 53.37 52.14 51.44 51.99 50.83 52.00
49.01 48.76 49.26 49.27 48.75 49.63 49.99 50.02 50.36 50.41 50.14 50.81 51.03 51.50 52.04 52.97 55.01 54.09 54.41 55.13 56.39 58.30 58.86 59.49 59.89 60.58 59.96 59.71 60.58 59.06 55.67 53.81 53.80 49.53 49.07 49.65 50.75 53.29 53.45 53.23 52.04 50.80 51.49

GFSSE_sfc_wetblb_060.txt.gz
Wetbulb
72.47 74.87 76.12 75.96 75.47 75.25 75.20 75.03 74.70 74.11 73.99 73.36 72.92 71.83 72.21 72.48 72.85 72.69 71.18 70.71 70.94 71.72 70.85 71.85 72.41 71.87 71.09 70.43 69.83 69.39 69.07 69.18 68.85 69.01 69.06 68.96 68.18 68.55 69.39 69.64 71.38 69.82 69.23
72.87 74.90 75.98 76.32 75.90 75.84 75.57 75.31 74.75 74.31 74.12 73.19 72.66 71.44 73.01 73.35 72.30 71.17 70.59 70.04 70.44 70.94 71.19 71.15 71.83 71.28 70.90 70.36 70.42 70.30 70.39 70.28 69.70 68.29 67.78 69.08 69.70 68.46 68.86 69.69 70.10 70.33 70.01
72.35 74.56 75.21 76.05 76.10 75.82 75.57 74.92 74.62 74.31 73.52 72.84 72.03 70.90 72.58 72.68 71.65 71.58 70.41 69.36 69.56 70.19 70.21 70.75 71.23 70.66 70.56 70.09 69.56 69.37 69.02 68.55 68.79 68.86 68.41 70.53 70.16 69.48 70.76 71.48 69.55 70.44 70.74
72.94 73.96 74.47 75.76 75.90 75.89 75.49 74.85 74.71 73.70 72.89 72.16 71.52 70.43 71.71 73.00 72.06 71.71 69.99 68.85 68.88 68.88 69.21 69.70 70.17 70.03 69.58 69.37 69.17 68.62 68.28 68.15 68.31 69.10 70.58 70.62 70.28 70.08 71.19 71.14 71.46 69.22 69.20
73.20 73.52 74.21 75.05 75.74 75.86 75.23 74.82 74.07 73.08 72.25 71.58 70.73 70.01 71.29 72.97 72.48 71.46 69.71 68.68 68.66 68.52 68.34 68.88 69.43 69.29 69.55 69.40 69.09 69.16 68.59 67.59 67.75 70.42 71.12 71.26 71.62 70.80 70.86 70.68 70.65 70.66 70.50
73.18 73.67 73.89 74.73 75.65 75.43 75.19 74.82 73.46 72.57 71.68 70.82 69.70 70.57 71.57 72.54 72.65 71.34 69.43 68.68 68.91 68.75 68.75 68.98 69.07 69.23 69.17 68.90 68.95 69.18 68.29 66.77 68.01 69.09 70.01 70.07 69.21 69.74 69.63 69.25 69.11 69.05 69.24
72.73 73.51 74.14 75.49 75.47 75.32 75.06 74.30 73.54 72.06 71.15 69.78 70.05 72.16 72.71 72.72 72.48 71.05 69.59 68.68 69.07 68.90 68.68 68.93 69.00 68.88 68.89 68.27 67.68 68.85 67.17 65.65 66.64 67.11 67.89 68.66 69.10 68.69 68.13 67.55 67.61 67.54 67.36
72.30 73.18 74.21 74.35 74.70 74.85 74.38 73.80 73.32 72.06 70.75 69.40 71.16 73.86 73.07 73.38 72.03 70.98 69.86 69.00 68.57 69.01 68.78 68.35 68.19 68.37 68.22 67.17 67.54 68.68 66.22 64.97 65.81 65.54 66.20 66.97 67.96 67.54 66.94 66.71 66.53 66.44 66.04
72.93 72.61 73.17 74.03 73.92 73.51 73.32 73.03 72.83 72.21 71.16 70.26 71.75 72.37 72.80 72.30 71.96 70.94 69.92 69.23 68.53 68.68 68.70 68.13 67.68 67.53 67.41 66.30 67.07 67.60 65.41 63.70 66.00 65.20 63.41 65.61 66.93 67.13 66.28 65.64 65.72 65.30 64.55
72.84 72.70 72.54 73.73 73.31 73.24 73.74 71.94 71.66 71.48 70.91 70.62 70.54 69.85 69.18 69.83 70.42 70.73 69.53 69.39 68.59 68.53 68.28 67.44 66.90 66.70 66.42 65.67 63.87 63.86 62.63 63.57 65.18 64.92 64.70 63.77 64.91 67.75 66.32 65.50 65.01 64.23 63.33
71.99 72.70 72.83 72.02 72.31 73.13 73.28 71.63 70.62 70.36 69.88 69.22 68.89 67.70 67.83 69.58 69.73 69.05 67.58 68.37 68.81 68.35 67.99 66.86 66.06 65.83 64.85 64.58 62.97 60.44 59.34 64.83 64.10 63.72 63.52 61.80 63.60 66.82 67.16 65.62 64.87 63.52 62.37
69.72 71.28 72.41 72.37 72.13 72.40 72.69 72.55 70.68 70.24 71.02 70.57 69.84 68.60 67.51 66.95 68.00 68.20 67.16 67.09 68.23 68.87 68.20 66.46 65.78 65.11 63.27 65.02 64.48 61.12 64.94 64.06 62.73 62.68 63.25 63.25 65.05 66.10 68.80 65.54 64.64 63.21 61.69
69.30 70.71 71.42 72.21 72.18 72.17 71.98 72.21 70.54 70.13 71.02 71.07 70.20 69.61 68.41 66.97 66.67 67.11 67.68 67.34 68.47 66.69 68.69 67.71 67.19 66.52 63.89 63.23 62.79 62.30 61.80 61.56 61.62 61.36 63.67 63.14 65.33 66.92 67.65 66.35 64.89 63.36 61.78
69.20 70.27 71.01 71.34 71.47 71.66 71.80 72.09 71.06 70.51 70.76 70.76 70.36 69.79 69.10 68.34 67.58 66.86 65.95 66.72 67.19 67.30 67.41 68.30 68.15 67.64 66.53 64.45 62.14 61.31 61.24 61.48 61.35 61.28 62.96 62.51 64.24 67.29 68.86 67.49 65.81 64.27 62.78
67.96 69.02 70.39 71.10 70.71 71.50 71.51 71.39 71.49 70.89 70.63 70.75 70.67 70.24 69.74 68.87 68.19 67.97 66.59 65.43 65.74 66.69 66.95 67.12 67.35 66.97 66.50 65.92 65.68 64.29 63.67 63.13 62.66 62.16 61.53 60.69 62.23 66.06 69.10 68.69 66.98 65.70 64.17
67.97 69.38 70.57 70.50 70.86 71.48 71.05 71.23 70.91 70.89 70.98 71.01 70.79 70.50 69.87 69.39 68.79 68.15 67.60 66.36 65.35 66.12 66.75 67.40 67.82 67.72 67.39 67.13 66.22 65.93 65.90 65.85 64.56 62.84 62.05 62.29 62.24 64.14 67.37 68.58 67.82 67.05 65.63
67.95 68.56 69.23 69.90 70.46 70.60 70.59 70.59 70.40 70.26 70.22 70.22 70.40 70.69 70.04 69.46 68.83 68.10 67.78 67.41 67.37 67.20 66.79 67.14 67.36 67.52 67.15 67.19 66.86 66.98 66.71 66.64 65.98 64.19 63.02 62.81 62.86 61.64 64.22 67.57 67.90 67.32 66.27
68.04 67.59 68.38 68.48 69.18 69.65 69.69 69.74 69.56 69.74 69.66 69.67 69.88 70.10 69.99 69.43 69.08 68.56 67.84 67.80 68.36 68.17 67.84 67.34 67.16 66.71 66.65 66.68 66.63 67.01 66.84 66.74 66.50 66.23 65.79 64.39 63.87 63.09 63.44 64.93 66.86 67.31 66.91
68.14 68.09 67.77 67.94 68.17 68.88 69.44 69.59 69.63 69.63 69.43 69.53 69.73 69.61 69.32 68.93 68.78 68.68 68.51 68.51 68.77 68.24 68.00 67.64 67.35 67.13 66.53 66.71 66.48 66.51 66.57 66.39 66.60 66.27 66.11 65.94 64.65 62.77 63.15 62.81 63.85 64.88 66.14
67.16 68.32 68.09 67.93 68.17 68.90 69.40 69.30 69.44 69.29 69.34 69.60 69.27 69.11 68.93 68.88 68.81 68.83 68.81 68.76 68.82 68.17 67.87 67.80 66.96 67.56 66.91 66.57 65.51 64.77 65.70 66.35 66.45 66.06 65.78 65.65 65.67 63.69 62.53 62.45 62.80 62.95 62.93
57.92 66.19 67.47 67.55 67.92 68.09 68.05 67.37 67.15 67.49 68.45 68.98 69.41 69.17 68.82 68.83 68.71 68.46 68.49 68.59 68.74 67.95 67.68 67.67 67.35 66.38 65.94 66.60 64.24 64.11 65.09 65.44 64.81 64.90 65.15 65.12 63.72 62.72 62.54 62.06 61.73 61.88 62.30
56.23 59.15 64.49 66.24 67.77 68.36 69.00 68.96 68.88 68.66 68.76 68.92 69.17 68.75 68.71 68.63 68.80 68.54 68.42 68.29 68.34 67.67 67.48 67.22 66.84 65.27 64.99 65.81 62.92 62.00 59.18 60.94 62.56 62.79 63.33 62.19 61.83 61.51 60.22 60.33 60.42 60.34 60.90
53.93 55.09 57.23 60.74 64.73 66.57 68.12 67.25 66.00 65.35 65.60 66.73 67.50 68.01 67.81 66.18 67.38 67.17 67.40 67.39 67.38 67.07 65.64 66.38 66.07 64.61 62.69 64.48 63.86 61.96 58.01 55.87 58.94 61.09 60.84 59.79 59.35 59.36 59.11 58.27 58.91 59.27 59.39
53.91 54.94 55.35 55.65 56.82 58.12 61.01 63.15 63.98 64.54 64.14 62.23 60.47 58.84 58.20 56.91 57.50 58.57 62.33 64.57 65.12 64.89 63.45 63.86 64.17 63.60 62.98 60.88 60.36 60.74 61.37 58.96 55.63 54.47 59.38 59.64 57.65 56.84 57.48 56.35 55.63 57.29 56.84
53.81 54.64 54.96 55.15 54.89 54.88 55.28 56.38 56.91 56.14 56.11 56.20 56.28 55.73 56.56 57.30 58.56 58.52 58.86 59.41 59.93 61.02 61.40 61.17 61.31 61.00 61.99 61.48 60.91 58.51 58.57 58.89 57.79 55.31 53.15 56.57 58.59 55.28 55.91 56.58 57.81 56.67 57.25
54.54 54.22 54.44 54.42 54.31 54.82 55.27 55.61 55.82 55.66 55.17 55.26 55.42 55.62 56.22 56.89 58.24 57.56 57.09 58.14 58.68 59.63 60.25 60.45 60.26 59.62 59.64 59.68 61.22 60.52 57.99 56.35 56.53 54.95 53.24 54.38 53.80 58.04 58.70 58.60 57.39 56.33 55.19

GFSSE_sfc_wetblb_063.txt.gz
Wetbulb
72.88 74.47 76.04 75.61 75.05 75.18 75.18 74.82 74.34 73.86 73.68 72.78 72.10 71.89 71.76 72.82 72.50 71.03 70.67 71.13 71.78 71.91 72.65 72.76 72.01 71.39 70.88 70.63 70.41 69.90 69.01 68.50 68.85 68.98 68.85 69.24 69.18 69.65 70.38 70.98 70.54 69.23 70.13
73.57 74.29 75.74 75.91 75.43 75.47 75.13 74.35 74.36 73.80 73.67 73.01 71.67 72.67 73.32 72.28 71.38 70.56 70.16 70.79 71.41 70.91 71.91 72.16 71.55 71.26 71.04 70.67 70.25 69.94 70.33 69.99 68.40 67.80 69.02 69.44 70.19 71.32 71.80 70.44 71.65 70.09 70.66
73.26 74.26 74.83 75.91 75.89 75.70 75.30 74.45 74.28 73.65 73.17 72.43 71.23 72.60 72.38 71.84 71.64 70.08 69.56 70.15 70.71 71.03 71.89 72.05 71.24 70.48 70.18 69.68 69.37 68.92 68.70 68.91 68.62 68.59 69.07 69.65 69.58 71.40 71.91 70.56 70.39 70.67 70.10
73.56 74.49 73.98 75.96 75.78 75.47 75.09 74.30 74.04 73.41 72.55 71.92 70.89 71.71 72.83 72.12 71.70 69.79 69.14 69.29 69.48 69.87 70.42 70.60 70.00 69.84 69.73 69.52 68.99 68.86 68.09 67.99 68.86 69.45 69.58 69.45 70.57 71.30 71.56 71.70 69.94 70.42 70.13
73.09 73.71 75.06 75.75 75.93 75.48 74.98 74.36 73.72 72.83 72.06 71.47 70.60 70.96 72.96 72.50 71.72 69.69 68.98 68.93 68.75 68.73 69.48 69.78 69.66 69.71 69.48 69.37 69.38 68.98 67.60 67.68 68.95 70.29 69.79 70.16 69.90 70.25 70.39 70.24 70.24 70.17 70.28
72.53 73.53 74.20 75.26 75.57 75.28 74.95 74.58 73.30 72.26 71.43 70.73 69.96 71.24 72.42 72.75 71.46 69.69 69.00 69.05 68.84 68.86 69.15 69.34 69.43 69.40 69.00 69.23 69.34 68.53 67.32 67.47 68.09 68.64 69.00 69.67 68.20 69.01 68.75 68.88 68.62 68.49 68.44
71.96 73.98 73.41 75.20 75.34 74.96 74.87 74.17 73.21 71.78 70.78 69.85 71.04 71.86 71.85 72.83 71.29 70.01 68.92 69.24 68.99 68.91 69.14 69.21 69.09 69.05 68.49 67.93 69.17 68.05 66.54 66.87 65.89 66.58 67.23 67.85 67.28 67.89 67.78 67.69 67.51 66.95 66.74
71.89 73.11 73.12 74.33 74.64 74.46 74.18 73.73 73.01 71.52 69.96 70.24 71.61 73.06 72.50 72.62 71.47 70.40 69.32 68.83 69.16 68.85 68.46 68.59 68.51 68.45 67.98 67.38 68.69 67.44 66.13 66.43 65.30 64.89 65.38 66.54 68.32 67.36 67.04 66.93 66.49 65.50 65.09
72.25 72.44 72.61 73.28 73.54 73.35 73.13 73.00 72.68 71.71 70.28 70.49 72.65 73.55 73.39 72.05 71.61 70.53 69.75 68.80 68.65 68.94 68.45 67.93 67.55 67.58 67.32 66.35 68.22 66.76 65.41 65.63 65.34 64.09 62.94 66.10 68.21 66.88 66.40 66.19 66.13 65.09 64.33
71.64 71.73 71.22 72.80 72.85 72.84 72.89 71.85 71.51 71.16 70.43 71.29 71.06 70.45 69.98 69.97 70.75 70.54 69.80 69.38 68.51 68.65 68.10 67.39 66.79 66.68 66.31 65.41 64.32 64.05 63.17 64.47 64.25 63.64 63.47 62.33 64.88 67.58 65.98 65.73 65.69 64.71 63.48
69.89 71.14 71.85 72.71 71.44 71.88 72.03 70.64 70.45 69.98 69.52 69.12 69.14 68.22 68.50 69.56 69.55 68.37 67.83 68.83 68.76 68.35 67.66 66.71 66.07 65.76 65.01 64.98 63.30 61.34 61.89 63.94 62.88 62.56 62.78 63.47 63.34 65.53 67.46 65.47 65.01 64.00 62.68
68.91 70.83 71.15 71.55 70.81 71.59 72.16 71.09 70.38 69.94 69.91 69.40 67.56 67.41 67.57 67.67 68.24 68.00 67.46 67.52 68.47 68.70 68.00 66.69 65.91 65.33 63.76 64.65 64.16 62.59 63.61 63.67 62.55 62.20 62.88 64.22 64.48 65.73 67.41 66.40 64.82 63.36 62.02
69.12 70.28 70.50 70.97 70.89 71.26 71.09 71.12 70.75 70.06 70.32 70.39 70.16 69.09 67.35 65.84 66.10 65.46 67.10 66.71 67.43 66.85 67.59 66.74 66.23 65.70 64.69 63.25 62.54 62.12 61.93 61.72 61.61 62.13 63.22 63.57 63.80 66.50 68.62 66.84 65.50 63.67 62.04
68.88 70.12 71.15 71.11 70.89 70.74 70.52 71.36 70.89 69.38 69.98 70.41 70.33 69.86 68.61 67.58 67.08 66.02 65.44 66.33 66.99 67.43 66.74 67.65 67.17 66.90 66.44 65.63 63.74 62.12 61.94 62.04 62.00 62.47 62.87 62.56 62.68 65.29 68.68 67.92 66.40 64.70 63.12
67.26 68.27 68.76 70.71 70.46 70.52 69.88 70.40 70.29 69.81 69.91 70.08 70.45 70.25 69.65 68.64 68.06 67.71 66.09 64.90 65.19 65.71 65.90 66.19 66.38 66.19 66.16 65.95 65.57 64.81 63.85 63.80 63.50 63.51 62.98 61.94 62.13 63.30 67.14 69.34 68.08 66.68 64.91
67.98 68.08 69.11 69.13 69.72 69.48 69.56 69.87 70.40 70.35 70.26 69.97 70.01 70.12 69.95 69.10 68.53 67.96 67.38 66.36 65.10 65.20 65.80 65.99 66.84 67.28 67.13 67.14 66.67 66.35 65.80 66.00 65.81 65.05 64.04 63.59 61.85 63.07 64.85 68.15 68.91 67.74 67.00
68.44 69.23 68.92 69.49 69.88 69.37 69.87 69.76 69.71 69.92 69.76 69.56 69.66 69.94 69.76 69.29 68.43 67.91 67.45 67.31 67.30 66.88 66.16 66.52 66.88 67.24 66.98 67.08 66.75 67.13 67.16 66.94 66.73 66.24 65.35 64.69 64.13 61.59 63.46 64.82 67.38 67.68 67.34
68.47 68.70 69.89 69.79 69.55 69.46 69.89 70.40 69.67 69.37 69.17 69.22 69.57 69.99 69.95 69.44 68.92 68.60 67.70 67.66 68.37 68.21 67.84 67.29 66.96 66.54 66.51 66.48 66.28 66.60 66.87 67.05 66.95 66.87 66.99 66.58 65.62 64.58 63.11 64.16 65.48 66.82 67.03
68.11 68.59 68.70 69.39 68.89 69.09 69.14 69.45 69.50 69.47 69.21 69.31 69.71 69.76 69.79 69.61 69.16 68.71 68.63 68.61 68.88 68.49 68.13 67.72 67.31 67.10 66.24 66.22 65.39 66.72 67.01 66.93 66.92 66.87 66.61 66.85 66.87 65.89 64.22 63.82 63.47 64.63 66.25
67.84 68.57 68.89 69.05 68.82 68.95 69.26 69.24 69.63 69.32 69.42 69.55 69.43 69.45 69.57 69.25 69.04 68.76 68.69 68.65 68.85 68.00 67.16 66.92 66.34 66.76 66.20 65.80 65.06 65.29 66.36 66.58 66.81 66.71 66.19 65.66 65.69 66.18 65.50 63.88 63.78 62.48 62.69
64.09 67.58 68.27 68.27 68.58 68.57 68.24 67.79 67.89 67.81 68.83 69.09 69.44 69.65 69.46 69.27 69.17 68.89 68.63 68.25 67.78 66.98 66.88 66.89 66.47 65.15 64.93 66.96 64.77 64.47 64.87 65.66 65.64 65.29 65.14 64.26 64.55 64.70 63.64 63.26 62.95 62.65 62.69
57.73 63.14 67.06 67.94 68.44 68.56 68.55 68.32 68.65 68.52 69.04 69.42 70.23 69.65 69.45 69.15 68.98 68.51 68.22 67.58 67.46 66.98 66.66 66.58 65.68 64.78 64.97 66.01 62.81 62.74 59.30 61.05 62.41 63.74 63.53 62.93 62.82 63.01 62.25 61.61 61.50 61.33 61.61
56.64 57.71 62.77 66.54 67.42 68.48 68.78 69.09 68.66 68.19 67.89 67.65 68.15 68.37 68.62 68.68 68.56 68.21 67.72 67.15 67.23 67.16 66.21 66.13 65.53 64.45 62.75 63.32 63.54 61.10 57.93 56.15 58.88 61.03 61.25 61.60 61.00 60.72 60.99 59.99 59.76 60.22 59.80
56.08 57.46 57.62 60.25 64.11 66.73 67.74 67.39 65.40 64.43 64.57 66.41 66.49 66.48 64.39 60.86 60.86 61.43 63.16 65.13 65.81 65.39 64.22 64.10 64.35 63.95 63.40 61.56 61.89 61.66 62.00 59.46 56.09 54.64 59.64 60.43 60.47 58.19 59.43 59.08 57.61 57.62 56.64
56.61 57.07 57.50 57.36 58.39 59.30 60.48 63.55 64.22 64.09 64.25 60.52 58.27 57.17 57.13 57.62 58.42 58.71 58.66 59.32 59.72 60.33 61.29 61.48 61.62 61.24 61.17 60.64 60.93 60.09 59.86 59.97 59.46 56.22 53.84 55.56 59.74 58.90 58.07 58.01 57.76 57.63 57.15
56.57 56.92 57.02 55.76 55.69 56.59 56.97 57.65 58.24 58.45 56.57 55.83 56.38 56.15 56.51 56.92 57.93 58.09 57.56 58.05 58.49 58.95 59.50 60.42 60.73 60.31 58.96 58.30 58.59 58.98 58.54 57.48 55.40 54.43 53.65 54.88 55.69 56.20 56.81 58.92 56.78 55.91 54.79

GFSSE_sfc_wetblb_066.txt.gz
Wetbulb
71.10 73.51 75.76 75.86 74.99 75.23 75.21 74.58 74.28 74.04 72.68 72.42 72.16 71.99 73.34 71.93 70.80 70.63 71.54 71.78 72.59 73.02 72.50 71.80 71.64 71.63 71.30 70.87 70.38 69.27 68.79 69.19 69.20 68.76 69.63 70.69 71.89 71.85 71.94 71.50 71.62 69.55 71.02
71.89 73.48 75.44 75.79 75.64 75.55 75.00 74.25 73.97 74.18 73.84 72.31 73.03 73.38 72.25 71.46 70.26 70.48 71.21 71.72 71.32 72.76 72.30 71.56 71.28 71.30 70.61 70.02 70.05 70.31 69.71 68.95 68.73 68.92 69.90 70.47 71.33 72.13 70.91 71.53 71.60 69.99 70.00
71.48 73.16 74.42 75.55 75.63 75.24 74.94 74.33 74.42 73.60 73.13 72.35 73.17 72.41 72.04 71.39 69.82 69.83 70.94 70.59 70.53 72.49 72.20 71.47 70.69 70.33 69.85 69.52 68.98 68.42 68.80 69.37 69.17 69.32 69.59 68.08 69.36 72.18 71.50 70.47 71.09 70.57 71.00
72.43 72.62 73.48 75.63 75.46 75.17 74.94 74.48 74.11 72.98 72.18 71.50 72.84 72.34 72.44 71.05 69.53 69.71 69.80 70.14 70.23 71.16 71.21 69.94 70.11 70.02 69.78 69.35 68.87 67.69 68.56 69.13 70.07 70.09 68.87 68.99 68.75 70.59 71.31 71.12 71.13 71.29 71.04
71.89 72.24 74.03 75.41 75.38 75.17 74.86 74.39 73.30 72.33 71.87 71.10 72.35 73.42 72.50 71.28 69.58 69.48 69.31 69.15 69.47 69.95 69.31 70.03 69.90 69.60 69.69 69.56 68.67 67.93 68.52 69.06 68.80 69.23 67.31 66.67 67.26 68.60 69.93 69.81 69.10 69.32 69.80
71.15 73.03 74.47 75.09 75.17 74.86 74.61 74.29 72.76 71.93 71.40 70.76 71.98 73.14 72.58 71.28 69.75 69.44 69.18 69.03 69.20 69.63 69.65 69.70 69.58 69.05 69.53 69.32 68.41 67.83 67.91 68.70 68.06 64.94 66.45 67.49 65.42 68.31 68.66 68.41 67.59 67.22 67.36
71.74 72.84 74.15 75.17 75.01 74.61 74.55 73.83 72.96 71.46 70.59 70.27 71.82 72.70 72.84 71.33 70.03 69.16 69.40 69.12 69.25 69.40 69.49 69.45 69.32 68.72 68.21 69.33 68.32 67.51 67.38 67.49 62.78 62.25 63.38 64.07 64.60 67.57 67.52 67.12 66.05 65.49 65.69
70.94 71.71 73.31 74.22 74.42 74.26 74.02 73.30 72.59 71.52 70.63 71.76 72.83 72.86 72.87 71.39 70.57 69.34 69.29 69.30 68.98 69.00 69.06 68.90 68.73 68.43 67.66 68.80 68.75 67.26 66.97 66.21 63.00 60.11 62.97 64.67 67.94 67.56 67.56 67.27 66.11 65.00 64.86
70.91 71.06 71.76 72.49 73.21 73.19 72.94 72.53 72.08 71.17 71.41 72.65 73.22 73.14 72.73 71.86 71.03 70.19 69.00 69.07 69.19 68.75 68.32 68.08 67.91 67.85 67.00 67.60 67.97 66.56 66.31 65.76 60.83 60.14 64.71 64.91 68.72 67.21 66.92 66.90 66.31 64.86 64.52
69.89 70.11 70.73 71.26 71.86 71.60 70.97 71.37 70.87 70.21 71.22 71.57 71.36 70.95 70.04 69.95 70.31 70.27 69.52 69.24 68.96 68.69 67.98 67.48 67.14 66.94 66.50 65.34 64.58 65.02 64.08 63.45 58.87 59.36 59.13 61.15 66.53 67.55 66.34 66.22 65.98 64.63 64.13
69.83 69.42 71.20 71.11 71.05 70.88 69.92 69.97 69.60 69.16 69.06 69.62 68.63 68.45 67.84 67.59 67.77 67.19 67.81 68.33 68.90 68.65 67.63 66.92 66.34 65.80 66.08 65.37 64.67 63.70 62.66 58.26 56.96 57.63 58.03 64.37 63.77 65.44 67.49 65.84 65.16 64.10 63.37
68.04 68.48 70.24 69.89 69.58 70.66 70.45 69.30 67.57 67.19 65.66 64.62 67.09 65.81 65.98 65.09 65.31 67.42 66.19 67.51 68.73 68.67 67.96 67.08 66.36 66.18 64.43 60.69 60.23 62.55 58.61 58.62 57.01 56.71 59.32 65.02 64.27 65.33 67.42 67.34 65.24 63.64 62.72
68.30 68.96 70.26 69.53 69.72 70.40 69.49 68.57 67.73 67.06 67.33 66.94 63.91 63.17 62.67 63.15 63.19 64.12 64.40 64.60 64.95 66.18 65.34 65.74 64.36 62.93 60.57 58.61 58.09 57.20 57.10 56.31 55.72 56.02 61.27 64.54 63.69 65.33 67.48 68.04 65.85 63.96 62.56
68.01 68.55 69.60 69.38 69.50 69.86 70.31 69.29 67.86 66.92 67.85 67.49 66.74 65.83 63.11 62.20 61.08 60.29 62.61 62.73 63.10 64.23 63.51 63.35 63.20 62.74 62.09 61.32 59.14 57.07 56.74 56.26 56.60 56.80 58.98 62.97 64.27 64.09 67.74 68.06 67.29 65.34 63.75
66.52 68.26 68.96 69.39 69.21 69.30 69.52 69.91 68.82 66.68 66.53 68.35 67.78 66.80 65.49 64.45 63.74 63.42 61.06 60.67 61.24 61.82 61.23 61.59 62.03 61.48 61.48 61.52 61.17 60.54 59.47 58.88 58.33 58.17 57.13 61.34 62.91 63.68 65.12 68.98 68.84 67.52 65.69
66.62 66.53 67.94 68.80 68.51 68.71 68.27 69.07 68.50 67.06 68.33 65.95 66.86 66.78 66.79 65.48 64.71 64.33 62.83 61.29 59.83 60.20 60.82 60.94 61.08 62.54 62.89 62.74 62.59 62.30 61.08 61.18 61.37 61.11 59.72 58.34 62.15 62.78 64.16 65.43 68.96 69.03 67.92
66.54 67.16 66.69 67.52 68.18 67.77 68.02 68.13 68.08 68.21 67.46 66.16 66.32 66.61 66.47 65.89 64.73 63.94 63.34 62.72 62.61 61.53 61.26 61.23 62.07 62.71 62.67 63.54 62.56 63.20 63.16 62.38 62.24 62.15 61.12 60.40 59.90 61.75 63.39 64.24 65.50 67.33 67.60
66.15 66.41 67.26 68.96 67.97 67.41 68.21 68.39 68.19 68.04 65.46 65.46 65.67 66.15 66.72 66.46 65.53 64.38 63.57 63.32 64.31 63.73 63.26 62.66 62.40 62.18 62.16 62.18 61.90 62.31 62.37 63.01 62.83 62.73 63.05 62.36 61.30 60.98 61.53 64.16 65.40 65.99 66.83
65.61 66.52 66.65 67.40 66.65 67.19 68.29 68.46 67.71 65.83 65.31 65.19 65.56 66.02 66.71 66.87 66.15 65.11 64.94 64.72 64.97 64.49 63.97 63.95 63.38 62.93 62.05 62.25 63.40 63.43 63.79 63.80 63.03 64.12 62.93 63.04 63.27 63.57 61.90 62.49 62.80 63.64 65.71
65.23 66.35 66.44 66.83 66.66 66.70 66.24 66.52 66.00 66.47 65.74 65.93 65.73 66.05 66.74 66.55 66.45 65.26 65.13 65.19 65.13 65.66 64.95 64.90 64.28 64.41 63.89 63.54 64.01 63.40 63.77 63.07 62.98 62.94 62.92 63.18 61.54 61.76 62.63 60.62 59.94 60.16 62.65
63.42 65.11 66.00 66.06 66.04 66.00 65.47 64.81 64.77 64.54 65.47 65.37 66.10 66.74 66.97 66.26 66.12 65.49 65.34 66.16 65.69 65.11 64.76 64.81 63.96 63.38 62.85 63.61 62.91 60.83 61.44 62.34 62.31 62.37 62.18 60.80 59.98 60.15 59.43 59.14 58.72 58.33 58.91
55.39 63.05 65.07 65.93 66.11 66.15 66.05 65.94 65.87 65.54 66.07 66.35 66.89 67.34 67.13 67.16 66.83 66.02 65.43 65.41 65.78 65.43 65.23 64.83 64.52 63.22 63.06 63.71 61.16 60.27 57.34 57.68 59.36 59.83 60.15 58.98 57.69 57.46 57.91 57.61 56.81 56.29 55.88
53.23 55.56 62.49 65.21 66.03 66.21 66.35 66.19 65.81 65.24 65.33 65.15 65.70 65.72 66.47 66.77 66.63 66.79 66.45 65.99 65.87 65.90 65.25 65.10 64.22 63.26 62.00 62.40 62.78 60.10 56.22 53.77 54.94 56.71 56.92 57.24 56.57 55.67 54.60 54.54 54.63 54.76 55.71
52.45 53.89 54.46 58.90 64.16 65.68 66.24 65.46 64.20 62.40 62.12 63.64 63.86 64.31 61.76 58.79 57.88 58.18 58.97 62.24 65.02 64.70 63.76 62.13 62.69 62.16 62.22 60.75 61.25 61.59 60.50 59.51 55.72 53.26 55.14 56.10 55.74 54.39 54.19 52.93 52.83 53.87 53.98
53.26 52.81 53.55 54.61 56.26 59.88 62.94 64.37 63.06 62.00 62.32 56.43 54.88 54.64 54.27 54.46 55.52 56.36 56.03 55.96 55.97 56.36 56.89 57.72 57.70 58.03 58.30 57.24 57.55 57.72 56.65 58.14 58.13 56.00 52.87 52.52 55.73 55.69 54.49 54.24 53.45 52.02 51.77
53.18 53.44 52.82 53.26 53.78 54.61 55.70 57.39 59.40 60.06 53.87 52.39 52.14 51.93 52.27 53.11 55.15 55.54 55.66 55.04 55.22 55.67 56.06 56.72 57.24 56.82 56.61 55.62 55.88 56.41 55.92 55.70 54.79 54.35 53.00 52.23 51.80 54.48 55.71 54.03 51.63 51.51 51.15

GFSSE_sfc_wetblb_069.txt.gz
Wetbulb
70.55 73.73 75.84 75.59 74.86 74.95 74.69 74.35 73.92 73.26 72.78 71.83 73.11 73.10 71.37 70.72 71.02 72.00 72.56 73.04 73.33 72.33 72.10 71.93 71.63 71.12 70.83 70.13 69.54 70.13 70.31 69.28 69.68 71.06 71.57 72.07 72.11 72.14 71.58 71.45 71.05 68.65 70.07
71.84 73.78 75.53 75.58 75.29 75.01 74.62 74.13 73.98 73.85 73.24 73.18 73.20 72.03 70.78 70.23 70.85 71.79 71.76 73.01 72.91 72.24 71.85 71.07 70.82 70.24 69.96 70.25 70.36 70.18 69.93 69.56 69.14 70.43 70.64 70.77 71.58 71.07 70.96 70.76 71.17 70.13 71.98
71.92 73.47 74.47 75.51 75.23 74.77 74.32 73.76 74.09 73.23 73.00 73.68 72.66 71.97 70.31 69.90 70.95 70.71 71.05 72.41 72.47 71.88 71.29 70.51 70.20 69.89 69.38 68.81 68.83 69.56 70.05 70.14 69.59 69.22 69.40 67.52 69.02 70.74 71.64 71.45 71.68 71.34 71.73
72.22 72.99 73.85 75.20 75.11 74.86 74.62 73.93 73.60 72.33 72.37 73.39 73.14 71.88 70.01 69.86 70.21 70.55 70.13 70.63 71.51 71.01 70.07 70.09 70.01 69.76 69.35 68.57 68.87 69.35 69.29 69.34 70.60 69.95 67.25 66.95 67.76 69.88 70.94 70.54 70.68 70.91 70.33
71.56 73.00 74.30 74.89 74.89 74.68 74.40 73.67 72.53 71.96 71.72 73.51 73.46 72.72 70.13 69.66 69.58 69.77 69.96 70.10 70.69 69.69 69.17 69.76 69.75 69.82 69.41 68.58 68.62 68.75 69.15 70.71 69.81 67.48 65.02 64.54 64.48 68.19 69.62 68.73 67.94 68.58 69.18
70.63 72.76 74.21 74.53 74.39 74.54 74.37 73.55 72.08 71.74 71.24 73.03 73.53 72.54 70.43 69.64 69.57 69.37 69.30 69.70 70.18 69.98 69.73 69.58 69.35 69.83 69.17 68.57 68.18 68.42 68.53 68.49 67.09 64.14 63.90 65.69 64.02 68.13 67.49 66.57 66.13 66.39 66.49
71.51 72.95 73.68 74.60 74.60 74.50 74.04 73.20 72.39 71.50 70.89 72.79 73.38 72.27 70.85 69.66 69.70 69.46 69.25 69.32 69.49 69.67 69.60 69.50 68.82 68.88 69.45 68.55 67.95 67.88 67.68 67.02 61.39 61.99 63.01 63.23 63.77 68.04 67.91 66.57 65.54 65.32 65.41
71.85 72.92 73.41 73.74 74.09 73.66 73.45 72.78 72.13 71.42 71.54 72.49 73.61 72.54 71.25 70.03 69.43 69.57 69.27 69.32 69.46 69.46 69.22 69.11 68.77 68.11 68.98 68.92 67.64 67.11 67.20 65.94 60.24 62.28 63.47 63.68 68.00 67.85 68.20 67.08 65.52 64.95 65.01
72.06 72.19 72.46 72.77 72.78 72.62 72.39 72.06 71.27 71.79 72.51 72.80 73.11 72.62 71.57 70.92 69.85 69.28 69.52 69.19 68.89 68.64 68.43 68.36 68.26 67.66 67.35 68.13 66.93 66.40 65.88 64.79 58.55 62.13 64.90 64.64 68.48 67.67 67.55 67.18 65.93 65.03 64.61
70.56 71.11 70.61 71.65 71.98 70.93 70.24 70.56 70.04 71.30 71.51 72.45 72.15 71.26 70.11 69.66 69.87 69.78 69.23 69.58 68.90 68.33 67.94 67.59 67.42 67.13 66.40 65.19 64.91 65.33 63.61 62.62 57.38 58.15 59.60 63.27 68.33 67.53 66.90 66.59 65.96 64.45 64.11
69.30 69.66 70.47 70.56 70.46 69.67 69.11 68.40 68.63 69.86 69.45 69.38 69.19 68.25 67.91 67.73 67.72 67.53 67.17 68.11 69.03 68.37 67.49 66.90 66.69 66.11 65.92 65.27 64.84 63.94 63.15 57.65 55.87 56.57 56.84 64.83 65.59 66.60 67.52 66.51 65.69 64.04 63.48
67.02 69.16 69.84 69.98 69.88 69.00 69.27 66.98 65.51 66.22 66.93 66.81 66.52 66.55 66.09 65.70 65.30 66.99 65.90 67.07 68.56 68.35 67.65 67.05 66.50 66.25 64.33 59.74 59.46 62.35 57.65 57.40 55.02 55.71 57.58 65.20 64.84 65.56 67.28 67.50 65.56 63.92 63.19
67.53 68.92 69.38 69.59 70.24 68.49 67.76 66.77 65.25 64.19 62.88 63.53 65.63 64.84 64.22 63.84 65.14 64.79 64.33 65.22 64.87 65.43 64.67 65.46 63.99 62.57 59.50 58.26 58.65 57.53 57.20 54.53 54.20 54.31 60.17 65.01 64.80 64.77 66.80 68.76 66.46 64.46 63.31
67.10 68.16 68.72 69.07 69.79 68.63 67.38 67.29 66.47 65.44 65.65 64.39 62.60 62.36 59.96 59.93 60.78 61.94 62.53 62.53 62.82 64.19 62.92 62.57 61.54 61.37 60.60 59.04 57.24 56.15 55.16 54.71 54.83 55.22 56.88 63.73 65.07 63.98 66.24 68.33 67.55 65.92 64.19
66.46 67.73 68.30 68.74 69.47 69.41 68.04 67.50 66.94 65.67 65.39 65.83 65.01 63.73 61.87 61.39 60.32 60.47 60.30 61.33 61.49 62.71 61.71 61.76 61.40 60.97 60.59 60.30 60.01 58.99 58.08 57.25 56.61 56.47 55.46 61.47 63.41 64.98 64.77 67.62 68.67 67.96 66.34
65.91 66.81 68.18 68.74 68.97 69.51 69.11 68.74 68.00 65.73 65.03 65.06 66.72 65.53 64.26 63.54 62.81 62.89 60.83 58.56 58.18 59.39 59.49 59.40 59.74 60.06 60.76 60.94 60.82 60.81 59.80 58.99 59.22 59.62 58.27 57.28 62.86 63.50 64.89 64.64 66.63 68.64 68.27
65.87 66.50 67.80 68.46 68.68 68.17 68.03 69.00 68.48 67.71 66.78 64.78 65.67 66.19 65.43 64.57 63.65 63.49 62.21 60.68 60.35 59.10 59.34 59.15 59.82 60.91 61.12 61.96 61.36 61.89 62.00 61.42 60.63 60.73 60.32 58.87 59.08 61.72 63.55 64.82 65.16 66.34 67.59
65.12 66.29 67.27 68.43 67.80 67.50 67.79 68.11 66.82 67.86 66.59 66.54 66.08 65.38 65.56 65.27 64.37 63.02 62.38 61.93 62.22 61.46 60.28 60.57 60.81 60.60 60.69 60.87 60.81 61.44 61.60 61.99 63.09 62.71 61.70 61.10 59.76 59.71 61.37 64.59 65.87 66.07 66.42
64.64 65.64 66.43 67.36 67.19 67.48 67.92 67.40 67.64 67.48 65.70 64.88 65.31 65.16 65.32 65.56 65.11 63.87 63.43 63.04 63.42 62.94 62.32 62.29 62.07 61.55 60.95 61.38 62.74 63.08 63.29 63.19 63.55 63.97 62.44 62.27 61.98 62.63 61.09 62.09 63.16 63.61 64.99
64.40 64.94 65.79 66.70 66.99 66.58 66.10 67.02 67.05 66.31 65.72 64.47 64.07 64.57 65.67 65.67 65.31 64.28 64.34 64.11 63.81 64.57 64.60 64.26 63.82 63.81 63.33 63.40 63.58 63.47 63.01 63.05 62.75 61.96 61.98 62.73 61.49 60.70 61.38 59.76 59.48 59.71 62.25
63.62 64.34 65.26 65.18 65.35 65.49 64.35 63.76 64.24 63.19 63.51 63.77 64.57 65.57 65.82 65.79 65.72 64.36 64.11 64.05 65.08 64.44 64.09 64.12 63.73 62.94 62.58 62.82 62.10 59.91 60.46 61.41 61.55 61.79 62.04 61.24 60.11 59.53 58.58 58.29 57.78 57.78 58.10
62.70 63.84 64.24 65.60 64.37 65.23 64.94 64.77 64.87 64.50 64.71 64.91 65.36 66.16 66.67 66.32 66.22 65.16 64.45 64.47 65.02 64.72 64.48 64.36 63.88 63.44 63.16 63.19 60.95 60.00 56.57 56.96 59.00 59.07 58.48 58.99 57.66 56.56 56.83 55.82 54.85 54.74 54.28
54.56 62.31 64.77 65.22 65.45 65.13 65.54 65.20 64.88 64.61 64.72 64.53 64.73 65.10 65.77 65.98 66.26 66.25 66.11 65.87 65.71 65.61 64.80 64.92 64.20 63.41 61.74 61.30 61.72 58.95 54.88 53.00 54.72 56.88 56.72 56.53 56.42 55.74 54.12 53.88 53.54 53.76 53.47
50.87 53.54 61.49 64.32 65.22 66.05 65.38 64.78 63.28 62.86 61.80 62.90 63.07 64.31 59.74 60.22 58.88 58.03 58.68 61.33 63.87 63.88 62.03 61.12 61.55 60.60 59.27 59.06 58.55 60.00 59.46 57.57 55.19 52.69 54.51 55.18 54.76 53.22 52.43 52.03 52.63 52.20 51.96
52.01 51.76 52.39 58.38 63.37 64.96 65.28 65.01 63.78 61.83 61.98 59.74 58.33 57.08 55.92 54.82 55.69 56.21 56.03 55.81 55.66 56.04 56.05 56.70 56.66 56.61 57.13 56.58 55.25 54.34 54.45 55.10 55.35 53.15 50.35 52.16 53.90 54.13 53.15 52.95 51.14 50.11 49.31
51.58 51.56 50.92 51.90 54.48 58.60 60.78 61.94 62.29 61.24 57.61 53.62 53.06 52.51 52.79 53.87 54.78 55.02 55.08 54.25 54.47 54.67 55.01 55.33 55.44 55.30 55.45 55.32 54.68 53.80 52.90 52.03 52.18 52.43 52.07 51.78 51.27 54.06 54.92 52.90 50.31 49.43 48.01

GFSSE_sfc_wetblb_072.txt.gz
Wetbulb
70.24 73.09 75.32 75.08 74.47 74.28 73.94 73.33 73.06 72.47 71.87 73.00 72.71 70.95 70.85 72.21 72.98 73.23 73.08 73.33 73.28 72.35 71.95 71.50 70.91 70.04 70.54 71.28 71.31 70.37 70.44 71.34 71.71 71.83 71.69 71.96 71.78 71.40 71.19 70.09 70.03 69.79 70.02
72.10 73.62 75.23 75.15 74.74 74.43 74.40 73.74 72.89 73.11 72.76 73.16 71.37 70.51 70.42 71.44 72.24 73.04 73.05 72.65 72.24 71.43 71.22 70.39 70.31 70.66 71.21 71.18 70.88 70.49 70.10 70.15 70.24 70.38 70.41 70.70 70.93 71.73 71.47 71.44 72.06 70.81 71.31
72.38 73.49 73.76 74.84 74.75 74.37 73.92 73.16 72.46 72.82 72.94 72.63 70.86 69.88 70.41 70.88 71.65 72.86 72.98 72.50 71.67 71.08 70.53 70.12 69.64 69.60 69.80 70.04 70.33 70.51 70.13 69.75 68.85 69.28 69.45 67.78 69.01 71.40 71.40 71.20 71.00 70.92 70.60
72.59 73.17 73.35 74.81 74.58 74.02 73.69 73.15 72.34 72.94 73.20 72.65 70.44 69.66 70.38 70.31 70.51 71.41 72.45 71.83 70.99 70.39 70.02 69.89 69.34 68.97 69.36 69.67 69.43 69.68 70.68 71.25 70.79 68.81 65.17 65.06 66.43 69.51 69.90 69.78 69.75 70.00 69.83
71.91 73.02 73.59 74.44 74.37 74.13 73.69 72.99 72.15 72.88 73.26 72.70 70.98 69.96 69.73 70.45 70.34 70.48 70.29 70.27 70.23 69.38 69.66 69.72 69.46 68.97 68.91 69.06 69.16 70.22 70.80 69.55 68.48 66.05 63.75 63.57 64.58 67.77 67.62 67.19 66.82 67.77 68.49
70.76 72.25 73.53 73.98 74.15 73.87 73.88 72.78 71.77 73.06 72.66 72.47 70.88 69.80 69.52 69.57 69.94 70.23 70.02 70.32 69.97 69.49 69.40 69.63 69.36 68.85 68.64 68.58 68.83 68.60 68.96 68.36 65.87 62.90 62.99 65.26 63.33 67.10 66.57 66.05 65.76 65.77 66.18
71.33 72.63 72.98 73.93 73.97 73.68 73.18 72.60 72.19 72.28 73.20 72.51 71.24 69.95 69.62 69.45 69.46 69.81 69.73 69.43 69.37 69.50 69.28 69.04 69.34 68.94 68.46 68.22 68.22 67.87 66.94 66.13 62.00 61.94 62.06 62.23 64.31 68.21 67.36 66.04 65.59 65.63 65.82
71.59 72.34 72.38 72.91 73.45 73.35 72.92 72.31 71.97 71.89 73.27 73.02 71.86 70.26 69.56 69.52 69.35 69.26 69.33 69.44 69.49 69.47 69.38 68.71 68.46 68.94 68.77 68.11 67.42 66.98 66.45 63.66 62.55 62.50 62.58 63.18 67.83 68.36 68.02 66.41 65.41 65.11 65.27
72.05 71.77 71.73 72.09 72.16 72.23 71.99 71.66 71.25 71.43 72.66 73.24 72.40 71.48 70.35 69.79 69.42 69.19 69.31 69.36 69.33 69.12 68.90 68.63 67.91 67.91 68.42 67.50 66.46 65.87 65.08 63.97 58.39 62.55 64.11 63.55 68.53 67.70 67.71 66.76 65.36 64.80 64.44
71.16 71.48 70.56 71.01 71.24 69.88 69.49 70.24 71.00 71.70 71.94 72.31 71.68 70.62 69.42 68.82 69.14 69.57 69.51 69.38 68.67 68.32 68.14 67.99 67.68 67.00 66.09 65.33 65.48 65.17 63.40 61.39 56.39 61.27 62.53 63.27 68.25 67.40 66.99 66.54 65.15 64.40 63.84
70.42 70.61 70.97 70.69 69.27 68.45 67.71 67.80 70.15 70.29 70.45 70.59 70.06 68.58 67.88 67.15 67.09 66.77 66.80 68.26 68.83 68.14 67.53 67.16 66.95 66.49 66.06 65.28 65.17 64.50 63.12 57.13 54.48 56.03 55.84 64.94 67.32 67.59 67.41 66.40 65.11 63.99 63.22
67.36 69.28 70.23 69.94 68.75 67.64 67.86 65.31 66.01 67.96 67.29 67.94 67.67 67.11 66.26 65.62 65.61 66.31 65.42 66.94 68.51 68.24 67.70 67.11 66.71 66.24 63.82 58.84 58.66 61.50 57.25 56.05 53.98 55.11 55.77 64.83 64.79 65.69 67.61 67.57 65.56 63.82 63.08
66.32 68.42 69.53 69.66 68.76 67.26 66.35 64.65 63.27 64.42 65.32 65.73 65.90 65.41 64.88 64.85 64.19 64.73 64.09 64.79 64.32 64.93 63.60 64.88 63.41 61.91 58.65 57.30 57.21 57.45 56.17 55.26 52.58 53.48 58.78 64.78 65.38 64.67 66.03 68.18 66.99 64.60 63.48
66.51 67.90 68.81 69.53 68.61 67.24 66.26 65.01 63.85 62.51 61.86 62.72 64.32 64.21 62.07 61.93 63.22 62.84 62.56 62.72 62.36 63.43 61.45 61.38 60.86 60.42 59.76 59.00 55.44 55.76 54.14 53.73 53.58 54.07 55.01 63.76 65.52 64.55 64.69 67.87 67.89 66.24 64.58
66.13 67.62 68.36 68.66 68.72 67.53 66.14 65.81 65.26 64.42 63.81 63.20 61.91 61.94 59.90 60.69 61.42 61.22 61.28 61.14 61.12 61.83 61.61 61.21 60.81 60.77 60.61 60.23 59.04 57.77 56.77 55.87 55.36 55.36 54.67 60.57 63.81 65.47 64.95 66.32 68.23 68.20 67.00
66.45 67.41 67.98 67.75 68.53 67.96 66.57 66.60 66.17 65.53 65.15 64.73 63.88 62.34 60.56 60.81 59.66 59.71 58.45 60.35 60.08 60.79 61.52 59.95 60.80 60.18 58.63 59.29 59.25 59.16 58.71 58.48 57.62 57.73 57.81 56.53 62.56 64.09 65.62 65.04 65.99 67.63 68.32
66.15 67.65 67.72 68.06 68.05 68.15 67.52 67.86 67.55 66.62 65.35 64.18 64.79 65.25 62.58 62.60 62.17 62.11 60.94 57.73 57.94 57.84 59.14 57.90 57.92 59.20 60.23 60.94 60.53 61.05 61.07 60.75 60.19 59.61 59.53 58.49 58.43 62.01 63.95 65.24 66.04 66.03 66.89
65.72 66.23 67.47 68.72 68.40 68.31 68.32 68.42 68.22 67.54 65.08 64.94 64.43 64.73 64.48 64.06 63.45 62.65 61.85 61.00 60.70 59.58 58.11 58.31 59.24 59.27 59.52 59.82 59.95 60.92 61.12 62.00 62.84 62.29 62.28 61.62 59.37 59.01 60.86 64.52 66.32 66.92 66.77
64.98 65.89 66.20 67.46 66.90 67.12 67.42 68.14 67.89 66.93 66.89 65.67 66.02 65.91 65.47 64.66 64.02 62.86 62.15 61.96 62.17 61.51 60.87 60.51 60.65 60.56 60.12 60.87 62.09 62.71 62.92 62.76 63.15 63.66 63.17 62.75 62.24 61.14 59.94 61.15 63.22 64.20 65.18
65.08 65.52 65.84 66.56 66.33 66.91 67.11 67.41 66.75 66.41 65.68 65.16 64.95 65.90 64.93 64.68 64.30 63.27 63.26 63.08 62.67 62.36 62.39 63.24 63.15 63.26 62.91 62.61 63.01 62.88 62.90 61.77 61.70 61.63 61.49 62.10 61.56 61.37 60.57 60.09 59.48 59.53 61.89
63.50 64.49 64.47 65.06 65.72 66.25 64.93 65.15 64.72 63.61 64.51 64.63 64.37 64.39 64.69 64.85 64.53 63.41 63.33 63.42 63.57 64.12 64.13 63.79 63.29 62.81 62.50 62.72 61.68 60.46 59.80 60.74 60.56 60.82 60.92 60.32 60.68 60.11 59.05 59.12 57.58 57.35 57.06
63.42 64.22 64.24 65.08 64.68 65.50 64.92 64.36 64.11 63.41 63.32 63.40 64.75 64.43 64.94 65.99 65.85 63.99 63.39 63.33 63.69 63.94 63.92 63.74 63.58 62.58 61.87 62.44 59.80 58.33 54.51 55.75 57.00 57.82 57.56 58.02 57.32 57.04 57.56 56.89 55.76 54.60 54.44
59.77 62.85 64.69 65.29 65.37 65.48 65.18 64.58 64.28 64.25 63.92 63.62 63.40 63.84 65.54 66.02 65.97 65.32 64.80 64.81 65.31 65.33 64.34 64.45 64.11 63.32 61.55 60.99 60.94 58.05 54.63 51.81 53.41 55.96 55.77 56.04 55.37 54.85 54.97 54.63 53.87 53.59 53.06
53.65 60.84 63.61 64.57 64.73 65.30 64.67 64.21 63.93 63.08 62.24 63.58 62.98 63.58 62.40 63.51 63.93 64.48 64.63 64.94 64.65 63.86 62.47 61.71 61.65 59.97 59.08 57.41 57.93 58.64 57.23 56.32 54.76 52.96 54.12 54.84 54.47 52.73 51.88 52.78 51.65 51.74 50.78
50.59 52.97 58.92 62.44 64.43 65.21 65.14 64.27 63.55 61.46 62.12 61.68 61.76 61.32 58.80 59.30 58.72 57.94 57.30 56.10 56.57 57.40 56.91 56.51 55.66 55.78 56.47 56.40 55.94 54.36 53.02 53.46 54.41 52.70 52.10 51.47 52.79 53.41 52.73 52.23 51.01 49.08 49.33
49.97 49.95 50.57 55.23 59.46 61.04 62.20 63.26 63.35 62.69 61.01 57.91 57.51 57.72 56.18 56.01 57.35 57.63 57.08 56.36 55.46 54.87 54.63 55.12 54.63 53.79 53.85 53.94 54.19 53.56 52.49 50.98 50.28 49.94 49.60 49.70 50.50 51.78 52.54 51.59 50.19 48.20 47.64

GFSSE_sfc_wetblb_075.txt.gz
Wetbulb
70.15 72.29 74.75 74.69 74.30 73.74 73.23 72.71 72.36 71.77 72.96 71.73 71.24 72.58 73.31 73.74 73.81 73.43 73.07 72.64 72.28 71.85 71.01 70.00 71.09 71.51 71.36 71.28 71.30 71.68 71.74 71.68 71.66 71.46 71.31 71.32 70.92 70.88 71.43 71.60 71.19 68.23 68.69
71.46 72.66 74.38 74.80 74.35 73.74 73.25 72.88 72.09 72.31 72.80 71.59 70.62 71.52 72.83 73.20 73.27 73.05 72.73 72.13 71.64 70.86 70.59 70.75 71.27 71.44 71.25 71.24 70.79 70.79 70.88 70.51 70.41 70.23 70.25 70.35 71.05 71.65 71.56 71.24 71.69 68.87 69.96
71.72 72.72 72.95 74.48 74.39 74.09 73.26 72.60 71.85 72.31 72.65 71.10 70.15 70.71 72.10 72.87 72.94 73.03 72.70 71.70 71.19 70.22 70.01 70.56 71.17 71.11 70.96 70.77 70.50 70.41 70.02 69.70 69.49 69.35 68.99 67.21 68.17 70.78 70.94 70.32 70.42 70.60 70.23
72.23 72.59 72.34 74.02 73.93 73.43 72.90 72.30 72.83 72.43 71.23 70.12 69.78 70.23 71.29 72.43 72.82 72.88 72.32 71.18 70.44 69.98 69.63 69.81 70.01 70.32 69.92 69.59 70.26 71.32 70.70 70.20 68.63 67.01 64.14 64.52 65.96 68.95 68.55 68.45 68.64 69.28 69.02
71.66 72.40 72.51 73.77 73.64 73.41 72.81 72.21 72.77 72.44 71.31 69.95 69.92 71.30 71.12 71.16 72.52 72.38 71.54 70.28 69.80 69.69 69.45 69.37 69.66 69.43 69.26 69.88 71.60 71.01 70.33 68.70 67.18 64.96 63.21 63.60 63.88 65.65 66.72 66.55 66.38 67.61 67.89
70.46 71.61 72.91 73.56 73.40 73.41 73.17 72.62 72.63 72.24 71.32 69.83 69.46 69.97 70.80 70.15 70.61 70.39 69.96 69.43 69.41 69.48 69.49 69.26 69.12 68.82 68.85 69.80 69.93 70.23 69.16 67.73 65.01 62.34 62.86 64.29 62.46 66.93 66.50 65.99 65.98 66.15 66.74
70.69 71.73 72.03 73.50 73.21 72.77 72.60 72.45 72.73 73.06 71.56 70.15 69.49 69.36 69.74 70.01 70.37 69.74 69.15 68.94 69.25 69.22 69.40 69.00 68.71 68.52 68.44 68.64 68.11 68.70 68.01 65.65 61.62 61.23 61.38 62.63 64.40 67.84 67.02 66.18 65.74 65.96 65.95
71.06 71.62 71.70 72.35 72.97 72.57 72.19 72.09 72.17 72.98 72.35 70.67 69.72 69.43 69.28 69.48 69.85 69.16 68.95 68.91 69.23 69.12 68.80 68.84 68.87 68.55 68.14 67.91 67.54 66.62 65.54 64.86 62.64 61.52 61.69 62.60 68.04 68.38 67.50 66.30 65.50 65.40 65.49
70.74 70.69 70.72 71.26 71.70 71.92 71.77 71.55 71.52 72.44 72.74 71.79 70.68 70.16 69.68 69.44 69.37 69.13 68.59 68.91 69.11 69.10 68.59 67.99 68.21 68.39 67.93 67.04 66.47 65.70 64.70 62.88 60.69 61.66 62.96 62.84 68.33 67.83 67.59 66.37 65.51 64.90 64.77
69.03 69.47 69.75 70.56 70.48 69.40 69.20 70.49 70.40 71.08 71.92 71.50 70.66 69.56 68.89 68.69 69.00 69.47 69.32 69.51 69.06 68.74 68.45 67.90 67.25 66.61 66.46 65.81 65.45 64.06 63.04 61.49 57.90 61.14 62.00 62.64 67.53 67.20 66.99 66.40 65.17 64.48 64.03
67.75 68.35 69.64 70.30 68.65 67.87 67.16 68.26 70.17 70.50 70.62 70.47 69.58 68.02 67.05 65.64 66.60 67.12 66.91 68.09 68.70 68.28 67.79 67.45 67.02 66.36 66.34 64.88 64.49 64.01 61.45 56.20 53.51 57.23 56.06 62.49 67.72 67.29 67.28 66.32 64.82 64.02 63.19
67.60 69.31 70.17 69.84 68.14 67.01 67.19 66.74 67.06 68.09 68.31 69.41 68.05 66.46 65.61 65.00 64.69 65.49 65.25 67.00 68.40 68.17 67.75 67.08 66.80 66.26 63.88 57.94 57.73 59.90 56.35 55.11 53.47 54.12 54.91 61.68 64.77 65.26 67.23 67.71 65.64 63.95 62.98
65.77 68.30 69.93 69.02 67.88 66.34 64.96 64.18 65.14 65.75 65.93 67.02 66.37 65.52 64.72 64.46 63.79 63.71 63.06 64.02 63.63 64.52 63.02 64.41 62.72 61.19 57.96 56.92 56.26 56.65 55.73 54.68 51.95 52.60 56.56 62.78 64.78 64.76 65.35 67.64 67.24 65.19 63.74
65.85 65.97 67.00 67.81 67.68 66.48 64.91 63.41 63.80 64.44 64.77 64.91 65.16 64.91 63.49 62.54 62.30 62.59 62.31 62.21 61.78 62.19 60.21 59.99 59.81 59.38 58.90 57.92 56.81 55.01 54.73 53.05 52.46 52.91 54.05 61.35 65.27 64.82 64.98 66.47 68.28 66.83 65.20
63.71 64.27 66.34 67.95 67.22 66.61 64.90 63.76 62.82 62.98 63.69 64.02 63.99 64.06 62.44 61.46 61.99 62.09 61.62 61.01 60.77 60.79 60.66 59.52 59.64 59.63 59.60 59.68 59.00 56.85 56.47 55.03 54.53 54.44 54.15 58.67 63.51 65.52 65.28 65.54 68.11 68.09 67.50
62.83 63.31 66.77 67.77 68.24 67.20 65.32 64.81 64.32 63.32 62.74 62.44 61.89 62.51 61.64 61.13 61.94 61.81 61.03 60.58 59.94 60.16 60.86 60.21 60.23 60.24 59.86 58.53 59.13 58.71 58.24 57.89 57.47 56.68 57.17 57.26 61.05 64.22 65.82 65.34 66.30 67.69 68.33
65.03 65.95 66.81 67.41 68.45 67.44 65.73 65.47 65.68 65.45 65.15 64.15 63.74 61.94 60.62 60.57 60.50 60.47 58.92 57.91 59.91 59.56 60.11 59.94 57.78 58.12 58.44 59.95 59.86 60.42 60.52 60.29 60.31 59.95 59.02 58.52 58.34 61.35 63.91 65.33 66.17 66.49 66.82
65.97 66.74 67.38 68.10 67.96 67.69 67.14 66.45 66.44 66.09 64.64 64.91 64.72 64.36 62.21 61.27 60.95 60.85 60.74 58.94 57.90 57.36 57.12 57.10 57.23 57.90 58.82 59.11 59.31 60.30 60.70 60.89 61.18 61.80 62.20 61.55 60.71 59.95 60.92 63.51 65.80 67.43 67.68
65.16 65.88 66.82 67.40 67.03 67.53 67.70 67.86 67.07 66.47 65.54 64.48 64.45 64.62 63.95 63.03 62.95 62.47 61.72 61.25 60.35 59.26 58.25 57.88 58.51 59.42 59.18 59.81 61.01 61.30 62.31 62.44 62.94 62.96 62.43 62.02 62.11 61.61 60.40 60.85 62.54 63.85 65.56
64.50 65.40 66.38 66.97 67.29 66.99 67.53 67.96 66.61 66.50 66.25 65.87 65.10 65.56 65.70 65.14 63.67 62.72 62.14 61.66 61.33 61.10 60.83 60.47 60.30 61.26 61.68 62.34 62.29 62.48 62.25 61.16 60.71 60.64 60.89 61.18 60.61 61.18 61.03 60.62 59.49 60.00 62.32
63.05 63.79 65.22 65.37 65.93 66.19 65.43 65.03 64.70 64.92 64.31 64.08 64.01 65.47 65.74 65.41 64.05 62.77 62.41 62.30 62.08 61.61 61.81 62.23 62.84 62.28 62.23 62.64 61.59 60.44 58.65 59.30 59.66 60.04 59.57 59.47 59.60 60.22 59.55 58.82 57.93 58.54 58.53
62.30 63.03 63.58 64.43 64.98 65.67 65.79 65.81 65.08 63.76 63.35 63.40 64.32 64.59 65.43 65.15 64.62 63.59 62.65 62.39 62.63 62.40 63.01 63.05 62.91 62.34 62.36 62.30 59.87 56.37 53.97 55.39 56.44 56.15 55.74 56.70 56.56 55.96 56.85 56.85 56.59 56.85 56.23
59.93 61.90 63.45 64.40 65.37 65.43 64.39 64.04 63.64 63.43 63.23 62.84 63.46 63.82 64.31 64.89 64.69 64.50 64.11 63.19 62.97 64.06 63.41 63.67 63.50 62.65 61.05 59.79 61.13 59.02 54.83 50.93 53.38 56.21 55.37 55.57 54.40 53.82 53.24 53.27 53.56 54.08 53.70
52.78 60.50 62.35 63.62 64.28 64.37 64.03 63.71 63.51 63.19 62.20 62.43 62.60 62.89 63.28 63.93 64.25 64.86 64.30 64.36 64.64 64.30 63.51 62.94 62.50 62.02 59.80 57.38 56.30 57.63 56.64 57.44 55.18 51.61 53.67 54.00 53.89 52.45 51.71 51.73 51.43 52.41 51.13
51.59 55.45 61.41 62.28 63.10 63.71 63.31 63.18 62.29 60.98 61.99 62.00 61.71 61.93 61.14 60.95 60.96 60.98 60.98 60.65 60.31 59.94 59.63 59.69 59.19 58.29 56.90 56.00 54.63 53.64 52.41 51.67 53.17 53.49 50.30 50.72 52.33 53.00 52.15 50.80 50.03 48.60 49.90
47.80 50.15 53.78 58.33 60.79 62.31 63.03 62.77 62.80 62.39 60.67 59.85 59.95 59.92 58.62 57.87 58.77 59.11 58.38 57.53 57.21 56.71 56.68 56.70 55.75 53.92 52.92 52.62 52.90 52.19 51.86 50.20 48.59 48.33 48.44 48.43 48.85 49.96 50.07 48.98 47.52 47.15 49.23

GFSSE_sfc_wetblb_078.txt.gz
Wetbulb
69.44 71.51 74.23 74.36 74.16 73.08 72.59 72.22 71.95 72.31 72.43 72.56 73.38 73.96 74.12 74.19 73.79 73.48 72.98 72.52 71.72 70.73 71.16 71.21 70.94 71.35 71.72 71.84 71.95 71.68 71.52 71.46 71.25 71.16 71.16 71.28 71.85 72.16 72.17 70.77 69.75 67.04 68.82
70.79 72.07 74.29 74.62 73.94 73.33 72.39 72.36 72.13 73.00 72.03 71.63 72.78 73.59 74.18 74.04 73.73 73.18 72.75 71.86 71.29 70.60 70.91 71.23 71.49 71.29 71.01 71.32 71.30 70.95 70.96 70.48 70.19 70.59 70.39 70.05 71.26 71.44 71.29 70.84 70.71 68.46 69.98
71.22 72.03 72.53 74.35 74.00 73.88 72.93 72.07 71.81 72.32 71.85 71.40 72.16 73.01 73.32 73.41 73.37 72.96 72.16 71.07 70.57 70.62 70.91 71.58 71.49 70.90 71.13 70.92 70.61 70.48 70.26 69.94 69.46 68.57 67.55 65.00 67.20 69.51 69.37 68.91 69.36 70.17 70.66
71.53 71.86 71.86 73.60 73.88 73.41 72.58 71.52 72.46 71.72 70.41 70.47 71.31 72.53 72.91 73.11 73.21 72.31 71.68 70.73 70.15 70.47 70.96 70.72 70.94 70.31 69.94 70.18 70.69 70.65 70.33 69.08 67.94 66.94 64.10 64.36 65.35 67.70 67.88 68.30 68.74 68.81 68.44
71.00 71.56 71.91 73.47 73.64 72.96 72.09 72.25 72.37 71.17 70.04 70.03 71.27 72.32 72.44 72.88 72.93 72.24 70.89 70.18 69.77 69.91 70.30 70.62 70.04 69.82 70.75 71.62 71.46 70.98 69.43 67.78 66.76 64.67 63.05 62.04 61.56 65.69 66.85 66.59 66.59 67.71 67.69
69.93 70.85 72.26 73.14 73.08 73.25 72.49 72.64 72.14 71.05 69.82 69.68 71.22 71.29 72.09 72.66 72.69 71.46 70.29 69.68 69.57 69.51 69.99 70.07 69.36 69.48 70.09 71.78 70.42 69.64 68.66 67.05 64.99 62.02 61.94 64.34 62.65 67.14 66.96 66.65 66.50 66.58 66.90
69.81 70.45 71.13 72.99 72.98 72.66 72.56 72.44 72.55 71.12 69.72 69.50 70.28 70.33 70.33 71.05 70.74 69.86 69.50 69.37 69.46 69.34 69.62 69.43 68.96 68.96 68.79 69.67 70.07 69.12 67.14 65.29 60.90 60.73 61.64 62.94 64.41 67.65 67.14 66.48 66.25 66.19 66.23
69.84 70.20 70.63 71.57 72.71 72.79 72.22 72.18 72.26 71.74 70.07 69.33 69.51 70.12 70.11 70.49 69.95 69.17 69.04 69.26 69.14 69.17 69.09 68.85 68.56 68.30 68.26 67.91 67.77 67.62 66.23 64.80 61.82 60.70 61.28 62.68 68.35 68.40 67.55 66.51 65.79 65.82 65.91
69.04 69.66 69.36 70.06 71.39 71.54 71.54 71.70 72.02 72.19 71.16 69.92 70.06 69.99 70.13 70.00 69.50 69.04 69.02 69.19 69.20 68.89 68.69 68.73 68.64 68.32 67.75 67.18 66.45 65.37 64.30 64.29 59.98 60.77 62.40 62.34 67.50 68.02 67.65 66.51 65.79 65.40 65.41
67.52 68.08 68.77 68.96 69.92 69.03 68.91 70.55 70.67 71.11 70.94 70.30 69.84 69.19 68.53 68.43 68.77 69.14 68.95 69.40 69.21 68.89 68.41 67.84 67.68 67.60 66.94 66.23 65.14 64.40 63.32 62.26 59.16 60.33 61.06 61.66 67.22 67.11 67.17 66.24 65.61 64.96 64.73
66.27 67.10 68.34 69.41 68.58 67.81 67.41 68.14 69.52 70.53 70.31 69.69 68.81 67.72 66.83 65.17 66.00 66.69 66.74 68.16 69.00 68.51 67.88 67.36 66.81 66.26 65.28 63.74 64.19 63.94 60.49 55.32 53.60 58.14 56.63 61.49 67.19 66.86 67.12 66.32 64.97 64.50 63.68
62.97 66.25 67.82 68.64 68.00 67.03 67.58 67.06 67.12 68.46 69.80 69.07 66.64 65.19 64.40 64.09 64.54 65.51 65.11 66.85 68.17 68.01 67.75 66.66 66.20 66.05 62.11 57.08 56.94 58.93 55.40 54.45 53.12 53.26 54.49 60.73 64.54 65.02 65.92 67.56 65.81 64.20 63.25
61.05 67.00 68.68 69.16 67.36 66.02 65.45 65.69 65.85 66.08 66.99 68.93 65.88 64.77 64.00 63.80 63.10 62.79 62.66 63.94 63.25 64.36 62.34 63.11 61.42 60.28 57.01 56.34 55.54 55.44 55.40 53.81 51.81 52.07 54.83 61.36 64.30 64.98 64.95 65.66 67.57 65.73 64.17
63.37 64.62 65.89 67.80 66.59 65.50 64.19 65.08 64.89 65.41 65.52 66.98 66.70 64.75 63.40 62.08 61.70 61.53 61.36 61.45 61.17 61.45 59.69 59.10 59.02 58.24 57.79 57.42 56.33 54.75 54.49 52.88 52.46 52.58 53.70 59.40 63.32 65.02 65.11 65.33 67.17 68.09 65.90
61.40 61.90 62.65 63.56 65.94 66.02 63.73 63.37 64.53 64.88 65.46 65.91 65.75 64.90 63.45 62.20 61.55 61.69 61.43 61.02 60.40 60.04 59.81 58.11 58.57 58.77 58.47 58.87 59.01 57.59 56.87 56.23 54.53 54.55 54.30 58.62 60.71 64.50 65.16 65.45 67.20 68.34 67.75
61.80 61.31 62.29 61.46 66.72 66.38 65.01 62.97 63.17 64.04 64.51 64.66 64.75 64.79 63.39 62.16 61.75 61.66 61.21 60.43 59.72 59.68 60.13 59.22 59.36 59.54 59.24 58.53 58.39 58.87 58.40 58.08 57.65 57.40 56.98 57.18 61.07 62.75 65.10 65.34 65.97 67.16 68.34
60.26 61.68 62.55 62.79 66.58 66.51 65.68 64.64 64.18 62.95 63.28 63.05 63.61 63.36 63.33 61.36 61.24 61.92 61.31 60.18 59.96 59.51 59.77 59.47 58.40 57.77 58.20 58.55 58.79 60.04 60.14 59.99 60.12 60.22 59.79 58.93 59.07 60.88 62.96 64.86 65.62 66.40 67.27
61.79 62.75 64.50 64.96 66.83 66.82 65.89 65.44 65.59 65.44 64.57 63.04 62.94 62.27 61.68 61.17 60.65 60.57 60.15 58.77 58.25 59.30 58.77 58.36 58.21 56.47 57.29 58.42 58.66 59.61 60.11 60.50 60.84 60.73 61.53 61.31 60.11 59.92 61.39 63.77 65.21 66.18 67.28
63.71 64.64 65.82 66.47 66.44 66.96 66.49 66.40 66.10 65.92 65.25 64.66 64.17 64.08 62.64 61.06 60.50 60.27 60.22 60.33 58.88 57.45 56.54 56.55 56.49 57.65 57.85 58.50 59.36 60.23 60.71 61.27 61.46 61.90 60.74 60.78 60.89 60.80 60.55 61.47 62.40 63.27 65.08
65.16 65.64 65.62 66.37 66.20 66.29 66.84 66.36 66.27 66.29 66.12 65.26 64.44 64.22 64.38 63.03 61.73 61.16 61.57 61.15 60.48 59.08 58.57 58.13 57.58 58.84 59.67 60.61 61.58 61.52 61.80 60.75 60.36 59.87 59.96 60.60 60.03 60.45 60.72 60.55 59.98 60.03 62.11
63.59 63.44 65.20 64.88 65.64 65.55 64.93 64.73 65.16 64.97 65.62 65.33 65.08 65.30 64.71 64.76 64.16 62.93 62.25 61.44 60.77 60.63 60.76 60.43 60.12 60.48 61.65 62.39 61.57 59.70 57.46 58.16 58.43 58.85 57.95 57.93 58.43 59.32 59.01 58.75 58.01 57.57 59.49
62.36 62.60 63.67 64.53 65.10 65.05 65.00 64.58 64.43 64.15 64.73 64.94 64.48 64.44 64.79 65.12 65.00 63.90 63.18 62.44 61.74 61.32 61.13 61.50 62.04 61.78 61.98 62.23 60.44 56.46 53.25 55.07 55.36 55.75 55.31 55.60 54.93 55.12 56.34 56.31 56.27 55.71 55.72
59.34 61.60 63.30 63.99 64.44 65.06 65.41 65.08 63.08 62.98 62.73 62.84 63.39 63.20 63.59 64.78 64.76 64.50 63.73 62.80 62.27 62.79 62.60 62.41 62.60 62.29 61.11 60.51 60.14 57.14 52.34 50.06 51.69 55.48 54.49 54.53 53.76 53.05 52.84 53.13 54.22 54.40 53.54
51.97 59.27 62.45 63.22 63.62 64.02 64.33 64.01 63.79 62.85 61.69 62.32 62.68 62.62 62.93 63.28 63.28 63.61 63.51 63.10 63.10 63.90 63.43 62.59 62.09 62.07 61.38 59.50 57.00 57.28 57.70 57.47 54.06 50.58 53.27 53.79 53.82 52.09 50.90 51.04 51.20 51.21 51.10
50.91 52.33 59.69 61.66 62.01 63.33 63.42 63.80 63.04 62.19 62.11 61.99 61.89 60.94 60.28 60.60 60.67 61.40 62.06 61.99 61.83 61.33 60.51 60.00 59.19 58.51 57.91 57.42 56.02 53.72 51.88 50.94 53.21 53.05 48.20 48.75 51.16 51.39 50.98 49.99 49.55 48.17 49.64
48.11 49.96 55.78 59.11 59.92 61.16 61.44 61.59 61.88 62.02 60.88 60.47 59.75 59.78 59.91 60.16 60.06 59.88 59.99 60.71 60.60 59.38 58.44 58.05 57.22 56.32 55.71 54.56 53.26 52.37 51.75 49.55 47.65 47.28 48.90 48.47 47.32 49.32 48.84 48.74 47.80 47.01 48.34

GFSSE_sfc_wetblb_081.txt.gz
Wetbulb
70.32 72.83 74.42 74.38 73.93 73.06 72.74 72.31 72.08 73.00 73.31 72.76 73.74 74.08 74.35 74.28 74.05 73.70 73.05 72.27 72.86 71.69 71.13 71.01 72.13 72.88 72.61 72.22 71.93 71.97 71.65 71.47 71.85 71.70 71.58 72.25 72.62 71.66 70.81 70.18 70.44 68.68 70.06
71.66 72.87 74.02 74.43 73.75 73.52 72.59 72.33 72.76 73.07 73.24 73.80 73.72 74.05 74.16 74.61 73.80 73.23 72.40 71.43 71.48 71.50 71.28 71.27 72.41 72.48 72.48 71.57 71.22 71.01 70.73 71.20 70.60 69.94 69.97 70.49 71.21 70.83 70.24 70.34 71.17 70.45 70.99
71.73 72.67 73.03 74.18 73.99 73.21 72.58 72.14 73.06 71.25 72.30 72.98 74.00 74.36 74.13 74.06 73.57 72.99 71.99 71.42 71.11 71.24 71.54 71.60 71.09 71.37 71.22 71.12 70.88 70.65 70.47 69.90 69.10 68.66 68.95 69.28 68.75 69.17 69.20 69.48 70.11 70.70 70.16
71.97 72.75 72.72 73.73 73.87 73.64 72.46 72.04 72.61 71.18 70.77 72.53 73.16 73.60 73.86 73.70 73.48 72.15 71.28 71.00 70.97 71.83 71.44 70.82 70.55 70.50 70.54 70.86 70.77 70.42 69.42 68.83 68.15 67.77 67.00 66.28 65.87 67.48 67.99 68.50 68.74 68.33 68.47
71.98 72.70 72.64 73.33 73.60 73.30 71.69 72.54 72.10 70.80 70.25 71.75 72.77 73.09 73.53 73.78 72.70 71.83 70.71 70.58 71.72 71.18 70.82 70.43 70.27 70.92 71.59 71.71 70.98 69.73 68.33 67.57 66.94 66.51 66.04 66.62 66.78 66.95 67.37 67.15 67.66 67.88 67.74
71.83 72.71 72.57 72.87 73.32 72.95 72.62 72.63 71.51 70.29 69.88 70.35 72.27 72.43 73.11 73.46 72.38 70.91 70.28 70.79 70.96 70.95 70.58 70.09 70.30 71.48 71.86 71.42 70.06 69.14 67.40 66.99 66.11 66.89 67.38 67.35 67.32 67.57 67.55 67.24 67.00 66.88 67.07
71.50 72.41 72.19 72.92 73.15 72.96 73.20 72.54 71.76 70.17 69.65 69.92 70.88 72.07 72.67 72.90 71.97 70.66 69.93 69.72 69.91 70.56 70.26 69.72 69.77 69.82 70.77 70.92 69.77 67.96 66.55 65.08 66.17 67.06 67.74 68.23 68.16 68.08 67.47 66.95 66.73 66.64 66.61
71.01 71.80 71.72 71.73 72.73 72.78 73.01 72.30 71.98 70.57 69.55 70.24 70.85 71.31 72.30 71.64 70.58 69.75 69.63 69.54 69.69 70.24 69.93 69.40 69.12 68.91 68.73 69.51 69.06 67.19 65.96 64.82 64.87 66.31 67.50 68.52 69.11 68.48 67.97 66.96 66.27 66.32 66.32
71.04 71.15 71.27 71.27 71.67 71.85 71.95 71.65 71.70 70.89 70.21 70.19 69.99 70.55 70.90 70.68 70.03 69.41 69.45 69.37 69.46 69.60 69.39 69.07 68.65 68.29 67.94 67.29 66.37 65.39 65.70 64.02 64.81 65.72 65.77 67.96 67.63 68.26 67.55 66.84 66.12 65.84 65.78
69.19 70.28 70.33 70.74 71.47 70.82 71.34 70.99 71.05 70.67 69.94 69.90 69.43 68.99 68.62 67.67 68.84 69.49 69.27 69.66 69.25 68.94 68.79 68.83 68.62 67.96 67.18 66.24 65.01 64.08 64.12 63.35 64.86 65.09 66.05 66.90 67.34 67.30 67.24 66.23 65.80 65.18 65.08
65.84 67.94 69.04 70.08 70.32 69.80 69.85 70.28 70.59 70.30 69.55 69.08 68.41 67.35 67.37 67.93 68.00 67.81 67.32 68.32 69.30 68.97 68.28 67.82 67.28 66.25 65.02 64.21 64.58 63.37 61.07 62.07 61.86 64.34 63.48 61.44 66.14 66.75 67.23 66.37 65.08 64.59 63.97
60.90 64.93 68.01 68.83 69.00 68.92 68.56 69.54 70.40 70.48 69.92 68.87 68.44 68.04 67.88 68.18 68.44 67.75 66.62 67.14 68.47 68.25 67.91 67.29 66.65 65.12 62.59 62.76 62.96 60.91 62.58 61.74 60.95 61.02 61.51 60.46 63.51 65.07 65.42 67.51 66.24 64.61 63.59
61.04 63.45 67.03 68.01 67.99 67.91 67.50 68.28 68.78 70.18 70.11 69.05 67.94 67.58 67.43 67.26 68.00 67.76 67.91 67.78 67.86 65.61 66.61 66.44 65.90 64.55 62.55 62.67 62.17 62.53 62.13 61.07 61.20 60.20 60.31 60.28 63.42 65.13 65.04 65.51 68.02 66.59 64.78
60.44 64.32 64.70 63.40 66.60 67.12 67.04 67.31 67.78 69.03 69.60 68.42 67.67 67.01 66.46 66.12 66.35 66.12 66.14 66.55 66.33 66.49 64.93 65.02 64.66 63.82 62.90 62.40 62.77 62.41 61.41 61.33 61.21 60.52 60.55 59.30 61.54 65.10 65.63 65.67 66.82 68.37 66.85
61.03 62.96 62.97 63.94 64.06 66.22 65.92 66.82 67.19 67.60 69.24 68.83 67.66 67.18 66.38 65.57 64.99 65.00 64.85 65.12 65.06 65.13 64.62 63.54 63.48 63.15 63.11 63.55 64.14 63.66 63.32 63.24 62.85 62.41 62.78 59.22 60.59 63.06 65.41 65.76 65.93 68.08 68.24
60.51 62.17 62.39 62.71 63.41 66.70 65.26 65.81 66.86 67.33 67.96 68.78 68.53 67.15 66.78 66.30 65.63 65.13 65.35 65.07 64.79 64.62 64.40 63.56 63.01 64.06 64.50 64.47 63.65 63.50 64.06 64.15 64.08 63.67 64.22 64.02 61.16 62.65 64.41 65.79 66.15 66.75 67.66
61.35 62.33 61.57 61.64 62.79 67.11 65.92 64.58 65.59 66.67 66.42 67.25 67.60 68.07 67.21 66.56 66.00 65.55 65.44 65.19 64.81 64.17 63.54 63.69 63.35 63.32 63.16 63.25 62.83 63.70 64.79 65.13 64.81 65.00 65.61 65.26 64.65 61.41 62.64 65.19 66.29 66.61 66.97
61.54 60.64 61.34 61.61 62.48 65.29 66.40 65.55 65.33 65.18 64.79 66.47 67.14 67.61 67.22 66.38 65.72 65.40 65.00 65.12 64.71 63.54 63.27 63.65 63.62 62.43 61.52 61.93 63.36 64.26 64.30 64.94 65.46 65.50 65.59 65.34 65.43 64.91 63.93 63.60 65.11 66.42 67.25
61.75 61.27 61.01 62.12 62.66 66.65 66.46 65.61 65.44 65.68 66.11 65.93 65.38 65.59 66.32 66.24 65.38 64.80 64.47 64.69 63.52 62.29 62.51 62.51 61.80 61.77 61.12 61.92 62.72 63.85 64.74 64.84 65.22 64.94 65.57 65.24 64.97 65.27 65.84 63.85 62.58 63.47 64.93
63.15 61.93 61.95 62.47 64.05 66.81 66.80 66.57 66.85 66.66 66.51 66.70 65.66 65.60 65.04 64.78 64.24 63.86 63.50 63.77 63.24 61.88 61.38 60.53 60.29 60.82 62.17 63.21 62.63 63.58 64.94 65.12 65.15 65.14 64.72 64.11 64.46 64.35 64.84 65.14 65.38 64.76 61.60
63.57 63.71 63.62 64.87 65.16 65.17 64.66 63.90 65.12 64.67 66.12 66.09 66.73 66.09 65.88 66.25 64.64 63.48 63.38 62.86 63.19 62.60 61.61 61.27 61.00 61.20 62.14 63.31 63.04 63.67 63.16 63.45 63.45 63.33 63.27 62.64 62.31 62.41 63.08 63.61 63.99 64.12 64.08
62.29 63.27 63.59 63.91 63.89 65.01 64.02 64.24 63.70 63.95 65.70 66.85 67.05 66.21 65.65 66.11 65.55 64.91 64.17 62.78 63.23 63.58 63.14 62.89 63.08 63.19 63.01 63.67 62.83 59.98 58.79 60.32 61.28 61.58 61.61 60.73 60.51 60.69 61.16 60.66 61.87 61.87 62.69
61.72 61.97 62.75 63.94 64.13 64.37 64.35 64.42 64.12 63.91 63.95 63.55 64.51 65.40 64.71 65.32 65.42 65.00 64.85 64.86 64.04 64.04 63.41 64.14 64.31 63.62 62.28 61.93 62.46 60.93 56.36 55.67 57.47 60.78 60.08 60.09 59.59 59.44 59.00 58.74 58.66 58.79 58.46
56.77 61.68 62.77 63.45 63.98 64.64 64.52 64.39 63.17 62.06 60.81 62.60 63.94 64.42 64.61 64.88 64.16 64.38 64.39 64.20 63.99 63.44 63.46 63.49 64.42 63.98 63.51 62.51 61.55 61.48 62.01 61.05 56.89 55.19 57.91 58.41 58.43 57.51 57.02 57.02 57.13 55.69 54.89
53.03 53.79 60.09 62.34 62.71 63.65 64.46 64.43 63.15 61.31 60.23 62.69 63.05 62.98 62.62 62.37 63.20 63.56 63.85 63.48 62.67 61.95 61.43 61.28 62.36 61.09 61.59 61.07 60.83 59.50 59.00 58.37 57.58 54.82 51.58 54.15 56.73 57.15 56.70 55.54 55.72 54.54 54.20
51.16 52.01 56.79 60.29 61.63 62.29 62.57 62.89 62.59 61.78 61.17 61.31 62.10 61.98 61.49 61.35 61.58 62.59 63.07 62.73 61.74 61.18 60.47 59.75 58.89 58.46 58.81 58.42 57.82 56.67 56.10 54.83 53.45 53.43 51.93 52.55 52.16 54.55 54.70 54.63 53.32 53.41 52.58

GFSSE_sfc_wetblb_084.txt.gz
Wetbulb
71.42 73.56 74.55 74.51 73.74 73.18 72.77 72.33 72.21 72.94 73.23 74.35 74.29 74.29 74.26 74.33 74.32 74.12 73.48 72.81 73.20 71.80 71.55 72.58 73.23 73.35 73.22 72.96 72.57 71.95 71.79 71.55 72.09 71.97 72.13 72.38 71.51 70.59 70.39 70.18 71.60 70.73 71.50
72.33 73.72 74.42 74.58 73.86 73.19 72.73 72.38 73.58 73.44 73.20 74.47 74.14 74.29 74.37 74.33 74.13 73.39 72.80 72.14 71.63 71.27 71.97 72.69 72.90 72.47 71.39 71.67 71.38 71.57 71.44 70.99 70.54 70.22 70.96 70.58 70.62 70.48 70.52 70.60 72.08 71.72 71.32
72.25 73.28 73.98 73.98 74.12 73.76 73.15 72.31 72.73 72.78 73.34 74.02 74.22 74.30 74.36 74.44 73.66 72.60 72.24 72.21 72.13 71.75 71.90 72.29 72.65 72.20 70.93 70.90 70.78 70.73 70.21 69.66 69.35 69.26 69.94 67.62 68.93 69.30 69.35 69.70 70.32 69.92 70.35
72.37 73.04 73.41 73.68 73.83 73.69 72.79 72.42 71.85 71.89 72.80 74.06 73.83 74.33 74.09 73.96 73.87 72.28 71.82 71.77 72.76 72.36 71.62 71.14 71.16 71.01 71.09 70.79 70.14 69.67 69.26 68.79 67.96 68.54 66.01 65.75 65.56 67.72 68.53 68.62 68.47 68.36 68.61
72.07 72.92 73.02 73.38 73.75 73.54 72.52 72.96 71.39 71.12 72.23 73.21 73.69 73.67 73.81 74.02 72.39 71.92 71.51 72.31 72.32 72.07 71.46 70.65 70.55 70.83 71.05 70.86 69.70 68.53 67.97 67.97 66.88 67.04 67.19 67.56 67.35 67.53 67.55 67.35 67.63 67.84 67.88
72.14 72.97 72.72 73.09 73.37 73.34 72.76 72.74 71.63 70.63 71.29 72.37 72.91 73.17 73.26 73.85 72.05 71.14 71.87 71.89 71.76 71.56 70.21 70.78 71.51 71.81 72.12 70.40 69.31 67.57 67.62 66.55 67.43 67.95 67.90 67.97 68.03 67.66 67.72 67.19 66.94 66.95 67.07
71.57 72.67 72.93 72.88 73.14 72.77 73.37 72.63 71.81 70.56 70.41 71.52 72.05 72.86 72.90 72.77 71.33 70.66 70.53 70.83 71.02 70.90 70.36 70.69 71.64 71.10 70.62 69.98 68.40 67.01 66.67 65.16 67.10 68.00 68.56 68.82 68.80 68.01 67.44 67.16 66.93 66.88 66.58
71.41 72.05 72.36 71.80 72.67 72.85 73.08 72.26 71.51 70.99 70.50 71.20 71.86 72.40 72.62 72.43 70.82 69.61 69.69 70.33 70.73 70.15 70.03 69.97 69.83 70.43 70.51 69.60 67.87 66.58 65.47 66.06 65.90 67.18 68.18 68.56 68.61 68.12 67.49 66.74 66.54 66.46 66.29
71.49 71.39 71.49 72.10 71.39 71.83 72.03 71.56 70.99 70.73 70.97 71.16 71.33 71.81 71.82 71.02 70.15 69.03 69.26 69.87 70.29 69.90 69.57 69.24 68.96 68.58 68.43 68.36 67.07 66.38 65.45 63.85 65.98 66.05 66.07 67.99 68.20 67.90 67.15 66.57 66.10 65.93 65.73
67.67 71.08 71.16 71.29 71.36 71.13 71.63 70.66 70.23 69.98 70.19 70.32 70.48 70.05 69.05 68.95 69.15 69.56 68.19 68.91 70.19 69.93 69.40 68.99 68.54 68.05 67.32 66.21 64.98 64.87 65.20 64.51 65.29 65.36 66.02 66.57 67.34 67.21 66.90 66.11 65.70 65.35 65.19
63.63 64.06 70.21 70.71 70.88 70.43 71.16 70.76 70.11 69.46 69.22 68.72 68.35 67.48 67.04 69.07 68.65 68.37 67.88 67.93 69.39 69.16 68.78 68.58 68.12 67.00 65.91 65.34 64.68 62.86 62.05 64.90 64.97 65.53 65.24 63.01 65.48 67.02 67.47 66.27 65.20 64.74 64.31
59.75 61.17 65.54 69.58 70.29 69.70 69.82 71.21 71.12 69.60 68.64 67.94 68.53 68.53 68.32 67.67 68.42 67.77 67.15 67.71 69.07 68.88 68.51 67.66 66.85 65.31 63.69 65.02 64.46 62.38 64.98 64.80 64.21 64.27 64.34 60.67 63.11 65.65 65.66 67.58 66.38 64.92 63.94
60.16 62.95 63.38 67.15 69.33 68.33 67.35 70.75 71.02 70.67 69.22 68.25 67.58 67.87 68.12 67.88 68.25 67.75 68.26 68.26 68.06 66.07 66.90 66.82 66.16 65.15 64.46 64.34 64.49 64.32 64.66 63.87 64.08 63.94 63.22 60.67 63.34 65.09 65.50 66.22 68.06 66.93 65.38
60.95 62.62 65.06 66.60 68.01 67.99 68.10 68.20 70.91 70.45 69.98 69.10 67.69 66.80 66.96 67.00 67.37 67.25 67.15 67.24 67.03 66.45 66.11 65.97 65.30 64.71 64.24 64.42 64.30 63.73 63.33 63.76 64.87 65.18 65.00 60.74 61.69 64.49 65.85 66.06 66.47 68.61 67.79
61.44 62.27 64.06 64.40 64.93 67.68 67.94 66.75 68.91 70.45 70.28 69.89 68.74 67.22 66.64 66.31 66.43 66.54 66.03 66.21 65.79 65.97 65.24 64.65 64.56 64.09 63.96 64.69 65.77 65.69 65.55 66.07 66.23 66.40 66.77 60.47 60.83 62.86 65.11 66.30 66.65 67.29 68.85
61.40 62.61 63.59 63.08 63.92 65.43 67.13 66.92 66.60 69.31 70.61 70.41 69.39 68.41 67.43 67.28 66.04 65.27 64.50 65.04 65.66 65.94 65.39 64.39 63.82 64.09 64.72 66.07 66.28 66.50 66.60 66.81 67.10 67.11 67.66 67.49 62.05 62.77 64.51 66.14 66.79 67.01 67.61
61.43 62.58 62.84 62.96 63.44 63.17 67.44 67.75 66.61 67.12 69.14 69.97 69.99 69.77 68.48 68.32 67.27 66.62 66.35 67.06 67.04 66.84 65.49 64.79 63.86 65.97 66.24 66.14 65.80 66.21 66.89 67.41 67.31 67.41 67.70 67.91 67.30 61.78 63.10 65.60 66.66 67.17 67.27
61.64 62.71 63.49 63.75 62.90 63.51 67.65 67.32 67.19 67.94 67.90 68.13 69.75 70.04 69.32 68.80 67.58 67.50 67.76 67.66 67.76 66.64 65.95 65.51 65.15 65.17 64.94 64.79 64.84 66.03 66.42 66.97 67.23 67.16 67.37 67.41 67.24 67.24 65.46 64.41 65.49 66.53 67.21
62.51 63.29 63.00 63.39 62.87 64.79 67.44 67.27 66.73 67.79 68.28 68.44 68.48 68.86 69.05 69.02 68.20 67.58 67.07 67.28 67.84 66.20 65.53 65.25 65.27 64.96 63.92 63.88 64.25 65.77 66.65 66.68 66.71 66.49 66.38 66.77 67.10 66.98 67.09 65.24 63.43 63.38 64.72
62.29 62.78 63.13 62.32 62.69 64.96 66.53 67.30 66.99 66.23 66.04 67.20 67.20 68.13 68.50 68.64 68.84 67.87 66.44 66.84 67.02 65.87 64.83 64.99 64.12 64.55 64.05 64.38 64.53 64.75 66.21 66.47 66.51 66.46 66.19 66.01 66.10 66.10 65.89 65.92 66.59 66.00 62.33
62.16 62.61 63.13 62.71 63.15 65.82 66.61 65.89 65.67 65.98 66.59 66.65 67.03 66.87 67.02 66.80 66.66 66.95 66.08 66.56 66.43 65.57 65.48 65.15 64.43 63.48 63.53 65.55 64.91 63.44 64.55 65.64 65.38 65.23 65.40 64.79 64.50 64.28 64.88 65.46 66.19 66.36 65.87
60.46 62.35 62.72 63.39 64.25 63.39 63.91 65.29 65.36 65.47 66.43 66.73 67.87 67.99 67.96 67.37 67.08 66.68 66.28 66.24 66.16 64.80 66.35 65.29 64.26 63.93 64.72 65.74 62.82 63.43 59.14 61.57 63.47 63.37 64.36 63.68 63.38 63.82 64.02 63.30 63.86 64.17 65.34
59.89 61.09 62.00 62.90 63.04 63.51 64.34 64.66 64.24 64.28 64.86 64.65 65.67 66.16 67.16 67.19 66.34 66.92 66.84 65.93 65.33 64.91 66.04 65.92 65.67 65.14 64.28 64.47 64.57 62.44 58.44 56.59 60.12 62.46 62.43 62.73 62.05 62.68 62.82 62.34 62.15 62.25 62.79
58.96 61.09 61.33 62.64 62.76 63.00 63.48 62.93 62.49 61.89 60.80 62.72 62.50 65.15 65.75 66.13 66.30 65.87 65.46 64.92 64.24 63.98 63.38 63.62 64.03 64.14 64.70 62.77 63.50 64.04 64.42 62.50 57.60 55.62 59.93 60.52 61.09 59.29 60.55 61.74 61.16 60.21 60.08
58.38 61.37 61.50 62.18 62.91 62.92 63.49 63.60 62.50 61.30 62.01 62.27 61.61 63.17 63.93 63.88 65.08 64.30 64.07 63.81 63.70 63.84 62.99 61.99 62.07 61.39 61.40 60.44 59.78 60.51 62.71 62.44 61.35 58.59 52.50 54.39 57.78 58.88 59.52 59.21 59.49 59.73 58.70
52.32 54.11 56.26 59.21 61.88 63.47 63.49 63.13 62.77 61.40 61.53 59.66 60.05 60.83 61.72 62.91 63.10 63.32 63.75 63.82 63.28 62.11 61.23 60.42 59.87 59.08 59.86 59.57 59.83 59.94 59.73 57.38 55.79 54.89 53.89 54.15 54.23 56.23 57.80 58.15 57.97 58.26 57.86

GFSSE_sfc_wetblb_087.txt.gz
Wetbulb
71.70 73.11 74.79 74.35 73.56 73.14 72.65 72.50 72.16 72.90 74.65 74.83 74.41 74.09 73.95 74.14 74.27 74.06 73.32 72.77 73.13 72.23 72.41 73.10 73.55 73.39 73.31 73.09 72.27 72.06 72.57 72.19 72.31 72.19 72.09 71.79 71.17 70.93 70.98 71.73 72.57 70.94 72.08
72.47 72.96 74.49 74.64 73.28 73.02 72.61 72.39 72.89 73.20 74.38 74.83 74.48 74.19 74.10 74.34 74.33 73.83 73.01 72.31 71.72 72.02 72.95 73.59 72.97 73.12 72.63 71.45 72.08 71.33 71.58 71.06 70.69 71.17 70.29 69.87 70.60 70.87 70.45 70.96 71.85 70.70 71.86
72.08 73.09 73.46 74.30 73.81 73.58 72.96 72.68 72.97 73.15 73.65 74.49 74.45 74.58 74.32 74.39 74.02 73.39 72.57 71.94 71.64 72.67 73.27 72.75 72.21 71.39 70.91 70.89 71.01 70.78 70.57 70.01 69.12 69.49 69.91 67.04 68.23 69.77 69.73 69.76 70.52 70.65 70.61
72.12 72.59 73.03 73.99 74.07 73.49 73.08 72.72 72.83 72.57 73.07 74.00 74.13 74.35 74.37 74.30 73.47 72.96 72.33 71.87 72.54 72.96 72.86 72.48 71.67 70.43 70.73 70.58 70.25 69.76 69.39 68.15 67.19 67.99 65.92 64.80 65.25 68.41 68.82 68.72 68.60 68.90 69.42
71.52 72.51 72.74 73.61 73.80 73.44 72.81 72.32 72.26 72.49 73.21 73.48 73.70 73.78 74.16 73.98 72.92 72.22 72.41 72.87 72.44 72.43 71.96 71.37 71.00 70.98 70.77 69.69 68.80 68.56 68.46 66.27 67.28 68.01 67.16 67.29 66.94 67.46 67.86 68.10 67.84 68.00 68.26
70.98 71.71 72.72 73.17 73.52 73.31 73.40 72.43 71.52 71.87 72.95 73.31 73.41 73.34 73.32 73.73 72.50 72.15 72.39 72.21 71.70 71.01 70.71 70.71 71.02 71.11 70.76 69.36 67.76 67.79 67.01 65.95 67.73 67.44 67.29 67.99 67.13 67.87 67.76 67.48 67.27 67.21 66.92
70.64 71.52 72.98 73.09 73.33 73.15 73.12 72.79 71.98 71.25 72.21 72.54 72.91 72.97 72.74 73.18 71.72 71.42 71.93 71.63 71.26 70.91 70.80 71.64 71.81 71.27 70.11 68.63 67.40 67.06 66.03 65.72 67.38 67.79 67.99 67.99 67.77 67.96 67.69 67.48 67.17 66.92 66.86
70.34 71.02 72.11 71.71 72.54 72.62 73.16 72.35 71.81 71.30 71.48 71.92 72.49 72.79 72.61 72.57 71.01 71.08 71.48 71.30 71.06 70.56 70.78 71.57 70.99 70.69 69.96 68.33 67.06 66.10 65.23 66.10 66.12 67.29 67.98 67.72 68.43 68.05 67.59 67.01 66.84 66.70 66.52
67.24 69.97 70.53 71.57 71.47 71.50 71.82 71.43 71.27 71.17 71.28 71.43 71.80 72.18 71.84 71.10 70.58 69.64 70.74 71.39 70.93 69.89 70.20 69.92 70.23 70.45 69.88 67.91 66.99 66.08 64.89 65.26 65.50 65.78 66.81 67.40 68.66 67.81 67.36 66.78 66.38 66.09 65.89
65.09 63.83 62.95 70.50 70.76 69.34 71.18 70.47 70.33 70.45 70.90 70.98 70.76 70.44 69.61 69.19 69.11 69.91 69.39 70.65 70.76 69.92 69.78 69.35 68.75 68.18 67.77 66.61 65.68 66.01 65.60 65.16 64.94 65.19 65.52 66.65 67.71 67.47 66.90 66.38 65.84 65.54 65.36
65.41 64.44 63.83 63.35 69.78 69.19 70.38 70.13 69.51 69.45 69.39 69.34 69.17 67.87 67.66 68.38 67.89 67.52 67.88 68.97 69.98 70.12 69.49 68.86 68.38 67.73 67.01 65.87 65.19 64.63 64.57 64.55 64.54 64.38 64.60 66.32 67.25 67.54 67.30 66.26 65.49 64.90 64.59
63.74 63.92 63.54 64.47 63.06 68.19 70.03 70.02 69.10 68.08 68.16 67.19 68.70 67.88 68.29 68.71 68.17 67.36 66.80 67.69 69.12 69.20 69.01 68.48 67.70 66.34 64.69 64.53 63.72 62.87 62.96 64.18 63.41 63.91 63.58 63.80 63.64 66.44 66.47 67.83 66.55 65.35 64.33
64.55 63.01 63.66 62.96 63.52 63.89 69.33 70.21 69.49 67.91 66.76 66.89 66.30 68.11 68.29 68.16 67.31 67.99 67.74 67.19 67.72 66.37 66.37 66.68 65.73 64.39 63.88 64.36 64.31 63.46 64.10 63.64 63.22 63.61 62.47 63.70 63.40 65.00 65.97 66.56 67.76 67.22 65.91
62.91 63.09 62.72 63.14 63.88 65.28 67.33 70.07 69.64 68.98 67.12 66.27 66.71 66.85 68.16 67.13 67.38 66.75 66.74 66.84 66.50 66.04 65.62 65.45 65.20 64.54 64.16 63.94 63.74 63.34 63.44 63.13 63.37 64.22 63.03 62.42 63.14 64.46 65.85 66.49 66.57 68.35 68.13
61.36 62.87 62.29 63.58 63.74 64.60 66.52 67.27 68.87 69.02 68.60 66.92 66.05 66.47 66.76 66.84 66.76 66.62 66.38 66.47 66.38 65.81 65.65 65.16 64.63 63.92 63.21 63.26 63.78 63.94 63.40 64.36 65.37 65.68 66.01 61.50 62.80 63.69 64.94 66.35 66.94 67.13 68.17
61.71 61.83 63.15 64.13 63.53 63.18 64.97 66.83 67.00 68.70 69.56 68.81 67.18 66.05 65.77 66.46 66.63 66.17 65.72 65.75 65.30 65.35 65.00 64.34 63.76 63.45 63.09 63.39 64.34 65.20 65.54 66.29 66.51 66.54 67.04 64.55 63.06 63.92 65.04 66.21 67.17 67.45 67.68
61.27 62.61 62.91 63.65 63.46 62.89 63.01 66.60 66.37 67.83 68.73 69.52 68.55 66.91 65.75 65.78 65.24 64.72 64.31 64.41 64.76 65.23 64.49 64.31 63.36 63.36 63.83 64.59 64.94 65.22 65.64 66.45 66.58 66.49 67.12 67.67 65.62 62.77 64.63 66.25 67.25 67.67 67.87
61.80 62.53 63.34 63.46 63.20 63.62 63.33 65.09 67.10 66.00 67.45 68.00 69.26 68.27 67.30 67.27 66.88 65.93 65.39 65.88 66.70 66.50 65.80 64.12 63.35 62.61 64.35 64.58 64.25 64.72 65.55 66.44 66.42 66.66 66.96 66.90 67.14 66.68 64.81 66.09 66.64 66.78 67.43
61.68 62.46 63.07 63.46 63.19 62.84 62.94 65.35 67.39 66.68 65.94 67.10 68.97 69.52 68.68 67.89 67.98 67.11 67.14 67.31 67.27 66.12 65.16 64.81 64.53 64.08 63.61 63.79 63.78 64.52 65.71 66.00 66.19 66.01 65.62 65.86 66.56 67.04 66.75 65.40 64.65 64.41 65.03
61.96 62.35 63.15 63.67 63.21 62.34 62.70 65.74 66.38 66.57 66.87 67.78 67.82 67.81 68.68 68.55 68.58 68.01 67.02 66.15 66.61 65.99 65.17 64.94 64.10 64.78 64.11 63.72 62.71 63.48 65.66 66.18 66.35 65.72 65.30 65.40 65.73 65.88 65.42 65.29 65.82 65.26 63.21
62.00 62.11 62.49 63.26 61.88 61.86 62.28 63.94 64.53 64.04 65.15 66.13 67.45 67.95 68.02 68.30 68.26 68.38 67.29 65.60 66.12 65.94 65.71 65.15 64.55 63.66 63.39 64.33 63.41 63.13 64.45 65.27 64.98 65.19 65.35 64.74 64.22 64.13 63.65 64.74 65.19 65.39 64.51
58.08 60.09 61.64 61.43 62.21 62.56 62.84 63.57 64.76 65.83 66.86 66.99 67.47 67.52 67.30 67.00 66.86 66.72 66.83 65.82 65.89 65.79 65.74 65.47 65.04 63.38 63.39 64.45 63.26 62.40 59.82 61.01 63.08 63.47 63.56 63.41 62.90 63.25 63.18 63.43 63.02 63.51 64.43
56.87 60.27 61.38 62.06 61.91 62.35 63.04 63.11 63.38 63.76 64.93 64.53 65.95 66.32 66.81 67.35 66.86 67.14 67.01 66.50 66.05 65.55 65.11 65.91 64.73 63.79 62.58 64.95 65.39 62.58 58.34 56.52 59.49 61.96 62.61 62.49 61.68 61.41 62.30 62.54 61.84 62.04 62.44
56.96 58.91 60.99 60.66 62.25 62.48 62.55 62.07 61.84 61.32 60.93 62.81 63.99 65.06 66.45 66.32 66.16 66.48 66.07 66.69 65.94 65.29 63.65 63.13 63.89 64.68 64.25 62.68 64.04 63.75 62.85 62.12 57.62 56.15 60.47 59.95 60.46 58.87 59.87 60.82 60.53 60.37 60.33
58.15 58.38 59.74 60.17 60.99 62.68 62.16 62.02 61.61 60.83 61.62 62.30 61.86 62.39 63.31 64.47 64.27 64.92 65.46 65.11 64.33 64.27 63.39 63.33 62.75 62.11 61.53 60.18 59.47 58.72 58.36 59.19 59.61 57.57 54.17 55.52 57.94 58.56 59.41 59.04 58.78 59.14 59.11
53.94 54.53 55.32 57.77 59.27 61.00 61.77 61.93 61.20 61.04 60.45 59.99 61.25 61.01 61.24 62.01 63.00 63.27 63.87 63.93 63.93 62.99 62.69 61.77 60.56 59.87 59.72 59.83 59.54 58.64 57.17 55.57 56.00 55.74 54.10 53.69 54.04 56.31 57.87 57.97 57.81 57.45 57.68

GFSSE_sfc_wetblb_090.txt.gz
Wetbulb
70.15 72.16 74.95 74.12 73.63 73.17 72.87 72.57 73.01 74.60 75.50 75.30 74.49 74.37 74.56 74.59 74.33 74.01 73.10 72.20 72.90 72.81 72.96 73.60 73.50 73.45 73.33 72.96 72.73 72.63 72.50 72.65 72.06 71.52 71.49 71.57 71.45 71.84 72.29 71.92 72.28 71.01 71.73
71.42 72.39 74.59 74.59 73.55 73.10 72.85 72.67 73.29 73.87 74.96 74.62 74.79 74.19 74.28 74.50 74.42 73.91 73.16 72.49 72.64 73.07 73.71 73.66 73.46 73.05 72.31 71.61 71.96 71.87 71.32 71.15 70.80 70.81 69.95 69.93 70.80 70.70 70.75 71.40 71.84 70.67 71.83
71.10 71.94 73.43 74.47 74.06 73.75 73.53 72.76 73.19 73.37 74.65 74.49 74.50 74.52 74.30 74.49 74.11 73.68 72.78 72.59 73.55 73.74 73.21 72.70 72.23 70.92 71.66 71.26 71.20 70.89 70.48 69.82 69.98 70.73 69.87 66.17 67.26 70.02 69.83 69.63 70.53 70.41 70.58
71.60 71.71 72.20 74.11 74.04 73.66 73.30 72.77 72.92 72.59 73.41 74.48 74.24 74.58 75.11 74.32 73.96 73.25 72.48 72.68 73.91 73.91 73.29 71.83 71.08 70.55 70.73 70.48 70.33 70.08 68.72 67.24 67.91 67.56 62.95 63.37 65.53 68.67 68.67 68.75 69.43 69.76 69.31
71.25 71.45 72.37 73.69 73.98 73.67 72.86 72.91 72.84 72.64 73.00 73.91 73.81 74.05 74.17 74.06 74.13 72.92 72.77 73.01 73.30 73.15 72.74 71.45 70.25 70.10 69.96 69.41 69.17 68.61 67.00 66.78 67.20 66.65 64.27 63.39 63.79 67.57 68.70 68.44 67.76 67.93 67.90
70.68 71.14 72.78 73.54 73.43 73.47 73.14 72.86 72.39 72.55 72.64 73.33 73.48 73.67 74.08 73.62 73.22 73.25 72.87 72.18 71.95 71.72 71.92 71.24 71.11 70.79 69.50 68.40 67.98 67.71 66.45 66.98 67.29 63.81 64.22 66.79 64.73 68.17 68.22 67.86 67.36 67.25 67.04
69.64 71.45 72.11 73.24 73.02 73.44 73.30 72.58 72.43 72.17 73.18 73.14 73.22 73.20 73.17 73.33 72.65 72.61 72.12 70.87 70.31 71.20 70.87 70.97 71.16 70.50 69.00 67.64 67.36 66.76 66.01 66.87 64.90 64.32 64.84 64.95 65.07 68.06 68.06 67.55 67.36 67.25 67.15
69.46 70.89 71.05 72.32 72.87 72.75 72.88 72.46 71.86 71.95 72.66 73.26 72.94 72.86 72.87 72.72 72.35 72.08 71.45 69.67 69.60 70.96 71.44 71.91 71.33 70.25 68.65 67.45 66.68 65.66 66.26 65.48 64.55 64.41 65.09 65.03 68.44 68.17 67.78 67.36 66.97 66.85 66.75
68.05 67.49 66.10 69.66 71.16 71.33 72.24 71.85 71.42 71.33 71.63 72.37 72.40 72.17 71.81 71.61 71.74 70.61 69.98 71.05 71.11 70.93 71.75 71.53 70.83 70.17 68.69 67.58 66.42 65.76 65.53 64.82 60.71 63.12 66.14 65.36 68.74 68.10 67.61 67.04 66.77 66.45 66.29
65.10 65.97 66.05 65.95 68.91 68.85 70.38 70.56 70.32 70.27 70.84 71.01 71.22 70.56 69.77 68.98 68.94 68.92 69.96 70.20 70.16 70.77 70.65 70.64 70.54 70.21 68.97 67.61 66.94 66.55 65.22 64.64 59.72 61.44 64.80 65.87 68.43 67.64 67.16 66.61 66.25 66.10 65.70
65.51 65.22 65.36 65.32 64.71 63.03 68.42 69.00 69.41 69.68 69.66 69.76 69.22 68.39 67.51 67.25 66.68 66.95 67.87 68.92 69.52 70.10 70.07 69.44 68.77 68.37 67.27 65.78 65.71 65.41 64.61 60.40 59.57 60.15 61.96 68.22 68.27 67.86 66.98 66.18 65.70 65.10 64.94
64.10 64.34 64.82 64.98 65.25 64.72 65.06 67.18 66.61 67.84 66.80 68.00 68.39 67.81 67.63 66.40 66.23 66.62 66.90 68.11 69.30 69.37 69.22 69.17 68.52 67.69 65.09 60.95 60.64 62.77 58.46 58.54 58.12 59.44 60.12 66.54 66.82 67.16 67.54 67.46 66.24 65.36 64.45
63.02 63.23 64.01 64.90 66.00 64.63 63.91 63.65 66.28 65.52 65.24 65.28 67.03 67.42 67.33 66.82 65.42 65.54 64.96 66.62 67.03 65.80 65.71 66.30 65.25 62.67 60.53 60.24 60.02 58.76 58.92 58.39 57.26 58.20 61.33 64.90 64.93 66.04 66.22 66.98 67.97 67.50 66.10
62.48 62.81 62.74 63.48 62.61 63.61 63.65 64.57 65.85 64.83 63.47 62.97 65.35 66.44 66.48 65.09 64.08 65.25 64.51 64.04 64.51 64.29 62.77 63.04 62.12 60.95 60.20 59.81 58.98 58.96 58.89 58.57 57.90 58.40 59.53 63.50 65.28 65.12 66.22 66.67 66.72 67.83 68.23
61.78 62.40 62.16 62.75 63.14 64.70 65.22 65.10 66.82 66.21 63.71 63.31 63.27 64.62 65.81 63.99 63.07 63.50 63.80 64.33 63.91 63.18 62.48 62.40 61.49 60.58 59.14 59.02 59.87 59.13 58.51 58.30 59.41 60.59 57.33 61.82 63.69 65.42 65.55 66.47 67.00 67.26 67.46
60.62 60.46 61.51 62.93 63.02 64.60 64.15 64.16 64.33 66.00 66.19 63.08 62.79 63.08 64.86 64.14 63.64 62.93 63.07 62.97 62.32 62.16 61.35 61.34 60.39 59.29 58.99 58.98 59.47 60.47 60.46 61.02 61.92 61.66 61.26 59.49 63.47 64.80 66.22 66.47 67.14 67.64 67.83
60.17 60.91 61.79 63.20 63.18 62.49 63.21 64.06 64.35 65.17 66.00 65.23 63.56 62.95 63.26 63.78 63.24 62.53 61.64 61.44 61.02 60.85 60.92 60.03 59.62 59.38 59.12 59.93 59.64 61.08 61.51 61.45 62.34 62.82 62.63 61.99 61.98 62.89 65.34 67.48 67.85 67.99 68.12
60.54 60.83 62.24 63.68 62.56 62.39 62.51 64.01 64.45 64.99 65.42 65.52 65.18 63.78 62.37 62.82 62.64 61.59 60.59 60.55 61.33 61.61 61.17 60.11 59.49 57.89 58.96 60.71 60.22 60.54 60.43 62.21 62.63 62.35 64.27 63.21 63.11 64.08 63.62 66.19 67.53 67.85 67.73
60.98 61.00 60.76 62.58 62.68 62.99 62.96 63.36 64.25 65.18 64.38 66.03 65.81 65.90 63.69 64.23 63.96 62.77 62.33 62.52 63.18 62.89 61.64 61.24 59.68 59.11 59.13 60.17 60.13 60.05 60.75 61.67 62.23 63.63 62.03 61.98 61.94 62.57 62.42 64.22 64.45 64.93 65.83
60.96 61.27 61.69 62.51 62.51 62.76 62.81 62.92 64.22 64.84 63.55 65.00 65.72 65.61 66.48 65.79 65.63 64.50 64.09 63.85 63.67 63.22 61.79 61.58 60.86 60.99 60.89 59.79 60.91 60.20 60.78 61.85 62.40 61.74 61.46 62.99 62.32 60.79 60.14 60.60 61.21 61.65 62.86
60.59 60.93 61.51 61.49 62.12 62.17 61.06 60.93 61.71 62.22 63.55 64.44 65.71 66.11 66.27 66.29 67.45 67.00 65.79 63.19 62.27 63.49 62.61 61.87 61.45 60.52 60.37 60.13 58.36 59.02 60.33 62.58 62.81 61.56 60.93 59.49 59.46 59.23 59.36 60.21 60.28 60.35 62.08
57.65 60.24 60.88 61.63 62.11 61.62 61.25 61.70 62.68 62.90 63.92 63.79 65.02 65.94 66.34 65.75 66.19 65.96 65.32 64.16 62.65 63.60 62.96 63.12 61.65 60.24 60.41 60.47 58.84 59.08 56.32 57.87 59.51 60.19 58.86 58.98 57.37 57.69 58.95 59.32 58.65 59.28 59.58
56.08 57.28 60.21 61.57 61.61 61.76 61.69 62.43 62.30 62.53 63.05 63.45 64.31 63.96 64.28 65.75 65.50 64.95 64.77 64.36 63.70 63.50 63.10 63.08 63.05 62.23 60.32 60.70 61.13 59.09 55.29 53.15 55.37 58.37 57.31 57.22 56.89 55.49 56.34 57.75 58.16 58.12 57.98
55.82 57.45 59.74 60.32 61.67 61.86 62.10 61.63 60.74 59.79 59.66 60.92 62.19 62.86 64.19 65.14 64.69 64.55 64.41 64.36 63.93 63.42 62.22 61.93 62.44 61.86 61.45 60.79 61.60 62.34 60.03 58.19 54.26 52.94 56.09 55.09 55.85 54.83 53.64 55.23 55.81 56.42 56.58
56.38 55.82 58.02 59.99 60.23 61.37 61.44 61.28 60.88 59.69 60.65 61.25 61.04 60.86 60.86 62.75 63.34 63.87 63.75 63.64 63.16 63.05 62.45 61.94 62.13 62.21 61.79 60.28 59.96 58.46 57.81 57.39 57.12 54.84 51.39 51.27 53.78 54.12 55.45 54.35 54.02 54.14 55.37
53.44 53.51 54.85 55.60 57.82 59.68 60.45 61.44 61.07 59.91 59.73 59.86 59.87 59.66 60.41 61.29 61.70 62.38 62.98 63.27 63.79 63.36 62.43 62.04 61.75 61.26 60.87 60.27 59.56 58.91 56.90 55.36 54.93 54.01 53.35 53.83 51.95 52.50 53.48 53.71 53.38 53.07 53.28

GFSSE_sfc_wetblb_093.txt.gz
Wetbulb
69.56 72.20 74.84 73.88 73.45 73.29 73.08 73.94 75.35 75.50 75.64 75.38 74.77 74.72 74.73 74.51 74.66 73.80 72.50 72.40 73.04 73.40 73.80 73.49 73.61 73.34 73.25 73.44 72.98 72.79 71.89 71.62 71.49 71.38 71.32 71.60 72.10 72.22 72.10 72.08 72.29 70.57 71.76
70.71 72.62 74.55 74.32 73.43 73.08 73.27 73.53 74.40 75.03 74.99 75.18 74.92 74.58 74.36 74.50 74.49 73.48 72.55 72.19 72.99 73.47 73.83 73.82 73.51 73.16 72.96 72.57 72.10 71.86 71.36 70.91 70.56 70.63 69.78 69.97 70.81 71.04 71.24 71.17 71.83 70.49 71.80
71.01 72.54 73.10 74.40 74.11 73.92 73.40 73.03 73.51 74.67 74.48 74.53 75.08 74.56 74.69 74.50 74.21 73.46 72.84 72.92 73.82 73.76 73.66 73.33 72.94 71.92 71.53 71.27 71.28 70.88 70.73 70.40 70.27 70.32 69.30 66.17 67.24 70.13 69.93 70.12 70.55 70.17 70.69
71.55 72.32 72.62 74.30 74.20 73.74 73.32 72.48 72.74 73.41 74.55 74.28 74.14 75.04 75.13 74.45 73.93 73.73 72.61 73.42 74.00 73.65 72.94 72.60 71.60 71.02 70.69 70.73 70.59 69.93 68.82 67.57 68.13 66.86 62.60 64.02 65.99 68.70 68.90 69.68 69.70 69.30 69.84
71.01 71.89 72.54 74.08 74.15 73.65 72.97 72.53 72.23 72.22 73.63 74.54 74.32 74.35 74.39 74.34 73.70 73.16 73.24 74.02 73.41 72.90 72.31 71.34 70.85 70.49 70.24 70.16 69.79 68.30 67.30 68.35 68.34 65.51 62.88 63.09 63.95 67.98 68.48 67.87 67.40 67.70 67.79
70.07 71.04 72.96 73.77 74.01 73.54 73.47 73.05 72.67 72.12 72.50 73.83 74.11 73.64 74.40 73.86 73.92 73.61 73.27 73.22 72.55 71.82 71.43 70.41 70.10 69.79 69.09 68.82 68.41 67.51 67.22 67.85 66.24 63.60 63.99 65.78 64.19 68.43 68.25 67.92 67.57 67.45 67.37
69.42 71.25 72.23 73.88 73.85 73.54 73.29 73.00 72.90 72.65 72.87 73.11 73.51 73.42 73.85 73.66 73.41 73.33 72.63 72.43 71.87 72.00 71.69 70.93 70.62 69.49 68.20 67.88 67.60 67.43 66.69 66.75 63.39 63.52 63.75 63.73 64.52 68.28 68.11 67.90 67.66 67.41 67.08
70.14 71.15 71.83 72.67 73.05 73.23 72.82 72.62 72.47 72.49 73.48 73.32 73.35 73.15 73.22 73.39 73.00 72.63 72.27 71.13 69.73 70.29 70.85 70.99 70.63 69.04 67.68 67.45 67.07 66.39 66.01 65.21 64.68 64.16 64.09 64.30 68.37 68.13 67.95 67.49 67.13 67.12 66.87
69.14 69.00 70.16 71.20 71.64 72.02 72.18 71.75 71.43 71.92 72.16 73.02 72.44 72.28 72.03 71.93 72.09 71.72 70.95 69.43 70.55 71.31 72.07 71.87 70.40 68.99 67.80 66.87 66.03 65.93 65.12 64.63 60.50 64.17 65.31 64.65 68.75 68.20 67.65 67.17 66.94 66.90 66.68
66.12 66.04 66.30 67.58 67.23 67.41 70.22 70.66 70.17 70.07 70.37 71.34 71.39 70.68 69.80 69.83 70.10 69.08 69.79 69.38 69.05 72.05 71.78 71.47 70.69 69.18 68.20 67.37 66.58 66.19 65.14 63.96 58.99 63.76 64.56 65.20 68.37 67.82 67.24 66.74 66.55 66.44 66.03
64.85 64.83 66.10 65.35 64.39 65.25 66.89 68.94 69.15 69.18 69.33 69.34 69.47 68.29 67.76 67.32 67.77 67.00 67.72 68.27 69.95 70.46 70.63 70.77 70.58 70.01 68.01 66.32 65.99 65.31 64.57 59.32 58.09 61.98 63.95 68.32 68.41 67.66 67.03 66.40 65.93 65.55 65.38
63.31 63.99 64.25 64.26 64.02 64.50 65.55 64.13 65.83 67.38 67.34 67.65 67.74 67.60 67.29 66.52 66.53 66.66 66.67 67.13 69.05 69.45 69.29 69.45 68.91 67.96 64.93 60.52 60.42 62.85 58.65 57.18 56.71 59.45 62.29 68.57 68.60 68.48 68.05 66.94 66.08 65.46 64.80
64.21 63.87 64.09 64.32 64.40 63.77 64.04 63.73 64.43 65.65 64.88 66.49 66.73 67.64 67.23 66.24 65.52 65.72 67.27 66.87 66.93 66.10 66.26 66.93 66.12 63.52 60.35 58.91 58.64 57.48 57.51 56.95 55.89 57.80 62.12 66.73 67.47 67.65 66.99 67.95 68.05 66.97 66.02
61.60 63.15 63.23 63.76 62.85 62.90 64.42 64.11 63.73 63.88 64.43 63.13 66.55 67.64 66.70 65.39 64.77 64.86 65.62 66.44 66.15 64.30 63.45 63.10 62.20 60.98 59.53 59.02 58.68 58.10 57.32 56.74 56.04 57.02 59.59 64.30 66.41 66.31 67.02 67.01 67.20 67.86 68.09
61.09 61.99 61.92 61.59 61.25 62.50 63.04 63.38 62.76 64.28 65.40 64.18 65.66 66.80 67.08 65.35 64.78 64.91 64.07 63.98 63.82 63.61 62.29 61.84 61.10 59.91 59.03 58.72 57.68 57.92 56.87 57.09 56.84 57.58 57.19 62.43 64.56 66.60 66.64 67.07 67.42 67.47 67.77
61.35 60.67 61.39 61.58 62.32 62.75 62.52 62.74 62.43 63.87 65.67 63.62 64.73 65.54 65.92 64.94 64.73 64.46 63.86 63.70 63.38 62.95 62.23 61.60 60.30 59.41 58.56 57.82 57.78 57.97 58.41 57.61 57.84 58.99 56.84 58.93 63.62 65.04 67.01 66.98 67.52 67.89 68.05
60.90 61.52 61.64 61.38 62.21 63.18 62.97 62.49 62.55 63.34 65.98 64.83 62.72 63.74 64.24 64.32 63.93 63.34 63.07 62.90 62.98 62.13 60.65 60.00 59.48 58.44 57.63 57.70 57.01 58.97 59.90 59.96 60.99 61.06 60.72 58.38 60.74 62.90 65.47 67.43 68.08 68.17 68.32
59.87 60.81 62.60 63.30 61.51 61.67 62.14 62.91 62.05 63.31 65.10 65.21 65.17 62.12 63.25 64.72 63.48 61.63 61.08 61.80 61.56 60.62 59.41 58.23 57.75 56.71 56.59 57.59 58.45 59.76 59.87 60.16 60.69 61.20 61.76 61.88 60.63 62.23 63.18 66.12 68.00 68.64 68.48
59.02 60.43 61.61 61.74 61.24 60.92 61.65 62.24 63.85 62.84 64.45 64.91 64.96 64.55 61.52 63.21 63.23 61.62 59.88 60.15 60.36 60.26 59.95 59.68 57.72 57.40 56.55 58.68 59.97 60.26 59.69 60.40 61.09 62.29 61.14 62.29 61.61 62.16 61.61 63.04 64.39 65.11 66.18
59.00 59.25 59.66 61.49 61.63 61.72 62.52 62.69 63.12 63.32 64.14 64.93 64.73 64.82 63.70 62.85 62.62 61.67 60.98 60.65 61.35 61.10 60.25 60.29 58.70 58.72 58.19 58.84 60.60 59.90 58.98 60.72 60.58 61.27 60.83 61.50 61.92 61.68 59.87 60.80 60.95 61.08 62.44
58.06 58.97 59.54 60.01 61.07 61.59 61.19 60.76 61.13 61.18 62.58 63.31 64.58 64.84 64.58 64.41 63.72 63.20 63.19 62.66 62.62 62.59 61.47 60.91 60.20 59.47 59.19 59.74 58.28 57.89 58.33 60.37 60.49 61.76 60.54 59.54 60.14 58.86 58.98 59.61 59.22 59.77 61.39
57.61 58.40 59.56 60.01 60.51 61.45 61.77 61.30 61.37 61.31 61.93 63.08 64.24 64.51 65.15 64.67 65.12 65.45 64.16 62.93 61.56 62.58 61.78 60.98 60.24 59.44 59.62 59.67 57.68 57.79 55.24 57.60 59.10 60.01 60.49 58.96 57.49 57.46 58.76 58.24 58.04 58.34 59.40
54.62 56.58 58.77 60.32 60.43 61.58 61.70 61.53 61.52 61.60 61.28 61.27 62.23 63.51 64.48 65.57 65.04 65.29 64.39 64.31 62.90 62.82 62.25 61.78 62.52 60.65 58.69 59.59 59.41 59.10 55.28 54.04 55.98 56.76 57.18 56.82 55.69 55.01 55.96 56.94 57.36 57.22 57.30
53.37 55.05 57.93 59.45 61.12 61.61 61.56 60.82 60.06 59.05 58.43 60.50 61.64 62.17 62.71 64.06 64.27 63.72 63.74 63.20 63.21 62.99 62.35 62.17 62.15 61.58 61.26 59.43 61.21 61.85 60.04 58.63 54.80 52.62 56.22 56.28 54.82 53.69 53.51 54.53 55.25 55.53 55.86
55.49 54.08 57.54 58.87 59.71 61.06 61.54 61.29 60.12 59.36 60.04 60.88 60.94 61.09 61.09 61.61 62.87 63.98 63.67 62.95 62.38 62.57 62.37 61.94 61.24 60.95 60.77 59.86 59.68 58.63 57.93 57.45 56.84 54.53 52.39 51.79 54.30 54.11 53.12 53.25 53.42 54.39 54.20
53.35 52.00 54.32 55.25 56.29 59.14 59.54 60.27 60.46 59.95 59.72 59.71 59.77 59.76 59.89 60.61 61.15 61.22 62.28 62.35 62.61 62.36 61.62 61.30 61.19 61.35 61.63 60.80 59.33 58.35 56.82 55.79 55.53 53.95 52.63 53.37 53.11 54.80 54.32 53.44 52.15 52.45 52.67

GFSSE_sfc_wetblb_096.txt.gz
Wetbulb
69.33 72.05 74.80 73.99 73.82 74.53 75.16 75.47 75.52 75.43 75.38 74.72 74.68 74.67 74.63 74.64 73.90 72.40 72.39 72.86 73.22 73.07 71.97 72.19 72.92 73.24 73.49 73.14 72.16 71.50 71.46 71.49 71.36 71.23 71.24 71.84 71.96 71.73 72.27 71.90 71.66 70.18 71.82
70.51 72.44 74.47 74.10 73.60 73.78 74.68 75.61 75.54 75.34 75.29 75.22 74.46 74.36 73.77 74.76 73.98 72.61 72.52 73.12 73.39 73.41 73.52 73.41 73.40 73.57 73.18 72.81 71.35 70.80 70.77 70.58 70.26 69.97 69.85 70.10 70.81 71.18 71.32 71.05 71.61 70.86 71.98
70.97 72.30 72.69 74.14 74.11 74.00 73.94 73.97 75.04 75.08 74.81 75.16 75.05 74.27 73.89 74.45 73.95 72.91 72.18 73.16 73.60 73.69 73.66 73.40 73.07 72.83 72.10 71.58 71.19 70.69 70.36 69.82 69.34 69.50 68.83 65.73 67.23 70.05 70.42 69.98 69.95 70.66 70.87
71.39 72.04 72.10 74.13 74.10 73.57 73.14 72.91 74.19 74.72 74.79 74.72 74.94 75.00 74.76 74.31 73.80 73.11 72.74 73.41 73.61 73.47 73.11 72.88 71.85 71.14 71.18 70.85 70.39 69.79 68.95 68.54 68.82 66.93 63.15 64.29 65.80 69.12 69.53 69.14 69.22 69.41 69.21
70.84 71.63 72.36 74.10 74.02 73.65 72.79 72.37 72.42 73.93 74.51 74.49 74.49 74.55 74.21 74.04 73.59 73.05 73.49 73.92 73.44 72.93 72.54 72.15 70.27 70.98 70.65 70.41 69.37 68.13 68.58 68.48 67.36 64.68 62.74 63.14 64.35 67.35 67.94 67.57 67.30 67.57 67.71
70.46 71.06 73.07 73.84 73.90 73.59 73.21 72.61 71.78 72.45 73.73 74.30 74.29 73.83 74.03 73.59 73.51 73.71 73.76 73.26 72.54 71.98 71.80 70.92 70.08 70.26 70.00 69.43 68.23 68.29 68.34 67.88 66.03 63.39 63.63 65.55 64.06 68.18 68.16 67.80 67.61 67.56 67.28
69.50 70.97 72.41 74.03 73.87 73.63 73.41 73.17 72.80 72.18 72.71 73.39 73.86 73.39 73.39 73.71 73.18 73.45 73.10 72.66 71.87 71.59 71.00 70.11 70.02 69.40 68.63 68.47 68.11 67.82 67.37 67.27 63.11 62.64 62.69 63.01 64.44 68.33 68.14 67.96 67.59 67.37 67.33
69.52 71.20 72.04 73.05 73.33 73.27 73.19 72.95 72.81 72.50 72.75 73.15 73.38 73.67 73.52 73.77 72.74 72.87 72.50 72.40 71.92 71.68 70.62 70.38 69.47 68.45 67.86 67.89 67.98 66.90 66.49 66.38 64.32 63.11 63.19 63.76 68.12 68.04 67.98 67.58 67.37 67.19 66.93
69.92 70.07 70.80 71.56 71.92 71.99 72.27 72.14 72.15 72.00 72.72 73.13 72.77 72.80 72.38 72.28 71.77 72.47 71.93 71.84 70.88 69.95 71.44 70.89 69.35 67.73 67.61 67.51 66.96 65.99 65.71 65.26 62.93 63.37 64.50 64.22 68.84 68.25 67.84 67.41 67.15 66.94 66.67
65.63 67.08 68.38 69.39 70.23 70.39 69.82 70.54 70.12 70.16 70.78 71.64 71.44 70.85 70.10 69.95 70.23 71.31 70.22 69.57 70.24 71.03 71.31 71.20 69.48 67.97 67.59 67.20 66.31 65.16 64.31 63.82 62.01 63.38 64.01 64.13 68.45 68.00 67.52 67.07 66.83 66.48 66.17
65.32 65.57 65.24 65.28 65.82 67.62 68.72 68.70 68.98 68.97 69.12 68.98 69.15 68.36 67.85 68.67 68.75 67.82 66.86 68.02 68.95 71.11 71.56 70.94 69.81 68.97 67.97 66.48 65.82 64.65 63.20 58.04 59.82 62.87 63.58 68.11 68.45 67.81 67.14 66.67 66.30 66.02 65.65
64.18 64.95 65.32 63.72 63.68 64.77 66.74 64.97 66.12 67.33 66.89 67.08 67.38 67.27 66.59 66.79 67.05 66.72 65.95 66.98 69.01 70.09 70.27 70.90 70.31 68.99 65.37 60.21 59.73 62.61 57.57 56.62 56.73 61.28 63.00 68.58 68.41 68.19 67.31 66.65 66.15 65.63 65.23
63.02 64.78 64.68 64.70 64.50 63.50 63.53 62.83 63.17 63.95 65.23 66.43 66.38 65.82 65.53 66.22 65.75 66.07 66.13 66.32 67.27 66.21 66.53 67.17 66.40 63.25 59.32 57.88 57.37 56.72 56.49 55.74 56.09 59.10 62.12 68.18 68.80 68.59 68.62 68.14 67.32 66.63 66.05
61.62 63.15 64.13 64.39 64.37 64.03 64.10 62.73 62.31 62.21 63.82 64.98 66.43 66.73 65.24 65.60 65.10 65.16 65.96 65.36 66.00 66.24 64.25 63.74 62.67 61.20 59.44 58.32 57.52 57.06 56.26 56.44 55.01 57.06 58.53 65.74 68.24 68.01 67.73 67.65 68.27 68.50 68.00
59.52 61.32 63.02 63.08 63.84 62.83 62.87 62.47 61.81 62.47 63.67 63.39 65.54 66.31 66.10 65.88 64.75 65.20 64.81 65.61 65.05 65.39 64.11 62.19 61.48 60.08 58.37 57.93 57.81 57.48 57.22 56.16 55.41 56.09 56.34 62.58 65.20 67.49 68.11 67.85 67.79 67.78 68.27
59.42 60.63 60.82 61.31 61.70 62.38 62.00 61.42 61.30 62.28 63.86 65.03 64.56 65.60 66.13 65.85 65.15 64.76 64.35 64.16 63.66 64.90 63.70 62.39 60.73 59.23 57.90 57.69 57.29 56.55 57.05 56.49 55.91 56.67 56.34 58.03 63.75 65.25 67.47 67.64 67.97 68.21 68.25
58.77 60.45 60.59 61.12 61.95 62.28 62.52 62.22 61.29 61.58 62.90 63.84 63.90 65.70 65.09 65.12 65.20 64.98 64.07 63.92 64.14 64.15 63.36 60.66 59.83 59.38 57.97 57.71 56.21 56.37 57.25 57.27 57.72 58.90 57.20 56.63 59.63 62.76 65.18 67.59 68.24 68.18 68.33
58.53 59.63 60.82 62.20 62.01 62.05 61.69 61.27 61.49 61.76 62.48 64.37 64.25 63.13 63.66 63.96 64.12 64.73 64.03 63.63 64.12 63.39 62.12 60.17 59.36 57.21 56.27 55.86 55.49 56.24 57.69 59.15 59.29 60.10 60.51 58.69 58.74 60.33 62.42 65.91 67.80 68.70 68.72
58.15 59.42 60.50 61.53 61.39 61.93 62.05 61.69 60.87 61.47 62.10 63.42 64.14 63.95 62.11 63.70 64.11 64.23 63.49 63.01 62.66 61.32 60.39 59.50 57.25 56.84 55.23 56.33 57.55 58.07 58.58 58.82 59.43 61.38 60.75 60.63 60.80 60.20 60.44 62.32 64.12 65.11 66.37
57.91 58.90 60.21 61.19 60.90 60.59 61.25 61.06 61.57 61.42 62.28 63.72 63.82 63.98 63.23 63.46 64.01 63.33 62.41 62.24 61.27 60.42 59.78 58.91 57.34 57.03 56.06 56.53 59.39 59.60 59.17 59.37 59.91 60.46 60.55 61.25 60.82 60.92 60.84 60.75 61.03 61.15 62.25
56.99 58.15 59.69 60.00 60.63 60.26 60.61 60.27 60.41 61.10 61.44 62.12 63.71 64.16 64.34 62.27 63.26 62.83 62.02 60.62 60.95 60.42 60.12 60.02 58.22 57.27 57.63 57.60 57.18 57.06 57.40 58.28 59.80 60.30 61.25 60.15 60.18 59.81 58.88 59.18 59.08 59.50 60.91
56.74 58.05 58.13 59.22 60.08 60.43 60.39 59.58 60.08 61.43 61.65 62.53 63.08 63.39 64.17 63.83 62.87 62.41 61.94 60.77 60.88 60.79 60.43 60.20 59.87 58.26 58.21 58.70 56.52 56.58 54.51 56.86 58.56 59.96 59.44 58.82 58.89 58.53 58.35 58.11 57.95 58.85 58.73
54.73 56.00 57.62 58.46 58.81 59.44 60.07 59.70 59.54 60.62 61.00 60.66 61.56 62.21 63.32 64.10 63.84 62.94 62.50 62.36 61.57 61.97 61.09 60.57 60.03 59.15 58.06 58.83 59.17 57.93 54.65 53.57 55.82 56.65 56.79 57.14 56.73 56.92 57.07 56.87 57.47 58.03 57.06
52.46 55.08 57.99 58.56 59.63 59.36 59.72 59.26 58.72 58.63 58.14 59.42 59.85 61.74 62.59 63.59 63.34 63.44 63.67 63.42 62.58 62.43 62.29 61.58 61.36 60.75 59.90 58.27 59.41 60.28 58.98 56.96 53.32 52.25 55.48 55.27 55.36 54.77 55.75 55.68 55.80 55.60 55.40
55.29 54.61 55.90 56.62 58.47 60.16 61.20 60.83 59.85 59.06 59.34 60.35 60.72 60.99 61.42 61.82 62.73 62.89 63.41 62.78 61.56 61.04 61.28 61.02 60.67 60.71 60.79 59.83 59.09 58.65 58.05 57.77 56.90 54.80 52.01 53.27 55.02 54.55 54.53 54.39 55.08 55.14 54.90
53.68 53.78 54.69 55.78 56.14 58.07 59.66 59.76 60.30 58.74 58.74 59.41 59.84 59.53 59.96 60.73 61.07 62.24 62.67 62.73 62.34 61.70 61.60 61.02 60.54 60.10 60.42 59.58 60.43 59.85 58.42 57.07 56.04 54.38 52.64 53.09 53.95 55.63 55.81 53.84 54.01 53.95 54.05

GFSSE_sfc_wetblb_099.txt.gz
Wetbulb
68.24 71.53 74.84 74.46 75.07 75.33 75.78 75.20 75.06 75.20 75.11 74.77 74.02 74.18 74.34 73.93 73.11 72.15 72.17 71.78 71.56 71.44 71.57 72.21 73.19 73.14 72.52 72.10 71.89 71.03 71.36 71.21 71.41 71.44 71.49 72.23 71.74 71.59 72.18 71.72 71.47 69.98 71.92
69.88 72.29 74.48 74.38 74.72 75.23 75.82 75.55 75.38 75.32 75.08 74.98 74.16 73.80 73.84 73.92 72.69 72.29 73.00 72.83 71.95 72.19 72.00 73.15 73.36 73.11 72.50 71.35 70.93 70.72 70.69 70.58 70.30 70.03 70.04 70.34 71.06 71.30 71.40 71.54 71.86 70.59 71.93
70.75 72.11 72.76 74.23 74.55 75.24 75.50 75.66 75.40 75.39 75.27 75.02 74.85 73.82 73.99 74.03 72.87 72.55 73.27 73.29 73.21 73.41 73.44 73.48 73.25 72.91 71.42 70.76 70.39 70.11 69.85 69.92 69.49 68.92 68.38 66.05 67.26 70.46 70.16 69.82 70.17 69.89 70.25
71.24 71.88 71.79 74.06 74.20 73.94 74.49 74.89 74.95 74.69 74.77 74.87 74.83 74.40 74.39 73.90 73.46 72.47 73.02 73.54 73.84 73.48 73.29 73.19 72.83 71.66 71.05 70.81 70.37 69.90 69.26 68.66 67.56 66.48 63.67 64.24 66.20 69.37 69.14 69.22 69.26 69.17 68.85
70.53 71.24 71.65 73.95 74.02 73.58 73.13 74.15 74.30 74.45 74.35 74.58 74.61 74.63 74.51 74.03 73.59 72.56 73.10 74.12 73.40 73.35 72.97 72.42 70.90 70.99 70.41 69.91 68.49 67.95 68.07 67.58 66.69 64.54 63.06 63.31 63.61 66.92 67.78 67.62 67.30 67.68 67.51
69.76 70.58 72.79 73.78 73.88 73.51 73.26 73.00 73.79 73.81 73.83 74.10 74.38 73.63 73.60 73.94 73.69 73.40 73.94 72.89 72.80 72.47 72.11 71.58 71.21 70.59 70.18 69.80 68.85 68.40 68.05 67.43 65.27 62.48 63.15 65.25 63.56 67.90 68.06 67.75 67.57 67.43 67.52
69.52 70.79 72.40 73.96 73.89 73.48 73.12 72.81 72.66 73.47 73.72 73.59 73.53 73.20 73.22 73.79 73.58 73.43 73.10 72.41 72.18 72.15 71.54 70.72 70.25 70.31 69.43 69.28 68.72 68.37 68.16 66.76 62.45 61.70 62.07 62.90 64.14 68.25 68.34 67.71 67.52 67.46 67.37
69.52 70.98 71.98 72.96 73.40 73.35 73.03 72.92 72.55 72.44 72.93 73.65 73.90 73.80 73.54 73.38 73.25 72.64 72.48 72.26 71.93 71.10 70.60 70.25 70.08 69.10 68.47 68.47 67.89 67.89 67.95 65.85 63.36 62.08 62.29 62.82 67.91 68.15 68.01 67.67 67.35 67.20 66.93
68.50 69.73 70.40 71.53 71.85 72.21 72.40 72.54 72.58 72.69 72.37 73.14 73.30 73.35 72.84 72.10 72.24 72.46 72.00 72.09 71.64 70.98 70.61 69.86 69.12 68.10 67.95 68.43 66.90 66.76 67.68 65.83 61.93 62.60 63.78 63.62 68.73 68.23 67.79 67.28 67.18 66.98 66.46
67.24 67.20 67.49 68.69 69.71 69.62 69.82 71.08 70.94 71.01 71.74 72.39 71.91 71.34 70.48 70.03 70.62 71.07 70.78 71.12 71.49 71.14 71.16 70.21 68.61 67.64 68.04 68.38 66.94 65.87 65.83 65.70 61.63 62.63 63.24 63.53 68.44 67.88 67.60 67.17 66.79 66.55 66.09
65.41 66.95 66.55 67.19 67.93 68.55 68.36 68.52 69.08 69.39 69.38 69.36 69.55 68.75 68.25 68.52 68.74 68.66 68.58 68.95 69.56 70.03 70.72 70.08 68.70 68.49 67.59 66.18 65.63 64.82 62.50 59.65 60.04 62.14 62.68 66.56 68.43 67.83 67.18 66.78 66.47 66.06 65.61
63.20 65.27 64.51 64.28 65.36 67.30 68.44 66.21 66.22 67.08 65.73 66.59 67.18 66.88 67.23 67.74 67.72 67.84 65.62 66.96 68.71 69.35 70.58 70.49 69.49 68.72 65.84 60.75 60.34 62.75 57.05 56.63 59.32 61.61 62.32 67.76 68.24 68.05 67.33 66.59 66.18 65.81 65.40
61.54 63.94 64.57 63.46 64.06 64.74 64.79 64.07 64.06 64.73 64.91 65.92 65.14 65.35 65.49 66.48 65.89 66.03 65.68 65.82 66.17 67.07 68.93 68.88 68.03 64.22 60.02 57.89 56.82 56.35 55.75 54.95 55.20 58.88 62.47 67.27 68.52 68.59 67.87 67.26 66.80 66.33 65.73
60.60 63.06 64.77 63.61 63.60 64.55 64.96 64.21 63.02 63.57 63.68 64.74 65.40 65.60 65.19 64.30 65.36 65.70 65.19 64.93 65.89 66.50 66.27 65.25 63.35 61.81 59.37 57.01 55.77 55.30 55.07 54.83 55.11 56.14 59.16 65.12 68.74 68.69 68.74 68.65 68.26 67.93 67.45
58.65 60.96 63.22 64.45 63.08 63.88 63.82 63.44 62.80 61.49 61.72 62.65 64.74 65.62 65.71 65.13 64.68 65.06 65.28 64.32 64.96 65.41 65.28 63.84 62.20 60.25 58.56 57.47 57.20 56.86 56.37 55.05 54.89 55.04 56.37 61.52 66.03 68.68 68.77 68.06 68.17 68.44 68.52
56.53 59.66 61.42 63.61 63.44 63.42 63.10 62.84 62.75 62.97 62.73 62.16 62.51 65.26 65.22 65.47 64.85 65.04 65.15 64.69 64.12 65.01 64.47 64.09 62.66 60.64 58.22 57.09 56.74 56.54 56.36 56.58 55.29 54.68 55.56 56.91 63.65 65.59 68.04 68.05 68.31 68.38 68.49
51.32 58.77 59.97 61.56 62.48 62.52 62.78 62.16 62.17 62.13 61.87 62.94 62.80 63.76 65.53 65.25 64.89 65.08 64.79 64.60 64.42 64.28 63.79 62.96 62.05 60.66 58.02 56.91 55.95 56.36 55.83 55.85 55.14 55.30 55.85 55.83 58.38 62.56 65.05 67.55 68.24 68.25 68.43
52.15 57.75 59.79 62.20 61.06 61.01 61.45 61.71 61.50 62.06 61.87 62.28 61.93 63.23 64.68 65.25 64.88 64.82 64.32 64.44 64.65 63.89 63.72 62.51 60.93 59.98 57.80 56.41 55.67 55.51 55.58 56.45 56.90 57.67 58.18 56.70 56.70 58.85 61.87 65.61 67.59 68.72 68.62
50.06 57.56 59.08 60.08 59.91 60.03 59.96 60.80 60.78 60.69 60.78 60.91 62.20 62.04 62.64 64.37 65.01 63.74 63.82 64.15 64.00 63.77 62.95 62.35 60.28 59.09 56.77 55.96 55.47 55.57 55.79 56.99 58.10 59.64 59.35 59.15 58.20 58.78 58.78 61.80 64.01 64.92 66.51
50.89 57.40 58.71 60.05 59.80 60.00 60.40 62.06 60.43 60.44 60.66 61.24 61.83 62.64 62.54 62.95 64.01 63.99 63.21 63.29 63.47 62.73 62.16 60.32 60.28 57.71 56.31 57.07 57.20 57.44 57.35 58.13 58.62 58.94 59.70 60.91 60.18 59.90 59.37 59.99 60.05 61.47 63.13
51.66 56.28 58.80 59.76 59.35 59.38 58.73 59.87 61.10 60.17 59.91 60.24 62.19 63.22 62.78 63.14 63.02 63.79 63.79 63.32 63.09 61.81 61.10 60.44 59.42 57.19 56.78 56.20 56.16 56.53 57.06 57.85 57.96 59.07 60.02 60.07 59.60 60.12 60.13 60.38 60.29 59.64 61.13
54.53 56.15 58.17 59.73 59.81 59.50 59.41 59.65 60.05 60.28 61.09 60.64 61.21 62.64 63.71 63.76 62.45 63.12 62.68 61.96 61.89 61.09 60.31 59.92 59.16 57.31 57.42 57.43 55.38 55.50 53.82 55.55 57.85 58.81 59.53 59.40 58.70 58.88 58.95 59.15 58.59 58.80 58.52
55.49 56.16 56.85 58.20 59.13 59.43 59.26 59.48 58.87 59.02 59.16 59.80 60.80 61.61 62.53 63.18 63.47 62.10 62.35 61.94 60.96 61.04 60.09 59.91 59.56 58.84 57.38 57.81 58.04 56.72 53.49 52.57 54.92 56.74 56.93 57.49 57.16 56.83 57.79 57.75 57.83 58.50 57.69
55.06 56.98 58.17 59.25 58.93 59.15 59.61 59.70 58.47 57.53 57.61 58.38 60.24 61.23 61.83 62.77 63.23 63.60 62.57 62.14 61.00 60.70 60.12 60.10 60.21 59.56 59.21 57.42 57.29 59.25 58.25 56.90 54.16 52.65 54.63 54.52 54.83 54.66 56.27 56.62 56.58 57.13 56.38
53.19 53.09 54.81 56.27 58.13 59.20 60.53 58.84 59.45 58.65 59.03 58.29 58.39 58.97 60.75 61.64 62.39 63.02 62.95 62.19 61.57 60.61 60.48 60.42 59.83 59.77 59.81 58.07 58.02 57.60 56.94 56.67 56.08 54.11 52.47 53.04 54.94 54.48 55.36 55.80 55.63 56.04 55.83
53.11 51.55 54.13 53.87 54.84 55.99 56.98 57.80 59.43 59.96 59.21 58.96 59.25 59.47 59.57 60.57 61.11 61.63 62.18 62.24 61.58 60.82 59.65 59.48 59.30 59.38 59.93 58.99 58.94 58.08 57.18 56.26 55.79 54.38 53.66 53.60 53.73 54.90 55.18 54.30 55.31 55.35 55.44

GFSSE_sfc_wetblb_102.txt.gz
Wetbulb
66.26 70.81 75.26 75.09 75.20 75.65 75.25 74.87 75.04 75.20 75.37 75.43 74.67 74.59 74.40 74.06 73.26 72.22 71.59 71.60 71.44 71.65 72.91 73.65 72.84 72.28 71.78 72.31 71.49 71.35 70.58 71.78 71.78 71.79 71.80 72.10 72.11 71.87 71.68 71.72 71.57 70.07 72.15
69.01 71.94 74.84 74.70 75.21 75.69 75.45 75.24 75.15 75.05 74.95 74.79 74.64 74.20 73.79 73.60 72.77 72.17 71.87 71.66 71.57 71.79 72.82 73.28 73.24 72.69 71.82 71.49 70.86 70.58 70.86 70.92 70.57 70.27 70.13 70.41 71.27 71.25 71.21 71.24 71.74 70.44 71.45
70.56 72.16 72.85 74.44 75.14 75.38 75.08 75.01 74.95 75.07 74.95 74.60 73.74 73.04 73.38 73.33 72.55 72.76 72.74 72.06 71.94 72.20 73.34 73.49 73.10 71.96 70.83 70.42 70.23 70.15 70.40 70.18 69.64 69.25 68.72 66.28 67.75 70.24 69.70 70.01 70.32 69.50 69.25
71.11 71.66 71.66 74.46 74.93 75.26 75.05 74.65 74.91 74.42 74.95 74.82 74.47 73.94 74.64 73.47 72.81 73.05 73.29 73.10 73.97 73.60 73.19 73.34 72.46 71.25 70.47 70.18 69.58 69.39 69.76 68.72 67.78 66.75 63.79 64.39 66.43 69.14 69.23 69.02 68.99 68.64 68.71
70.21 70.89 71.70 74.08 74.38 74.78 74.43 74.83 74.59 74.27 74.06 74.33 74.48 73.98 74.04 73.74 73.15 72.88 73.26 74.14 73.42 73.10 73.15 73.09 71.91 71.08 70.62 70.21 69.77 69.38 68.51 67.45 67.03 64.78 62.82 62.81 63.36 66.99 68.11 67.90 67.56 67.59 67.54
69.36 69.90 72.51 73.78 73.98 73.96 74.39 74.61 74.57 74.10 74.06 74.27 73.98 74.02 73.59 73.78 73.54 72.98 73.92 73.60 73.20 72.61 72.81 72.14 70.98 70.39 70.24 69.67 68.74 68.79 68.23 67.18 65.00 61.82 62.59 64.98 63.18 67.97 68.14 67.79 67.63 67.72 67.73
68.58 70.07 71.85 73.93 73.94 73.60 73.42 73.93 74.30 74.26 74.06 73.72 73.66 73.46 73.16 73.51 73.47 73.65 73.05 73.10 72.73 72.40 72.16 71.25 70.80 70.17 69.05 69.85 68.66 68.51 67.90 66.43 61.94 61.37 61.84 62.57 63.90 68.37 68.29 67.93 67.67 67.64 67.38
68.63 70.42 71.56 72.85 73.48 73.31 73.07 72.87 73.00 73.84 74.00 73.92 73.61 73.76 73.51 73.32 73.52 73.08 72.52 72.91 72.43 72.04 71.55 70.55 70.40 69.78 68.72 68.96 68.56 68.65 67.58 65.31 62.65 61.33 61.67 62.34 67.93 68.31 68.20 67.77 67.46 67.16 66.93
68.51 69.83 70.15 71.29 71.84 72.16 72.23 72.29 72.25 72.38 72.93 73.50 73.46 73.20 72.97 72.05 72.31 72.74 72.30 72.37 72.03 71.90 71.47 70.71 70.19 69.12 68.54 68.53 67.80 69.43 67.35 65.39 60.90 61.68 62.98 62.97 68.69 68.19 67.97 67.55 67.18 66.73 66.33
67.06 67.57 68.33 69.09 69.82 69.92 69.98 71.00 71.32 71.48 71.61 72.23 72.28 71.50 70.62 70.22 70.55 71.62 71.06 71.00 71.47 71.41 71.10 70.62 69.35 68.38 68.81 68.56 67.11 68.33 66.79 65.41 60.72 61.71 62.50 63.03 68.36 68.08 67.68 67.33 66.93 66.64 66.10
65.03 65.55 66.08 67.07 68.07 68.50 68.97 69.22 69.93 69.71 70.37 70.63 70.09 69.18 68.57 68.48 69.02 68.76 68.75 69.58 70.57 70.96 70.85 69.82 68.82 68.62 68.34 67.16 66.20 65.68 65.84 61.66 60.27 61.42 61.87 65.57 68.21 67.89 67.44 67.14 66.74 66.29 65.89
61.16 64.35 65.82 65.38 66.26 67.21 68.64 67.21 66.12 67.03 66.19 66.44 67.12 67.07 67.18 67.54 67.57 68.27 67.14 68.13 69.79 69.96 70.09 69.93 68.86 68.45 65.84 61.21 61.27 63.03 57.68 58.81 58.74 60.87 61.43 66.09 68.45 68.25 67.59 66.98 66.62 66.25 65.82
57.07 62.11 64.72 64.65 64.72 66.70 66.14 64.58 64.60 64.80 64.57 65.36 65.51 65.72 65.91 66.81 65.57 65.39 65.23 67.26 66.39 65.78 67.65 68.82 67.12 63.63 59.84 58.41 57.65 57.51 56.19 55.80 56.24 60.44 62.47 65.94 68.50 68.45 67.98 67.30 66.85 66.52 66.03
51.47 59.12 63.17 64.45 64.25 65.22 65.72 64.74 63.88 64.23 63.77 63.92 64.79 65.11 64.69 64.20 63.92 64.37 64.80 64.95 65.45 67.04 67.47 67.24 65.22 63.36 59.43 56.94 55.55 55.17 55.10 54.59 54.67 55.43 59.24 64.48 67.97 68.73 68.99 68.14 67.71 67.41 67.17
48.48 55.90 62.36 63.77 64.24 64.33 64.65 64.48 64.12 63.71 63.78 63.98 64.33 64.62 64.17 63.73 63.44 64.94 65.25 64.99 65.33 65.74 65.28 65.37 64.61 61.87 59.61 56.95 55.67 54.88 54.48 54.05 54.12 54.62 55.82 60.65 65.27 68.34 69.11 68.95 69.01 68.92 68.67
47.78 51.92 59.13 63.40 63.64 63.58 63.94 63.91 63.62 63.34 63.15 62.97 63.98 64.46 64.35 64.53 63.16 63.30 63.69 64.77 64.67 65.51 64.56 64.45 63.72 61.58 59.79 57.23 56.24 56.01 55.92 56.01 54.82 54.35 54.40 56.33 61.93 65.86 68.07 68.52 68.52 68.76 68.80
46.17 49.63 55.50 61.90 63.59 62.96 61.93 62.69 63.27 63.27 63.47 62.72 62.31 62.97 64.35 63.95 63.69 63.52 63.55 63.42 63.36 64.98 64.68 63.64 63.08 61.04 59.15 57.81 55.92 55.80 55.87 55.22 55.49 54.95 54.62 54.82 56.79 62.43 64.68 66.85 68.33 68.61 68.75
45.20 46.59 55.29 61.18 62.40 62.35 61.68 61.56 61.66 62.25 61.58 61.87 62.93 63.05 63.85 64.39 63.59 63.13 63.35 63.53 64.09 64.23 64.38 63.30 62.65 61.30 59.16 58.30 56.28 55.39 55.44 55.25 55.09 54.95 54.97 55.47 55.57 57.30 60.98 64.81 66.95 68.79 69.03
47.22 46.63 53.58 58.81 59.79 61.13 61.08 60.92 60.99 60.81 61.11 60.99 61.57 61.65 62.71 64.36 64.27 63.82 63.69 63.40 64.29 64.16 64.03 63.45 61.94 61.49 58.94 58.54 56.20 55.88 55.38 55.13 55.64 57.66 56.80 57.32 56.37 56.89 57.52 60.73 63.19 64.61 66.59
46.53 48.48 52.78 58.69 59.06 59.31 59.90 59.57 59.95 59.39 59.69 59.65 59.95 61.39 61.54 63.54 64.53 63.89 62.39 62.57 62.73 61.15 62.17 62.74 62.40 60.06 59.91 59.50 57.99 57.14 55.60 56.08 56.36 56.86 57.87 59.41 59.30 57.70 57.66 58.05 58.93 60.74 63.18
46.04 48.72 53.58 57.59 58.59 58.85 59.52 59.45 59.68 58.97 58.52 58.50 60.11 61.25 61.90 61.83 62.39 63.55 63.25 61.60 62.54 60.56 60.40 61.51 61.57 60.38 57.51 57.16 55.26 55.41 56.40 56.78 57.22 57.99 58.90 59.10 59.46 59.92 59.55 58.66 58.94 59.60 60.67
44.67 49.10 53.94 57.81 59.06 58.94 58.73 58.35 58.89 58.79 59.39 59.33 59.99 61.42 62.33 62.23 61.93 61.93 63.09 62.95 62.68 61.85 61.41 61.09 60.99 59.59 59.42 57.89 55.08 54.79 52.68 54.91 57.03 58.44 58.86 59.38 59.37 59.50 59.22 59.42 59.31 59.30 59.81
51.11 53.44 55.36 57.61 58.81 59.18 58.62 58.96 58.46 58.50 59.31 59.20 60.13 60.17 60.63 62.02 62.81 62.56 62.81 62.74 62.13 62.03 61.16 61.05 60.67 60.05 57.81 57.18 58.01 55.17 52.14 51.20 53.51 56.60 57.29 58.73 58.38 57.62 58.22 58.72 58.66 58.52 58.41
54.21 56.70 57.11 57.16 58.47 58.42 59.94 59.73 58.21 56.99 57.29 57.57 58.37 59.37 60.34 61.44 62.24 62.76 62.26 62.31 62.08 61.44 61.19 60.93 60.54 59.88 58.60 56.24 55.98 57.17 56.67 55.91 53.49 52.45 54.86 54.91 56.11 56.28 56.94 57.06 57.63 57.81 57.26
53.73 54.06 56.01 58.34 57.81 59.11 59.78 59.52 58.94 58.36 58.69 58.98 58.12 57.53 58.35 59.66 60.88 61.64 62.49 62.27 61.64 61.32 60.91 60.91 60.08 59.35 59.41 58.75 57.04 56.31 55.82 55.83 55.65 53.75 52.29 53.11 54.13 54.05 55.20 55.95 56.70 57.60 57.31
52.54 52.69 52.06 54.18 54.37 54.68 57.64 57.12 56.55 56.67 57.76 58.34 58.35 58.45 59.27 59.18 59.99 60.94 61.72 62.12 62.24 61.95 61.31 60.78 60.43 59.80 59.43 59.24 58.21 57.57 56.86 56.46 55.73 54.04 52.33 52.55 52.83 53.80 54.16 55.55 56.13 56.61 56.58

GFSSE_sfc_wetblb_105.txt.gz
Wetbulb
69.97 73.86 75.68 75.53 75.28 75.10 75.02 74.87 75.41 75.63 75.46 75.46 75.04 74.88 74.43 74.02 73.19 72.41 72.01 71.69 71.84 73.47 73.75 72.78 72.01 72.52 72.70 72.35 71.85 71.30 72.10 71.88 72.16 72.13 72.06 72.60 72.30 71.84 71.98 71.94 71.95 71.53 71.98
71.13 73.87 75.36 75.54 75.81 75.85 75.53 75.46 75.29 75.36 75.30 75.13 75.00 74.91 74.30 73.60 73.05 72.03 72.06 71.75 71.91 73.31 73.95 73.07 72.52 72.16 71.89 71.87 71.10 71.29 71.64 71.41 71.01 70.74 70.76 70.88 71.27 71.62 71.56 71.45 71.99 71.34 71.11
71.39 73.76 73.93 75.40 75.90 75.65 75.23 75.24 75.05 75.12 74.99 75.05 75.14 74.74 74.08 73.33 72.87 72.12 71.90 71.91 72.03 73.06 73.65 73.62 72.89 72.18 71.51 70.42 70.49 70.81 70.91 70.52 69.99 69.66 69.38 70.55 70.31 70.19 69.81 70.59 70.62 69.87 69.44
72.25 73.54 73.06 74.84 75.72 75.46 75.16 74.84 74.82 74.95 74.89 74.54 73.71 73.55 73.89 73.12 72.92 72.61 72.34 72.15 73.08 73.97 73.51 73.56 72.70 71.41 70.42 70.21 70.17 70.34 70.19 69.15 68.34 67.58 68.82 68.83 68.65 69.33 69.25 69.10 68.89 68.88 68.55
72.37 72.90 72.96 74.72 75.30 75.17 75.13 74.95 74.75 74.82 74.77 74.65 74.31 73.54 74.12 73.44 73.10 73.28 73.30 73.57 73.68 73.18 72.93 72.94 72.06 71.36 70.70 69.98 69.52 69.56 68.75 67.97 67.30 67.27 68.24 68.47 68.38 68.27 68.68 68.32 67.87 67.86 67.69
71.88 72.58 73.07 74.06 74.57 74.98 74.78 74.91 74.85 74.35 74.20 74.45 74.26 74.14 73.31 73.67 73.10 73.84 73.99 73.31 72.35 72.79 72.83 72.13 71.89 71.31 71.18 70.69 69.63 69.01 67.86 67.56 66.27 67.19 67.11 67.30 67.47 67.97 68.21 67.94 68.01 67.99 67.80
71.07 72.05 72.78 73.96 73.79 74.26 74.45 74.23 74.34 74.26 73.91 74.18 74.01 73.57 73.29 73.35 73.37 73.63 73.55 73.10 72.76 72.59 72.78 71.61 70.88 70.15 69.44 69.75 69.25 69.06 67.82 66.39 66.35 66.88 67.20 67.78 68.40 68.53 68.38 68.25 67.99 67.93 67.64
70.47 71.69 72.51 72.76 73.48 73.22 73.43 73.53 73.74 73.61 73.41 73.63 73.91 73.71 73.24 73.17 73.15 72.94 73.03 73.21 72.98 72.66 72.10 71.26 70.46 69.53 69.46 69.30 69.05 68.57 67.40 65.65 65.24 66.56 67.22 67.94 69.09 68.42 68.22 67.89 67.63 67.40 67.25
69.49 70.97 71.85 72.38 72.24 72.23 72.36 72.36 72.52 73.05 73.02 73.22 73.05 73.42 73.15 72.71 72.67 72.49 72.44 72.51 72.52 72.14 72.05 71.61 70.33 69.51 69.25 69.21 69.85 68.80 67.02 65.41 65.83 66.30 66.54 67.87 68.76 68.47 68.04 67.65 67.23 67.00 66.85
66.31 68.41 70.62 71.80 72.11 71.89 71.88 71.19 71.21 71.42 71.65 72.29 72.37 72.00 71.00 70.55 70.98 71.64 71.29 71.38 71.48 71.33 71.39 71.22 70.72 69.52 69.74 69.11 69.31 68.74 66.61 65.12 65.51 66.14 66.94 67.51 68.07 68.44 68.06 67.61 67.20 66.76 66.45
60.66 65.40 67.50 69.37 70.79 71.03 71.15 70.49 70.43 70.40 70.42 70.38 70.81 69.52 69.76 72.17 71.75 70.90 69.27 69.50 70.51 70.80 71.21 70.99 70.36 69.52 69.07 67.55 67.72 67.80 66.00 66.50 65.44 65.74 66.56 66.23 68.51 68.38 67.99 67.46 67.16 66.77 66.19
54.15 58.44 65.22 66.85 68.97 69.95 70.26 70.70 70.68 69.98 70.86 71.26 71.31 71.19 71.47 71.53 71.25 70.51 68.21 68.10 70.12 70.17 70.29 70.46 69.68 68.83 67.78 67.15 65.45 65.87 66.95 66.40 65.67 65.44 65.79 65.94 68.66 68.63 68.08 67.49 67.17 66.72 66.26
52.52 56.79 60.56 65.97 66.00 68.49 69.67 69.46 68.43 67.74 68.65 68.96 69.25 69.95 70.32 70.37 70.46 70.30 70.11 70.09 70.16 67.82 69.78 69.39 68.36 67.20 65.88 65.68 64.34 64.00 63.71 65.26 65.35 65.02 65.28 65.46 68.25 68.82 68.30 67.60 67.21 66.83 66.52
51.12 53.32 58.64 65.48 64.93 65.62 68.41 67.82 67.50 66.22 67.26 67.88 68.56 68.82 69.17 69.40 69.34 69.43 69.21 69.90 69.19 69.28 68.56 69.15 68.18 66.79 63.96 63.77 63.23 63.01 62.29 62.44 62.64 63.39 64.95 64.49 66.99 68.80 68.79 68.32 67.82 67.47 67.13
49.24 51.74 54.20 62.04 64.96 64.63 65.45 66.45 65.73 65.46 65.61 66.28 67.71 68.00 68.35 68.60 67.76 68.03 67.55 68.26 68.89 68.62 68.61 68.35 67.70 66.14 64.66 62.65 61.37 60.67 60.92 61.28 61.39 61.41 61.82 60.67 64.21 67.61 68.93 69.33 68.98 68.60 68.33
49.11 50.88 53.03 56.56 64.25 64.64 64.47 64.70 66.33 64.80 64.77 64.63 65.81 67.18 67.52 67.64 66.26 67.41 67.30 66.63 67.09 67.47 67.62 67.80 67.34 66.68 64.58 63.62 61.75 60.61 60.29 60.42 60.57 60.73 61.04 61.45 61.89 64.86 67.47 69.11 69.15 69.16 69.37
48.22 49.96 50.39 52.99 60.28 64.38 63.37 64.40 65.99 64.58 64.40 63.65 63.95 65.84 66.59 67.21 66.85 66.25 66.47 66.74 67.02 67.42 66.62 66.01 66.87 65.49 65.13 63.77 62.42 61.53 60.86 61.22 61.04 61.16 61.26 60.87 61.12 60.97 64.77 66.90 68.30 68.68 69.04
47.30 47.89 50.04 52.24 59.69 63.70 63.75 63.79 64.88 64.01 64.47 64.09 63.49 64.07 64.10 66.17 66.72 66.61 66.29 66.44 66.96 66.88 67.08 66.66 63.94 64.00 62.65 63.63 62.25 60.91 61.07 60.83 61.01 60.93 60.97 61.05 60.63 60.55 61.81 64.77 66.58 68.31 69.08
47.01 48.44 49.56 52.82 57.37 61.79 63.12 63.28 64.23 63.99 63.84 63.62 64.00 63.77 64.38 64.83 65.77 65.93 66.16 66.42 66.70 66.40 66.19 65.99 64.38 63.40 61.91 60.93 61.91 61.64 62.21 61.35 60.72 60.57 60.89 60.64 60.82 60.64 61.11 61.18 63.07 64.28 66.54
47.15 49.18 50.12 51.30 56.30 61.27 61.71 62.19 62.34 62.73 62.98 63.32 63.36 63.15 63.73 64.30 65.19 65.61 65.05 65.04 65.81 64.99 64.61 65.12 63.94 62.06 61.61 61.55 60.58 59.77 61.22 61.72 61.44 61.48 61.45 61.21 61.74 61.64 61.40 61.27 61.59 62.04 62.74
47.25 47.51 49.32 52.21 56.71 60.47 60.76 60.86 60.71 59.83 60.84 61.91 62.75 62.49 63.09 63.29 63.94 64.95 64.58 63.94 64.64 63.60 63.13 63.52 63.88 62.27 60.69 60.05 59.23 58.75 59.10 60.05 60.26 61.11 61.20 61.17 61.52 62.60 62.85 61.92 61.57 62.31 62.80
46.40 47.51 48.61 52.19 58.67 60.64 61.48 60.69 61.47 61.55 62.09 62.04 62.37 62.69 62.91 63.24 63.58 64.01 64.37 63.52 63.35 63.72 62.60 62.12 62.28 61.15 60.80 59.06 57.87 56.32 55.13 57.69 59.06 60.47 61.28 60.56 60.98 62.42 62.57 62.67 62.36 62.22 63.20
46.65 49.14 50.24 53.04 58.13 59.57 61.09 60.96 60.60 61.14 61.35 61.24 61.53 61.99 62.47 63.16 63.86 63.64 63.79 64.49 64.38 63.66 63.41 61.81 61.24 60.04 58.81 59.34 59.36 57.02 54.08 53.93 57.21 59.68 60.39 61.22 61.38 61.81 61.63 62.31 61.97 62.52 62.68
51.76 53.94 56.18 57.31 59.54 60.17 60.43 60.54 59.19 58.44 57.53 59.73 61.07 61.91 62.31 62.86 62.95 63.88 63.91 63.81 64.01 63.84 63.04 61.77 61.54 60.73 59.79 57.17 57.17 58.84 59.15 58.03 55.56 54.78 57.90 58.17 60.07 60.58 61.41 61.73 62.00 61.42 61.98
52.92 54.37 57.78 58.99 59.38 59.86 59.99 59.78 59.26 57.98 58.98 59.83 60.11 60.10 60.55 61.42 62.52 63.02 63.60 63.49 63.54 63.68 63.37 62.86 61.12 60.43 60.53 59.33 58.03 57.01 57.27 57.89 59.43 57.58 56.15 57.52 57.03 58.44 60.47 60.79 60.04 60.94 61.54
49.75 52.31 53.16 54.60 54.58 55.89 56.49 56.25 56.18 56.12 56.27 58.07 59.23 59.07 59.96 60.83 61.32 61.66 62.24 63.01 63.38 63.10 62.61 62.19 61.81 61.35 60.48 59.94 59.51 58.33 57.15 56.22 57.18 57.48 55.89 56.75 56.48 58.64 57.76 58.81 59.55 60.25 61.37

GFSSE_sfc_wetblb_108.txt.gz
Wetbulb
72.40 74.04 75.40 75.77 75.05 74.69 74.72 75.10 75.66 75.78 75.60 75.79 75.38 74.87 74.55 73.94 73.52 72.58 71.88 71.31 72.25 72.60 71.26 71.32 71.29 72.51 72.83 72.41 72.07 72.24 72.22 72.12 72.43 72.22 72.51 72.50 72.06 71.86 71.93 71.62 71.62 71.24 71.19
73.22 74.45 75.38 75.77 75.51 75.17 75.59 75.63 75.96 75.62 75.40 75.58 75.27 74.89 74.41 73.63 73.22 72.21 72.07 71.50 72.28 73.18 73.08 72.19 72.63 72.96 72.74 71.53 71.61 71.91 71.62 71.63 71.39 71.14 71.26 71.13 71.47 72.04 71.72 71.43 72.43 70.95 69.96
72.40 74.00 73.89 75.52 75.80 75.60 75.74 75.67 75.44 75.61 75.49 75.44 75.34 74.31 74.06 73.67 72.98 72.35 72.07 71.69 72.83 74.15 73.35 72.84 72.71 72.26 71.89 70.78 71.15 71.18 71.06 70.73 70.35 70.03 70.60 71.01 70.91 70.44 69.86 69.81 70.47 69.71 69.22
72.78 74.19 73.61 75.37 75.40 75.43 75.31 75.20 75.16 75.27 75.35 75.21 75.22 75.28 74.30 73.65 73.05 72.28 72.14 71.98 72.60 73.89 73.82 73.98 73.37 72.54 71.25 70.55 70.78 70.76 70.49 69.56 68.75 68.86 69.48 69.02 68.87 69.25 69.19 69.18 69.17 68.74 68.36
73.02 74.22 73.62 74.66 74.45 75.09 75.04 75.01 74.88 75.03 74.97 74.64 74.40 74.24 74.69 73.46 73.12 72.59 72.40 72.91 73.29 72.79 73.11 73.28 72.39 71.66 70.94 70.35 70.33 70.32 69.37 68.41 67.54 67.55 67.79 68.20 68.39 68.69 68.63 68.12 67.94 67.84 67.82
72.76 73.72 73.52 74.30 74.38 74.09 73.97 74.42 74.54 74.70 74.78 74.58 74.30 74.03 74.24 73.42 73.34 73.37 73.73 73.29 73.43 72.53 72.64 71.82 71.00 70.78 70.91 70.22 69.96 68.89 68.35 67.67 66.91 66.78 66.93 66.82 67.43 67.75 67.80 68.00 68.26 68.01 67.76
72.06 73.24 73.28 73.50 73.46 73.99 74.15 73.84 73.68 73.87 73.39 73.63 73.71 73.54 73.27 73.26 73.66 73.39 72.93 72.83 72.39 72.52 72.25 71.61 70.93 70.54 70.41 70.58 69.52 68.67 67.80 67.15 66.68 66.68 67.06 67.75 68.75 68.39 68.41 68.25 68.03 67.75 67.35
69.78 72.61 72.79 72.30 72.99 72.72 73.14 73.20 73.32 73.72 73.40 73.57 73.42 73.54 73.44 72.98 73.29 72.83 73.06 73.42 72.65 72.56 72.27 71.79 71.05 70.21 69.44 69.32 69.78 68.95 67.42 66.07 65.35 66.53 67.24 68.32 68.82 68.45 68.23 67.89 67.61 67.50 67.22
69.25 71.96 72.22 72.16 72.15 71.85 72.60 72.65 73.09 73.43 73.27 73.38 72.94 73.01 72.96 72.58 72.62 72.86 72.96 73.22 72.86 72.89 71.87 71.90 70.88 69.51 69.67 69.46 69.78 68.87 67.01 65.92 66.24 66.61 66.83 68.26 68.78 68.58 68.21 67.71 67.26 67.03 66.85
62.99 68.22 70.77 71.91 71.46 71.65 71.60 71.42 71.36 71.74 72.19 72.79 72.32 71.78 70.93 71.15 71.55 71.87 71.55 71.97 72.10 72.05 72.02 71.41 71.08 69.93 69.89 69.88 70.03 68.85 66.71 65.30 66.13 66.69 67.06 68.10 68.26 68.53 68.22 67.70 67.20 66.82 66.58
58.13 58.90 63.44 69.58 71.53 71.37 71.20 70.62 70.55 70.36 70.36 70.45 70.95 70.13 70.46 72.08 71.85 71.60 69.90 69.87 70.57 71.00 71.03 71.18 71.02 70.26 69.53 68.26 68.87 67.95 65.90 67.40 66.24 66.03 66.80 67.65 68.60 68.75 68.21 67.72 67.35 66.80 66.36
56.26 57.18 58.58 61.99 68.96 71.16 71.00 71.30 70.93 70.65 70.73 69.95 69.95 70.54 71.42 71.25 71.22 70.50 68.67 68.13 70.07 70.11 70.02 70.78 70.72 69.73 68.36 67.67 67.12 67.38 67.47 67.82 67.15 66.77 66.64 67.35 68.71 68.91 68.47 67.79 67.48 67.08 66.58
54.90 56.46 57.73 58.46 67.00 67.31 71.06 71.30 71.12 70.60 70.42 70.19 70.60 71.12 70.69 70.35 71.11 71.05 70.91 70.84 71.72 67.95 70.46 70.18 70.17 68.82 67.00 67.17 66.51 67.14 67.73 67.67 67.23 66.85 66.82 66.02 67.90 69.19 68.76 68.13 67.70 67.35 66.92
52.26 54.38 56.91 57.99 60.51 66.44 67.48 70.11 71.17 70.09 69.47 68.98 69.80 70.26 69.61 69.44 70.26 70.01 69.81 70.76 70.97 70.53 70.23 69.99 69.61 67.76 67.26 66.91 66.23 65.94 65.98 66.19 66.53 66.49 66.26 65.02 66.57 68.68 69.14 68.74 68.07 67.71 67.40
50.73 52.69 54.72 56.85 57.98 63.41 66.09 67.32 69.66 69.91 67.92 67.15 68.58 70.03 69.89 69.56 69.86 70.00 70.45 70.69 71.11 71.15 70.22 70.14 68.86 68.08 66.15 63.93 64.66 65.13 65.20 65.08 65.01 65.02 65.13 63.21 64.84 66.76 68.71 69.26 68.90 68.47 68.27
51.17 52.08 53.38 54.80 56.60 60.31 64.57 66.04 66.85 69.12 68.54 65.87 65.49 67.06 68.94 69.93 70.18 70.08 70.01 69.78 70.02 70.62 69.26 68.41 68.32 67.50 65.19 64.02 62.95 63.44 63.89 64.04 64.22 64.34 64.35 64.44 62.18 64.20 66.54 68.63 69.71 69.65 69.36
51.64 51.94 52.20 52.92 54.85 57.38 62.52 65.87 65.72 67.89 68.78 67.41 65.22 65.50 66.35 68.57 69.32 69.07 69.34 69.10 69.47 70.14 67.88 67.62 68.03 66.87 67.04 64.56 62.92 61.94 62.43 62.60 62.58 62.80 63.59 63.72 63.87 61.01 64.03 66.63 67.68 69.39 69.35
51.31 51.70 52.27 52.19 52.80 56.48 60.51 65.46 65.38 67.91 66.69 65.42 65.50 64.57 65.43 66.39 67.60 68.15 67.95 68.09 68.90 68.83 68.61 68.20 67.56 66.08 66.23 65.19 64.21 63.66 61.81 63.04 62.76 63.03 63.41 63.80 64.16 63.72 62.92 64.08 66.63 68.05 69.16
51.25 51.45 52.12 52.84 52.67 54.87 59.59 64.76 64.99 66.06 66.42 65.85 66.47 64.66 64.32 64.64 65.43 66.81 67.08 67.28 67.72 67.28 67.36 67.58 67.48 66.84 64.59 64.95 63.02 62.95 63.56 63.13 63.15 62.71 63.10 63.80 64.20 63.96 63.95 62.80 63.05 64.40 66.28
50.95 51.20 51.55 51.99 52.97 54.69 59.44 63.47 64.31 64.01 64.92 66.65 66.31 65.91 64.61 64.58 65.26 65.90 66.35 66.51 66.42 65.52 66.11 66.82 65.97 66.03 65.60 65.50 62.80 62.65 64.03 64.80 64.35 63.43 62.76 63.09 64.20 64.25 64.24 64.00 64.12 62.89 62.32
50.37 50.62 51.35 51.73 52.82 53.53 57.85 59.63 60.67 60.52 63.29 63.63 64.55 65.44 64.60 63.26 64.09 64.95 65.31 65.41 64.55 63.86 64.66 64.77 64.32 64.03 63.11 64.79 60.93 60.26 60.64 61.74 61.84 62.63 63.31 62.37 63.13 63.74 64.23 64.41 64.36 64.75 64.48
50.10 50.68 51.41 52.07 52.77 53.56 58.95 60.32 62.49 62.72 62.52 64.23 65.82 65.34 65.34 64.36 65.18 64.60 64.48 64.84 65.14 63.85 63.44 63.21 63.46 62.56 62.54 64.38 61.32 60.43 57.01 58.34 59.73 60.75 61.36 60.91 61.91 62.56 62.77 63.83 64.58 64.72 64.95
53.16 51.95 51.71 52.47 53.40 53.82 59.03 61.56 62.03 63.36 63.94 63.25 63.44 64.13 64.42 64.60 64.69 64.96 64.60 64.88 64.64 64.43 62.88 63.77 64.44 63.62 61.67 62.74 62.53 59.67 55.34 54.15 57.41 59.74 59.77 61.05 61.89 62.53 62.78 63.24 63.72 64.73 64.99
53.09 55.47 56.48 55.31 56.15 55.62 60.16 61.22 60.01 61.36 60.61 61.36 62.80 63.93 64.40 64.65 64.53 64.68 64.48 64.01 64.24 64.23 64.02 64.76 65.02 63.88 62.53 59.64 61.13 60.49 59.11 58.95 55.07 54.13 59.02 61.29 62.37 62.27 62.96 63.77 63.76 64.22 64.79
50.37 53.57 57.58 57.81 58.12 59.28 59.21 58.99 60.41 59.44 60.29 60.63 60.47 59.98 62.10 63.20 63.78 64.02 64.24 63.77 63.83 64.06 64.07 64.34 64.11 63.73 63.09 59.57 58.31 58.13 58.24 57.48 57.20 55.69 53.27 57.07 59.44 61.07 62.19 62.90 63.94 63.39 63.89
49.16 50.72 53.68 54.75 55.04 56.55 56.08 56.13 56.72 56.66 57.51 57.33 56.99 58.56 59.82 60.85 62.60 62.39 62.63 62.82 63.43 63.78 63.70 64.16 63.44 62.81 62.73 60.80 60.02 59.05 57.47 55.51 55.07 54.45 54.05 56.38 56.75 61.17 62.58 62.53 62.70 62.86 63.25

GFSSE_sfc_wetblb_111.txt.gz
Wetbulb
71.85 73.70 75.39 75.38 74.50 74.31 74.71 75.11 75.78 75.98 75.47 75.56 74.69 74.79 74.21 73.72 73.53 72.52 71.69 70.74 71.85 71.84 70.95 70.82 71.23 72.10 72.61 72.18 72.26 72.30 71.96 72.62 72.58 72.23 72.78 72.48 72.19 72.02 71.46 70.97 72.42 70.16 70.58
72.15 73.61 75.24 75.71 74.84 74.33 74.48 75.21 75.85 75.77 75.52 75.49 75.22 74.77 74.18 73.53 73.25 71.97 71.50 71.07 71.32 71.56 71.34 70.99 72.34 72.91 72.61 72.29 72.01 71.86 72.03 71.72 71.49 71.93 71.41 71.35 71.61 71.84 71.68 71.37 72.01 69.60 69.87
71.85 73.34 72.88 75.39 75.73 75.52 75.40 75.21 75.62 75.61 75.19 75.37 75.18 74.39 74.47 73.58 73.03 72.08 71.78 71.35 72.24 72.59 72.83 72.08 73.12 72.95 72.12 71.36 71.72 71.35 71.27 71.00 70.50 70.49 71.58 70.74 70.08 70.54 70.03 70.06 70.36 69.56 69.35
72.56 73.70 73.12 75.08 75.04 74.85 75.20 75.04 75.43 75.44 75.20 75.02 74.82 74.37 74.13 73.80 73.06 72.28 72.02 71.49 72.48 73.34 73.79 73.52 73.35 72.93 72.14 70.94 70.88 70.59 70.58 69.98 69.05 69.67 69.47 68.34 68.56 69.40 69.59 69.39 68.95 68.48 68.36
72.79 73.00 73.49 74.69 74.68 74.42 74.30 74.22 73.84 74.50 75.09 74.86 74.94 74.69 73.95 73.51 73.29 72.48 72.08 72.20 73.10 73.19 72.74 72.96 72.92 71.98 71.06 70.62 70.42 70.18 69.64 68.54 67.95 67.75 67.42 67.89 68.25 68.64 68.52 68.09 68.00 68.18 68.35
71.59 72.68 73.16 74.42 74.43 74.25 74.30 74.59 74.39 74.16 74.25 73.81 73.75 74.03 74.33 73.50 73.31 72.90 73.23 73.05 73.20 72.65 72.71 72.87 71.66 70.91 71.03 70.53 70.15 69.77 68.43 67.65 67.49 66.82 66.95 66.58 67.52 67.95 67.77 68.29 68.12 68.03 67.85
70.47 72.02 73.18 73.93 73.35 74.04 73.82 73.81 73.58 73.32 73.51 73.69 73.57 73.39 73.46 73.17 73.34 73.25 73.02 73.60 73.41 72.26 72.38 71.90 71.04 70.57 70.12 70.07 69.43 68.30 67.78 67.74 66.55 66.03 66.35 67.22 68.07 68.37 68.27 68.15 67.97 67.68 67.54
69.36 71.41 72.33 72.58 73.10 73.31 73.50 73.46 73.30 73.45 73.31 73.24 73.24 72.88 72.38 73.06 72.92 72.79 73.01 73.18 72.96 72.15 72.08 71.76 71.09 70.47 70.04 69.98 69.68 68.93 67.77 66.71 65.34 65.94 66.72 67.95 68.71 68.64 68.44 67.85 67.52 67.26 67.02
66.97 70.18 71.72 71.78 71.86 71.91 72.53 72.62 72.74 73.06 73.38 73.54 73.31 73.26 72.77 72.45 72.57 72.58 72.46 72.84 72.86 72.90 72.59 72.12 71.50 70.88 69.92 69.65 70.41 69.48 67.66 66.11 65.01 65.82 66.31 67.86 69.11 68.78 68.45 67.87 67.33 67.03 66.69
61.60 62.23 66.02 70.99 71.28 70.87 71.55 71.39 71.64 72.28 72.40 72.80 72.51 71.99 71.35 71.16 71.32 71.74 71.39 71.44 72.54 72.48 72.27 71.81 71.10 70.57 70.21 70.26 70.07 68.96 66.98 65.82 65.19 66.02 66.23 67.82 69.24 68.71 68.32 67.85 67.42 67.01 66.65
60.48 60.45 60.80 62.64 70.12 70.73 70.53 70.60 70.49 70.36 70.45 70.54 70.72 69.91 70.37 71.25 70.80 70.80 69.79 69.67 71.25 71.78 71.47 71.11 70.76 70.45 69.94 69.09 69.71 68.27 66.05 65.83 65.24 65.32 66.04 68.47 68.76 68.68 68.26 67.75 67.40 66.93 66.58
56.72 58.93 59.46 59.90 62.20 69.08 70.49 70.78 70.93 70.11 69.71 69.17 68.83 69.44 70.44 69.84 69.70 69.33 68.20 68.27 70.40 70.95 70.35 70.82 70.56 69.99 68.57 67.47 67.11 67.62 66.20 66.46 66.53 65.62 65.97 68.59 68.93 69.11 68.57 67.90 67.56 67.18 66.61
54.65 56.24 58.23 59.18 60.22 65.18 68.62 70.36 70.45 70.63 71.12 70.49 69.97 69.46 69.22 69.15 69.51 69.70 70.16 70.26 70.81 67.84 70.85 69.79 69.59 69.05 67.48 66.11 66.20 66.36 66.72 66.33 66.47 66.41 66.84 67.99 68.35 69.32 69.04 68.36 67.79 67.50 67.08
52.39 54.62 57.26 57.87 59.31 60.71 67.27 68.21 69.93 69.69 70.48 69.67 69.29 69.21 69.35 69.18 69.72 68.42 69.01 70.26 70.51 70.55 70.23 70.82 70.01 69.07 68.14 66.47 65.72 65.41 65.85 66.51 66.38 66.32 66.21 65.89 67.51 68.57 69.33 69.15 68.44 67.95 67.63
51.83 53.77 54.59 56.58 58.56 59.72 61.66 67.25 68.86 69.28 69.89 69.95 69.21 69.02 68.97 68.89 69.21 68.95 69.18 70.15 70.03 70.81 70.32 70.11 69.94 68.36 67.74 66.59 65.81 65.21 64.61 64.96 65.04 65.35 65.37 63.96 65.85 67.20 68.36 69.37 69.31 68.75 68.31
53.20 53.52 54.42 54.13 55.96 58.44 59.62 63.39 67.27 68.58 69.21 69.22 68.35 67.81 67.82 67.66 67.93 68.92 69.76 70.27 70.29 70.98 70.74 69.76 69.06 69.22 67.39 66.07 65.20 64.22 63.69 64.44 64.51 64.32 64.64 64.53 64.70 65.97 66.68 67.92 69.26 69.40 69.19
51.93 52.82 53.45 54.38 53.97 54.77 58.00 59.99 64.67 67.51 68.28 68.20 67.79 66.73 66.62 65.56 66.35 67.24 68.17 69.30 69.64 70.57 69.98 70.22 69.24 68.83 67.39 65.99 63.48 61.49 61.74 62.92 63.45 63.12 63.62 64.09 63.62 62.57 64.97 66.63 67.41 68.63 69.59
52.70 52.36 52.79 53.20 54.03 53.41 53.78 58.24 61.93 66.30 67.43 68.76 68.19 67.72 66.28 66.20 66.22 66.17 66.60 67.90 68.47 68.59 68.68 68.20 67.19 65.57 66.29 65.06 64.07 62.10 60.08 60.22 61.57 61.85 62.57 62.84 63.36 63.55 62.43 64.63 66.58 67.44 68.40
52.35 52.57 52.67 53.33 53.30 53.93 53.59 55.18 59.88 65.97 66.61 67.96 67.71 65.52 65.37 65.42 65.55 65.16 64.52 65.24 66.58 67.05 67.13 67.11 67.43 67.16 65.79 66.08 65.69 65.19 64.08 62.72 61.55 61.17 60.70 62.45 63.26 63.62 64.00 63.20 63.20 64.45 66.30
52.65 52.41 52.46 52.78 52.93 53.47 54.31 55.82 59.76 64.46 66.22 66.77 66.16 65.43 65.12 64.73 64.52 64.85 64.96 64.47 64.35 65.43 66.06 66.04 65.96 66.46 65.53 64.84 63.99 64.09 65.41 64.62 63.14 62.99 61.76 61.80 62.52 63.69 64.06 63.85 63.45 62.20 62.70
55.02 52.36 52.00 51.96 52.45 53.47 53.84 53.86 58.49 60.91 62.56 64.86 66.66 66.00 65.62 65.60 65.44 65.39 64.38 64.25 64.86 64.34 64.07 64.85 64.44 63.86 63.84 64.70 63.18 62.61 63.61 64.11 63.47 62.71 62.84 62.67 61.98 61.75 63.82 63.82 63.60 63.71 63.38
53.23 55.22 53.38 52.13 52.57 53.25 54.46 55.04 59.48 60.47 61.50 62.74 64.14 65.01 65.57 65.37 65.04 64.91 64.10 63.88 64.97 64.50 63.84 63.67 63.35 62.53 62.95 63.50 60.47 59.74 57.20 59.10 60.48 62.09 62.83 62.89 61.42 61.08 62.25 62.89 62.19 62.94 63.05
50.74 52.57 53.87 55.03 52.95 53.59 54.58 56.50 60.00 61.73 61.72 61.74 63.01 64.39 64.86 65.01 65.36 65.24 64.77 64.47 63.80 64.49 63.55 63.60 62.96 61.94 60.76 62.80 62.48 60.48 56.20 54.37 58.23 61.65 61.00 61.48 61.35 60.90 61.05 61.35 61.72 62.19 63.29
49.28 52.07 54.29 56.06 56.01 55.17 56.39 55.11 58.36 58.85 59.89 62.50 62.57 63.02 64.16 64.07 63.85 63.88 64.88 64.56 64.05 63.93 63.16 63.30 64.16 63.52 62.71 60.88 62.22 62.68 62.19 60.11 55.20 54.93 59.37 60.52 61.28 60.37 60.67 61.38 62.14 62.55 63.10
48.23 50.09 52.31 56.06 56.46 56.84 56.93 58.13 58.99 58.40 59.26 59.53 60.89 61.28 61.99 62.25 63.11 62.70 63.38 63.69 63.60 63.66 63.24 63.36 63.14 63.41 63.42 62.06 61.21 60.75 60.63 60.52 58.85 55.19 53.46 56.59 60.57 61.02 60.76 61.37 62.62 62.95 63.17
46.75 48.69 50.13 52.10 53.05 55.99 56.38 56.11 55.31 54.92 53.68 53.89 55.66 57.60 57.06 56.32 55.53 55.51 56.85 58.63 61.87 61.87 61.76 62.18 62.68 62.38 62.44 62.33 61.88 61.02 59.03 56.81 55.92 55.10 53.61 54.18 54.57 57.87 59.78 60.64 61.02 62.10 63.28

GFSSE_sfc_wetblb_114.txt.gz
Wetbulb
69.46 72.50 75.67 75.58 74.54 74.54 74.90 74.99 75.59 75.86 75.74 75.41 74.26 74.12 74.03 73.74 73.28 72.26 71.35 71.41 71.73 71.80 70.65 70.93 71.46 72.32 72.14 72.17 72.47 72.14 72.80 72.63 72.18 72.48 72.42 72.52 72.46 71.73 71.76 71.57 71.79 69.32 70.41
71.16 72.67 75.25 75.97 74.87 74.53 74.96 75.52 75.45 75.85 75.62 75.30 75.20 74.93 73.84 73.43 73.26 71.79 70.98 70.93 71.87 71.33 70.38 70.74 71.51 72.31 72.82 72.11 72.44 72.29 71.93 71.82 72.00 71.90 71.28 70.90 71.29 71.77 71.65 71.29 71.24 68.96 69.77
70.72 73.16 73.41 75.67 75.43 75.09 75.12 75.49 74.66 75.05 75.18 74.96 74.20 74.54 74.19 73.97 73.03 71.87 71.29 70.85 71.23 71.81 71.74 71.08 72.66 73.03 72.28 71.74 71.76 70.73 71.27 71.04 71.24 71.63 71.28 68.48 68.51 70.71 70.56 70.21 70.17 69.41 69.15
71.61 73.44 72.05 75.17 75.08 75.05 75.15 75.09 75.17 74.90 75.04 74.57 73.95 73.82 73.97 73.60 73.26 72.30 71.83 71.15 72.20 72.79 73.38 73.37 73.12 73.13 71.70 71.34 70.81 70.21 70.36 69.67 70.10 69.87 68.42 68.35 68.02 69.84 69.80 69.13 68.54 68.47 68.63
70.24 72.13 73.29 74.43 74.59 74.77 74.46 74.38 74.31 74.84 74.50 74.57 74.16 74.14 74.00 73.30 73.44 72.54 72.17 72.30 72.80 73.13 72.98 73.18 73.38 72.25 71.41 71.42 70.26 69.80 69.33 68.29 68.67 67.42 64.18 64.54 65.25 68.45 68.36 68.10 68.35 68.64 68.34
69.84 71.54 71.83 73.55 74.37 74.37 74.26 74.26 74.10 74.07 74.25 74.18 74.05 74.17 73.51 73.44 73.31 72.93 73.14 72.80 72.72 72.99 72.71 72.92 72.29 71.34 71.47 71.34 70.26 69.69 68.86 68.00 68.07 63.46 63.00 66.01 65.14 68.37 68.73 68.68 68.22 68.02 68.04
68.83 70.83 72.24 73.43 73.49 73.28 73.72 73.68 73.95 73.90 73.82 73.79 73.70 73.68 73.48 73.41 72.82 72.84 73.43 73.16 72.97 73.12 72.26 72.24 71.71 70.92 70.55 70.72 70.14 69.67 68.41 67.80 64.70 62.04 61.39 64.22 65.37 68.65 68.60 68.45 68.15 67.95 67.86
65.69 69.70 71.63 72.25 73.30 73.27 73.37 73.38 73.37 73.44 73.44 73.68 73.46 73.42 73.49 73.18 72.90 72.46 72.39 72.74 73.36 73.07 71.86 72.26 71.55 70.69 70.27 70.18 69.51 68.72 68.49 66.55 64.05 61.91 62.91 65.15 68.87 68.55 68.52 68.15 67.81 67.53 67.48
60.99 61.62 65.88 70.75 71.23 71.55 72.20 72.56 72.81 72.96 73.11 73.12 73.45 73.17 72.78 72.41 72.60 72.47 72.81 72.54 72.47 72.99 71.93 72.30 71.53 71.10 70.25 70.29 70.59 69.80 67.92 66.02 61.93 61.77 64.43 65.75 69.33 68.81 68.26 67.69 67.47 67.38 67.07
59.02 59.24 59.44 61.10 69.61 70.19 70.40 71.12 71.45 71.71 72.03 72.26 72.29 71.70 70.96 70.56 70.96 71.89 71.53 71.36 72.15 72.37 72.38 71.81 71.33 71.07 70.91 70.34 70.38 69.16 67.19 65.38 61.40 61.69 62.40 65.87 69.77 69.13 68.61 67.80 67.23 66.96 66.74
57.24 57.90 57.42 58.10 59.01 66.07 69.38 70.34 70.38 70.42 70.63 70.65 70.62 69.55 69.38 69.62 69.29 69.41 69.20 69.38 70.84 71.82 72.08 71.86 71.35 70.56 69.74 68.95 69.21 68.17 66.22 62.54 60.17 60.78 62.21 68.85 69.57 69.19 68.71 68.09 67.70 67.13 66.78
51.25 54.16 55.94 56.76 57.26 58.18 67.89 68.58 69.32 69.67 67.90 67.82 68.33 68.55 69.23 68.55 68.41 68.55 67.95 67.93 70.24 70.73 70.78 71.27 70.66 69.82 68.68 66.53 66.72 67.31 63.88 62.75 62.68 60.97 64.03 69.21 69.53 69.19 68.89 68.31 67.98 67.57 67.11
49.01 51.43 53.63 54.86 56.28 56.61 59.48 66.48 68.42 69.01 68.95 68.55 67.41 66.39 66.07 67.09 66.62 66.14 66.70 67.77 68.36 67.42 69.08 69.22 68.50 68.03 66.12 64.42 64.25 65.71 64.66 62.97 62.81 61.86 65.54 68.68 69.33 69.16 69.24 68.71 68.10 67.87 67.52
48.27 49.82 51.67 52.94 53.61 55.72 56.45 64.47 66.08 67.56 68.54 67.74 67.48 67.35 67.02 65.47 66.34 66.69 66.22 68.09 67.81 67.86 67.89 67.65 67.52 67.10 66.12 64.69 62.07 63.48 64.04 63.42 62.39 61.82 64.20 66.70 68.86 68.88 69.42 69.39 68.62 68.14 67.89
48.96 50.28 51.01 51.79 51.67 54.01 55.43 57.40 64.78 66.50 67.34 68.35 67.53 66.70 66.74 66.71 65.19 65.80 65.12 66.58 68.17 67.91 67.68 67.53 67.31 67.35 66.29 65.21 64.35 61.86 60.83 62.16 61.87 61.51 62.06 64.28 66.88 68.67 68.99 69.57 69.62 69.00 68.47
48.80 48.97 50.19 51.49 51.49 52.43 52.75 54.40 58.82 65.43 66.92 66.83 66.89 66.39 66.07 65.89 65.33 65.75 66.48 66.82 67.16 67.87 67.73 67.37 67.04 66.86 65.81 65.81 63.98 63.73 61.89 61.14 60.15 60.28 60.32 62.47 64.98 66.61 68.28 68.50 69.41 69.93 69.52
48.86 49.78 49.37 49.64 50.53 50.41 50.11 51.45 53.72 61.05 66.13 66.20 65.38 64.64 64.44 64.59 65.59 64.97 66.06 66.53 67.10 67.59 67.60 67.02 66.63 66.67 65.59 64.78 62.28 62.04 61.60 61.38 59.25 60.33 59.63 60.54 63.06 63.75 65.96 67.36 67.90 68.73 69.66
50.09 48.07 50.02 52.00 50.46 49.62 49.10 49.06 51.54 54.50 63.67 65.41 66.28 64.81 63.89 64.63 64.30 64.14 65.70 64.78 66.57 66.39 66.56 66.46 66.04 65.19 65.34 64.39 63.89 62.66 62.20 60.61 58.95 59.23 59.85 59.71 60.26 61.64 63.33 66.03 67.29 68.13 68.63
52.07 50.44 48.68 49.70 49.79 49.73 49.98 49.82 49.05 50.88 61.75 64.32 65.50 65.19 63.95 63.52 63.84 63.52 64.03 63.29 63.60 63.48 64.57 65.10 64.83 64.69 63.21 63.36 63.81 63.90 62.59 60.58 59.03 59.56 57.50 57.75 58.41 59.52 60.90 61.90 63.66 64.76 66.64
51.15 51.64 51.99 49.75 49.52 49.68 49.48 49.62 49.70 51.66 60.49 63.08 64.55 63.37 62.79 63.10 63.54 62.62 62.50 62.75 62.92 62.30 62.08 63.72 63.49 63.45 63.34 63.12 63.58 63.35 62.63 62.50 60.05 59.51 59.94 60.37 59.03 60.54 59.99 60.64 60.92 61.28 63.15
50.02 50.30 51.03 51.96 50.95 49.18 47.99 47.63 47.44 48.87 58.81 60.76 62.27 63.93 63.01 63.58 63.46 62.45 62.82 63.07 61.71 61.46 61.32 62.99 62.76 61.97 62.20 63.30 61.10 61.11 62.31 63.47 62.86 61.63 61.07 61.33 60.96 60.74 60.78 61.68 61.42 59.93 60.85
48.48 49.08 49.72 51.32 52.35 52.24 49.04 49.46 49.63 53.25 57.36 58.70 61.02 62.79 63.00 63.40 64.04 63.22 62.84 61.75 61.83 62.18 61.63 61.95 61.75 61.29 61.74 62.44 59.29 59.26 56.65 58.97 61.90 62.32 62.33 61.77 60.92 60.19 58.65 59.46 60.97 60.94 61.46
46.40 47.29 49.38 50.99 52.75 54.51 50.38 50.26 51.09 53.99 56.54 57.17 59.14 60.83 62.08 63.04 63.20 63.46 62.03 61.72 61.80 61.59 61.19 61.02 61.68 61.56 59.92 60.53 61.53 59.01 55.65 53.96 55.93 58.78 60.37 61.13 60.90 60.88 61.09 60.60 60.19 59.51 60.84
45.87 47.81 49.73 51.17 53.97 55.09 52.71 50.31 49.61 51.66 52.82 55.20 57.19 60.23 61.81 63.16 62.99 63.03 63.18 62.17 61.19 60.83 60.37 60.36 62.06 61.47 60.43 59.22 60.85 61.77 60.45 58.87 53.89 51.60 55.19 58.07 59.90 59.73 59.96 60.30 60.38 60.21 60.49
45.67 46.86 49.10 50.37 51.92 52.05 54.29 52.65 52.05 50.94 52.00 54.61 54.30 56.45 58.42 57.85 58.57 59.10 59.65 61.22 61.15 60.32 59.56 59.82 61.22 60.14 60.90 59.69 59.04 58.41 59.15 59.35 57.79 55.53 53.63 53.79 55.40 58.29 58.40 59.03 59.40 59.50 60.60
44.76 45.61 47.78 47.98 48.91 50.82 51.57 51.57 50.90 51.93 51.91 52.05 51.58 52.40 53.74 53.48 53.83 54.71 56.42 56.71 56.93 56.40 56.52 58.02 59.56 59.74 59.64 59.83 59.75 58.91 58.31 56.75 56.48 56.14 55.17 55.15 54.78 57.05 58.39 58.56 59.57 59.84 60.46

GFSSE_sfc_wetblb_117.txt.gz
Wetbulb
67.83 71.23 75.34 75.36 75.01 75.05 74.91 75.15 75.45 74.96 75.16 75.03 73.76 73.91 73.92 73.55 72.95 72.36 71.18 71.50 71.83 71.55 70.64 71.13 71.93 72.34 71.75 72.07 72.31 72.77 72.30 71.85 72.22 72.34 72.50 72.47 71.61 72.08 71.93 71.07 70.50 68.57 70.92
70.19 72.43 74.95 75.49 74.89 74.79 74.94 75.25 75.15 75.36 75.18 74.99 74.74 74.35 73.92 73.68 72.85 71.62 70.55 71.57 71.58 71.18 70.46 71.20 71.81 72.51 72.17 72.56 72.44 71.92 71.91 72.05 71.68 71.90 71.08 70.84 71.31 71.75 71.31 70.49 70.51 68.41 69.47
70.34 72.57 73.69 75.42 75.24 75.05 75.21 75.16 74.75 74.96 74.75 74.31 74.15 73.92 73.81 73.64 72.81 71.54 70.71 70.63 71.67 71.20 70.82 71.03 72.18 72.62 72.22 72.02 71.73 71.13 71.14 71.34 71.08 70.87 70.16 67.77 68.82 71.02 70.57 69.86 69.67 69.03 68.91
70.73 72.45 72.63 75.03 74.87 75.21 75.22 75.20 74.75 74.71 74.54 74.56 74.33 73.90 73.52 73.03 73.21 72.17 71.43 70.75 71.36 71.80 72.57 72.53 72.96 73.10 71.62 71.48 70.75 70.48 70.14 69.87 70.00 69.88 67.48 67.71 68.24 70.13 69.44 68.69 68.59 68.61 68.45
69.65 71.66 72.26 73.94 73.99 73.95 73.73 74.53 74.88 74.75 74.59 74.48 74.29 73.95 73.71 73.25 73.05 72.67 72.19 71.90 72.42 72.87 73.13 73.11 72.65 72.16 71.55 71.38 70.27 69.87 69.21 68.45 69.02 66.64 63.39 64.62 65.49 67.82 68.24 68.54 68.75 68.67 68.13
69.17 70.41 72.31 73.19 73.71 73.70 73.71 74.07 74.09 73.98 73.52 73.84 74.04 73.78 73.77 72.94 72.82 72.96 73.04 72.74 72.19 72.54 72.80 73.29 72.26 71.57 71.73 71.42 70.69 69.56 69.12 68.47 68.13 61.70 63.28 66.71 65.05 68.55 69.27 68.56 67.98 68.09 68.06
65.51 69.69 71.87 73.31 73.75 73.66 72.88 73.32 73.45 73.53 73.57 73.39 73.55 73.52 73.40 73.02 73.02 72.88 73.18 72.84 72.64 72.70 72.71 72.50 71.97 71.34 70.79 70.85 70.09 69.91 68.97 68.05 63.26 61.25 61.06 63.56 64.74 68.67 68.43 68.18 67.95 67.88 67.83
59.06 63.09 69.16 71.70 72.94 73.18 73.21 73.10 73.16 73.20 73.34 73.43 73.40 73.40 73.41 73.16 73.35 72.92 73.02 72.85 73.19 72.86 72.77 71.99 72.18 71.32 70.51 70.35 70.28 69.83 68.86 66.85 63.14 60.66 61.82 63.96 68.81 68.98 68.86 68.39 67.81 67.57 67.49
59.09 59.20 60.44 63.03 70.75 71.01 71.62 72.06 72.48 72.82 72.70 72.74 73.13 73.09 72.61 72.41 72.63 72.66 72.97 72.80 72.77 73.20 72.68 71.96 72.21 71.61 70.55 70.39 70.51 69.42 67.78 66.14 61.44 60.69 64.63 64.93 69.53 69.27 69.01 68.36 67.93 67.53 67.35
56.90 56.85 56.68 57.62 59.96 63.33 70.00 70.66 70.95 71.45 71.59 72.00 71.94 71.46 70.51 70.11 70.50 71.73 71.52 71.71 72.47 72.34 72.27 71.99 72.10 71.32 70.89 70.59 70.50 69.68 67.59 65.82 60.89 60.46 61.40 64.88 70.05 69.24 68.85 68.12 67.85 67.72 67.32
53.10 55.09 55.08 55.87 56.32 56.73 60.43 69.51 69.58 70.10 70.11 70.31 70.17 69.24 68.85 69.35 69.31 69.16 68.95 69.31 70.75 71.71 71.92 72.16 71.86 71.06 70.06 69.21 69.21 68.93 66.89 62.60 60.19 59.60 61.52 68.20 69.82 69.54 68.97 68.20 67.72 67.61 67.33
46.63 49.46 52.09 53.70 54.73 55.94 57.37 63.32 67.54 68.91 69.00 68.75 69.03 68.94 68.88 68.80 68.89 68.98 67.43 67.51 69.49 70.52 70.62 71.90 71.51 70.39 68.58 66.83 66.89 67.18 64.06 61.96 60.70 60.26 60.74 68.89 70.16 69.87 69.32 68.48 68.06 67.65 67.29
46.35 48.32 49.75 49.83 51.32 52.42 54.58 56.37 65.14 66.90 67.68 67.78 66.40 66.71 67.26 68.76 67.83 67.64 65.64 66.58 67.68 67.23 68.53 69.63 69.43 68.31 66.54 65.73 65.34 65.11 63.91 62.01 61.29 61.25 63.06 68.69 70.44 69.80 69.51 68.90 68.31 68.02 67.68
47.33 48.63 49.75 50.20 50.42 50.83 53.40 53.79 60.07 64.02 66.56 67.08 67.65 67.33 65.69 65.86 64.76 65.37 64.64 66.16 67.13 67.82 67.45 67.20 66.96 66.73 66.05 65.64 62.83 63.96 64.40 63.29 62.36 61.65 62.39 67.11 69.51 69.99 69.49 69.45 68.94 68.38 68.13
46.10 47.54 48.37 49.22 49.45 49.99 50.16 52.27 54.04 61.48 64.54 66.49 67.30 67.01 65.81 65.00 65.83 65.94 64.75 65.50 66.91 67.59 67.26 66.80 66.62 66.47 65.84 64.90 64.09 61.65 63.11 63.00 62.25 61.16 61.77 64.36 67.42 69.29 70.02 69.61 69.61 69.10 68.52
48.12 47.98 48.00 48.80 48.78 49.22 49.42 49.35 51.02 55.64 63.11 65.05 65.94 66.65 66.35 64.00 64.87 64.86 64.50 65.14 65.59 67.21 67.11 67.29 66.75 66.47 66.12 65.52 64.18 63.40 60.92 62.41 62.86 61.95 61.45 63.46 65.53 67.56 69.20 70.21 69.79 69.85 69.61
49.57 49.70 48.63 49.29 49.85 48.45 47.71 47.91 48.17 50.40 57.22 63.98 65.05 65.30 63.60 64.43 63.52 64.31 64.20 64.32 65.38 66.49 66.50 65.98 65.61 66.32 65.58 64.74 64.17 64.05 62.51 60.76 60.48 60.18 58.87 61.38 63.54 64.19 66.88 69.31 69.46 70.07 70.60
49.32 49.48 50.81 52.34 50.34 48.37 47.37 47.31 47.46 48.54 50.40 58.03 63.91 64.73 63.68 63.00 63.41 62.85 63.76 64.71 65.27 65.61 65.74 65.23 66.00 65.35 65.31 64.63 63.97 62.97 61.32 60.77 60.33 59.41 60.16 61.03 62.04 63.13 63.98 66.60 67.82 68.92 69.60
49.15 49.66 49.98 51.13 51.73 51.13 49.08 47.89 47.75 48.01 47.46 54.46 61.96 63.91 63.85 63.19 62.25 62.17 63.31 63.18 63.23 63.30 63.45 63.67 63.51 63.65 63.25 64.08 64.28 64.39 64.16 62.65 61.19 61.11 58.85 58.09 58.68 60.24 60.67 62.97 64.56 65.53 66.96
48.22 49.37 49.58 50.18 51.17 51.97 52.00 48.92 47.52 48.23 49.47 52.90 58.81 62.67 63.21 63.16 62.43 60.92 61.88 61.94 62.03 61.35 61.11 61.78 62.00 62.12 62.82 62.69 63.50 63.57 63.59 63.57 62.41 60.47 60.06 59.55 57.41 57.79 58.92 59.07 60.69 62.20 63.58
46.98 47.79 47.95 48.83 50.23 51.18 51.42 50.16 45.88 45.65 47.67 51.45 58.85 61.12 61.81 61.48 61.29 61.77 61.49 60.98 60.98 60.28 60.29 60.50 60.87 59.67 59.61 62.08 61.07 60.74 61.64 62.87 62.43 62.15 60.76 59.62 59.35 59.57 57.69 59.18 60.44 60.78 61.24
45.26 45.85 47.14 48.91 50.24 52.24 53.67 53.76 48.31 47.30 50.49 55.46 57.48 58.36 59.56 60.88 61.75 62.30 61.91 61.14 60.41 58.97 59.24 60.35 61.43 60.92 61.29 62.36 59.21 58.91 56.65 58.33 61.31 62.51 62.69 62.49 61.03 61.09 58.79 57.85 58.37 59.13 59.59
43.89 44.75 46.85 48.75 50.00 51.30 52.17 53.30 50.74 49.78 52.12 53.88 54.30 55.49 57.19 59.41 60.23 61.59 62.10 62.15 60.79 59.91 60.12 60.17 60.43 60.50 58.41 59.06 60.90 58.22 55.02 53.79 56.29 59.89 61.02 61.60 61.71 61.50 61.15 60.72 58.80 58.86 59.75
43.66 44.77 45.96 48.05 49.82 50.52 51.52 51.01 49.97 47.71 48.52 51.24 52.14 53.85 56.50 56.13 56.20 56.65 60.60 61.83 61.07 61.02 59.02 59.64 59.75 58.71 57.99 56.78 58.30 60.41 60.05 57.44 53.22 52.38 56.31 58.88 60.68 60.44 60.27 60.20 60.41 60.13 58.43
43.48 43.65 44.94 46.20 48.12 49.36 49.94 49.78 50.10 50.54 50.83 51.31 51.46 52.72 53.42 52.95 52.53 52.21 54.11 59.06 60.94 60.69 60.13 59.28 59.22 59.16 59.04 59.64 58.85 56.66 58.17 58.88 59.00 56.53 54.71 55.51 55.39 57.66 59.29 59.52 59.90 60.08 60.69
43.64 43.97 42.84 43.51 44.28 47.24 48.64 47.99 47.53 48.10 48.38 47.66 48.11 48.31 50.14 49.11 49.08 48.84 50.28 52.75 53.59 55.37 55.59 56.52 57.61 56.48 56.37 58.70 58.94 57.62 57.79 56.47 56.06 56.05 55.23 56.08 55.82 57.15 57.47 57.10 57.23 58.46 59.71